<?xml version="1.0" encoding="UTF-8" standalone="no" ?>
<gpx xmlns="http://www.topografix.com/GPX/1/1" xmlns:xsi="http://www.w3.org/2001/XMLSchema-instance" xsi:schemaLocation="http://www.topografix.com/GPX/1/1 http://www.topografix.com/GPX/1/1/gpx.xsd" version="1.1" creator="VisuGPX - https://www.visugpx.com">
  <metadata>
    <name>80. Back to Ginals 6ème étape</name>
  </metadata>
  <trk>
    <name><![CDATA[80. Back to Ginals 6ème étape_1]]></name>
    <trkseg>
      <trkpt lat="43.70107" lon="-0.26416">
        <ele>74.2</ele>
        <time>2023-07-01T05:21:15Z</time>
      </trkpt>
      <trkpt lat="43.70106" lon="-0.26413">
        <ele>74.2</ele>
        <time>2023-07-01T05:21:17Z</time>
      </trkpt>
      <trkpt lat="43.70107" lon="-0.26405">
        <ele>74</ele>
        <time>2023-07-01T05:21:25Z</time>
      </trkpt>
      <trkpt lat="43.70102" lon="-0.26405">
        <ele>74</ele>
        <time>2023-07-01T05:21:32Z</time>
      </trkpt>
      <trkpt lat="43.70089" lon="-0.26407">
        <ele>74</ele>
        <time>2023-07-01T05:21:42Z</time>
      </trkpt>
      <trkpt lat="43.7008" lon="-0.26409">
        <ele>73.8</ele>
        <time>2023-07-01T05:21:49Z</time>
      </trkpt>
      <trkpt lat="43.70074" lon="-0.2641">
        <ele>73.6</ele>
        <time>2023-07-01T05:21:54Z</time>
      </trkpt>
      <trkpt lat="43.7007" lon="-0.26427">
        <ele>73.8</ele>
        <time>2023-07-01T05:21:57Z</time>
      </trkpt>
      <trkpt lat="43.70059" lon="-0.26437">
        <ele>73.8</ele>
        <time>2023-07-01T05:22:05Z</time>
      </trkpt>
      <trkpt lat="43.70056" lon="-0.26437">
        <ele>74.2</ele>
        <time>2023-07-01T05:22:10Z</time>
      </trkpt>
      <trkpt lat="43.70056" lon="-0.26435">
        <ele>74.2</ele>
        <time>2023-07-01T05:22:12Z</time>
      </trkpt>
      <trkpt lat="43.70054" lon="-0.26444">
        <ele>74</ele>
        <time>2023-07-01T05:22:16Z</time>
      </trkpt>
      <trkpt lat="43.70055" lon="-0.26445">
        <ele>74</ele>
        <time>2023-07-01T05:22:17Z</time>
      </trkpt>
      <trkpt lat="43.70058" lon="-0.26449">
        <ele>74</ele>
        <time>2023-07-01T05:22:22Z</time>
      </trkpt>
      <trkpt lat="43.70062" lon="-0.26449">
        <ele>74</ele>
        <time>2023-07-01T05:22:28Z</time>
      </trkpt>
      <trkpt lat="43.7006" lon="-0.26444">
        <ele>73</ele>
        <time>2023-07-01T05:22:37Z</time>
      </trkpt>
      <trkpt lat="43.7006" lon="-0.26444">
        <ele>73</ele>
        <time>2023-07-01T05:22:38Z</time>
      </trkpt>
      <trkpt lat="43.70062" lon="-0.26444">
        <ele>73.2</ele>
        <time>2023-07-01T05:22:42Z</time>
      </trkpt>
      <trkpt lat="43.70069" lon="-0.26443">
        <ele>73.2</ele>
        <time>2023-07-01T05:22:45Z</time>
      </trkpt>
      <trkpt lat="43.70073" lon="-0.26441">
        <ele>73.2</ele>
        <time>2023-07-01T05:22:48Z</time>
      </trkpt>
      <trkpt lat="43.70074" lon="-0.2644">
        <ele>73.2</ele>
        <time>2023-07-01T05:22:49Z</time>
      </trkpt>
      <trkpt lat="43.70078" lon="-0.26437">
        <ele>73.2</ele>
        <time>2023-07-01T05:22:53Z</time>
      </trkpt>
      <trkpt lat="43.70079" lon="-0.26437">
        <ele>73.4</ele>
        <time>2023-07-01T05:22:54Z</time>
      </trkpt>
      <trkpt lat="43.70081" lon="-0.26436">
        <ele>73.4</ele>
        <time>2023-07-01T05:22:57Z</time>
      </trkpt>
      <trkpt lat="43.70082" lon="-0.26436">
        <ele>73.6</ele>
        <time>2023-07-01T05:22:58Z</time>
      </trkpt>
      <trkpt lat="43.70083" lon="-0.26436">
        <ele>73.6</ele>
        <time>2023-07-01T05:23:00Z</time>
      </trkpt>
      <trkpt lat="43.70096" lon="-0.26436">
        <ele>73.8</ele>
        <time>2023-07-01T05:23:03Z</time>
      </trkpt>
      <trkpt lat="43.70097" lon="-0.26435">
        <ele>73.8</ele>
        <time>2023-07-01T05:23:05Z</time>
      </trkpt>
      <trkpt lat="43.70102" lon="-0.26433">
        <ele>74</ele>
        <time>2023-07-01T05:23:12Z</time>
      </trkpt>
      <trkpt lat="43.70099" lon="-0.26418">
        <ele>73.4</ele>
        <time>2023-07-01T05:23:20Z</time>
      </trkpt>
      <trkpt lat="43.70114" lon="-0.2642">
        <ele>73</ele>
        <time>2023-07-01T05:23:25Z</time>
      </trkpt>
      <trkpt lat="43.70115" lon="-0.2642">
        <ele>73</ele>
        <time>2023-07-01T05:23:26Z</time>
      </trkpt>
      <trkpt lat="43.70114" lon="-0.26419">
        <ele>72.8</ele>
        <time>2023-07-01T05:23:29Z</time>
      </trkpt>
      <trkpt lat="43.70113" lon="-0.26418">
        <ele>72.8</ele>
        <time>2023-07-01T05:23:30Z</time>
      </trkpt>
      <trkpt lat="43.70112" lon="-0.26414">
        <ele>72.6</ele>
        <time>2023-07-01T05:23:34Z</time>
      </trkpt>
      <trkpt lat="43.70112" lon="-0.26412">
        <ele>72.4</ele>
        <time>2023-07-01T05:23:37Z</time>
      </trkpt>
      <trkpt lat="43.70112" lon="-0.26411">
        <ele>72.4</ele>
        <time>2023-07-01T05:23:38Z</time>
      </trkpt>
      <trkpt lat="43.70112" lon="-0.26409">
        <ele>72.4</ele>
        <time>2023-07-01T05:23:41Z</time>
      </trkpt>
      <trkpt lat="43.70114" lon="-0.264">
        <ele>72.6</ele>
        <time>2023-07-01T05:23:49Z</time>
      </trkpt>
      <trkpt lat="43.70133" lon="-0.26401">
        <ele>72.4</ele>
        <time>2023-07-01T05:23:56Z</time>
      </trkpt>
      <trkpt lat="43.70134" lon="-0.264">
        <ele>72.2</ele>
        <time>2023-07-01T05:23:57Z</time>
      </trkpt>
      <trkpt lat="43.70146" lon="-0.26396">
        <ele>72.2</ele>
        <time>2023-07-01T05:24:00Z</time>
      </trkpt>
      <trkpt lat="43.70149" lon="-0.26395">
        <ele>72.2</ele>
        <time>2023-07-01T05:24:05Z</time>
      </trkpt>
      <trkpt lat="43.70148" lon="-0.26392">
        <ele>72.4</ele>
        <time>2023-07-01T05:24:12Z</time>
      </trkpt>
      <trkpt lat="43.7015" lon="-0.26385">
        <ele>72.4</ele>
        <time>2023-07-01T05:24:20Z</time>
      </trkpt>
      <trkpt lat="43.70152" lon="-0.26388">
        <ele>72.2</ele>
        <time>2023-07-01T05:24:23Z</time>
      </trkpt>
      <trkpt lat="43.70179" lon="-0.26373">
        <ele>72.2</ele>
        <time>2023-07-01T05:24:28Z</time>
      </trkpt>
      <trkpt lat="43.7018" lon="-0.26372">
        <ele>72.2</ele>
        <time>2023-07-01T05:24:29Z</time>
      </trkpt>
      <trkpt lat="43.70177" lon="-0.26369">
        <ele>72.4</ele>
        <time>2023-07-01T05:24:35Z</time>
      </trkpt>
      <trkpt lat="43.70176" lon="-0.26367">
        <ele>72</ele>
        <time>2023-07-01T05:24:38Z</time>
      </trkpt>
      <trkpt lat="43.70178" lon="-0.26366">
        <ele>71.6</ele>
        <time>2023-07-01T05:24:42Z</time>
      </trkpt>
      <trkpt lat="43.70184" lon="-0.26365">
        <ele>71.6</ele>
        <time>2023-07-01T05:24:48Z</time>
      </trkpt>
      <trkpt lat="43.70186" lon="-0.26364">
        <ele>71.6</ele>
        <time>2023-07-01T05:24:49Z</time>
      </trkpt>
      <trkpt lat="43.70194" lon="-0.26366">
        <ele>71.4</ele>
        <time>2023-07-01T05:24:55Z</time>
      </trkpt>
      <trkpt lat="43.70194" lon="-0.26366">
        <ele>71.4</ele>
        <time>2023-07-01T05:24:56Z</time>
      </trkpt>
      <trkpt lat="43.70194" lon="-0.26367">
        <ele>71.4</ele>
        <time>2023-07-01T05:25:01Z</time>
      </trkpt>
      <trkpt lat="43.702" lon="-0.26369">
        <ele>71</ele>
        <time>2023-07-01T05:25:07Z</time>
      </trkpt>
      <trkpt lat="43.70208" lon="-0.26367">
        <ele>71</ele>
        <time>2023-07-01T05:25:10Z</time>
      </trkpt>
      <trkpt lat="43.70213" lon="-0.26366">
        <ele>71.2</ele>
        <time>2023-07-01T05:25:13Z</time>
      </trkpt>
      <trkpt lat="43.7022" lon="-0.26362">
        <ele>71.2</ele>
        <time>2023-07-01T05:25:17Z</time>
      </trkpt>
      <trkpt lat="43.70224" lon="-0.26358">
        <ele>71.2</ele>
        <time>2023-07-01T05:25:19Z</time>
      </trkpt>
      <trkpt lat="43.70233" lon="-0.26352">
        <ele>71</ele>
        <time>2023-07-01T05:25:26Z</time>
      </trkpt>
      <trkpt lat="43.70237" lon="-0.26349">
        <ele>71</ele>
        <time>2023-07-01T05:25:29Z</time>
      </trkpt>
      <trkpt lat="43.70249" lon="-0.26337">
        <ele>70.8</ele>
        <time>2023-07-01T05:25:34Z</time>
      </trkpt>
      <trkpt lat="43.70254" lon="-0.26327">
        <ele>70.8</ele>
        <time>2023-07-01T05:25:38Z</time>
      </trkpt>
      <trkpt lat="43.70256" lon="-0.26322">
        <ele>70.6</ele>
        <time>2023-07-01T05:25:41Z</time>
      </trkpt>
      <trkpt lat="43.70256" lon="-0.26309">
        <ele>70.2</ele>
        <time>2023-07-01T05:25:48Z</time>
      </trkpt>
      <trkpt lat="43.70256" lon="-0.263">
        <ele>70.2</ele>
        <time>2023-07-01T05:25:53Z</time>
      </trkpt>
      <trkpt lat="43.70256" lon="-0.26294">
        <ele>70.4</ele>
        <time>2023-07-01T05:25:56Z</time>
      </trkpt>
      <trkpt lat="43.70254" lon="-0.26282">
        <ele>71.2</ele>
        <time>2023-07-01T05:26:03Z</time>
      </trkpt>
      <trkpt lat="43.70252" lon="-0.26277">
        <ele>71.4</ele>
        <time>2023-07-01T05:26:06Z</time>
      </trkpt>
      <trkpt lat="43.70252" lon="-0.26276">
        <ele>71.4</ele>
        <time>2023-07-01T05:26:07Z</time>
      </trkpt>
      <trkpt lat="43.70251" lon="-0.26277">
        <ele>71.4</ele>
        <time>2023-07-01T05:26:08Z</time>
      </trkpt>
      <trkpt lat="43.70251" lon="-0.26278">
        <ele>71</ele>
        <time>2023-07-01T05:26:09Z</time>
      </trkpt>
      <trkpt lat="43.70251" lon="-0.26279">
        <ele>70.8</ele>
        <time>2023-07-01T05:26:10Z</time>
      </trkpt>
      <trkpt lat="43.70251" lon="-0.2628">
        <ele>70.8</ele>
        <time>2023-07-01T05:26:11Z</time>
      </trkpt>
      <trkpt lat="43.7025" lon="-0.26281">
        <ele>70.8</ele>
        <time>2023-07-01T05:26:12Z</time>
      </trkpt>
      <trkpt lat="43.70247" lon="-0.26281">
        <ele>70.6</ele>
        <time>2023-07-01T05:26:14Z</time>
      </trkpt>
      <trkpt lat="43.70246" lon="-0.2628">
        <ele>70.6</ele>
        <time>2023-07-01T05:26:15Z</time>
      </trkpt>
      <trkpt lat="43.70246" lon="-0.26279">
        <ele>70.8</ele>
        <time>2023-07-01T05:26:16Z</time>
      </trkpt>
      <trkpt lat="43.70246" lon="-0.26272">
        <ele>71</ele>
        <time>2023-07-01T05:26:20Z</time>
      </trkpt>
      <trkpt lat="43.70246" lon="-0.2627">
        <ele>71</ele>
        <time>2023-07-01T05:26:21Z</time>
      </trkpt>
      <trkpt lat="43.70246" lon="-0.26266">
        <ele>71</ele>
        <time>2023-07-01T05:26:23Z</time>
      </trkpt>
      <trkpt lat="43.70249" lon="-0.26254">
        <ele>71.4</ele>
        <time>2023-07-01T05:26:29Z</time>
      </trkpt>
      <trkpt lat="43.7025" lon="-0.26252">
        <ele>71.4</ele>
        <time>2023-07-01T05:26:30Z</time>
      </trkpt>
      <trkpt lat="43.7025" lon="-0.26251">
        <ele>71.6</ele>
        <time>2023-07-01T05:26:31Z</time>
      </trkpt>
      <trkpt lat="43.70258" lon="-0.26244">
        <ele>71.4</ele>
        <time>2023-07-01T05:26:34Z</time>
      </trkpt>
      <trkpt lat="43.70254" lon="-0.26244">
        <ele>71.2</ele>
        <time>2023-07-01T05:26:36Z</time>
      </trkpt>
      <trkpt lat="43.70249" lon="-0.26245">
        <ele>71.2</ele>
        <time>2023-07-01T05:26:38Z</time>
      </trkpt>
      <trkpt lat="43.70231" lon="-0.26241">
        <ele>71.8</ele>
        <time>2023-07-01T05:28:45Z</time>
      </trkpt>
      <trkpt lat="43.70232" lon="-0.26241">
        <ele>71.8</ele>
        <time>2023-07-01T05:28:46Z</time>
      </trkpt>
      <trkpt lat="43.70233" lon="-0.26241">
        <ele>72</ele>
        <time>2023-07-01T05:28:49Z</time>
      </trkpt>
      <trkpt lat="43.70237" lon="-0.26247">
        <ele>72.2</ele>
        <time>2023-07-01T05:28:52Z</time>
      </trkpt>
      <trkpt lat="43.70236" lon="-0.26245">
        <ele>72.2</ele>
        <time>2023-07-01T05:28:56Z</time>
      </trkpt>
      <trkpt lat="43.70238" lon="-0.2624">
        <ele>72.4</ele>
        <time>2023-07-01T05:28:59Z</time>
      </trkpt>
      <trkpt lat="43.7024" lon="-0.26234">
        <ele>72.4</ele>
        <time>2023-07-01T05:29:03Z</time>
      </trkpt>
      <trkpt lat="43.7024" lon="-0.26233">
        <ele>72.2</ele>
        <time>2023-07-01T05:29:04Z</time>
      </trkpt>
      <trkpt lat="43.7024" lon="-0.26231">
        <ele>72.2</ele>
        <time>2023-07-01T05:29:05Z</time>
      </trkpt>
      <trkpt lat="43.70241" lon="-0.26229">
        <ele>72.4</ele>
        <time>2023-07-01T05:29:07Z</time>
      </trkpt>
      <trkpt lat="43.70244" lon="-0.26225">
        <ele>72.6</ele>
        <time>2023-07-01T05:29:10Z</time>
      </trkpt>
      <trkpt lat="43.70255" lon="-0.26219">
        <ele>72.8</ele>
        <time>2023-07-01T05:29:18Z</time>
      </trkpt>
      <trkpt lat="43.70263" lon="-0.26214">
        <ele>72.8</ele>
        <time>2023-07-01T05:29:24Z</time>
      </trkpt>
      <trkpt lat="43.70271" lon="-0.26213">
        <ele>72.6</ele>
        <time>2023-07-01T05:29:31Z</time>
      </trkpt>
      <trkpt lat="43.70276" lon="-0.26212">
        <ele>72.6</ele>
        <time>2023-07-01T05:29:37Z</time>
      </trkpt>
      <trkpt lat="43.7028" lon="-0.26212">
        <ele>72.4</ele>
        <time>2023-07-01T05:29:41Z</time>
      </trkpt>
      <trkpt lat="43.70282" lon="-0.2621">
        <ele>72.6</ele>
        <time>2023-07-01T05:29:44Z</time>
      </trkpt>
      <trkpt lat="43.70284" lon="-0.2621">
        <ele>72.8</ele>
        <time>2023-07-01T05:29:46Z</time>
      </trkpt>
      <trkpt lat="43.70286" lon="-0.26209">
        <ele>72.8</ele>
        <time>2023-07-01T05:29:47Z</time>
      </trkpt>
      <trkpt lat="43.70291" lon="-0.26208">
        <ele>73</ele>
        <time>2023-07-01T05:29:50Z</time>
      </trkpt>
      <trkpt lat="43.70297" lon="-0.26206">
        <ele>73.2</ele>
        <time>2023-07-01T05:29:54Z</time>
      </trkpt>
      <trkpt lat="43.703" lon="-0.26206">
        <ele>73</ele>
        <time>2023-07-01T05:29:56Z</time>
      </trkpt>
      <trkpt lat="43.70303" lon="-0.26204">
        <ele>73</ele>
        <time>2023-07-01T05:29:58Z</time>
      </trkpt>
      <trkpt lat="43.7031" lon="-0.26201">
        <ele>72.8</ele>
        <time>2023-07-01T05:30:05Z</time>
      </trkpt>
      <trkpt lat="43.70313" lon="-0.262">
        <ele>72.8</ele>
        <time>2023-07-01T05:30:08Z</time>
      </trkpt>
      <trkpt lat="43.70318" lon="-0.26199">
        <ele>73.2</ele>
        <time>2023-07-01T05:30:11Z</time>
      </trkpt>
      <trkpt lat="43.70321" lon="-0.26198">
        <ele>73.4</ele>
        <time>2023-07-01T05:30:13Z</time>
      </trkpt>
      <trkpt lat="43.70325" lon="-0.26199">
        <ele>73.4</ele>
        <time>2023-07-01T05:30:16Z</time>
      </trkpt>
      <trkpt lat="43.70328" lon="-0.26198">
        <ele>73.4</ele>
        <time>2023-07-01T05:30:18Z</time>
      </trkpt>
      <trkpt lat="43.7033" lon="-0.26198">
        <ele>73.4</ele>
        <time>2023-07-01T05:30:19Z</time>
      </trkpt>
      <trkpt lat="43.70338" lon="-0.26196">
        <ele>73.6</ele>
        <time>2023-07-01T05:30:25Z</time>
      </trkpt>
      <trkpt lat="43.70341" lon="-0.26195">
        <ele>73.6</ele>
        <time>2023-07-01T05:30:28Z</time>
      </trkpt>
      <trkpt lat="43.70347" lon="-0.26194">
        <ele>73.6</ele>
        <time>2023-07-01T05:30:32Z</time>
      </trkpt>
      <trkpt lat="43.70348" lon="-0.26193">
        <ele>73.6</ele>
        <time>2023-07-01T05:30:33Z</time>
      </trkpt>
      <trkpt lat="43.70358" lon="-0.2619">
        <ele>73.4</ele>
        <time>2023-07-01T05:30:41Z</time>
      </trkpt>
      <trkpt lat="43.70368" lon="-0.26186">
        <ele>73.6</ele>
        <time>2023-07-01T05:30:50Z</time>
      </trkpt>
      <trkpt lat="43.7037" lon="-0.26186">
        <ele>73.4</ele>
        <time>2023-07-01T05:30:52Z</time>
      </trkpt>
      <trkpt lat="43.70374" lon="-0.26185">
        <ele>73</ele>
        <time>2023-07-01T05:30:58Z</time>
      </trkpt>
      <trkpt lat="43.70376" lon="-0.26184">
        <ele>73.2</ele>
        <time>2023-07-01T05:30:59Z</time>
      </trkpt>
      <trkpt lat="43.70379" lon="-0.26184">
        <ele>73</ele>
        <time>2023-07-01T05:31:02Z</time>
      </trkpt>
      <trkpt lat="43.70383" lon="-0.26182">
        <ele>72.8</ele>
        <time>2023-07-01T05:31:05Z</time>
      </trkpt>
      <trkpt lat="43.7039" lon="-0.26181">
        <ele>72.8</ele>
        <time>2023-07-01T05:31:10Z</time>
      </trkpt>
      <trkpt lat="43.70391" lon="-0.26181">
        <ele>72.6</ele>
        <time>2023-07-01T05:31:11Z</time>
      </trkpt>
      <trkpt lat="43.70399" lon="-0.26179">
        <ele>72.4</ele>
        <time>2023-07-01T05:31:18Z</time>
      </trkpt>
      <trkpt lat="43.70405" lon="-0.26178">
        <ele>72.2</ele>
        <time>2023-07-01T05:31:24Z</time>
      </trkpt>
      <trkpt lat="43.70409" lon="-0.26177">
        <ele>72</ele>
        <time>2023-07-01T05:31:27Z</time>
      </trkpt>
      <trkpt lat="43.70414" lon="-0.26175">
        <ele>71.8</ele>
        <time>2023-07-01T05:31:30Z</time>
      </trkpt>
      <trkpt lat="43.70417" lon="-0.26174">
        <ele>71.6</ele>
        <time>2023-07-01T05:31:32Z</time>
      </trkpt>
      <trkpt lat="43.70422" lon="-0.26174">
        <ele>71</ele>
        <time>2023-07-01T05:31:36Z</time>
      </trkpt>
      <trkpt lat="43.70427" lon="-0.26171">
        <ele>70.4</ele>
        <time>2023-07-01T05:31:40Z</time>
      </trkpt>
      <trkpt lat="43.70432" lon="-0.26169">
        <ele>70</ele>
        <time>2023-07-01T05:31:43Z</time>
      </trkpt>
      <trkpt lat="43.70434" lon="-0.26167">
        <ele>69.8</ele>
        <time>2023-07-01T05:31:45Z</time>
      </trkpt>
      <trkpt lat="43.70433" lon="-0.26164">
        <ele>69.4</ele>
        <time>2023-07-01T05:31:47Z</time>
      </trkpt>
      <trkpt lat="43.70434" lon="-0.26158">
        <ele>68.8</ele>
        <time>2023-07-01T05:31:50Z</time>
      </trkpt>
      <trkpt lat="43.70433" lon="-0.26147">
        <ele>68.8</ele>
        <time>2023-07-01T05:31:56Z</time>
      </trkpt>
      <trkpt lat="43.70432" lon="-0.26143">
        <ele>68.8</ele>
        <time>2023-07-01T05:31:58Z</time>
      </trkpt>
      <trkpt lat="43.70433" lon="-0.26133">
        <ele>69</ele>
        <time>2023-07-01T05:32:04Z</time>
      </trkpt>
      <trkpt lat="43.70432" lon="-0.26125">
        <ele>69</ele>
        <time>2023-07-01T05:32:08Z</time>
      </trkpt>
      <trkpt lat="43.70432" lon="-0.26117">
        <ele>69</ele>
        <time>2023-07-01T05:32:12Z</time>
      </trkpt>
      <trkpt lat="43.70429" lon="-0.26103">
        <ele>69</ele>
        <time>2023-07-01T05:32:20Z</time>
      </trkpt>
      <trkpt lat="43.70422" lon="-0.26091">
        <ele>69.2</ele>
        <time>2023-07-01T05:32:28Z</time>
      </trkpt>
      <trkpt lat="43.70421" lon="-0.2609">
        <ele>69.4</ele>
        <time>2023-07-01T05:32:29Z</time>
      </trkpt>
      <trkpt lat="43.70421" lon="-0.26088">
        <ele>69.4</ele>
        <time>2023-07-01T05:32:30Z</time>
      </trkpt>
      <trkpt lat="43.70417" lon="-0.26075">
        <ele>69.8</ele>
        <time>2023-07-01T05:32:38Z</time>
      </trkpt>
      <trkpt lat="43.70416" lon="-0.26074">
        <ele>69.8</ele>
        <time>2023-07-01T05:32:39Z</time>
      </trkpt>
      <trkpt lat="43.70415" lon="-0.26064">
        <ele>70.2</ele>
        <time>2023-07-01T05:32:46Z</time>
      </trkpt>
      <trkpt lat="43.70416" lon="-0.26055">
        <ele>70.4</ele>
        <time>2023-07-01T05:32:51Z</time>
      </trkpt>
      <trkpt lat="43.70418" lon="-0.26051">
        <ele>70.4</ele>
        <time>2023-07-01T05:32:53Z</time>
      </trkpt>
      <trkpt lat="43.70421" lon="-0.26047">
        <ele>70.4</ele>
        <time>2023-07-01T05:32:56Z</time>
      </trkpt>
      <trkpt lat="43.70424" lon="-0.2604">
        <ele>70.4</ele>
        <time>2023-07-01T05:33:01Z</time>
      </trkpt>
      <trkpt lat="43.70429" lon="-0.26032">
        <ele>70.6</ele>
        <time>2023-07-01T05:33:07Z</time>
      </trkpt>
      <trkpt lat="43.70437" lon="-0.26022">
        <ele>70.4</ele>
        <time>2023-07-01T05:33:15Z</time>
      </trkpt>
      <trkpt lat="43.7044" lon="-0.26019">
        <ele>70.4</ele>
        <time>2023-07-01T05:33:18Z</time>
      </trkpt>
      <trkpt lat="43.70445" lon="-0.26012">
        <ele>70.6</ele>
        <time>2023-07-01T05:33:22Z</time>
      </trkpt>
      <trkpt lat="43.70446" lon="-0.2601">
        <ele>70.4</ele>
        <time>2023-07-01T05:33:25Z</time>
      </trkpt>
      <trkpt lat="43.70447" lon="-0.26005">
        <ele>70.2</ele>
        <time>2023-07-01T05:33:28Z</time>
      </trkpt>
      <trkpt lat="43.70452" lon="-0.25996">
        <ele>70.2</ele>
        <time>2023-07-01T05:33:34Z</time>
      </trkpt>
      <trkpt lat="43.70452" lon="-0.25993">
        <ele>70.2</ele>
        <time>2023-07-01T05:33:35Z</time>
      </trkpt>
      <trkpt lat="43.70459" lon="-0.25982">
        <ele>70.4</ele>
        <time>2023-07-01T05:33:40Z</time>
      </trkpt>
      <trkpt lat="43.70459" lon="-0.2598">
        <ele>70.4</ele>
        <time>2023-07-01T05:33:43Z</time>
      </trkpt>
      <trkpt lat="43.70459" lon="-0.25967">
        <ele>70.8</ele>
        <time>2023-07-01T05:33:50Z</time>
      </trkpt>
      <trkpt lat="43.70459" lon="-0.25959">
        <ele>70.6</ele>
        <time>2023-07-01T05:33:53Z</time>
      </trkpt>
      <trkpt lat="43.70459" lon="-0.25955">
        <ele>70.4</ele>
        <time>2023-07-01T05:33:56Z</time>
      </trkpt>
      <trkpt lat="43.70457" lon="-0.25952">
        <ele>70.4</ele>
        <time>2023-07-01T05:33:57Z</time>
      </trkpt>
      <trkpt lat="43.70457" lon="-0.25946">
        <ele>70.4</ele>
        <time>2023-07-01T05:34:01Z</time>
      </trkpt>
      <trkpt lat="43.70456" lon="-0.25938">
        <ele>70.6</ele>
        <time>2023-07-01T05:34:05Z</time>
      </trkpt>
      <trkpt lat="43.70456" lon="-0.25932">
        <ele>70.4</ele>
        <time>2023-07-01T05:34:08Z</time>
      </trkpt>
      <trkpt lat="43.70455" lon="-0.25923">
        <ele>70.6</ele>
        <time>2023-07-01T05:34:15Z</time>
      </trkpt>
      <trkpt lat="43.70453" lon="-0.25908">
        <ele>70.2</ele>
        <time>2023-07-01T05:34:24Z</time>
      </trkpt>
      <trkpt lat="43.7045" lon="-0.25898">
        <ele>70.6</ele>
        <time>2023-07-01T05:34:31Z</time>
      </trkpt>
      <trkpt lat="43.70448" lon="-0.25886">
        <ele>70.6</ele>
        <time>2023-07-01T05:34:38Z</time>
      </trkpt>
      <trkpt lat="43.70449" lon="-0.25878">
        <ele>70.6</ele>
        <time>2023-07-01T05:34:42Z</time>
      </trkpt>
      <trkpt lat="43.7045" lon="-0.25874">
        <ele>70.6</ele>
        <time>2023-07-01T05:34:45Z</time>
      </trkpt>
      <trkpt lat="43.70453" lon="-0.25863">
        <ele>70.6</ele>
        <time>2023-07-01T05:34:50Z</time>
      </trkpt>
      <trkpt lat="43.70454" lon="-0.25855">
        <ele>70.6</ele>
        <time>2023-07-01T05:34:54Z</time>
      </trkpt>
      <trkpt lat="43.70455" lon="-0.25852">
        <ele>70.6</ele>
        <time>2023-07-01T05:34:56Z</time>
      </trkpt>
      <trkpt lat="43.70454" lon="-0.25848">
        <ele>70.6</ele>
        <time>2023-07-01T05:34:59Z</time>
      </trkpt>
      <trkpt lat="43.70454" lon="-0.25839">
        <ele>70.6</ele>
        <time>2023-07-01T05:35:05Z</time>
      </trkpt>
      <trkpt lat="43.70453" lon="-0.25833">
        <ele>70.4</ele>
        <time>2023-07-01T05:35:09Z</time>
      </trkpt>
      <trkpt lat="43.70451" lon="-0.25827">
        <ele>70.4</ele>
        <time>2023-07-01T05:35:12Z</time>
      </trkpt>
      <trkpt lat="43.7045" lon="-0.25824">
        <ele>70.4</ele>
        <time>2023-07-01T05:35:14Z</time>
      </trkpt>
      <trkpt lat="43.70446" lon="-0.25814">
        <ele>70.4</ele>
        <time>2023-07-01T05:35:20Z</time>
      </trkpt>
      <trkpt lat="43.70445" lon="-0.25812">
        <ele>70.4</ele>
        <time>2023-07-01T05:35:21Z</time>
      </trkpt>
      <trkpt lat="43.70444" lon="-0.2581">
        <ele>70.4</ele>
        <time>2023-07-01T05:35:22Z</time>
      </trkpt>
      <trkpt lat="43.70446" lon="-0.25802">
        <ele>70.4</ele>
        <time>2023-07-01T05:35:27Z</time>
      </trkpt>
      <trkpt lat="43.70451" lon="-0.25796">
        <ele>70.8</ele>
        <time>2023-07-01T05:35:30Z</time>
      </trkpt>
      <trkpt lat="43.70451" lon="-0.25794">
        <ele>71</ele>
        <time>2023-07-01T05:35:31Z</time>
      </trkpt>
      <trkpt lat="43.70452" lon="-0.25789">
        <ele>71.2</ele>
        <time>2023-07-01T05:35:34Z</time>
      </trkpt>
      <trkpt lat="43.70454" lon="-0.25774">
        <ele>70.8</ele>
        <time>2023-07-01T05:35:42Z</time>
      </trkpt>
      <trkpt lat="43.70453" lon="-0.25771">
        <ele>70.8</ele>
        <time>2023-07-01T05:35:44Z</time>
      </trkpt>
      <trkpt lat="43.70452" lon="-0.25767">
        <ele>70.8</ele>
        <time>2023-07-01T05:35:46Z</time>
      </trkpt>
      <trkpt lat="43.70451" lon="-0.25765">
        <ele>70.6</ele>
        <time>2023-07-01T05:35:47Z</time>
      </trkpt>
      <trkpt lat="43.70451" lon="-0.25763">
        <ele>70.6</ele>
        <time>2023-07-01T05:35:48Z</time>
      </trkpt>
      <trkpt lat="43.70451" lon="-0.25754">
        <ele>70.8</ele>
        <time>2023-07-01T05:35:53Z</time>
      </trkpt>
      <trkpt lat="43.7045" lon="-0.2575">
        <ele>70.8</ele>
        <time>2023-07-01T05:35:55Z</time>
      </trkpt>
      <trkpt lat="43.70449" lon="-0.25744">
        <ele>70.8</ele>
        <time>2023-07-01T05:35:58Z</time>
      </trkpt>
      <trkpt lat="43.70449" lon="-0.2574">
        <ele>70.8</ele>
        <time>2023-07-01T05:36:01Z</time>
      </trkpt>
      <trkpt lat="43.70447" lon="-0.25736">
        <ele>70.8</ele>
        <time>2023-07-01T05:36:02Z</time>
      </trkpt>
      <trkpt lat="43.70443" lon="-0.25731">
        <ele>70.8</ele>
        <time>2023-07-01T05:36:05Z</time>
      </trkpt>
      <trkpt lat="43.70442" lon="-0.25724">
        <ele>70.6</ele>
        <time>2023-07-01T05:36:09Z</time>
      </trkpt>
      <trkpt lat="43.7044" lon="-0.25718">
        <ele>70.6</ele>
        <time>2023-07-01T05:36:12Z</time>
      </trkpt>
      <trkpt lat="43.7044" lon="-0.25715">
        <ele>70.6</ele>
        <time>2023-07-01T05:36:14Z</time>
      </trkpt>
      <trkpt lat="43.7044" lon="-0.25711">
        <ele>70.4</ele>
        <time>2023-07-01T05:36:16Z</time>
      </trkpt>
      <trkpt lat="43.7044" lon="-0.25707">
        <ele>70.2</ele>
        <time>2023-07-01T05:36:19Z</time>
      </trkpt>
      <trkpt lat="43.7044" lon="-0.257">
        <ele>70.4</ele>
        <time>2023-07-01T05:36:23Z</time>
      </trkpt>
      <trkpt lat="43.7044" lon="-0.25683">
        <ele>70.4</ele>
        <time>2023-07-01T05:36:32Z</time>
      </trkpt>
      <trkpt lat="43.7044" lon="-0.25677">
        <ele>70.6</ele>
        <time>2023-07-01T05:36:35Z</time>
      </trkpt>
      <trkpt lat="43.70439" lon="-0.25667">
        <ele>70.8</ele>
        <time>2023-07-01T05:36:41Z</time>
      </trkpt>
      <trkpt lat="43.70437" lon="-0.25659">
        <ele>70.6</ele>
        <time>2023-07-01T05:36:45Z</time>
      </trkpt>
      <trkpt lat="43.70437" lon="-0.25654">
        <ele>70.6</ele>
        <time>2023-07-01T05:36:48Z</time>
      </trkpt>
      <trkpt lat="43.70436" lon="-0.25652">
        <ele>70.6</ele>
        <time>2023-07-01T05:36:49Z</time>
      </trkpt>
      <trkpt lat="43.70438" lon="-0.2565">
        <ele>70.6</ele>
        <time>2023-07-01T05:36:50Z</time>
      </trkpt>
      <trkpt lat="43.70439" lon="-0.25648">
        <ele>70.6</ele>
        <time>2023-07-01T05:36:51Z</time>
      </trkpt>
      <trkpt lat="43.70439" lon="-0.2564">
        <ele>70.2</ele>
        <time>2023-07-01T05:36:55Z</time>
      </trkpt>
      <trkpt lat="43.70439" lon="-0.25634">
        <ele>70.4</ele>
        <time>2023-07-01T05:36:58Z</time>
      </trkpt>
      <trkpt lat="43.7044" lon="-0.25619">
        <ele>70.6</ele>
        <time>2023-07-01T05:37:06Z</time>
      </trkpt>
      <trkpt lat="43.7044" lon="-0.25615">
        <ele>70.6</ele>
        <time>2023-07-01T05:37:08Z</time>
      </trkpt>
      <trkpt lat="43.70439" lon="-0.25606">
        <ele>70.6</ele>
        <time>2023-07-01T05:37:13Z</time>
      </trkpt>
      <trkpt lat="43.70439" lon="-0.25601">
        <ele>70.4</ele>
        <time>2023-07-01T05:37:16Z</time>
      </trkpt>
      <trkpt lat="43.70438" lon="-0.25597">
        <ele>70.2</ele>
        <time>2023-07-01T05:37:18Z</time>
      </trkpt>
      <trkpt lat="43.70438" lon="-0.25595">
        <ele>70</ele>
        <time>2023-07-01T05:37:19Z</time>
      </trkpt>
      <trkpt lat="43.70438" lon="-0.2559">
        <ele>70.2</ele>
        <time>2023-07-01T05:37:22Z</time>
      </trkpt>
      <trkpt lat="43.70436" lon="-0.25576">
        <ele>70.4</ele>
        <time>2023-07-01T05:37:29Z</time>
      </trkpt>
      <trkpt lat="43.70436" lon="-0.25569">
        <ele>70.2</ele>
        <time>2023-07-01T05:37:32Z</time>
      </trkpt>
      <trkpt lat="43.70435" lon="-0.2556">
        <ele>70.2</ele>
        <time>2023-07-01T05:37:38Z</time>
      </trkpt>
      <trkpt lat="43.70434" lon="-0.25545">
        <ele>70.2</ele>
        <time>2023-07-01T05:37:47Z</time>
      </trkpt>
      <trkpt lat="43.70434" lon="-0.25544">
        <ele>70.2</ele>
        <time>2023-07-01T05:37:48Z</time>
      </trkpt>
      <trkpt lat="43.70433" lon="-0.25531">
        <ele>70</ele>
        <time>2023-07-01T05:37:55Z</time>
      </trkpt>
      <trkpt lat="43.70432" lon="-0.25519">
        <ele>70.2</ele>
        <time>2023-07-01T05:38:01Z</time>
      </trkpt>
      <trkpt lat="43.70432" lon="-0.25515">
        <ele>70.4</ele>
        <time>2023-07-01T05:38:03Z</time>
      </trkpt>
      <trkpt lat="43.70431" lon="-0.25506">
        <ele>70.2</ele>
        <time>2023-07-01T05:38:09Z</time>
      </trkpt>
      <trkpt lat="43.7043" lon="-0.25499">
        <ele>70.2</ele>
        <time>2023-07-01T05:38:13Z</time>
      </trkpt>
      <trkpt lat="43.7043" lon="-0.25494">
        <ele>70</ele>
        <time>2023-07-01T05:38:16Z</time>
      </trkpt>
      <trkpt lat="43.7043" lon="-0.2549">
        <ele>70</ele>
        <time>2023-07-01T05:38:18Z</time>
      </trkpt>
      <trkpt lat="43.70431" lon="-0.2548">
        <ele>70</ele>
        <time>2023-07-01T05:38:24Z</time>
      </trkpt>
      <trkpt lat="43.70431" lon="-0.25479">
        <ele>70</ele>
        <time>2023-07-01T05:38:25Z</time>
      </trkpt>
      <trkpt lat="43.70431" lon="-0.25477">
        <ele>70</ele>
        <time>2023-07-01T05:38:26Z</time>
      </trkpt>
      <trkpt lat="43.7043" lon="-0.25467">
        <ele>70.2</ele>
        <time>2023-07-01T05:38:31Z</time>
      </trkpt>
      <trkpt lat="43.70429" lon="-0.25458">
        <ele>70.2</ele>
        <time>2023-07-01T05:38:36Z</time>
      </trkpt>
      <trkpt lat="43.7043" lon="-0.25439">
        <ele>70.4</ele>
        <time>2023-07-01T05:38:46Z</time>
      </trkpt>
      <trkpt lat="43.70431" lon="-0.25433">
        <ele>70.4</ele>
        <time>2023-07-01T05:38:49Z</time>
      </trkpt>
      <trkpt lat="43.7043" lon="-0.25429">
        <ele>70.4</ele>
        <time>2023-07-01T05:38:51Z</time>
      </trkpt>
      <trkpt lat="43.7043" lon="-0.25427">
        <ele>70.4</ele>
        <time>2023-07-01T05:38:52Z</time>
      </trkpt>
      <trkpt lat="43.70432" lon="-0.2542">
        <ele>70.4</ele>
        <time>2023-07-01T05:38:56Z</time>
      </trkpt>
      <trkpt lat="43.70433" lon="-0.25418">
        <ele>70.4</ele>
        <time>2023-07-01T05:38:57Z</time>
      </trkpt>
      <trkpt lat="43.70429" lon="-0.25406">
        <ele>70.4</ele>
        <time>2023-07-01T05:39:04Z</time>
      </trkpt>
      <trkpt lat="43.70428" lon="-0.25393">
        <ele>70.2</ele>
        <time>2023-07-01T05:39:11Z</time>
      </trkpt>
      <trkpt lat="43.70426" lon="-0.25389">
        <ele>70.2</ele>
        <time>2023-07-01T05:39:13Z</time>
      </trkpt>
      <trkpt lat="43.70426" lon="-0.2538">
        <ele>70.4</ele>
        <time>2023-07-01T05:39:18Z</time>
      </trkpt>
      <trkpt lat="43.70426" lon="-0.25376">
        <ele>70.6</ele>
        <time>2023-07-01T05:39:20Z</time>
      </trkpt>
      <trkpt lat="43.70427" lon="-0.25363">
        <ele>70.6</ele>
        <time>2023-07-01T05:39:27Z</time>
      </trkpt>
      <trkpt lat="43.70427" lon="-0.25352">
        <ele>70.6</ele>
        <time>2023-07-01T05:39:32Z</time>
      </trkpt>
      <trkpt lat="43.70427" lon="-0.25349">
        <ele>70.6</ele>
        <time>2023-07-01T05:39:35Z</time>
      </trkpt>
      <trkpt lat="43.70424" lon="-0.25335">
        <ele>71.2</ele>
        <time>2023-07-01T05:39:43Z</time>
      </trkpt>
      <trkpt lat="43.70423" lon="-0.25322">
        <ele>70.2</ele>
        <time>2023-07-01T05:39:50Z</time>
      </trkpt>
      <trkpt lat="43.70423" lon="-0.25318">
        <ele>70.2</ele>
        <time>2023-07-01T05:39:52Z</time>
      </trkpt>
      <trkpt lat="43.70424" lon="-0.25308">
        <ele>70.2</ele>
        <time>2023-07-01T05:39:57Z</time>
      </trkpt>
      <trkpt lat="43.70425" lon="-0.25294">
        <ele>70.4</ele>
        <time>2023-07-01T05:40:04Z</time>
      </trkpt>
      <trkpt lat="43.70425" lon="-0.2529">
        <ele>70.2</ele>
        <time>2023-07-01T05:40:06Z</time>
      </trkpt>
      <trkpt lat="43.70423" lon="-0.25274">
        <ele>70.2</ele>
        <time>2023-07-01T05:40:15Z</time>
      </trkpt>
      <trkpt lat="43.70422" lon="-0.25273">
        <ele>70</ele>
        <time>2023-07-01T05:40:16Z</time>
      </trkpt>
      <trkpt lat="43.70421" lon="-0.2527">
        <ele>70</ele>
        <time>2023-07-01T05:40:18Z</time>
      </trkpt>
      <trkpt lat="43.70421" lon="-0.25266">
        <ele>70.2</ele>
        <time>2023-07-01T05:40:20Z</time>
      </trkpt>
      <trkpt lat="43.70422" lon="-0.25253">
        <ele>70</ele>
        <time>2023-07-01T05:40:27Z</time>
      </trkpt>
      <trkpt lat="43.70421" lon="-0.2524">
        <ele>70</ele>
        <time>2023-07-01T05:40:34Z</time>
      </trkpt>
      <trkpt lat="43.70419" lon="-0.25233">
        <ele>70.2</ele>
        <time>2023-07-01T05:40:38Z</time>
      </trkpt>
      <trkpt lat="43.70418" lon="-0.25226">
        <ele>70.2</ele>
        <time>2023-07-01T05:40:42Z</time>
      </trkpt>
      <trkpt lat="43.70417" lon="-0.2522">
        <ele>70.2</ele>
        <time>2023-07-01T05:40:45Z</time>
      </trkpt>
      <trkpt lat="43.70416" lon="-0.25213">
        <ele>70.2</ele>
        <time>2023-07-01T05:40:49Z</time>
      </trkpt>
      <trkpt lat="43.70416" lon="-0.2521">
        <ele>70.2</ele>
        <time>2023-07-01T05:40:51Z</time>
      </trkpt>
      <trkpt lat="43.70416" lon="-0.25198">
        <ele>70.2</ele>
        <time>2023-07-01T05:40:58Z</time>
      </trkpt>
      <trkpt lat="43.70416" lon="-0.25196">
        <ele>70.2</ele>
        <time>2023-07-01T05:40:59Z</time>
      </trkpt>
      <trkpt lat="43.70416" lon="-0.25195">
        <ele>70</ele>
        <time>2023-07-01T05:41:00Z</time>
      </trkpt>
      <trkpt lat="43.70415" lon="-0.25194">
        <ele>70</ele>
        <time>2023-07-01T05:41:01Z</time>
      </trkpt>
      <trkpt lat="43.70414" lon="-0.25191">
        <ele>70</ele>
        <time>2023-07-01T05:41:03Z</time>
      </trkpt>
      <trkpt lat="43.70413" lon="-0.25188">
        <ele>70</ele>
        <time>2023-07-01T05:41:05Z</time>
      </trkpt>
      <trkpt lat="43.70412" lon="-0.25185">
        <ele>70</ele>
        <time>2023-07-01T05:41:07Z</time>
      </trkpt>
      <trkpt lat="43.70411" lon="-0.2518">
        <ele>70</ele>
        <time>2023-07-01T05:41:10Z</time>
      </trkpt>
      <trkpt lat="43.7041" lon="-0.25178">
        <ele>69.8</ele>
        <time>2023-07-01T05:41:11Z</time>
      </trkpt>
      <trkpt lat="43.70409" lon="-0.25177">
        <ele>69.8</ele>
        <time>2023-07-01T05:41:12Z</time>
      </trkpt>
      <trkpt lat="43.70408" lon="-0.25172">
        <ele>70.2</ele>
        <time>2023-07-01T05:41:16Z</time>
      </trkpt>
      <trkpt lat="43.70407" lon="-0.25169">
        <ele>70.2</ele>
        <time>2023-07-01T05:41:18Z</time>
      </trkpt>
      <trkpt lat="43.70407" lon="-0.25168">
        <ele>70.2</ele>
        <time>2023-07-01T05:41:19Z</time>
      </trkpt>
      <trkpt lat="43.70406" lon="-0.25158">
        <ele>70.4</ele>
        <time>2023-07-01T05:41:24Z</time>
      </trkpt>
      <trkpt lat="43.70406" lon="-0.25154">
        <ele>70.2</ele>
        <time>2023-07-01T05:41:26Z</time>
      </trkpt>
      <trkpt lat="43.70406" lon="-0.25144">
        <ele>70</ele>
        <time>2023-07-01T05:41:31Z</time>
      </trkpt>
      <trkpt lat="43.70405" lon="-0.25138">
        <ele>70.2</ele>
        <time>2023-07-01T05:41:34Z</time>
      </trkpt>
      <trkpt lat="43.70404" lon="-0.25134">
        <ele>70.2</ele>
        <time>2023-07-01T05:41:35Z</time>
      </trkpt>
      <trkpt lat="43.70403" lon="-0.25131">
        <ele>70.2</ele>
        <time>2023-07-01T05:41:38Z</time>
      </trkpt>
      <trkpt lat="43.704" lon="-0.2512">
        <ele>70.2</ele>
        <time>2023-07-01T05:41:44Z</time>
      </trkpt>
      <trkpt lat="43.70395" lon="-0.25107">
        <ele>70.2</ele>
        <time>2023-07-01T05:41:52Z</time>
      </trkpt>
      <trkpt lat="43.70395" lon="-0.25106">
        <ele>69.8</ele>
        <time>2023-07-01T05:41:53Z</time>
      </trkpt>
      <trkpt lat="43.70393" lon="-0.25098">
        <ele>69.8</ele>
        <time>2023-07-01T05:41:58Z</time>
      </trkpt>
      <trkpt lat="43.70392" lon="-0.25096">
        <ele>69.8</ele>
        <time>2023-07-01T05:42:00Z</time>
      </trkpt>
      <trkpt lat="43.70387" lon="-0.2509">
        <ele>70.2</ele>
        <time>2023-07-01T05:42:06Z</time>
      </trkpt>
      <trkpt lat="43.7038" lon="-0.2508">
        <ele>69.8</ele>
        <time>2023-07-01T05:42:13Z</time>
      </trkpt>
      <trkpt lat="43.70377" lon="-0.25075">
        <ele>69.8</ele>
        <time>2023-07-01T05:42:17Z</time>
      </trkpt>
      <trkpt lat="43.70376" lon="-0.25072">
        <ele>70</ele>
        <time>2023-07-01T05:42:19Z</time>
      </trkpt>
      <trkpt lat="43.70375" lon="-0.2507">
        <ele>70</ele>
        <time>2023-07-01T05:42:20Z</time>
      </trkpt>
      <trkpt lat="43.70375" lon="-0.25059">
        <ele>70</ele>
        <time>2023-07-01T05:42:26Z</time>
      </trkpt>
      <trkpt lat="43.70375" lon="-0.25057">
        <ele>70</ele>
        <time>2023-07-01T05:42:27Z</time>
      </trkpt>
      <trkpt lat="43.70376" lon="-0.2505">
        <ele>70</ele>
        <time>2023-07-01T05:42:31Z</time>
      </trkpt>
      <trkpt lat="43.70377" lon="-0.25046">
        <ele>70</ele>
        <time>2023-07-01T05:42:33Z</time>
      </trkpt>
      <trkpt lat="43.70381" lon="-0.2503">
        <ele>70</ele>
        <time>2023-07-01T05:42:41Z</time>
      </trkpt>
      <trkpt lat="43.70381" lon="-0.25024">
        <ele>69.8</ele>
        <time>2023-07-01T05:42:45Z</time>
      </trkpt>
      <trkpt lat="43.70381" lon="-0.25023">
        <ele>69.8</ele>
        <time>2023-07-01T05:42:46Z</time>
      </trkpt>
      <trkpt lat="43.7038" lon="-0.25022">
        <ele>69.8</ele>
        <time>2023-07-01T05:42:47Z</time>
      </trkpt>
      <trkpt lat="43.70376" lon="-0.2502">
        <ele>69.8</ele>
        <time>2023-07-01T05:42:50Z</time>
      </trkpt>
      <trkpt lat="43.70375" lon="-0.25019">
        <ele>69.8</ele>
        <time>2023-07-01T05:42:51Z</time>
      </trkpt>
      <trkpt lat="43.70372" lon="-0.25018">
        <ele>69.8</ele>
        <time>2023-07-01T05:42:53Z</time>
      </trkpt>
      <trkpt lat="43.7037" lon="-0.25018">
        <ele>69.4</ele>
        <time>2023-07-01T05:42:55Z</time>
      </trkpt>
      <trkpt lat="43.70362" lon="-0.25019">
        <ele>69.8</ele>
        <time>2023-07-01T05:43:02Z</time>
      </trkpt>
      <trkpt lat="43.70362" lon="-0.25018">
        <ele>69.8</ele>
        <time>2023-07-01T05:43:03Z</time>
      </trkpt>
      <trkpt lat="43.70362" lon="-0.25015">
        <ele>69.8</ele>
        <time>2023-07-01T05:43:05Z</time>
      </trkpt>
      <trkpt lat="43.70364" lon="-0.25012">
        <ele>69.8</ele>
        <time>2023-07-01T05:43:06Z</time>
      </trkpt>
      <trkpt lat="43.70366" lon="-0.25009">
        <ele>69.8</ele>
        <time>2023-07-01T05:43:09Z</time>
      </trkpt>
      <trkpt lat="43.7037" lon="-0.25005">
        <ele>69.4</ele>
        <time>2023-07-01T05:43:14Z</time>
      </trkpt>
      <trkpt lat="43.70372" lon="-0.25005">
        <ele>69.4</ele>
        <time>2023-07-01T05:43:15Z</time>
      </trkpt>
      <trkpt lat="43.7038" lon="-0.25002">
        <ele>69</ele>
        <time>2023-07-01T05:43:22Z</time>
      </trkpt>
      <trkpt lat="43.70381" lon="-0.24998">
        <ele>69</ele>
        <time>2023-07-01T05:43:23Z</time>
      </trkpt>
      <trkpt lat="43.70381" lon="-0.24987">
        <ele>69.2</ele>
        <time>2023-07-01T05:43:29Z</time>
      </trkpt>
      <trkpt lat="43.70381" lon="-0.24977">
        <ele>68.8</ele>
        <time>2023-07-01T05:43:34Z</time>
      </trkpt>
      <trkpt lat="43.70381" lon="-0.24973">
        <ele>68.6</ele>
        <time>2023-07-01T05:43:37Z</time>
      </trkpt>
      <trkpt lat="43.70381" lon="-0.24959">
        <ele>68.8</ele>
        <time>2023-07-01T05:43:45Z</time>
      </trkpt>
      <trkpt lat="43.70379" lon="-0.24944">
        <ele>68.8</ele>
        <time>2023-07-01T05:43:53Z</time>
      </trkpt>
      <trkpt lat="43.70379" lon="-0.2493">
        <ele>68.6</ele>
        <time>2023-07-01T05:44:00Z</time>
      </trkpt>
      <trkpt lat="43.70379" lon="-0.24928">
        <ele>68.6</ele>
        <time>2023-07-01T05:44:01Z</time>
      </trkpt>
      <trkpt lat="43.70379" lon="-0.2491">
        <ele>68.8</ele>
        <time>2023-07-01T05:44:10Z</time>
      </trkpt>
      <trkpt lat="43.70378" lon="-0.24903">
        <ele>68.6</ele>
        <time>2023-07-01T05:44:14Z</time>
      </trkpt>
      <trkpt lat="43.70379" lon="-0.24896">
        <ele>68.4</ele>
        <time>2023-07-01T05:44:17Z</time>
      </trkpt>
      <trkpt lat="43.70379" lon="-0.24893">
        <ele>68.4</ele>
        <time>2023-07-01T05:44:19Z</time>
      </trkpt>
      <trkpt lat="43.70379" lon="-0.24891">
        <ele>68.6</ele>
        <time>2023-07-01T05:44:20Z</time>
      </trkpt>
      <trkpt lat="43.70378" lon="-0.24889">
        <ele>68.6</ele>
        <time>2023-07-01T05:44:21Z</time>
      </trkpt>
      <trkpt lat="43.70377" lon="-0.24886">
        <ele>68.6</ele>
        <time>2023-07-01T05:44:23Z</time>
      </trkpt>
      <trkpt lat="43.70376" lon="-0.24885">
        <ele>68.6</ele>
        <time>2023-07-01T05:44:24Z</time>
      </trkpt>
      <trkpt lat="43.70368" lon="-0.24878">
        <ele>68.6</ele>
        <time>2023-07-01T05:44:31Z</time>
      </trkpt>
      <trkpt lat="43.70363" lon="-0.24876">
        <ele>68.6</ele>
        <time>2023-07-01T05:44:35Z</time>
      </trkpt>
      <trkpt lat="43.7036" lon="-0.24875">
        <ele>68.6</ele>
        <time>2023-07-01T05:44:37Z</time>
      </trkpt>
      <trkpt lat="43.70349" lon="-0.24871">
        <ele>68.6</ele>
        <time>2023-07-01T05:44:45Z</time>
      </trkpt>
      <trkpt lat="43.70346" lon="-0.24867">
        <ele>68.6</ele>
        <time>2023-07-01T05:44:48Z</time>
      </trkpt>
      <trkpt lat="43.70345" lon="-0.24861">
        <ele>68.6</ele>
        <time>2023-07-01T05:44:51Z</time>
      </trkpt>
      <trkpt lat="43.70346" lon="-0.24856">
        <ele>68.6</ele>
        <time>2023-07-01T05:44:53Z</time>
      </trkpt>
      <trkpt lat="43.70346" lon="-0.24852">
        <ele>68.6</ele>
        <time>2023-07-01T05:44:55Z</time>
      </trkpt>
      <trkpt lat="43.70347" lon="-0.24848">
        <ele>68.4</ele>
        <time>2023-07-01T05:44:57Z</time>
      </trkpt>
      <trkpt lat="43.70347" lon="-0.24846">
        <ele>68.4</ele>
        <time>2023-07-01T05:44:58Z</time>
      </trkpt>
      <trkpt lat="43.70348" lon="-0.24842">
        <ele>68.4</ele>
        <time>2023-07-01T05:45:00Z</time>
      </trkpt>
      <trkpt lat="43.70348" lon="-0.24838">
        <ele>68.6</ele>
        <time>2023-07-01T05:45:02Z</time>
      </trkpt>
      <trkpt lat="43.70348" lon="-0.24832">
        <ele>68.8</ele>
        <time>2023-07-01T05:45:06Z</time>
      </trkpt>
      <trkpt lat="43.70349" lon="-0.24816">
        <ele>68.2</ele>
        <time>2023-07-01T05:45:14Z</time>
      </trkpt>
      <trkpt lat="43.70352" lon="-0.24806">
        <ele>68.4</ele>
        <time>2023-07-01T05:45:19Z</time>
      </trkpt>
      <trkpt lat="43.70352" lon="-0.24804">
        <ele>68.4</ele>
        <time>2023-07-01T05:45:20Z</time>
      </trkpt>
      <trkpt lat="43.70354" lon="-0.24795">
        <ele>68.6</ele>
        <time>2023-07-01T05:45:26Z</time>
      </trkpt>
      <trkpt lat="43.70357" lon="-0.2478">
        <ele>68.6</ele>
        <time>2023-07-01T05:45:35Z</time>
      </trkpt>
      <trkpt lat="43.70358" lon="-0.24767">
        <ele>68.8</ele>
        <time>2023-07-01T05:45:43Z</time>
      </trkpt>
      <trkpt lat="43.70359" lon="-0.24759">
        <ele>69</ele>
        <time>2023-07-01T05:45:47Z</time>
      </trkpt>
      <trkpt lat="43.70359" lon="-0.24753">
        <ele>68.8</ele>
        <time>2023-07-01T05:45:51Z</time>
      </trkpt>
      <trkpt lat="43.7036" lon="-0.24745">
        <ele>68.6</ele>
        <time>2023-07-01T05:45:57Z</time>
      </trkpt>
      <trkpt lat="43.7036" lon="-0.24738">
        <ele>68.8</ele>
        <time>2023-07-01T05:46:01Z</time>
      </trkpt>
      <trkpt lat="43.70363" lon="-0.24723">
        <ele>68.4</ele>
        <time>2023-07-01T05:46:09Z</time>
      </trkpt>
      <trkpt lat="43.70366" lon="-0.2471">
        <ele>68.6</ele>
        <time>2023-07-01T05:46:16Z</time>
      </trkpt>
      <trkpt lat="43.70367" lon="-0.24708">
        <ele>68.6</ele>
        <time>2023-07-01T05:46:17Z</time>
      </trkpt>
      <trkpt lat="43.70367" lon="-0.24704">
        <ele>68.6</ele>
        <time>2023-07-01T05:46:19Z</time>
      </trkpt>
      <trkpt lat="43.70369" lon="-0.24698">
        <ele>68.8</ele>
        <time>2023-07-01T05:46:22Z</time>
      </trkpt>
      <trkpt lat="43.7037" lon="-0.24681">
        <ele>69.2</ele>
        <time>2023-07-01T05:46:31Z</time>
      </trkpt>
      <trkpt lat="43.70373" lon="-0.24667">
        <ele>69.2</ele>
        <time>2023-07-01T05:46:39Z</time>
      </trkpt>
      <trkpt lat="43.70376" lon="-0.2465">
        <ele>69</ele>
        <time>2023-07-01T05:46:48Z</time>
      </trkpt>
      <trkpt lat="43.70376" lon="-0.24645">
        <ele>69</ele>
        <time>2023-07-01T05:46:51Z</time>
      </trkpt>
      <trkpt lat="43.70375" lon="-0.24637">
        <ele>69.2</ele>
        <time>2023-07-01T05:46:56Z</time>
      </trkpt>
      <trkpt lat="43.70375" lon="-0.24632">
        <ele>69.2</ele>
        <time>2023-07-01T05:46:59Z</time>
      </trkpt>
      <trkpt lat="43.70375" lon="-0.2463">
        <ele>69.4</ele>
        <time>2023-07-01T05:47:00Z</time>
      </trkpt>
      <trkpt lat="43.70373" lon="-0.24623">
        <ele>69.4</ele>
        <time>2023-07-01T05:47:04Z</time>
      </trkpt>
      <trkpt lat="43.70371" lon="-0.2461">
        <ele>69.2</ele>
        <time>2023-07-01T05:47:10Z</time>
      </trkpt>
      <trkpt lat="43.7037" lon="-0.24607">
        <ele>69.2</ele>
        <time>2023-07-01T05:47:12Z</time>
      </trkpt>
      <trkpt lat="43.7037" lon="-0.24607">
        <ele>69.2</ele>
        <time>2023-07-01T05:47:13Z</time>
      </trkpt>
      <trkpt lat="43.70368" lon="-0.24594">
        <ele>69</ele>
        <time>2023-07-01T05:47:19Z</time>
      </trkpt>
      <trkpt lat="43.70366" lon="-0.24585">
        <ele>68.8</ele>
        <time>2023-07-01T05:47:24Z</time>
      </trkpt>
      <trkpt lat="43.70365" lon="-0.24579">
        <ele>68.8</ele>
        <time>2023-07-01T05:47:27Z</time>
      </trkpt>
      <trkpt lat="43.70365" lon="-0.24566">
        <ele>69</ele>
        <time>2023-07-01T05:47:34Z</time>
      </trkpt>
      <trkpt lat="43.70364" lon="-0.24559">
        <ele>69</ele>
        <time>2023-07-01T05:47:39Z</time>
      </trkpt>
      <trkpt lat="43.70362" lon="-0.24554">
        <ele>69.2</ele>
        <time>2023-07-01T05:47:41Z</time>
      </trkpt>
      <trkpt lat="43.70362" lon="-0.24554">
        <ele>69.2</ele>
        <time>2023-07-01T05:47:42Z</time>
      </trkpt>
      <trkpt lat="43.70362" lon="-0.24548">
        <ele>69.2</ele>
        <time>2023-07-01T05:47:45Z</time>
      </trkpt>
      <trkpt lat="43.70361" lon="-0.24534">
        <ele>69.2</ele>
        <time>2023-07-01T05:47:51Z</time>
      </trkpt>
      <trkpt lat="43.7036" lon="-0.24521">
        <ele>69</ele>
        <time>2023-07-01T05:47:58Z</time>
      </trkpt>
      <trkpt lat="43.7036" lon="-0.24521">
        <ele>68.8</ele>
        <time>2023-07-01T05:47:59Z</time>
      </trkpt>
      <trkpt lat="43.7036" lon="-0.24519">
        <ele>68.8</ele>
        <time>2023-07-01T05:48:00Z</time>
      </trkpt>
      <trkpt lat="43.7036" lon="-0.24517">
        <ele>69</ele>
        <time>2023-07-01T05:48:01Z</time>
      </trkpt>
      <trkpt lat="43.70359" lon="-0.24515">
        <ele>69</ele>
        <time>2023-07-01T05:48:02Z</time>
      </trkpt>
      <trkpt lat="43.70359" lon="-0.24514">
        <ele>69</ele>
        <time>2023-07-01T05:48:03Z</time>
      </trkpt>
      <trkpt lat="43.70359" lon="-0.2451">
        <ele>69</ele>
        <time>2023-07-01T05:48:04Z</time>
      </trkpt>
      <trkpt lat="43.70359" lon="-0.24509">
        <ele>69</ele>
        <time>2023-07-01T05:48:06Z</time>
      </trkpt>
      <trkpt lat="43.70358" lon="-0.24504">
        <ele>69</ele>
        <time>2023-07-01T05:48:09Z</time>
      </trkpt>
      <trkpt lat="43.70354" lon="-0.24495">
        <ele>69.2</ele>
        <time>2023-07-01T05:48:15Z</time>
      </trkpt>
      <trkpt lat="43.70354" lon="-0.24493">
        <ele>69.2</ele>
        <time>2023-07-01T05:48:16Z</time>
      </trkpt>
      <trkpt lat="43.70354" lon="-0.24491">
        <ele>69.4</ele>
        <time>2023-07-01T05:48:17Z</time>
      </trkpt>
      <trkpt lat="43.70352" lon="-0.24483">
        <ele>69.2</ele>
        <time>2023-07-01T05:48:21Z</time>
      </trkpt>
      <trkpt lat="43.70351" lon="-0.24479">
        <ele>69.4</ele>
        <time>2023-07-01T05:48:24Z</time>
      </trkpt>
      <trkpt lat="43.70347" lon="-0.24471">
        <ele>69.4</ele>
        <time>2023-07-01T05:48:29Z</time>
      </trkpt>
      <trkpt lat="43.70347" lon="-0.24469">
        <ele>69.2</ele>
        <time>2023-07-01T05:48:30Z</time>
      </trkpt>
      <trkpt lat="43.70346" lon="-0.24466">
        <ele>69.2</ele>
        <time>2023-07-01T05:48:32Z</time>
      </trkpt>
      <trkpt lat="43.70346" lon="-0.24457">
        <ele>69.4</ele>
        <time>2023-07-01T05:48:37Z</time>
      </trkpt>
      <trkpt lat="43.70345" lon="-0.24447">
        <ele>69.4</ele>
        <time>2023-07-01T05:48:42Z</time>
      </trkpt>
      <trkpt lat="43.70344" lon="-0.24435">
        <ele>69.8</ele>
        <time>2023-07-01T05:48:49Z</time>
      </trkpt>
      <trkpt lat="43.70343" lon="-0.24424">
        <ele>69.6</ele>
        <time>2023-07-01T05:48:54Z</time>
      </trkpt>
      <trkpt lat="43.70341" lon="-0.24419">
        <ele>69.6</ele>
        <time>2023-07-01T05:48:57Z</time>
      </trkpt>
      <trkpt lat="43.70337" lon="-0.24403">
        <ele>69.8</ele>
        <time>2023-07-01T05:49:07Z</time>
      </trkpt>
      <trkpt lat="43.70336" lon="-0.24399">
        <ele>69.8</ele>
        <time>2023-07-01T05:49:10Z</time>
      </trkpt>
      <trkpt lat="43.70335" lon="-0.24396">
        <ele>69.6</ele>
        <time>2023-07-01T05:49:12Z</time>
      </trkpt>
      <trkpt lat="43.70332" lon="-0.24385">
        <ele>69.8</ele>
        <time>2023-07-01T05:49:18Z</time>
      </trkpt>
      <trkpt lat="43.70332" lon="-0.24385">
        <ele>70</ele>
        <time>2023-07-01T05:49:19Z</time>
      </trkpt>
      <trkpt lat="43.70331" lon="-0.24378">
        <ele>70</ele>
        <time>2023-07-01T05:49:22Z</time>
      </trkpt>
      <trkpt lat="43.70329" lon="-0.24368">
        <ele>69.6</ele>
        <time>2023-07-01T05:49:28Z</time>
      </trkpt>
      <trkpt lat="43.70328" lon="-0.24366">
        <ele>69.6</ele>
        <time>2023-07-01T05:49:30Z</time>
      </trkpt>
      <trkpt lat="43.70327" lon="-0.2436">
        <ele>69.6</ele>
        <time>2023-07-01T05:49:32Z</time>
      </trkpt>
      <trkpt lat="43.70326" lon="-0.24356">
        <ele>69.6</ele>
        <time>2023-07-01T05:49:34Z</time>
      </trkpt>
      <trkpt lat="43.70324" lon="-0.24352">
        <ele>69.6</ele>
        <time>2023-07-01T05:49:36Z</time>
      </trkpt>
      <trkpt lat="43.70324" lon="-0.2435">
        <ele>69.6</ele>
        <time>2023-07-01T05:49:37Z</time>
      </trkpt>
      <trkpt lat="43.70321" lon="-0.24338">
        <ele>69.6</ele>
        <time>2023-07-01T05:49:44Z</time>
      </trkpt>
      <trkpt lat="43.70319" lon="-0.24332">
        <ele>69.4</ele>
        <time>2023-07-01T05:49:49Z</time>
      </trkpt>
      <trkpt lat="43.70317" lon="-0.24327">
        <ele>69.4</ele>
        <time>2023-07-01T05:49:52Z</time>
      </trkpt>
      <trkpt lat="43.70315" lon="-0.24315">
        <ele>69.6</ele>
        <time>2023-07-01T05:49:58Z</time>
      </trkpt>
      <trkpt lat="43.70314" lon="-0.24312">
        <ele>69.6</ele>
        <time>2023-07-01T05:50:00Z</time>
      </trkpt>
      <trkpt lat="43.70311" lon="-0.24296">
        <ele>69.2</ele>
        <time>2023-07-01T05:50:09Z</time>
      </trkpt>
      <trkpt lat="43.70309" lon="-0.24289">
        <ele>69.2</ele>
        <time>2023-07-01T05:50:13Z</time>
      </trkpt>
      <trkpt lat="43.70308" lon="-0.24283">
        <ele>69.6</ele>
        <time>2023-07-01T05:50:16Z</time>
      </trkpt>
      <trkpt lat="43.70306" lon="-0.24276">
        <ele>69.8</ele>
        <time>2023-07-01T05:50:19Z</time>
      </trkpt>
      <trkpt lat="43.70305" lon="-0.24271">
        <ele>69.6</ele>
        <time>2023-07-01T05:50:23Z</time>
      </trkpt>
      <trkpt lat="43.70303" lon="-0.24261">
        <ele>69.4</ele>
        <time>2023-07-01T05:50:29Z</time>
      </trkpt>
      <trkpt lat="43.703" lon="-0.24253">
        <ele>69.6</ele>
        <time>2023-07-01T05:50:34Z</time>
      </trkpt>
      <trkpt lat="43.703" lon="-0.24249">
        <ele>69.8</ele>
        <time>2023-07-01T05:50:35Z</time>
      </trkpt>
      <trkpt lat="43.703" lon="-0.24245">
        <ele>69.8</ele>
        <time>2023-07-01T05:50:38Z</time>
      </trkpt>
      <trkpt lat="43.70299" lon="-0.24236">
        <ele>69.8</ele>
        <time>2023-07-01T05:50:43Z</time>
      </trkpt>
      <trkpt lat="43.70297" lon="-0.24229">
        <ele>69.6</ele>
        <time>2023-07-01T05:50:47Z</time>
      </trkpt>
      <trkpt lat="43.70297" lon="-0.24224">
        <ele>69.6</ele>
        <time>2023-07-01T05:50:50Z</time>
      </trkpt>
      <trkpt lat="43.70296" lon="-0.24223">
        <ele>69.6</ele>
        <time>2023-07-01T05:50:51Z</time>
      </trkpt>
      <trkpt lat="43.70295" lon="-0.24212">
        <ele>69.6</ele>
        <time>2023-07-01T05:50:57Z</time>
      </trkpt>
      <trkpt lat="43.70294" lon="-0.24209">
        <ele>69.6</ele>
        <time>2023-07-01T05:50:59Z</time>
      </trkpt>
      <trkpt lat="43.70291" lon="-0.24195">
        <ele>69.6</ele>
        <time>2023-07-01T05:51:07Z</time>
      </trkpt>
      <trkpt lat="43.70291" lon="-0.24187">
        <ele>69.6</ele>
        <time>2023-07-01T05:51:10Z</time>
      </trkpt>
      <trkpt lat="43.70293" lon="-0.24183">
        <ele>69.8</ele>
        <time>2023-07-01T05:51:14Z</time>
      </trkpt>
      <trkpt lat="43.70296" lon="-0.24181">
        <ele>69.6</ele>
        <time>2023-07-01T05:51:17Z</time>
      </trkpt>
      <trkpt lat="43.70302" lon="-0.24176">
        <ele>69.8</ele>
        <time>2023-07-01T05:51:22Z</time>
      </trkpt>
      <trkpt lat="43.70303" lon="-0.24175">
        <ele>69.8</ele>
        <time>2023-07-01T05:51:23Z</time>
      </trkpt>
      <trkpt lat="43.70309" lon="-0.24172">
        <ele>69.4</ele>
        <time>2023-07-01T05:51:28Z</time>
      </trkpt>
      <trkpt lat="43.70318" lon="-0.24168">
        <ele>69.4</ele>
        <time>2023-07-01T05:51:35Z</time>
      </trkpt>
      <trkpt lat="43.7032" lon="-0.24167">
        <ele>69.6</ele>
        <time>2023-07-01T05:51:36Z</time>
      </trkpt>
      <trkpt lat="43.70327" lon="-0.24164">
        <ele>69.8</ele>
        <time>2023-07-01T05:51:42Z</time>
      </trkpt>
      <trkpt lat="43.70332" lon="-0.24161">
        <ele>69.6</ele>
        <time>2023-07-01T05:51:46Z</time>
      </trkpt>
      <trkpt lat="43.70334" lon="-0.24161">
        <ele>69.6</ele>
        <time>2023-07-01T05:51:49Z</time>
      </trkpt>
      <trkpt lat="43.70341" lon="-0.24159">
        <ele>69.8</ele>
        <time>2023-07-01T05:51:53Z</time>
      </trkpt>
      <trkpt lat="43.70347" lon="-0.24154">
        <ele>69.4</ele>
        <time>2023-07-01T05:51:58Z</time>
      </trkpt>
      <trkpt lat="43.7035" lon="-0.24153">
        <ele>69.6</ele>
        <time>2023-07-01T05:52:00Z</time>
      </trkpt>
      <trkpt lat="43.70354" lon="-0.2415">
        <ele>69.6</ele>
        <time>2023-07-01T05:52:04Z</time>
      </trkpt>
      <trkpt lat="43.70362" lon="-0.24147">
        <ele>69.4</ele>
        <time>2023-07-01T05:52:09Z</time>
      </trkpt>
      <trkpt lat="43.70364" lon="-0.24146">
        <ele>69.4</ele>
        <time>2023-07-01T05:52:12Z</time>
      </trkpt>
      <trkpt lat="43.70367" lon="-0.24144">
        <ele>69.4</ele>
        <time>2023-07-01T05:52:14Z</time>
      </trkpt>
      <trkpt lat="43.70371" lon="-0.24143">
        <ele>69.4</ele>
        <time>2023-07-01T05:52:16Z</time>
      </trkpt>
      <trkpt lat="43.70372" lon="-0.24142">
        <ele>69.4</ele>
        <time>2023-07-01T05:52:17Z</time>
      </trkpt>
      <trkpt lat="43.70373" lon="-0.24141">
        <ele>69.6</ele>
        <time>2023-07-01T05:52:19Z</time>
      </trkpt>
      <trkpt lat="43.7038" lon="-0.24139">
        <ele>69.8</ele>
        <time>2023-07-01T05:52:25Z</time>
      </trkpt>
      <trkpt lat="43.70382" lon="-0.24135">
        <ele>69.8</ele>
        <time>2023-07-01T05:52:27Z</time>
      </trkpt>
      <trkpt lat="43.70383" lon="-0.24131">
        <ele>70</ele>
        <time>2023-07-01T05:52:29Z</time>
      </trkpt>
      <trkpt lat="43.70383" lon="-0.24128">
        <ele>70</ele>
        <time>2023-07-01T05:52:31Z</time>
      </trkpt>
      <trkpt lat="43.70384" lon="-0.24118">
        <ele>70</ele>
        <time>2023-07-01T05:52:38Z</time>
      </trkpt>
      <trkpt lat="43.70384" lon="-0.24114">
        <ele>70</ele>
        <time>2023-07-01T05:52:39Z</time>
      </trkpt>
      <trkpt lat="43.70384" lon="-0.241">
        <ele>70</ele>
        <time>2023-07-01T05:52:47Z</time>
      </trkpt>
      <trkpt lat="43.70384" lon="-0.24098">
        <ele>69.8</ele>
        <time>2023-07-01T05:52:48Z</time>
      </trkpt>
      <trkpt lat="43.70384" lon="-0.24098">
        <ele>69.8</ele>
        <time>2023-07-01T05:52:49Z</time>
      </trkpt>
      <trkpt lat="43.70383" lon="-0.24092">
        <ele>70</ele>
        <time>2023-07-01T05:52:52Z</time>
      </trkpt>
      <trkpt lat="43.70383" lon="-0.2409">
        <ele>70</ele>
        <time>2023-07-01T05:52:53Z</time>
      </trkpt>
      <trkpt lat="43.70382" lon="-0.24088">
        <ele>70</ele>
        <time>2023-07-01T05:52:54Z</time>
      </trkpt>
      <trkpt lat="43.70382" lon="-0.24087">
        <ele>70</ele>
        <time>2023-07-01T05:52:55Z</time>
      </trkpt>
      <trkpt lat="43.70381" lon="-0.24085">
        <ele>70.2</ele>
        <time>2023-07-01T05:52:56Z</time>
      </trkpt>
      <trkpt lat="43.70379" lon="-0.24081">
        <ele>70.6</ele>
        <time>2023-07-01T05:52:59Z</time>
      </trkpt>
      <trkpt lat="43.70378" lon="-0.24074">
        <ele>70.4</ele>
        <time>2023-07-01T05:53:03Z</time>
      </trkpt>
      <trkpt lat="43.70377" lon="-0.24066">
        <ele>70.2</ele>
        <time>2023-07-01T05:53:08Z</time>
      </trkpt>
      <trkpt lat="43.70377" lon="-0.24063">
        <ele>70.4</ele>
        <time>2023-07-01T05:53:09Z</time>
      </trkpt>
      <trkpt lat="43.70377" lon="-0.24056">
        <ele>70.2</ele>
        <time>2023-07-01T05:53:14Z</time>
      </trkpt>
      <trkpt lat="43.70376" lon="-0.24047">
        <ele>70.4</ele>
        <time>2023-07-01T05:53:19Z</time>
      </trkpt>
      <trkpt lat="43.70372" lon="-0.2403">
        <ele>70.6</ele>
        <time>2023-07-01T05:53:29Z</time>
      </trkpt>
      <trkpt lat="43.7037" lon="-0.24022">
        <ele>70.8</ele>
        <time>2023-07-01T05:53:34Z</time>
      </trkpt>
      <trkpt lat="43.70367" lon="-0.24015">
        <ele>70.6</ele>
        <time>2023-07-01T05:53:38Z</time>
      </trkpt>
      <trkpt lat="43.70367" lon="-0.24013">
        <ele>70.6</ele>
        <time>2023-07-01T05:53:39Z</time>
      </trkpt>
      <trkpt lat="43.70366" lon="-0.24009">
        <ele>70.6</ele>
        <time>2023-07-01T05:53:40Z</time>
      </trkpt>
      <trkpt lat="43.70365" lon="-0.24003">
        <ele>70.6</ele>
        <time>2023-07-01T05:53:44Z</time>
      </trkpt>
      <trkpt lat="43.70362" lon="-0.23997">
        <ele>70.6</ele>
        <time>2023-07-01T05:53:47Z</time>
      </trkpt>
      <trkpt lat="43.70358" lon="-0.23988">
        <ele>70.6</ele>
        <time>2023-07-01T05:53:53Z</time>
      </trkpt>
      <trkpt lat="43.70357" lon="-0.23985">
        <ele>70.6</ele>
        <time>2023-07-01T05:53:54Z</time>
      </trkpt>
      <trkpt lat="43.70356" lon="-0.23983">
        <ele>70.6</ele>
        <time>2023-07-01T05:53:56Z</time>
      </trkpt>
      <trkpt lat="43.70352" lon="-0.23969">
        <ele>70.8</ele>
        <time>2023-07-01T05:54:03Z</time>
      </trkpt>
      <trkpt lat="43.7035" lon="-0.23961">
        <ele>71</ele>
        <time>2023-07-01T05:54:09Z</time>
      </trkpt>
      <trkpt lat="43.70349" lon="-0.23957">
        <ele>71.2</ele>
        <time>2023-07-01T05:54:11Z</time>
      </trkpt>
      <trkpt lat="43.70346" lon="-0.23945">
        <ele>71.2</ele>
        <time>2023-07-01T05:54:18Z</time>
      </trkpt>
      <trkpt lat="43.70345" lon="-0.23944">
        <ele>71</ele>
        <time>2023-07-01T05:54:19Z</time>
      </trkpt>
      <trkpt lat="43.70339" lon="-0.23928">
        <ele>70.8</ele>
        <time>2023-07-01T05:54:28Z</time>
      </trkpt>
      <trkpt lat="43.70338" lon="-0.23921">
        <ele>70.8</ele>
        <time>2023-07-01T05:54:31Z</time>
      </trkpt>
      <trkpt lat="43.70338" lon="-0.23916">
        <ele>71</ele>
        <time>2023-07-01T05:54:34Z</time>
      </trkpt>
      <trkpt lat="43.70337" lon="-0.23915">
        <ele>71</ele>
        <time>2023-07-01T05:54:35Z</time>
      </trkpt>
      <trkpt lat="43.70337" lon="-0.23912">
        <ele>70.8</ele>
        <time>2023-07-01T05:54:38Z</time>
      </trkpt>
      <trkpt lat="43.70337" lon="-0.23907">
        <ele>70.8</ele>
        <time>2023-07-01T05:54:41Z</time>
      </trkpt>
      <trkpt lat="43.70337" lon="-0.23903">
        <ele>70.8</ele>
        <time>2023-07-01T05:54:44Z</time>
      </trkpt>
      <trkpt lat="43.70337" lon="-0.23901">
        <ele>70.8</ele>
        <time>2023-07-01T05:54:45Z</time>
      </trkpt>
      <trkpt lat="43.70336" lon="-0.23898">
        <ele>70.8</ele>
        <time>2023-07-01T05:54:47Z</time>
      </trkpt>
      <trkpt lat="43.70336" lon="-0.23896">
        <ele>70.8</ele>
        <time>2023-07-01T05:54:50Z</time>
      </trkpt>
      <trkpt lat="43.70336" lon="-0.23894">
        <ele>70.8</ele>
        <time>2023-07-01T05:54:51Z</time>
      </trkpt>
      <trkpt lat="43.70334" lon="-0.23884">
        <ele>71.4</ele>
        <time>2023-07-01T05:54:59Z</time>
      </trkpt>
      <trkpt lat="43.70333" lon="-0.23881">
        <ele>71.4</ele>
        <time>2023-07-01T05:55:01Z</time>
      </trkpt>
      <trkpt lat="43.70333" lon="-0.23879">
        <ele>71.6</ele>
        <time>2023-07-01T05:55:02Z</time>
      </trkpt>
      <trkpt lat="43.70332" lon="-0.2387">
        <ele>71.6</ele>
        <time>2023-07-01T05:55:07Z</time>
      </trkpt>
      <trkpt lat="43.70329" lon="-0.23857">
        <ele>71.4</ele>
        <time>2023-07-01T05:55:11Z</time>
      </trkpt>
      <trkpt lat="43.70327" lon="-0.23852">
        <ele>71.6</ele>
        <time>2023-07-01T05:55:14Z</time>
      </trkpt>
      <trkpt lat="43.70325" lon="-0.23844">
        <ele>71.6</ele>
        <time>2023-07-01T05:55:19Z</time>
      </trkpt>
      <trkpt lat="43.70323" lon="-0.23838">
        <ele>71.6</ele>
        <time>2023-07-01T05:55:22Z</time>
      </trkpt>
      <trkpt lat="43.70322" lon="-0.23836">
        <ele>71.6</ele>
        <time>2023-07-01T05:55:23Z</time>
      </trkpt>
      <trkpt lat="43.7032" lon="-0.23825">
        <ele>71.6</ele>
        <time>2023-07-01T05:55:28Z</time>
      </trkpt>
      <trkpt lat="43.7032" lon="-0.23823">
        <ele>71.6</ele>
        <time>2023-07-01T05:55:29Z</time>
      </trkpt>
      <trkpt lat="43.70318" lon="-0.23816">
        <ele>71.6</ele>
        <time>2023-07-01T05:55:32Z</time>
      </trkpt>
      <trkpt lat="43.70316" lon="-0.23811">
        <ele>71.4</ele>
        <time>2023-07-01T05:55:36Z</time>
      </trkpt>
      <trkpt lat="43.70311" lon="-0.23798">
        <ele>71.8</ele>
        <time>2023-07-01T05:55:43Z</time>
      </trkpt>
      <trkpt lat="43.7031" lon="-0.23793">
        <ele>71.8</ele>
        <time>2023-07-01T05:55:45Z</time>
      </trkpt>
      <trkpt lat="43.70306" lon="-0.23781">
        <ele>71.6</ele>
        <time>2023-07-01T05:55:53Z</time>
      </trkpt>
      <trkpt lat="43.70306" lon="-0.23779">
        <ele>71.6</ele>
        <time>2023-07-01T05:55:54Z</time>
      </trkpt>
      <trkpt lat="43.70302" lon="-0.23772">
        <ele>71.6</ele>
        <time>2023-07-01T05:55:58Z</time>
      </trkpt>
      <trkpt lat="43.703" lon="-0.23765">
        <ele>71.6</ele>
        <time>2023-07-01T05:56:01Z</time>
      </trkpt>
      <trkpt lat="43.70299" lon="-0.23764">
        <ele>71.6</ele>
        <time>2023-07-01T05:56:03Z</time>
      </trkpt>
      <trkpt lat="43.703" lon="-0.23759">
        <ele>71.6</ele>
        <time>2023-07-01T05:56:05Z</time>
      </trkpt>
      <trkpt lat="43.703" lon="-0.23756">
        <ele>71.4</ele>
        <time>2023-07-01T05:56:07Z</time>
      </trkpt>
      <trkpt lat="43.703" lon="-0.23754">
        <ele>71.4</ele>
        <time>2023-07-01T05:56:08Z</time>
      </trkpt>
      <trkpt lat="43.70298" lon="-0.23742">
        <ele>71.6</ele>
        <time>2023-07-01T05:56:15Z</time>
      </trkpt>
      <trkpt lat="43.70297" lon="-0.23738">
        <ele>71.8</ele>
        <time>2023-07-01T05:56:19Z</time>
      </trkpt>
      <trkpt lat="43.70296" lon="-0.23735">
        <ele>71.6</ele>
        <time>2023-07-01T05:56:22Z</time>
      </trkpt>
      <trkpt lat="43.70294" lon="-0.23732">
        <ele>71.6</ele>
        <time>2023-07-01T05:56:24Z</time>
      </trkpt>
      <trkpt lat="43.70293" lon="-0.23725">
        <ele>71.8</ele>
        <time>2023-07-01T05:56:28Z</time>
      </trkpt>
      <trkpt lat="43.70292" lon="-0.23714">
        <ele>71.4</ele>
        <time>2023-07-01T05:56:32Z</time>
      </trkpt>
      <trkpt lat="43.70291" lon="-0.23708">
        <ele>71.6</ele>
        <time>2023-07-01T05:56:35Z</time>
      </trkpt>
      <trkpt lat="43.70288" lon="-0.23695">
        <ele>71.6</ele>
        <time>2023-07-01T05:56:44Z</time>
      </trkpt>
      <trkpt lat="43.70286" lon="-0.23685">
        <ele>72</ele>
        <time>2023-07-01T05:56:49Z</time>
      </trkpt>
      <trkpt lat="43.70286" lon="-0.23685">
        <ele>72</ele>
        <time>2023-07-01T05:56:50Z</time>
      </trkpt>
      <trkpt lat="43.70286" lon="-0.23683">
        <ele>72</ele>
        <time>2023-07-01T05:56:51Z</time>
      </trkpt>
      <trkpt lat="43.70285" lon="-0.23678">
        <ele>71.8</ele>
        <time>2023-07-01T05:56:54Z</time>
      </trkpt>
      <trkpt lat="43.70285" lon="-0.23676">
        <ele>71.8</ele>
        <time>2023-07-01T05:56:55Z</time>
      </trkpt>
      <trkpt lat="43.70284" lon="-0.23674">
        <ele>71.8</ele>
        <time>2023-07-01T05:56:56Z</time>
      </trkpt>
      <trkpt lat="43.70284" lon="-0.23671">
        <ele>71.8</ele>
        <time>2023-07-01T05:56:57Z</time>
      </trkpt>
      <trkpt lat="43.70283" lon="-0.23662">
        <ele>72</ele>
        <time>2023-07-01T05:57:02Z</time>
      </trkpt>
      <trkpt lat="43.7028" lon="-0.23658">
        <ele>71.8</ele>
        <time>2023-07-01T05:57:05Z</time>
      </trkpt>
      <trkpt lat="43.70278" lon="-0.23654">
        <ele>71.8</ele>
        <time>2023-07-01T05:57:08Z</time>
      </trkpt>
      <trkpt lat="43.70275" lon="-0.23647">
        <ele>72</ele>
        <time>2023-07-01T05:57:12Z</time>
      </trkpt>
      <trkpt lat="43.70273" lon="-0.23639">
        <ele>71.8</ele>
        <time>2023-07-01T05:57:18Z</time>
      </trkpt>
      <trkpt lat="43.70271" lon="-0.23636">
        <ele>71.8</ele>
        <time>2023-07-01T05:57:20Z</time>
      </trkpt>
      <trkpt lat="43.7027" lon="-0.23631">
        <ele>71.8</ele>
        <time>2023-07-01T05:57:22Z</time>
      </trkpt>
      <trkpt lat="43.7027" lon="-0.23627">
        <ele>71.8</ele>
        <time>2023-07-01T05:57:25Z</time>
      </trkpt>
      <trkpt lat="43.7027" lon="-0.23624">
        <ele>71.8</ele>
        <time>2023-07-01T05:57:26Z</time>
      </trkpt>
      <trkpt lat="43.7027" lon="-0.2362">
        <ele>71.8</ele>
        <time>2023-07-01T05:57:28Z</time>
      </trkpt>
      <trkpt lat="43.70265" lon="-0.23604">
        <ele>71.8</ele>
        <time>2023-07-01T05:57:36Z</time>
      </trkpt>
      <trkpt lat="43.70261" lon="-0.23591">
        <ele>71.6</ele>
        <time>2023-07-01T05:57:43Z</time>
      </trkpt>
      <trkpt lat="43.70257" lon="-0.2358">
        <ele>72</ele>
        <time>2023-07-01T05:57:50Z</time>
      </trkpt>
      <trkpt lat="43.70254" lon="-0.23565">
        <ele>72.2</ele>
        <time>2023-07-01T05:58:01Z</time>
      </trkpt>
      <trkpt lat="43.70251" lon="-0.23557">
        <ele>72</ele>
        <time>2023-07-01T05:58:07Z</time>
      </trkpt>
      <trkpt lat="43.70252" lon="-0.23551">
        <ele>71.8</ele>
        <time>2023-07-01T05:58:10Z</time>
      </trkpt>
      <trkpt lat="43.70251" lon="-0.2355">
        <ele>71.8</ele>
        <time>2023-07-01T05:58:12Z</time>
      </trkpt>
      <trkpt lat="43.7025" lon="-0.23548">
        <ele>71.8</ele>
        <time>2023-07-01T05:58:13Z</time>
      </trkpt>
      <trkpt lat="43.70249" lon="-0.23541">
        <ele>72.2</ele>
        <time>2023-07-01T05:58:17Z</time>
      </trkpt>
      <trkpt lat="43.70249" lon="-0.23539">
        <ele>72.4</ele>
        <time>2023-07-01T05:58:18Z</time>
      </trkpt>
      <trkpt lat="43.70249" lon="-0.23537">
        <ele>72.4</ele>
        <time>2023-07-01T05:58:19Z</time>
      </trkpt>
      <trkpt lat="43.70248" lon="-0.23535">
        <ele>72.4</ele>
        <time>2023-07-01T05:58:20Z</time>
      </trkpt>
      <trkpt lat="43.70247" lon="-0.23523">
        <ele>72.4</ele>
        <time>2023-07-01T05:58:26Z</time>
      </trkpt>
      <trkpt lat="43.70246" lon="-0.23511">
        <ele>72.2</ele>
        <time>2023-07-01T05:58:32Z</time>
      </trkpt>
      <trkpt lat="43.70246" lon="-0.23511">
        <ele>72.2</ele>
        <time>2023-07-01T05:58:33Z</time>
      </trkpt>
      <trkpt lat="43.70245" lon="-0.23507">
        <ele>72.2</ele>
        <time>2023-07-01T05:58:34Z</time>
      </trkpt>
      <trkpt lat="43.70242" lon="-0.23502">
        <ele>72.2</ele>
        <time>2023-07-01T05:58:37Z</time>
      </trkpt>
      <trkpt lat="43.70242" lon="-0.235">
        <ele>72.2</ele>
        <time>2023-07-01T05:58:38Z</time>
      </trkpt>
      <trkpt lat="43.70239" lon="-0.23493">
        <ele>72.2</ele>
        <time>2023-07-01T05:58:43Z</time>
      </trkpt>
      <trkpt lat="43.70238" lon="-0.23491">
        <ele>72.2</ele>
        <time>2023-07-01T05:58:45Z</time>
      </trkpt>
      <trkpt lat="43.70236" lon="-0.23486">
        <ele>72.2</ele>
        <time>2023-07-01T05:58:48Z</time>
      </trkpt>
      <trkpt lat="43.70232" lon="-0.23482">
        <ele>72.2</ele>
        <time>2023-07-01T05:58:51Z</time>
      </trkpt>
      <trkpt lat="43.70228" lon="-0.23475">
        <ele>72.2</ele>
        <time>2023-07-01T05:58:55Z</time>
      </trkpt>
      <trkpt lat="43.70225" lon="-0.23468">
        <ele>72.2</ele>
        <time>2023-07-01T05:58:58Z</time>
      </trkpt>
      <trkpt lat="43.70225" lon="-0.23466">
        <ele>72.2</ele>
        <time>2023-07-01T05:59:00Z</time>
      </trkpt>
      <trkpt lat="43.70222" lon="-0.23458">
        <ele>72.4</ele>
        <time>2023-07-01T05:59:05Z</time>
      </trkpt>
      <trkpt lat="43.70221" lon="-0.23455">
        <ele>72.4</ele>
        <time>2023-07-01T05:59:06Z</time>
      </trkpt>
      <trkpt lat="43.7022" lon="-0.2345">
        <ele>72.6</ele>
        <time>2023-07-01T05:59:09Z</time>
      </trkpt>
      <trkpt lat="43.70219" lon="-0.23449">
        <ele>72.8</ele>
        <time>2023-07-01T05:59:12Z</time>
      </trkpt>
      <trkpt lat="43.70217" lon="-0.23448">
        <ele>72.8</ele>
        <time>2023-07-01T05:59:14Z</time>
      </trkpt>
      <trkpt lat="43.7021" lon="-0.23446">
        <ele>72.8</ele>
        <time>2023-07-01T05:59:19Z</time>
      </trkpt>
      <trkpt lat="43.70203" lon="-0.23447">
        <ele>72.6</ele>
        <time>2023-07-01T05:59:26Z</time>
      </trkpt>
      <trkpt lat="43.70194" lon="-0.23448">
        <ele>72.6</ele>
        <time>2023-07-01T05:59:34Z</time>
      </trkpt>
      <trkpt lat="43.70184" lon="-0.23445">
        <ele>72.8</ele>
        <time>2023-07-01T05:59:41Z</time>
      </trkpt>
      <trkpt lat="43.70176" lon="-0.23445">
        <ele>73</ele>
        <time>2023-07-01T05:59:48Z</time>
      </trkpt>
      <trkpt lat="43.70171" lon="-0.23444">
        <ele>72.8</ele>
        <time>2023-07-01T05:59:51Z</time>
      </trkpt>
      <trkpt lat="43.7017" lon="-0.23444">
        <ele>72.8</ele>
        <time>2023-07-01T05:59:52Z</time>
      </trkpt>
      <trkpt lat="43.70168" lon="-0.23444">
        <ele>72.8</ele>
        <time>2023-07-01T05:59:54Z</time>
      </trkpt>
      <trkpt lat="43.70161" lon="-0.23444">
        <ele>72.4</ele>
        <time>2023-07-01T06:00:00Z</time>
      </trkpt>
      <trkpt lat="43.7016" lon="-0.23444">
        <ele>72.2</ele>
        <time>2023-07-01T06:00:01Z</time>
      </trkpt>
      <trkpt lat="43.70156" lon="-0.23442">
        <ele>72.2</ele>
        <time>2023-07-01T06:00:03Z</time>
      </trkpt>
      <trkpt lat="43.70154" lon="-0.23441">
        <ele>72</ele>
        <time>2023-07-01T06:00:05Z</time>
      </trkpt>
      <trkpt lat="43.7015" lon="-0.23439">
        <ele>71.8</ele>
        <time>2023-07-01T06:00:09Z</time>
      </trkpt>
      <trkpt lat="43.70147" lon="-0.23439">
        <ele>72</ele>
        <time>2023-07-01T06:00:11Z</time>
      </trkpt>
      <trkpt lat="43.70145" lon="-0.23438">
        <ele>72</ele>
        <time>2023-07-01T06:00:12Z</time>
      </trkpt>
      <trkpt lat="43.70141" lon="-0.23432">
        <ele>72.2</ele>
        <time>2023-07-01T06:00:16Z</time>
      </trkpt>
      <trkpt lat="43.7014" lon="-0.23431">
        <ele>72.2</ele>
        <time>2023-07-01T06:00:17Z</time>
      </trkpt>
      <trkpt lat="43.70139" lon="-0.2343">
        <ele>72.2</ele>
        <time>2023-07-01T06:00:18Z</time>
      </trkpt>
      <trkpt lat="43.70134" lon="-0.23429">
        <ele>72.6</ele>
        <time>2023-07-01T06:00:23Z</time>
      </trkpt>
      <trkpt lat="43.7013" lon="-0.23426">
        <ele>72.6</ele>
        <time>2023-07-01T06:00:26Z</time>
      </trkpt>
      <trkpt lat="43.70121" lon="-0.2342">
        <ele>72.4</ele>
        <time>2023-07-01T06:00:34Z</time>
      </trkpt>
      <trkpt lat="43.70116" lon="-0.23418">
        <ele>72.6</ele>
        <time>2023-07-01T06:00:38Z</time>
      </trkpt>
      <trkpt lat="43.70113" lon="-0.23411">
        <ele>72.6</ele>
        <time>2023-07-01T06:04:18Z</time>
      </trkpt>
      <trkpt lat="43.70113" lon="-0.23411">
        <ele>72.6</ele>
        <time>2023-07-01T06:04:19Z</time>
      </trkpt>
      <trkpt lat="43.70113" lon="-0.23411">
        <ele>72.6</ele>
        <time>2023-07-01T06:04:20Z</time>
      </trkpt>
      <trkpt lat="43.70112" lon="-0.23405">
        <ele>73</ele>
        <time>2023-07-01T06:04:23Z</time>
      </trkpt>
      <trkpt lat="43.70111" lon="-0.23403">
        <ele>73.2</ele>
        <time>2023-07-01T06:04:24Z</time>
      </trkpt>
      <trkpt lat="43.70103" lon="-0.23394">
        <ele>73.6</ele>
        <time>2023-07-01T06:04:32Z</time>
      </trkpt>
      <trkpt lat="43.70098" lon="-0.23391">
        <ele>73.4</ele>
        <time>2023-07-01T06:04:37Z</time>
      </trkpt>
      <trkpt lat="43.70093" lon="-0.23387">
        <ele>73.6</ele>
        <time>2023-07-01T06:04:41Z</time>
      </trkpt>
      <trkpt lat="43.70084" lon="-0.23379">
        <ele>73.6</ele>
        <time>2023-07-01T06:04:50Z</time>
      </trkpt>
      <trkpt lat="43.70083" lon="-0.23377">
        <ele>73.6</ele>
        <time>2023-07-01T06:04:51Z</time>
      </trkpt>
      <trkpt lat="43.70082" lon="-0.23376">
        <ele>73.6</ele>
        <time>2023-07-01T06:04:52Z</time>
      </trkpt>
      <trkpt lat="43.70076" lon="-0.23373">
        <ele>73.4</ele>
        <time>2023-07-01T06:04:58Z</time>
      </trkpt>
      <trkpt lat="43.70071" lon="-0.2337">
        <ele>73.4</ele>
        <time>2023-07-01T06:05:03Z</time>
      </trkpt>
      <trkpt lat="43.70063" lon="-0.23364">
        <ele>73</ele>
        <time>2023-07-01T06:05:11Z</time>
      </trkpt>
      <trkpt lat="43.7006" lon="-0.23362">
        <ele>73</ele>
        <time>2023-07-01T06:05:14Z</time>
      </trkpt>
      <trkpt lat="43.70051" lon="-0.23354">
        <ele>73.2</ele>
        <time>2023-07-01T06:05:22Z</time>
      </trkpt>
      <trkpt lat="43.70047" lon="-0.2335">
        <ele>73.4</ele>
        <time>2023-07-01T06:05:26Z</time>
      </trkpt>
      <trkpt lat="43.70042" lon="-0.23345">
        <ele>73.4</ele>
        <time>2023-07-01T06:05:30Z</time>
      </trkpt>
      <trkpt lat="43.70042" lon="-0.23345">
        <ele>73.2</ele>
        <time>2023-07-01T06:05:31Z</time>
      </trkpt>
      <trkpt lat="43.7004" lon="-0.23344">
        <ele>73.2</ele>
        <time>2023-07-01T06:05:32Z</time>
      </trkpt>
      <trkpt lat="43.70031" lon="-0.23336">
        <ele>73.4</ele>
        <time>2023-07-01T06:05:39Z</time>
      </trkpt>
      <trkpt lat="43.70028" lon="-0.23332">
        <ele>73.4</ele>
        <time>2023-07-01T06:05:42Z</time>
      </trkpt>
      <trkpt lat="43.70024" lon="-0.23327">
        <ele>73.4</ele>
        <time>2023-07-01T06:05:46Z</time>
      </trkpt>
      <trkpt lat="43.70022" lon="-0.23325">
        <ele>73.4</ele>
        <time>2023-07-01T06:05:48Z</time>
      </trkpt>
      <trkpt lat="43.70019" lon="-0.23322">
        <ele>73.4</ele>
        <time>2023-07-01T06:05:51Z</time>
      </trkpt>
      <trkpt lat="43.70016" lon="-0.23321">
        <ele>73.6</ele>
        <time>2023-07-01T06:05:54Z</time>
      </trkpt>
      <trkpt lat="43.70012" lon="-0.23319">
        <ele>73.6</ele>
        <time>2023-07-01T06:05:57Z</time>
      </trkpt>
      <trkpt lat="43.70011" lon="-0.23318">
        <ele>73.6</ele>
        <time>2023-07-01T06:05:58Z</time>
      </trkpt>
      <trkpt lat="43.70002" lon="-0.23314">
        <ele>73.4</ele>
        <time>2023-07-01T06:06:05Z</time>
      </trkpt>
      <trkpt lat="43.69993" lon="-0.23307">
        <ele>73.8</ele>
        <time>2023-07-01T06:06:14Z</time>
      </trkpt>
      <trkpt lat="43.6999" lon="-0.23305">
        <ele>73.8</ele>
        <time>2023-07-01T06:06:17Z</time>
      </trkpt>
      <trkpt lat="43.69988" lon="-0.23304">
        <ele>74</ele>
        <time>2023-07-01T06:06:19Z</time>
      </trkpt>
      <trkpt lat="43.69981" lon="-0.23296">
        <ele>74.2</ele>
        <time>2023-07-01T06:06:24Z</time>
      </trkpt>
      <trkpt lat="43.69971" lon="-0.23287">
        <ele>73.6</ele>
        <time>2023-07-01T06:06:33Z</time>
      </trkpt>
      <trkpt lat="43.69961" lon="-0.23275">
        <ele>73.2</ele>
        <time>2023-07-01T06:06:42Z</time>
      </trkpt>
      <trkpt lat="43.69959" lon="-0.23273">
        <ele>73</ele>
        <time>2023-07-01T06:06:44Z</time>
      </trkpt>
      <trkpt lat="43.69957" lon="-0.23271">
        <ele>73</ele>
        <time>2023-07-01T06:06:45Z</time>
      </trkpt>
      <trkpt lat="43.69948" lon="-0.23264">
        <ele>73</ele>
        <time>2023-07-01T06:06:54Z</time>
      </trkpt>
      <trkpt lat="43.69945" lon="-0.23261">
        <ele>72.8</ele>
        <time>2023-07-01T06:06:58Z</time>
      </trkpt>
      <trkpt lat="43.69939" lon="-0.23255">
        <ele>72.4</ele>
        <time>2023-07-01T06:07:03Z</time>
      </trkpt>
      <trkpt lat="43.69933" lon="-0.23236">
        <ele>72.2</ele>
        <time>2023-07-01T06:07:12Z</time>
      </trkpt>
      <trkpt lat="43.69932" lon="-0.23229">
        <ele>72</ele>
        <time>2023-07-01T06:07:16Z</time>
      </trkpt>
      <trkpt lat="43.69932" lon="-0.23225">
        <ele>71.8</ele>
        <time>2023-07-01T06:07:19Z</time>
      </trkpt>
      <trkpt lat="43.6993" lon="-0.23218">
        <ele>71.8</ele>
        <time>2023-07-01T06:07:23Z</time>
      </trkpt>
      <trkpt lat="43.6993" lon="-0.23215">
        <ele>72</ele>
        <time>2023-07-01T06:07:25Z</time>
      </trkpt>
      <trkpt lat="43.69929" lon="-0.23211">
        <ele>72</ele>
        <time>2023-07-01T06:07:27Z</time>
      </trkpt>
      <trkpt lat="43.69926" lon="-0.232">
        <ele>72</ele>
        <time>2023-07-01T06:07:35Z</time>
      </trkpt>
      <trkpt lat="43.69925" lon="-0.23187">
        <ele>71.4</ele>
        <time>2023-07-01T06:07:44Z</time>
      </trkpt>
      <trkpt lat="43.69921" lon="-0.23174">
        <ele>71.6</ele>
        <time>2023-07-01T06:07:52Z</time>
      </trkpt>
      <trkpt lat="43.69917" lon="-0.23159">
        <ele>71.6</ele>
        <time>2023-07-01T06:08:01Z</time>
      </trkpt>
      <trkpt lat="43.69913" lon="-0.23138">
        <ele>71.6</ele>
        <time>2023-07-01T06:08:11Z</time>
      </trkpt>
      <trkpt lat="43.69909" lon="-0.23117">
        <ele>71.8</ele>
        <time>2023-07-01T06:08:21Z</time>
      </trkpt>
      <trkpt lat="43.69906" lon="-0.231">
        <ele>71.6</ele>
        <time>2023-07-01T06:08:30Z</time>
      </trkpt>
      <trkpt lat="43.69903" lon="-0.23089">
        <ele>71.4</ele>
        <time>2023-07-01T06:08:36Z</time>
      </trkpt>
      <trkpt lat="43.69902" lon="-0.23082">
        <ele>71.8</ele>
        <time>2023-07-01T06:08:40Z</time>
      </trkpt>
      <trkpt lat="43.69899" lon="-0.23062">
        <ele>71.8</ele>
        <time>2023-07-01T06:08:50Z</time>
      </trkpt>
      <trkpt lat="43.69895" lon="-0.23049">
        <ele>71.8</ele>
        <time>2023-07-01T06:08:58Z</time>
      </trkpt>
      <trkpt lat="43.69894" lon="-0.23043">
        <ele>71.6</ele>
        <time>2023-07-01T06:09:01Z</time>
      </trkpt>
      <trkpt lat="43.69888" lon="-0.23026">
        <ele>71.8</ele>
        <time>2023-07-01T06:09:11Z</time>
      </trkpt>
      <trkpt lat="43.69887" lon="-0.2302">
        <ele>71.6</ele>
        <time>2023-07-01T06:09:15Z</time>
      </trkpt>
      <trkpt lat="43.69886" lon="-0.23015">
        <ele>71.6</ele>
        <time>2023-07-01T06:09:19Z</time>
      </trkpt>
      <trkpt lat="43.69883" lon="-0.23">
        <ele>71.8</ele>
        <time>2023-07-01T06:09:26Z</time>
      </trkpt>
      <trkpt lat="43.69879" lon="-0.22985">
        <ele>71.6</ele>
        <time>2023-07-01T06:09:35Z</time>
      </trkpt>
      <trkpt lat="43.69879" lon="-0.22983">
        <ele>71.6</ele>
        <time>2023-07-01T06:09:36Z</time>
      </trkpt>
      <trkpt lat="43.69879" lon="-0.22979">
        <ele>71.8</ele>
        <time>2023-07-01T06:09:38Z</time>
      </trkpt>
      <trkpt lat="43.69877" lon="-0.22975">
        <ele>72</ele>
        <time>2023-07-01T06:09:41Z</time>
      </trkpt>
      <trkpt lat="43.69875" lon="-0.22967">
        <ele>72.2</ele>
        <time>2023-07-01T06:09:46Z</time>
      </trkpt>
      <trkpt lat="43.69871" lon="-0.22949">
        <ele>72</ele>
        <time>2023-07-01T06:09:56Z</time>
      </trkpt>
      <trkpt lat="43.69868" lon="-0.22935">
        <ele>72.2</ele>
        <time>2023-07-01T06:10:04Z</time>
      </trkpt>
      <trkpt lat="43.69867" lon="-0.22933">
        <ele>72.2</ele>
        <time>2023-07-01T06:10:05Z</time>
      </trkpt>
      <trkpt lat="43.69866" lon="-0.22927">
        <ele>72.2</ele>
        <time>2023-07-01T06:10:08Z</time>
      </trkpt>
      <trkpt lat="43.69865" lon="-0.22916">
        <ele>72.4</ele>
        <time>2023-07-01T06:10:15Z</time>
      </trkpt>
      <trkpt lat="43.69862" lon="-0.22899">
        <ele>72.2</ele>
        <time>2023-07-01T06:10:25Z</time>
      </trkpt>
      <trkpt lat="43.6986" lon="-0.22892">
        <ele>72.4</ele>
        <time>2023-07-01T06:10:29Z</time>
      </trkpt>
      <trkpt lat="43.69859" lon="-0.2289">
        <ele>72.4</ele>
        <time>2023-07-01T06:10:31Z</time>
      </trkpt>
      <trkpt lat="43.69857" lon="-0.2288">
        <ele>72.6</ele>
        <time>2023-07-01T06:10:37Z</time>
      </trkpt>
      <trkpt lat="43.69856" lon="-0.22875">
        <ele>72.4</ele>
        <time>2023-07-01T06:10:39Z</time>
      </trkpt>
      <trkpt lat="43.69853" lon="-0.22861">
        <ele>72.2</ele>
        <time>2023-07-01T06:10:47Z</time>
      </trkpt>
      <trkpt lat="43.69853" lon="-0.22857">
        <ele>72.2</ele>
        <time>2023-07-01T06:10:49Z</time>
      </trkpt>
      <trkpt lat="43.6985" lon="-0.22847">
        <ele>72.2</ele>
        <time>2023-07-01T06:10:55Z</time>
      </trkpt>
      <trkpt lat="43.69848" lon="-0.22841">
        <ele>72</ele>
        <time>2023-07-01T06:10:59Z</time>
      </trkpt>
      <trkpt lat="43.69847" lon="-0.22838">
        <ele>72</ele>
        <time>2023-07-01T06:11:01Z</time>
      </trkpt>
      <trkpt lat="43.69844" lon="-0.22823">
        <ele>72.2</ele>
        <time>2023-07-01T06:11:10Z</time>
      </trkpt>
      <trkpt lat="43.69841" lon="-0.22812">
        <ele>72.4</ele>
        <time>2023-07-01T06:11:17Z</time>
      </trkpt>
      <trkpt lat="43.6984" lon="-0.22807">
        <ele>72.6</ele>
        <time>2023-07-01T06:11:20Z</time>
      </trkpt>
      <trkpt lat="43.69839" lon="-0.22802">
        <ele>72.6</ele>
        <time>2023-07-01T06:11:23Z</time>
      </trkpt>
      <trkpt lat="43.69837" lon="-0.22794">
        <ele>72.6</ele>
        <time>2023-07-01T06:11:27Z</time>
      </trkpt>
      <trkpt lat="43.69832" lon="-0.22779">
        <ele>72.6</ele>
        <time>2023-07-01T06:11:36Z</time>
      </trkpt>
      <trkpt lat="43.69828" lon="-0.22764">
        <ele>72.6</ele>
        <time>2023-07-01T06:11:45Z</time>
      </trkpt>
      <trkpt lat="43.69826" lon="-0.22754">
        <ele>72.4</ele>
        <time>2023-07-01T06:11:51Z</time>
      </trkpt>
      <trkpt lat="43.69826" lon="-0.22746">
        <ele>72.4</ele>
        <time>2023-07-01T06:11:55Z</time>
      </trkpt>
      <trkpt lat="43.69824" lon="-0.22738">
        <ele>72.6</ele>
        <time>2023-07-01T06:12:00Z</time>
      </trkpt>
      <trkpt lat="43.69822" lon="-0.22731">
        <ele>72.6</ele>
        <time>2023-07-01T06:12:04Z</time>
      </trkpt>
      <trkpt lat="43.69821" lon="-0.22728">
        <ele>72.4</ele>
        <time>2023-07-01T06:12:06Z</time>
      </trkpt>
      <trkpt lat="43.69817" lon="-0.22711">
        <ele>72.8</ele>
        <time>2023-07-01T06:12:16Z</time>
      </trkpt>
      <trkpt lat="43.69816" lon="-0.22705">
        <ele>72.8</ele>
        <time>2023-07-01T06:12:20Z</time>
      </trkpt>
      <trkpt lat="43.69815" lon="-0.22697">
        <ele>72.8</ele>
        <time>2023-07-01T06:12:24Z</time>
      </trkpt>
      <trkpt lat="43.69814" lon="-0.22694">
        <ele>72.4</ele>
        <time>2023-07-01T06:12:26Z</time>
      </trkpt>
      <trkpt lat="43.69811" lon="-0.22679">
        <ele>72.4</ele>
        <time>2023-07-01T06:12:35Z</time>
      </trkpt>
      <trkpt lat="43.69806" lon="-0.22666">
        <ele>72.6</ele>
        <time>2023-07-01T06:12:42Z</time>
      </trkpt>
      <trkpt lat="43.69805" lon="-0.22665">
        <ele>72.6</ele>
        <time>2023-07-01T06:12:43Z</time>
      </trkpt>
      <trkpt lat="43.69803" lon="-0.22653">
        <ele>72.2</ele>
        <time>2023-07-01T06:12:51Z</time>
      </trkpt>
      <trkpt lat="43.69801" lon="-0.22636">
        <ele>72.6</ele>
        <time>2023-07-01T06:13:01Z</time>
      </trkpt>
      <trkpt lat="43.698" lon="-0.22633">
        <ele>72.2</ele>
        <time>2023-07-01T06:13:03Z</time>
      </trkpt>
      <trkpt lat="43.69798" lon="-0.22623">
        <ele>72</ele>
        <time>2023-07-01T06:13:09Z</time>
      </trkpt>
      <trkpt lat="43.69796" lon="-0.2261">
        <ele>72.6</ele>
        <time>2023-07-01T06:13:16Z</time>
      </trkpt>
      <trkpt lat="43.69796" lon="-0.22606">
        <ele>72.6</ele>
        <time>2023-07-01T06:13:19Z</time>
      </trkpt>
      <trkpt lat="43.69793" lon="-0.22594">
        <ele>72.8</ele>
        <time>2023-07-01T06:13:26Z</time>
      </trkpt>
      <trkpt lat="43.69792" lon="-0.22591">
        <ele>72.8</ele>
        <time>2023-07-01T06:13:28Z</time>
      </trkpt>
      <trkpt lat="43.69788" lon="-0.22575">
        <ele>72.8</ele>
        <time>2023-07-01T06:13:37Z</time>
      </trkpt>
      <trkpt lat="43.69785" lon="-0.22562">
        <ele>73.2</ele>
        <time>2023-07-01T06:13:45Z</time>
      </trkpt>
      <trkpt lat="43.69784" lon="-0.22551">
        <ele>73.4</ele>
        <time>2023-07-01T06:13:52Z</time>
      </trkpt>
      <trkpt lat="43.69783" lon="-0.22549">
        <ele>73.4</ele>
        <time>2023-07-01T06:13:53Z</time>
      </trkpt>
      <trkpt lat="43.6978" lon="-0.22543">
        <ele>73.2</ele>
        <time>2023-07-01T06:13:57Z</time>
      </trkpt>
      <trkpt lat="43.6978" lon="-0.2254">
        <ele>73</ele>
        <time>2023-07-01T06:13:59Z</time>
      </trkpt>
      <trkpt lat="43.69779" lon="-0.22537">
        <ele>73</ele>
        <time>2023-07-01T06:14:01Z</time>
      </trkpt>
      <trkpt lat="43.69775" lon="-0.22521">
        <ele>72.6</ele>
        <time>2023-07-01T06:14:10Z</time>
      </trkpt>
      <trkpt lat="43.69773" lon="-0.22509">
        <ele>72.6</ele>
        <time>2023-07-01T06:14:19Z</time>
      </trkpt>
      <trkpt lat="43.6977" lon="-0.22493">
        <ele>72.8</ele>
        <time>2023-07-01T06:14:27Z</time>
      </trkpt>
      <trkpt lat="43.69768" lon="-0.22486">
        <ele>72.8</ele>
        <time>2023-07-01T06:14:30Z</time>
      </trkpt>
      <trkpt lat="43.69767" lon="-0.22484">
        <ele>73</ele>
        <time>2023-07-01T06:14:31Z</time>
      </trkpt>
      <trkpt lat="43.69767" lon="-0.22483">
        <ele>73</ele>
        <time>2023-07-01T06:14:32Z</time>
      </trkpt>
      <trkpt lat="43.69766" lon="-0.22481">
        <ele>73</ele>
        <time>2023-07-01T06:14:33Z</time>
      </trkpt>
      <trkpt lat="43.69766" lon="-0.22479">
        <ele>73</ele>
        <time>2023-07-01T06:14:34Z</time>
      </trkpt>
      <trkpt lat="43.69766" lon="-0.22477">
        <ele>73</ele>
        <time>2023-07-01T06:14:35Z</time>
      </trkpt>
      <trkpt lat="43.69763" lon="-0.22467">
        <ele>72.8</ele>
        <time>2023-07-01T06:14:42Z</time>
      </trkpt>
      <trkpt lat="43.69763" lon="-0.22466">
        <ele>72.8</ele>
        <time>2023-07-01T06:14:43Z</time>
      </trkpt>
      <trkpt lat="43.69762" lon="-0.22462">
        <ele>72.8</ele>
        <time>2023-07-01T06:14:45Z</time>
      </trkpt>
      <trkpt lat="43.69761" lon="-0.22455">
        <ele>73.2</ele>
        <time>2023-07-01T06:14:49Z</time>
      </trkpt>
      <trkpt lat="43.6976" lon="-0.22451">
        <ele>73.2</ele>
        <time>2023-07-01T06:14:51Z</time>
      </trkpt>
      <trkpt lat="43.69757" lon="-0.22444">
        <ele>73.2</ele>
        <time>2023-07-01T06:14:55Z</time>
      </trkpt>
      <trkpt lat="43.69756" lon="-0.22439">
        <ele>73.2</ele>
        <time>2023-07-01T06:14:58Z</time>
      </trkpt>
      <trkpt lat="43.69756" lon="-0.22438">
        <ele>73.4</ele>
        <time>2023-07-01T06:14:59Z</time>
      </trkpt>
      <trkpt lat="43.69756" lon="-0.22435">
        <ele>73.4</ele>
        <time>2023-07-01T06:15:01Z</time>
      </trkpt>
      <trkpt lat="43.69754" lon="-0.22425">
        <ele>73.6</ele>
        <time>2023-07-01T06:15:07Z</time>
      </trkpt>
      <trkpt lat="43.69751" lon="-0.22411">
        <ele>73.4</ele>
        <time>2023-07-01T06:15:15Z</time>
      </trkpt>
      <trkpt lat="43.69749" lon="-0.224">
        <ele>73.4</ele>
        <time>2023-07-01T06:15:21Z</time>
      </trkpt>
      <trkpt lat="43.69748" lon="-0.22399">
        <ele>73.4</ele>
        <time>2023-07-01T06:15:22Z</time>
      </trkpt>
      <trkpt lat="43.69748" lon="-0.22397">
        <ele>73.4</ele>
        <time>2023-07-01T06:15:23Z</time>
      </trkpt>
      <trkpt lat="43.69748" lon="-0.22389">
        <ele>73.4</ele>
        <time>2023-07-01T06:15:28Z</time>
      </trkpt>
      <trkpt lat="43.69747" lon="-0.22386">
        <ele>73.4</ele>
        <time>2023-07-01T06:15:30Z</time>
      </trkpt>
      <trkpt lat="43.69747" lon="-0.22385">
        <ele>73.2</ele>
        <time>2023-07-01T06:15:31Z</time>
      </trkpt>
      <trkpt lat="43.69744" lon="-0.22375">
        <ele>73</ele>
        <time>2023-07-01T06:15:37Z</time>
      </trkpt>
      <trkpt lat="43.69742" lon="-0.22366">
        <ele>73.4</ele>
        <time>2023-07-01T06:15:43Z</time>
      </trkpt>
      <trkpt lat="43.69742" lon="-0.22362">
        <ele>73.4</ele>
        <time>2023-07-01T06:15:45Z</time>
      </trkpt>
      <trkpt lat="43.69737" lon="-0.22345">
        <ele>73</ele>
        <time>2023-07-01T06:15:54Z</time>
      </trkpt>
      <trkpt lat="43.69733" lon="-0.22335">
        <ele>73.4</ele>
        <time>2023-07-01T06:16:00Z</time>
      </trkpt>
      <trkpt lat="43.69733" lon="-0.22333">
        <ele>73.4</ele>
        <time>2023-07-01T06:16:01Z</time>
      </trkpt>
      <trkpt lat="43.69731" lon="-0.22323">
        <ele>73.2</ele>
        <time>2023-07-01T06:16:07Z</time>
      </trkpt>
      <trkpt lat="43.69729" lon="-0.2231">
        <ele>73.2</ele>
        <time>2023-07-01T06:16:15Z</time>
      </trkpt>
      <trkpt lat="43.69726" lon="-0.22292">
        <ele>72.6</ele>
        <time>2023-07-01T06:16:24Z</time>
      </trkpt>
      <trkpt lat="43.69725" lon="-0.2229">
        <ele>72.6</ele>
        <time>2023-07-01T06:16:25Z</time>
      </trkpt>
      <trkpt lat="43.69725" lon="-0.22288">
        <ele>72.6</ele>
        <time>2023-07-01T06:16:26Z</time>
      </trkpt>
      <trkpt lat="43.69723" lon="-0.22277">
        <ele>73</ele>
        <time>2023-07-01T06:16:33Z</time>
      </trkpt>
      <trkpt lat="43.69721" lon="-0.22268">
        <ele>72.8</ele>
        <time>2023-07-01T06:16:39Z</time>
      </trkpt>
      <trkpt lat="43.6972" lon="-0.22263">
        <ele>73</ele>
        <time>2023-07-01T06:16:42Z</time>
      </trkpt>
      <trkpt lat="43.69717" lon="-0.22249">
        <ele>72.8</ele>
        <time>2023-07-01T06:16:50Z</time>
      </trkpt>
      <trkpt lat="43.69716" lon="-0.22244">
        <ele>72.8</ele>
        <time>2023-07-01T06:16:53Z</time>
      </trkpt>
      <trkpt lat="43.69715" lon="-0.22235">
        <ele>73</ele>
        <time>2023-07-01T06:16:58Z</time>
      </trkpt>
      <trkpt lat="43.69714" lon="-0.22229">
        <ele>73</ele>
        <time>2023-07-01T06:17:03Z</time>
      </trkpt>
      <trkpt lat="43.69711" lon="-0.22223">
        <ele>73</ele>
        <time>2023-07-01T06:17:07Z</time>
      </trkpt>
      <trkpt lat="43.69708" lon="-0.22209">
        <ele>73.2</ele>
        <time>2023-07-01T06:17:13Z</time>
      </trkpt>
      <trkpt lat="43.69707" lon="-0.22198">
        <ele>73.4</ele>
        <time>2023-07-01T06:17:19Z</time>
      </trkpt>
      <trkpt lat="43.69706" lon="-0.22196">
        <ele>73.4</ele>
        <time>2023-07-01T06:17:20Z</time>
      </trkpt>
      <trkpt lat="43.69701" lon="-0.22177">
        <ele>73.2</ele>
        <time>2023-07-01T06:17:30Z</time>
      </trkpt>
      <trkpt lat="43.69699" lon="-0.22167">
        <ele>73.6</ele>
        <time>2023-07-01T06:17:36Z</time>
      </trkpt>
      <trkpt lat="43.69699" lon="-0.22165">
        <ele>73.8</ele>
        <time>2023-07-01T06:17:37Z</time>
      </trkpt>
      <trkpt lat="43.69698" lon="-0.2216">
        <ele>73.4</ele>
        <time>2023-07-01T06:17:40Z</time>
      </trkpt>
      <trkpt lat="43.69697" lon="-0.2215">
        <ele>73.6</ele>
        <time>2023-07-01T06:17:46Z</time>
      </trkpt>
      <trkpt lat="43.69696" lon="-0.22144">
        <ele>73.4</ele>
        <time>2023-07-01T06:17:49Z</time>
      </trkpt>
      <trkpt lat="43.69693" lon="-0.22133">
        <ele>73.8</ele>
        <time>2023-07-01T06:17:55Z</time>
      </trkpt>
      <trkpt lat="43.6969" lon="-0.22119">
        <ele>73.6</ele>
        <time>2023-07-01T06:18:02Z</time>
      </trkpt>
      <trkpt lat="43.69687" lon="-0.22107">
        <ele>73.2</ele>
        <time>2023-07-01T06:18:09Z</time>
      </trkpt>
      <trkpt lat="43.69685" lon="-0.22102">
        <ele>73</ele>
        <time>2023-07-01T06:18:12Z</time>
      </trkpt>
      <trkpt lat="43.69685" lon="-0.22096">
        <ele>73</ele>
        <time>2023-07-01T06:18:15Z</time>
      </trkpt>
      <trkpt lat="43.69684" lon="-0.22094">
        <ele>73</ele>
        <time>2023-07-01T06:18:17Z</time>
      </trkpt>
      <trkpt lat="43.69684" lon="-0.22092">
        <ele>73</ele>
        <time>2023-07-01T06:18:18Z</time>
      </trkpt>
      <trkpt lat="43.69683" lon="-0.22086">
        <ele>73.2</ele>
        <time>2023-07-01T06:18:21Z</time>
      </trkpt>
      <trkpt lat="43.69681" lon="-0.22079">
        <ele>73</ele>
        <time>2023-07-01T06:18:25Z</time>
      </trkpt>
      <trkpt lat="43.6968" lon="-0.22065">
        <ele>73.2</ele>
        <time>2023-07-01T06:18:33Z</time>
      </trkpt>
      <trkpt lat="43.6968" lon="-0.22061">
        <ele>73.4</ele>
        <time>2023-07-01T06:18:35Z</time>
      </trkpt>
      <trkpt lat="43.69678" lon="-0.22051">
        <ele>73.4</ele>
        <time>2023-07-01T06:18:41Z</time>
      </trkpt>
      <trkpt lat="43.69672" lon="-0.22036">
        <ele>73.4</ele>
        <time>2023-07-01T06:18:50Z</time>
      </trkpt>
      <trkpt lat="43.69669" lon="-0.22022">
        <ele>73.4</ele>
        <time>2023-07-01T06:18:59Z</time>
      </trkpt>
      <trkpt lat="43.69669" lon="-0.2202">
        <ele>72.8</ele>
        <time>2023-07-01T06:19:00Z</time>
      </trkpt>
      <trkpt lat="43.69665" lon="-0.22018">
        <ele>72.8</ele>
        <time>2023-07-01T06:20:36Z</time>
      </trkpt>
      <trkpt lat="43.69665" lon="-0.22013">
        <ele>72.8</ele>
        <time>2023-07-01T06:20:41Z</time>
      </trkpt>
      <trkpt lat="43.69664" lon="-0.22008">
        <ele>73</ele>
        <time>2023-07-01T06:20:44Z</time>
      </trkpt>
      <trkpt lat="43.69664" lon="-0.22007">
        <ele>73</ele>
        <time>2023-07-01T06:20:45Z</time>
      </trkpt>
      <trkpt lat="43.69664" lon="-0.22005">
        <ele>73</ele>
        <time>2023-07-01T06:20:46Z</time>
      </trkpt>
      <trkpt lat="43.69664" lon="-0.22004">
        <ele>73</ele>
        <time>2023-07-01T06:20:47Z</time>
      </trkpt>
      <trkpt lat="43.69664" lon="-0.22002">
        <ele>73.2</ele>
        <time>2023-07-01T06:20:48Z</time>
      </trkpt>
      <trkpt lat="43.69663" lon="-0.21998">
        <ele>73.4</ele>
        <time>2023-07-01T06:20:51Z</time>
      </trkpt>
      <trkpt lat="43.69659" lon="-0.21983">
        <ele>73</ele>
        <time>2023-07-01T06:20:59Z</time>
      </trkpt>
      <trkpt lat="43.69659" lon="-0.21978">
        <ele>73</ele>
        <time>2023-07-01T06:21:02Z</time>
      </trkpt>
      <trkpt lat="43.69658" lon="-0.21967">
        <ele>73</ele>
        <time>2023-07-01T06:21:09Z</time>
      </trkpt>
      <trkpt lat="43.69656" lon="-0.21951">
        <ele>72.6</ele>
        <time>2023-07-01T06:21:18Z</time>
      </trkpt>
      <trkpt lat="43.69652" lon="-0.21936">
        <ele>72.8</ele>
        <time>2023-07-01T06:21:27Z</time>
      </trkpt>
      <trkpt lat="43.69647" lon="-0.2192">
        <ele>72.8</ele>
        <time>2023-07-01T06:21:36Z</time>
      </trkpt>
      <trkpt lat="43.69645" lon="-0.21908">
        <ele>72.8</ele>
        <time>2023-07-01T06:21:43Z</time>
      </trkpt>
      <trkpt lat="43.69644" lon="-0.21906">
        <ele>72.8</ele>
        <time>2023-07-01T06:21:44Z</time>
      </trkpt>
      <trkpt lat="43.69644" lon="-0.21902">
        <ele>72.6</ele>
        <time>2023-07-01T06:21:46Z</time>
      </trkpt>
      <trkpt lat="43.69643" lon="-0.21892">
        <ele>72.8</ele>
        <time>2023-07-01T06:21:52Z</time>
      </trkpt>
      <trkpt lat="43.69642" lon="-0.2189">
        <ele>72.8</ele>
        <time>2023-07-01T06:21:53Z</time>
      </trkpt>
      <trkpt lat="43.69638" lon="-0.21874">
        <ele>72.8</ele>
        <time>2023-07-01T06:22:02Z</time>
      </trkpt>
      <trkpt lat="43.69634" lon="-0.21856">
        <ele>73.2</ele>
        <time>2023-07-01T06:22:12Z</time>
      </trkpt>
      <trkpt lat="43.69633" lon="-0.21845">
        <ele>72.8</ele>
        <time>2023-07-01T06:22:19Z</time>
      </trkpt>
      <trkpt lat="43.6963" lon="-0.21833">
        <ele>72.8</ele>
        <time>2023-07-01T06:22:27Z</time>
      </trkpt>
      <trkpt lat="43.69629" lon="-0.21827">
        <ele>72.8</ele>
        <time>2023-07-01T06:22:30Z</time>
      </trkpt>
      <trkpt lat="43.69627" lon="-0.21821">
        <ele>73</ele>
        <time>2023-07-01T06:22:35Z</time>
      </trkpt>
      <trkpt lat="43.69627" lon="-0.21815">
        <ele>73</ele>
        <time>2023-07-01T06:22:38Z</time>
      </trkpt>
      <trkpt lat="43.69624" lon="-0.21802">
        <ele>72.8</ele>
        <time>2023-07-01T06:22:45Z</time>
      </trkpt>
      <trkpt lat="43.6962" lon="-0.21789">
        <ele>72.8</ele>
        <time>2023-07-01T06:22:53Z</time>
      </trkpt>
      <trkpt lat="43.69617" lon="-0.21777">
        <ele>72.6</ele>
        <time>2023-07-01T06:22:59Z</time>
      </trkpt>
      <trkpt lat="43.69616" lon="-0.21772">
        <ele>72.6</ele>
        <time>2023-07-01T06:23:03Z</time>
      </trkpt>
      <trkpt lat="43.69614" lon="-0.21764">
        <ele>73</ele>
        <time>2023-07-01T06:23:07Z</time>
      </trkpt>
      <trkpt lat="43.69611" lon="-0.21755">
        <ele>73</ele>
        <time>2023-07-01T06:23:13Z</time>
      </trkpt>
      <trkpt lat="43.69607" lon="-0.21742">
        <ele>73</ele>
        <time>2023-07-01T06:23:21Z</time>
      </trkpt>
      <trkpt lat="43.69604" lon="-0.21726">
        <ele>72.8</ele>
        <time>2023-07-01T06:23:30Z</time>
      </trkpt>
      <trkpt lat="43.69601" lon="-0.21712">
        <ele>72.6</ele>
        <time>2023-07-01T06:23:38Z</time>
      </trkpt>
      <trkpt lat="43.696" lon="-0.21706">
        <ele>72.6</ele>
        <time>2023-07-01T06:23:41Z</time>
      </trkpt>
      <trkpt lat="43.69599" lon="-0.21701">
        <ele>72.6</ele>
        <time>2023-07-01T06:23:44Z</time>
      </trkpt>
      <trkpt lat="43.69598" lon="-0.21695">
        <ele>72.8</ele>
        <time>2023-07-01T06:23:48Z</time>
      </trkpt>
      <trkpt lat="43.69598" lon="-0.21693">
        <ele>73</ele>
        <time>2023-07-01T06:23:49Z</time>
      </trkpt>
      <trkpt lat="43.69598" lon="-0.21691">
        <ele>73</ele>
        <time>2023-07-01T06:23:50Z</time>
      </trkpt>
      <trkpt lat="43.69597" lon="-0.21685">
        <ele>73.2</ele>
        <time>2023-07-01T06:23:54Z</time>
      </trkpt>
      <trkpt lat="43.69597" lon="-0.21682">
        <ele>73.4</ele>
        <time>2023-07-01T06:23:55Z</time>
      </trkpt>
      <trkpt lat="43.69596" lon="-0.21678">
        <ele>73.4</ele>
        <time>2023-07-01T06:23:58Z</time>
      </trkpt>
      <trkpt lat="43.69592" lon="-0.21667">
        <ele>73</ele>
        <time>2023-07-01T06:24:05Z</time>
      </trkpt>
      <trkpt lat="43.69591" lon="-0.21663">
        <ele>73</ele>
        <time>2023-07-01T06:24:07Z</time>
      </trkpt>
      <trkpt lat="43.6959" lon="-0.21658">
        <ele>72.8</ele>
        <time>2023-07-01T06:24:10Z</time>
      </trkpt>
      <trkpt lat="43.69588" lon="-0.21649">
        <ele>73</ele>
        <time>2023-07-01T06:24:15Z</time>
      </trkpt>
      <trkpt lat="43.69588" lon="-0.21647">
        <ele>73</ele>
        <time>2023-07-01T06:24:16Z</time>
      </trkpt>
      <trkpt lat="43.69583" lon="-0.21634">
        <ele>73.2</ele>
        <time>2023-07-01T06:24:24Z</time>
      </trkpt>
      <trkpt lat="43.69582" lon="-0.21631">
        <ele>73.2</ele>
        <time>2023-07-01T06:24:26Z</time>
      </trkpt>
      <trkpt lat="43.6958" lon="-0.21619">
        <ele>73.2</ele>
        <time>2023-07-01T06:24:33Z</time>
      </trkpt>
      <trkpt lat="43.69578" lon="-0.21613">
        <ele>73</ele>
        <time>2023-07-01T06:24:36Z</time>
      </trkpt>
      <trkpt lat="43.69577" lon="-0.21604">
        <ele>73</ele>
        <time>2023-07-01T06:24:41Z</time>
      </trkpt>
      <trkpt lat="43.69577" lon="-0.21603">
        <ele>73</ele>
        <time>2023-07-01T06:24:42Z</time>
      </trkpt>
      <trkpt lat="43.69576" lon="-0.21594">
        <ele>73.2</ele>
        <time>2023-07-01T06:24:48Z</time>
      </trkpt>
      <trkpt lat="43.69574" lon="-0.2158">
        <ele>73</ele>
        <time>2023-07-01T06:24:56Z</time>
      </trkpt>
      <trkpt lat="43.69573" lon="-0.21576">
        <ele>73</ele>
        <time>2023-07-01T06:24:58Z</time>
      </trkpt>
      <trkpt lat="43.69571" lon="-0.21571">
        <ele>72.8</ele>
        <time>2023-07-01T06:25:01Z</time>
      </trkpt>
      <trkpt lat="43.6957" lon="-0.21564">
        <ele>72.8</ele>
        <time>2023-07-01T06:25:05Z</time>
      </trkpt>
      <trkpt lat="43.69569" lon="-0.21556">
        <ele>72.8</ele>
        <time>2023-07-01T06:25:09Z</time>
      </trkpt>
      <trkpt lat="43.69568" lon="-0.21552">
        <ele>73</ele>
        <time>2023-07-01T06:25:11Z</time>
      </trkpt>
      <trkpt lat="43.69567" lon="-0.21547">
        <ele>73</ele>
        <time>2023-07-01T06:25:14Z</time>
      </trkpt>
      <trkpt lat="43.69566" lon="-0.21536">
        <ele>73.2</ele>
        <time>2023-07-01T06:25:20Z</time>
      </trkpt>
      <trkpt lat="43.69565" lon="-0.21532">
        <ele>73.2</ele>
        <time>2023-07-01T06:25:22Z</time>
      </trkpt>
      <trkpt lat="43.69564" lon="-0.21528">
        <ele>73</ele>
        <time>2023-07-01T06:25:24Z</time>
      </trkpt>
      <trkpt lat="43.6956" lon="-0.21511">
        <ele>73</ele>
        <time>2023-07-01T06:25:33Z</time>
      </trkpt>
      <trkpt lat="43.69557" lon="-0.21495">
        <ele>73</ele>
        <time>2023-07-01T06:25:41Z</time>
      </trkpt>
      <trkpt lat="43.69555" lon="-0.21488">
        <ele>73</ele>
        <time>2023-07-01T06:25:47Z</time>
      </trkpt>
      <trkpt lat="43.69553" lon="-0.21481">
        <ele>73.2</ele>
        <time>2023-07-01T06:25:51Z</time>
      </trkpt>
      <trkpt lat="43.69552" lon="-0.21476">
        <ele>73</ele>
        <time>2023-07-01T06:25:54Z</time>
      </trkpt>
      <trkpt lat="43.69551" lon="-0.21464">
        <ele>73</ele>
        <time>2023-07-01T06:26:01Z</time>
      </trkpt>
      <trkpt lat="43.69546" lon="-0.21442">
        <ele>73.4</ele>
        <time>2023-07-01T06:26:13Z</time>
      </trkpt>
      <trkpt lat="43.69542" lon="-0.21422">
        <ele>73.4</ele>
        <time>2023-07-01T06:26:25Z</time>
      </trkpt>
      <trkpt lat="43.69537" lon="-0.21406">
        <ele>73.4</ele>
        <time>2023-07-01T06:26:33Z</time>
      </trkpt>
      <trkpt lat="43.69535" lon="-0.21393">
        <ele>73</ele>
        <time>2023-07-01T06:26:40Z</time>
      </trkpt>
      <trkpt lat="43.69534" lon="-0.21383">
        <ele>73</ele>
        <time>2023-07-01T06:26:46Z</time>
      </trkpt>
      <trkpt lat="43.69533" lon="-0.21382">
        <ele>73</ele>
        <time>2023-07-01T06:26:47Z</time>
      </trkpt>
      <trkpt lat="43.69533" lon="-0.21378">
        <ele>73.2</ele>
        <time>2023-07-01T06:26:49Z</time>
      </trkpt>
      <trkpt lat="43.69531" lon="-0.21369">
        <ele>73.4</ele>
        <time>2023-07-01T06:26:54Z</time>
      </trkpt>
      <trkpt lat="43.69529" lon="-0.21362">
        <ele>73.4</ele>
        <time>2023-07-01T06:26:58Z</time>
      </trkpt>
      <trkpt lat="43.69528" lon="-0.21358">
        <ele>73.4</ele>
        <time>2023-07-01T06:27:00Z</time>
      </trkpt>
      <trkpt lat="43.69524" lon="-0.21344">
        <ele>73.8</ele>
        <time>2023-07-01T06:27:08Z</time>
      </trkpt>
      <trkpt lat="43.69523" lon="-0.21339">
        <ele>73.4</ele>
        <time>2023-07-01T06:27:11Z</time>
      </trkpt>
      <trkpt lat="43.69521" lon="-0.21327">
        <ele>73.6</ele>
        <time>2023-07-01T06:27:18Z</time>
      </trkpt>
      <trkpt lat="43.69519" lon="-0.21319">
        <ele>73.6</ele>
        <time>2023-07-01T06:27:23Z</time>
      </trkpt>
      <trkpt lat="43.69517" lon="-0.21314">
        <ele>73.4</ele>
        <time>2023-07-01T06:27:26Z</time>
      </trkpt>
      <trkpt lat="43.69513" lon="-0.21296">
        <ele>73.6</ele>
        <time>2023-07-01T06:27:36Z</time>
      </trkpt>
      <trkpt lat="43.69513" lon="-0.21294">
        <ele>73.6</ele>
        <time>2023-07-01T06:27:37Z</time>
      </trkpt>
      <trkpt lat="43.69511" lon="-0.21276">
        <ele>73.8</ele>
        <time>2023-07-01T06:27:47Z</time>
      </trkpt>
      <trkpt lat="43.69509" lon="-0.21265">
        <ele>73.8</ele>
        <time>2023-07-01T06:27:53Z</time>
      </trkpt>
      <trkpt lat="43.69508" lon="-0.21257">
        <ele>73.8</ele>
        <time>2023-07-01T06:27:57Z</time>
      </trkpt>
      <trkpt lat="43.69503" lon="-0.21238">
        <ele>73.8</ele>
        <time>2023-07-01T06:28:08Z</time>
      </trkpt>
      <trkpt lat="43.69499" lon="-0.2122">
        <ele>73.8</ele>
        <time>2023-07-01T06:28:18Z</time>
      </trkpt>
      <trkpt lat="43.69498" lon="-0.21216">
        <ele>73.6</ele>
        <time>2023-07-01T06:28:20Z</time>
      </trkpt>
      <trkpt lat="43.69496" lon="-0.21207">
        <ele>73.6</ele>
        <time>2023-07-01T06:28:25Z</time>
      </trkpt>
      <trkpt lat="43.69496" lon="-0.21206">
        <ele>73.8</ele>
        <time>2023-07-01T06:28:26Z</time>
      </trkpt>
      <trkpt lat="43.69495" lon="-0.21188">
        <ele>73.6</ele>
        <time>2023-07-01T06:28:36Z</time>
      </trkpt>
      <trkpt lat="43.69493" lon="-0.21183">
        <ele>73.8</ele>
        <time>2023-07-01T06:28:39Z</time>
      </trkpt>
      <trkpt lat="43.69493" lon="-0.21181">
        <ele>73.8</ele>
        <time>2023-07-01T06:28:40Z</time>
      </trkpt>
      <trkpt lat="43.6949" lon="-0.21172">
        <ele>74</ele>
        <time>2023-07-01T06:28:45Z</time>
      </trkpt>
      <trkpt lat="43.69489" lon="-0.21166">
        <ele>74.2</ele>
        <time>2023-07-01T06:28:49Z</time>
      </trkpt>
      <trkpt lat="43.69488" lon="-0.21158">
        <ele>74.2</ele>
        <time>2023-07-01T06:28:53Z</time>
      </trkpt>
      <trkpt lat="43.69487" lon="-0.21155">
        <ele>74</ele>
        <time>2023-07-01T06:28:55Z</time>
      </trkpt>
      <trkpt lat="43.69484" lon="-0.21141">
        <ele>73.8</ele>
        <time>2023-07-01T06:29:03Z</time>
      </trkpt>
      <trkpt lat="43.69481" lon="-0.21126">
        <ele>74.2</ele>
        <time>2023-07-01T06:29:11Z</time>
      </trkpt>
      <trkpt lat="43.69479" lon="-0.21114">
        <ele>74.2</ele>
        <time>2023-07-01T06:29:18Z</time>
      </trkpt>
      <trkpt lat="43.69476" lon="-0.21098">
        <ele>74</ele>
        <time>2023-07-01T06:29:27Z</time>
      </trkpt>
      <trkpt lat="43.69474" lon="-0.21085">
        <ele>74.8</ele>
        <time>2023-07-01T06:29:36Z</time>
      </trkpt>
      <trkpt lat="43.69474" lon="-0.2108">
        <ele>75</ele>
        <time>2023-07-01T06:29:39Z</time>
      </trkpt>
      <trkpt lat="43.69473" lon="-0.21079">
        <ele>75.2</ele>
        <time>2023-07-01T06:29:40Z</time>
      </trkpt>
      <trkpt lat="43.69472" lon="-0.21072">
        <ele>75.4</ele>
        <time>2023-07-01T06:29:44Z</time>
      </trkpt>
      <trkpt lat="43.69468" lon="-0.21059">
        <ele>75.4</ele>
        <time>2023-07-01T06:29:52Z</time>
      </trkpt>
      <trkpt lat="43.69467" lon="-0.21054">
        <ele>74.8</ele>
        <time>2023-07-01T06:29:55Z</time>
      </trkpt>
      <trkpt lat="43.69467" lon="-0.2105">
        <ele>74.6</ele>
        <time>2023-07-01T06:29:57Z</time>
      </trkpt>
      <trkpt lat="43.69466" lon="-0.21045">
        <ele>74.4</ele>
        <time>2023-07-01T06:30:00Z</time>
      </trkpt>
      <trkpt lat="43.69465" lon="-0.21041">
        <ele>74.2</ele>
        <time>2023-07-01T06:30:01Z</time>
      </trkpt>
      <trkpt lat="43.69462" lon="-0.21027">
        <ele>74.2</ele>
        <time>2023-07-01T06:30:10Z</time>
      </trkpt>
      <trkpt lat="43.6946" lon="-0.21019">
        <ele>74</ele>
        <time>2023-07-01T06:30:15Z</time>
      </trkpt>
      <trkpt lat="43.69459" lon="-0.21014">
        <ele>74.2</ele>
        <time>2023-07-01T06:30:18Z</time>
      </trkpt>
      <trkpt lat="43.69458" lon="-0.21012">
        <ele>74.2</ele>
        <time>2023-07-01T06:30:19Z</time>
      </trkpt>
      <trkpt lat="43.69455" lon="-0.20996">
        <ele>74.6</ele>
        <time>2023-07-01T06:30:28Z</time>
      </trkpt>
      <trkpt lat="43.69454" lon="-0.20992">
        <ele>74.4</ele>
        <time>2023-07-01T06:30:30Z</time>
      </trkpt>
      <trkpt lat="43.69454" lon="-0.20987">
        <ele>74.4</ele>
        <time>2023-07-01T06:30:33Z</time>
      </trkpt>
      <trkpt lat="43.69453" lon="-0.20983">
        <ele>74.4</ele>
        <time>2023-07-01T06:30:35Z</time>
      </trkpt>
      <trkpt lat="43.69452" lon="-0.20978">
        <ele>74.4</ele>
        <time>2023-07-01T06:30:38Z</time>
      </trkpt>
      <trkpt lat="43.69451" lon="-0.20973">
        <ele>74.4</ele>
        <time>2023-07-01T06:30:41Z</time>
      </trkpt>
      <trkpt lat="43.69451" lon="-0.20965">
        <ele>74.6</ele>
        <time>2023-07-01T06:30:45Z</time>
      </trkpt>
      <trkpt lat="43.6945" lon="-0.20962">
        <ele>74.6</ele>
        <time>2023-07-01T06:30:47Z</time>
      </trkpt>
      <trkpt lat="43.69449" lon="-0.20959">
        <ele>74.6</ele>
        <time>2023-07-01T06:30:49Z</time>
      </trkpt>
      <trkpt lat="43.69449" lon="-0.20957">
        <ele>74.4</ele>
        <time>2023-07-01T06:30:50Z</time>
      </trkpt>
      <trkpt lat="43.69447" lon="-0.20952">
        <ele>74.2</ele>
        <time>2023-07-01T06:30:53Z</time>
      </trkpt>
      <trkpt lat="43.69446" lon="-0.20945">
        <ele>74.4</ele>
        <time>2023-07-01T06:30:57Z</time>
      </trkpt>
      <trkpt lat="43.69445" lon="-0.20943">
        <ele>74.6</ele>
        <time>2023-07-01T06:30:58Z</time>
      </trkpt>
      <trkpt lat="43.69442" lon="-0.20935">
        <ele>74.4</ele>
        <time>2023-07-01T06:31:03Z</time>
      </trkpt>
      <trkpt lat="43.6944" lon="-0.20929">
        <ele>74.8</ele>
        <time>2023-07-01T06:31:07Z</time>
      </trkpt>
      <trkpt lat="43.69438" lon="-0.20917">
        <ele>74.4</ele>
        <time>2023-07-01T06:31:13Z</time>
      </trkpt>
      <trkpt lat="43.69436" lon="-0.2091">
        <ele>74.2</ele>
        <time>2023-07-01T06:31:17Z</time>
      </trkpt>
      <trkpt lat="43.69436" lon="-0.20904">
        <ele>74</ele>
        <time>2023-07-01T06:31:20Z</time>
      </trkpt>
      <trkpt lat="43.69436" lon="-0.20903">
        <ele>74</ele>
        <time>2023-07-01T06:31:21Z</time>
      </trkpt>
      <trkpt lat="43.69435" lon="-0.20898">
        <ele>74</ele>
        <time>2023-07-01T06:31:24Z</time>
      </trkpt>
      <trkpt lat="43.69434" lon="-0.20894">
        <ele>74</ele>
        <time>2023-07-01T06:31:26Z</time>
      </trkpt>
      <trkpt lat="43.69433" lon="-0.20888">
        <ele>74.2</ele>
        <time>2023-07-01T06:31:30Z</time>
      </trkpt>
      <trkpt lat="43.69431" lon="-0.20882">
        <ele>74</ele>
        <time>2023-07-01T06:31:33Z</time>
      </trkpt>
      <trkpt lat="43.6943" lon="-0.20876">
        <ele>73.8</ele>
        <time>2023-07-01T06:31:36Z</time>
      </trkpt>
      <trkpt lat="43.69429" lon="-0.20874">
        <ele>73.8</ele>
        <time>2023-07-01T06:31:37Z</time>
      </trkpt>
      <trkpt lat="43.69429" lon="-0.20872">
        <ele>73.8</ele>
        <time>2023-07-01T06:31:38Z</time>
      </trkpt>
      <trkpt lat="43.69428" lon="-0.2087">
        <ele>73.8</ele>
        <time>2023-07-01T06:31:39Z</time>
      </trkpt>
      <trkpt lat="43.69427" lon="-0.20868">
        <ele>74</ele>
        <time>2023-07-01T06:31:40Z</time>
      </trkpt>
      <trkpt lat="43.69427" lon="-0.20867">
        <ele>74.2</ele>
        <time>2023-07-01T06:31:41Z</time>
      </trkpt>
      <trkpt lat="43.69426" lon="-0.20866">
        <ele>74.2</ele>
        <time>2023-07-01T06:31:42Z</time>
      </trkpt>
      <trkpt lat="43.69426" lon="-0.20862">
        <ele>74.2</ele>
        <time>2023-07-01T06:31:44Z</time>
      </trkpt>
      <trkpt lat="43.69425" lon="-0.2086">
        <ele>74.2</ele>
        <time>2023-07-01T06:31:45Z</time>
      </trkpt>
      <trkpt lat="43.69425" lon="-0.20856">
        <ele>74.2</ele>
        <time>2023-07-01T06:31:48Z</time>
      </trkpt>
      <trkpt lat="43.69425" lon="-0.20852">
        <ele>74</ele>
        <time>2023-07-01T06:31:50Z</time>
      </trkpt>
      <trkpt lat="43.69421" lon="-0.20836">
        <ele>73.8</ele>
        <time>2023-07-01T06:31:59Z</time>
      </trkpt>
      <trkpt lat="43.69416" lon="-0.20821">
        <ele>74</ele>
        <time>2023-07-01T06:32:08Z</time>
      </trkpt>
      <trkpt lat="43.69408" lon="-0.20808">
        <ele>74.2</ele>
        <time>2023-07-01T06:32:17Z</time>
      </trkpt>
      <trkpt lat="43.694" lon="-0.20794">
        <ele>74.4</ele>
        <time>2023-07-01T06:32:27Z</time>
      </trkpt>
      <trkpt lat="43.69392" lon="-0.20782">
        <ele>74.6</ele>
        <time>2023-07-01T06:32:36Z</time>
      </trkpt>
      <trkpt lat="43.69388" lon="-0.20777">
        <ele>74.2</ele>
        <time>2023-07-01T06:32:40Z</time>
      </trkpt>
      <trkpt lat="43.69388" lon="-0.20775">
        <ele>74</ele>
        <time>2023-07-01T06:32:41Z</time>
      </trkpt>
      <trkpt lat="43.69384" lon="-0.2077">
        <ele>74</ele>
        <time>2023-07-01T06:32:45Z</time>
      </trkpt>
      <trkpt lat="43.69378" lon="-0.2076">
        <ele>73.8</ele>
        <time>2023-07-01T06:32:53Z</time>
      </trkpt>
      <trkpt lat="43.69369" lon="-0.20747">
        <ele>73.8</ele>
        <time>2023-07-01T06:33:03Z</time>
      </trkpt>
      <trkpt lat="43.69362" lon="-0.20737">
        <ele>73.8</ele>
        <time>2023-07-01T06:33:11Z</time>
      </trkpt>
      <trkpt lat="43.69355" lon="-0.20722">
        <ele>74.2</ele>
        <time>2023-07-01T06:33:21Z</time>
      </trkpt>
      <trkpt lat="43.69357" lon="-0.20711">
        <ele>74</ele>
        <time>2023-07-01T06:33:28Z</time>
      </trkpt>
      <trkpt lat="43.69361" lon="-0.20704">
        <ele>74</ele>
        <time>2023-07-01T06:33:33Z</time>
      </trkpt>
      <trkpt lat="43.69367" lon="-0.207">
        <ele>74</ele>
        <time>2023-07-01T06:33:37Z</time>
      </trkpt>
      <trkpt lat="43.69377" lon="-0.20695">
        <ele>74</ele>
        <time>2023-07-01T06:33:46Z</time>
      </trkpt>
      <trkpt lat="43.69388" lon="-0.20687">
        <ele>74.2</ele>
        <time>2023-07-01T06:33:56Z</time>
      </trkpt>
      <trkpt lat="43.694" lon="-0.2068">
        <ele>73.8</ele>
        <time>2023-07-01T06:34:06Z</time>
      </trkpt>
      <trkpt lat="43.69411" lon="-0.20672">
        <ele>73.8</ele>
        <time>2023-07-01T06:34:15Z</time>
      </trkpt>
      <trkpt lat="43.69422" lon="-0.20665">
        <ele>73.8</ele>
        <time>2023-07-01T06:34:24Z</time>
      </trkpt>
      <trkpt lat="43.69427" lon="-0.20662">
        <ele>73.6</ele>
        <time>2023-07-01T06:34:28Z</time>
      </trkpt>
      <trkpt lat="43.69432" lon="-0.20659">
        <ele>73.6</ele>
        <time>2023-07-01T06:34:32Z</time>
      </trkpt>
      <trkpt lat="43.69441" lon="-0.20652">
        <ele>73.8</ele>
        <time>2023-07-01T06:34:40Z</time>
      </trkpt>
      <trkpt lat="43.69443" lon="-0.2065">
        <ele>73.8</ele>
        <time>2023-07-01T06:34:42Z</time>
      </trkpt>
      <trkpt lat="43.69452" lon="-0.20643">
        <ele>73.6</ele>
        <time>2023-07-01T06:34:50Z</time>
      </trkpt>
      <trkpt lat="43.69465" lon="-0.20633">
        <ele>73.8</ele>
        <time>2023-07-01T06:35:01Z</time>
      </trkpt>
      <trkpt lat="43.69466" lon="-0.20633">
        <ele>73.8</ele>
        <time>2023-07-01T06:35:02Z</time>
      </trkpt>
      <trkpt lat="43.69469" lon="-0.20631">
        <ele>74.2</ele>
        <time>2023-07-01T06:35:05Z</time>
      </trkpt>
      <trkpt lat="43.69476" lon="-0.20626">
        <ele>75</ele>
        <time>2023-07-01T06:35:11Z</time>
      </trkpt>
      <trkpt lat="43.69478" lon="-0.20625">
        <ele>75.2</ele>
        <time>2023-07-01T06:35:13Z</time>
      </trkpt>
      <trkpt lat="43.69485" lon="-0.2062">
        <ele>76.2</ele>
        <time>2023-07-01T06:35:19Z</time>
      </trkpt>
      <trkpt lat="43.69485" lon="-0.20619">
        <ele>76.4</ele>
        <time>2023-07-01T06:35:20Z</time>
      </trkpt>
      <trkpt lat="43.6949" lon="-0.20617">
        <ele>77.4</ele>
        <time>2023-07-01T06:35:25Z</time>
      </trkpt>
      <trkpt lat="43.69493" lon="-0.20615">
        <ele>77.4</ele>
        <time>2023-07-01T06:35:28Z</time>
      </trkpt>
      <trkpt lat="43.695" lon="-0.20609">
        <ele>78</ele>
        <time>2023-07-01T06:35:35Z</time>
      </trkpt>
      <trkpt lat="43.69502" lon="-0.20608">
        <ele>78.2</ele>
        <time>2023-07-01T06:35:37Z</time>
      </trkpt>
      <trkpt lat="43.69503" lon="-0.20607">
        <ele>78.6</ele>
        <time>2023-07-01T06:35:38Z</time>
      </trkpt>
      <trkpt lat="43.69512" lon="-0.20599">
        <ele>79.2</ele>
        <time>2023-07-01T06:35:46Z</time>
      </trkpt>
      <trkpt lat="43.69515" lon="-0.20595">
        <ele>79</ele>
        <time>2023-07-01T06:35:49Z</time>
      </trkpt>
      <trkpt lat="43.69517" lon="-0.20593">
        <ele>79</ele>
        <time>2023-07-01T06:35:51Z</time>
      </trkpt>
      <trkpt lat="43.6952" lon="-0.2059">
        <ele>79</ele>
        <time>2023-07-01T06:35:53Z</time>
      </trkpt>
      <trkpt lat="43.6952" lon="-0.2059">
        <ele>79</ele>
        <time>2023-07-01T06:35:54Z</time>
      </trkpt>
      <trkpt lat="43.69525" lon="-0.20587">
        <ele>78.6</ele>
        <time>2023-07-01T06:35:58Z</time>
      </trkpt>
      <trkpt lat="43.69529" lon="-0.20585">
        <ele>78.6</ele>
        <time>2023-07-01T06:36:01Z</time>
      </trkpt>
      <trkpt lat="43.69536" lon="-0.20577">
        <ele>78.8</ele>
        <time>2023-07-01T06:36:07Z</time>
      </trkpt>
      <trkpt lat="43.69538" lon="-0.20575">
        <ele>78.8</ele>
        <time>2023-07-01T06:36:09Z</time>
      </trkpt>
      <trkpt lat="43.69544" lon="-0.20565">
        <ele>79</ele>
        <time>2023-07-01T06:36:18Z</time>
      </trkpt>
      <trkpt lat="43.6955" lon="-0.20554">
        <ele>79.2</ele>
        <time>2023-07-01T06:36:25Z</time>
      </trkpt>
      <trkpt lat="43.69549" lon="-0.20542">
        <ele>78.6</ele>
        <time>2023-07-01T06:36:32Z</time>
      </trkpt>
      <trkpt lat="43.69547" lon="-0.20535">
        <ele>78.6</ele>
        <time>2023-07-01T06:36:36Z</time>
      </trkpt>
      <trkpt lat="43.69546" lon="-0.20531">
        <ele>78.6</ele>
        <time>2023-07-01T06:36:38Z</time>
      </trkpt>
      <trkpt lat="43.69546" lon="-0.2053">
        <ele>78.6</ele>
        <time>2023-07-01T06:36:39Z</time>
      </trkpt>
      <trkpt lat="43.69547" lon="-0.20524">
        <ele>78.8</ele>
        <time>2023-07-01T06:36:41Z</time>
      </trkpt>
      <trkpt lat="43.69549" lon="-0.20519">
        <ele>79</ele>
        <time>2023-07-01T06:36:45Z</time>
      </trkpt>
      <trkpt lat="43.6955" lon="-0.20517">
        <ele>79</ele>
        <time>2023-07-01T06:36:46Z</time>
      </trkpt>
      <trkpt lat="43.69552" lon="-0.20514">
        <ele>78.8</ele>
        <time>2023-07-01T06:36:48Z</time>
      </trkpt>
      <trkpt lat="43.69556" lon="-0.20508">
        <ele>79</ele>
        <time>2023-07-01T06:36:53Z</time>
      </trkpt>
      <trkpt lat="43.69556" lon="-0.20507">
        <ele>79</ele>
        <time>2023-07-01T06:36:54Z</time>
      </trkpt>
      <trkpt lat="43.6956" lon="-0.20501">
        <ele>78.8</ele>
        <time>2023-07-01T06:37:00Z</time>
      </trkpt>
      <trkpt lat="43.69562" lon="-0.20499">
        <ele>78.8</ele>
        <time>2023-07-01T06:37:02Z</time>
      </trkpt>
      <trkpt lat="43.6957" lon="-0.20489">
        <ele>79</ele>
        <time>2023-07-01T06:37:11Z</time>
      </trkpt>
      <trkpt lat="43.69576" lon="-0.20485">
        <ele>79</ele>
        <time>2023-07-01T06:37:16Z</time>
      </trkpt>
      <trkpt lat="43.6958" lon="-0.20483">
        <ele>79.2</ele>
        <time>2023-07-01T06:37:19Z</time>
      </trkpt>
      <trkpt lat="43.69587" lon="-0.20476">
        <ele>79.4</ele>
        <time>2023-07-01T06:37:27Z</time>
      </trkpt>
      <trkpt lat="43.69594" lon="-0.2047">
        <ele>79.4</ele>
        <time>2023-07-01T06:37:33Z</time>
      </trkpt>
      <trkpt lat="43.69602" lon="-0.20464">
        <ele>79.6</ele>
        <time>2023-07-01T06:37:41Z</time>
      </trkpt>
      <trkpt lat="43.69607" lon="-0.20461">
        <ele>79.6</ele>
        <time>2023-07-01T06:37:45Z</time>
      </trkpt>
      <trkpt lat="43.69611" lon="-0.20455">
        <ele>79.4</ele>
        <time>2023-07-01T06:37:50Z</time>
      </trkpt>
      <trkpt lat="43.69624" lon="-0.20445">
        <ele>79.4</ele>
        <time>2023-07-01T06:38:00Z</time>
      </trkpt>
      <trkpt lat="43.69629" lon="-0.20441">
        <ele>79.6</ele>
        <time>2023-07-01T06:38:04Z</time>
      </trkpt>
      <trkpt lat="43.69634" lon="-0.20437">
        <ele>79.8</ele>
        <time>2023-07-01T06:38:08Z</time>
      </trkpt>
      <trkpt lat="43.69644" lon="-0.20433">
        <ele>79.8</ele>
        <time>2023-07-01T06:38:15Z</time>
      </trkpt>
      <trkpt lat="43.69646" lon="-0.20432">
        <ele>79.8</ele>
        <time>2023-07-01T06:38:16Z</time>
      </trkpt>
      <trkpt lat="43.69655" lon="-0.20427">
        <ele>79.4</ele>
        <time>2023-07-01T06:38:23Z</time>
      </trkpt>
      <trkpt lat="43.69661" lon="-0.20423">
        <ele>79.2</ele>
        <time>2023-07-01T06:38:28Z</time>
      </trkpt>
      <trkpt lat="43.69665" lon="-0.20418">
        <ele>79</ele>
        <time>2023-07-01T06:38:32Z</time>
      </trkpt>
      <trkpt lat="43.69673" lon="-0.20408">
        <ele>79.4</ele>
        <time>2023-07-01T06:38:40Z</time>
      </trkpt>
      <trkpt lat="43.6968" lon="-0.204">
        <ele>79.2</ele>
        <time>2023-07-01T06:38:47Z</time>
      </trkpt>
      <trkpt lat="43.69688" lon="-0.20393">
        <ele>79.4</ele>
        <time>2023-07-01T06:38:54Z</time>
      </trkpt>
      <trkpt lat="43.69695" lon="-0.20386">
        <ele>79.6</ele>
        <time>2023-07-01T06:39:01Z</time>
      </trkpt>
      <trkpt lat="43.69703" lon="-0.20381">
        <ele>80</ele>
        <time>2023-07-01T06:39:07Z</time>
      </trkpt>
      <trkpt lat="43.69705" lon="-0.20378">
        <ele>80.2</ele>
        <time>2023-07-01T06:39:10Z</time>
      </trkpt>
      <trkpt lat="43.69706" lon="-0.20377">
        <ele>80.2</ele>
        <time>2023-07-01T06:39:11Z</time>
      </trkpt>
      <trkpt lat="43.69712" lon="-0.20372">
        <ele>80.8</ele>
        <time>2023-07-01T06:39:17Z</time>
      </trkpt>
      <trkpt lat="43.69713" lon="-0.2037">
        <ele>80.8</ele>
        <time>2023-07-01T06:39:18Z</time>
      </trkpt>
      <trkpt lat="43.69715" lon="-0.20368">
        <ele>80.8</ele>
        <time>2023-07-01T06:39:20Z</time>
      </trkpt>
      <trkpt lat="43.69718" lon="-0.20363">
        <ele>80.6</ele>
        <time>2023-07-01T06:39:23Z</time>
      </trkpt>
      <trkpt lat="43.69717" lon="-0.20351">
        <ele>80.6</ele>
        <time>2023-07-01T06:39:31Z</time>
      </trkpt>
      <trkpt lat="43.69714" lon="-0.20337">
        <ele>80.4</ele>
        <time>2023-07-01T06:39:39Z</time>
      </trkpt>
      <trkpt lat="43.6971" lon="-0.20323">
        <ele>80</ele>
        <time>2023-07-01T06:39:47Z</time>
      </trkpt>
      <trkpt lat="43.6971" lon="-0.20319">
        <ele>80</ele>
        <time>2023-07-01T06:39:49Z</time>
      </trkpt>
      <trkpt lat="43.69709" lon="-0.20318">
        <ele>80.2</ele>
        <time>2023-07-01T06:39:50Z</time>
      </trkpt>
      <trkpt lat="43.69706" lon="-0.20314">
        <ele>80.2</ele>
        <time>2023-07-01T06:39:55Z</time>
      </trkpt>
      <trkpt lat="43.69703" lon="-0.203">
        <ele>80</ele>
        <time>2023-07-01T06:40:03Z</time>
      </trkpt>
      <trkpt lat="43.69702" lon="-0.20297">
        <ele>80</ele>
        <time>2023-07-01T06:40:05Z</time>
      </trkpt>
      <trkpt lat="43.69701" lon="-0.20289">
        <ele>80.4</ele>
        <time>2023-07-01T06:40:10Z</time>
      </trkpt>
      <trkpt lat="43.69697" lon="-0.20275">
        <ele>80.8</ele>
        <time>2023-07-01T06:40:19Z</time>
      </trkpt>
      <trkpt lat="43.69694" lon="-0.20262">
        <ele>80.6</ele>
        <time>2023-07-01T06:40:26Z</time>
      </trkpt>
      <trkpt lat="43.69691" lon="-0.20248">
        <ele>80.8</ele>
        <time>2023-07-01T06:40:33Z</time>
      </trkpt>
      <trkpt lat="43.69688" lon="-0.20241">
        <ele>80.8</ele>
        <time>2023-07-01T06:40:38Z</time>
      </trkpt>
      <trkpt lat="43.69687" lon="-0.20236">
        <ele>80.8</ele>
        <time>2023-07-01T06:40:41Z</time>
      </trkpt>
      <trkpt lat="43.69684" lon="-0.20219">
        <ele>81</ele>
        <time>2023-07-01T06:40:50Z</time>
      </trkpt>
      <trkpt lat="43.69682" lon="-0.20208">
        <ele>81.2</ele>
        <time>2023-07-01T06:40:56Z</time>
      </trkpt>
      <trkpt lat="43.6968" lon="-0.20203">
        <ele>81.2</ele>
        <time>2023-07-01T06:40:59Z</time>
      </trkpt>
      <trkpt lat="43.69679" lon="-0.20186">
        <ele>81.4</ele>
        <time>2023-07-01T06:41:08Z</time>
      </trkpt>
      <trkpt lat="43.69678" lon="-0.20179">
        <ele>81.6</ele>
        <time>2023-07-01T06:41:12Z</time>
      </trkpt>
      <trkpt lat="43.69678" lon="-0.20175">
        <ele>81.6</ele>
        <time>2023-07-01T06:41:14Z</time>
      </trkpt>
      <trkpt lat="43.69678" lon="-0.20173">
        <ele>81.8</ele>
        <time>2023-07-01T06:41:15Z</time>
      </trkpt>
      <trkpt lat="43.69675" lon="-0.20164">
        <ele>81.8</ele>
        <time>2023-07-01T06:41:21Z</time>
      </trkpt>
      <trkpt lat="43.69675" lon="-0.20162">
        <ele>81.8</ele>
        <time>2023-07-01T06:41:22Z</time>
      </trkpt>
      <trkpt lat="43.69673" lon="-0.20155">
        <ele>81.8</ele>
        <time>2023-07-01T06:41:27Z</time>
      </trkpt>
      <trkpt lat="43.69671" lon="-0.20151">
        <ele>81.6</ele>
        <time>2023-07-01T06:41:29Z</time>
      </trkpt>
      <trkpt lat="43.69666" lon="-0.20136">
        <ele>81.6</ele>
        <time>2023-07-01T06:41:38Z</time>
      </trkpt>
      <trkpt lat="43.69663" lon="-0.2012">
        <ele>81.6</ele>
        <time>2023-07-01T06:41:46Z</time>
      </trkpt>
      <trkpt lat="43.69659" lon="-0.20104">
        <ele>81.6</ele>
        <time>2023-07-01T06:41:55Z</time>
      </trkpt>
      <trkpt lat="43.69656" lon="-0.2009">
        <ele>81.6</ele>
        <time>2023-07-01T06:42:03Z</time>
      </trkpt>
      <trkpt lat="43.69651" lon="-0.20076">
        <ele>81.6</ele>
        <time>2023-07-01T06:42:12Z</time>
      </trkpt>
      <trkpt lat="43.69651" lon="-0.20074">
        <ele>81.6</ele>
        <time>2023-07-01T06:42:13Z</time>
      </trkpt>
      <trkpt lat="43.69651" lon="-0.2007">
        <ele>81.6</ele>
        <time>2023-07-01T06:42:15Z</time>
      </trkpt>
      <trkpt lat="43.6965" lon="-0.20067">
        <ele>81.8</ele>
        <time>2023-07-01T06:42:17Z</time>
      </trkpt>
      <trkpt lat="43.69649" lon="-0.20065">
        <ele>81.8</ele>
        <time>2023-07-01T06:42:18Z</time>
      </trkpt>
      <trkpt lat="43.69649" lon="-0.20062">
        <ele>82</ele>
        <time>2023-07-01T06:42:20Z</time>
      </trkpt>
      <trkpt lat="43.69646" lon="-0.20053">
        <ele>81.8</ele>
        <time>2023-07-01T06:42:25Z</time>
      </trkpt>
      <trkpt lat="43.69645" lon="-0.2005">
        <ele>81.8</ele>
        <time>2023-07-01T06:42:27Z</time>
      </trkpt>
      <trkpt lat="43.69643" lon="-0.20037">
        <ele>81.6</ele>
        <time>2023-07-01T06:42:34Z</time>
      </trkpt>
      <trkpt lat="43.69641" lon="-0.20034">
        <ele>81.4</ele>
        <time>2023-07-01T06:42:36Z</time>
      </trkpt>
      <trkpt lat="43.69638" lon="-0.20022">
        <ele>81.2</ele>
        <time>2023-07-01T06:42:43Z</time>
      </trkpt>
      <trkpt lat="43.69635" lon="-0.20012">
        <ele>81</ele>
        <time>2023-07-01T06:42:50Z</time>
      </trkpt>
      <trkpt lat="43.69633" lon="-0.19998">
        <ele>81.2</ele>
        <time>2023-07-01T06:42:59Z</time>
      </trkpt>
      <trkpt lat="43.69632" lon="-0.19987">
        <ele>81.4</ele>
        <time>2023-07-01T06:43:04Z</time>
      </trkpt>
      <trkpt lat="43.69631" lon="-0.19982">
        <ele>81.4</ele>
        <time>2023-07-01T06:43:07Z</time>
      </trkpt>
      <trkpt lat="43.69628" lon="-0.1997">
        <ele>81.6</ele>
        <time>2023-07-01T06:43:15Z</time>
      </trkpt>
      <trkpt lat="43.69624" lon="-0.19957">
        <ele>81.8</ele>
        <time>2023-07-01T06:43:22Z</time>
      </trkpt>
      <trkpt lat="43.69622" lon="-0.19949">
        <ele>81.8</ele>
        <time>2023-07-01T06:43:26Z</time>
      </trkpt>
      <trkpt lat="43.6962" lon="-0.19943">
        <ele>81.8</ele>
        <time>2023-07-01T06:43:29Z</time>
      </trkpt>
      <trkpt lat="43.69619" lon="-0.1994">
        <ele>81.8</ele>
        <time>2023-07-01T06:43:31Z</time>
      </trkpt>
      <trkpt lat="43.69617" lon="-0.19935">
        <ele>82</ele>
        <time>2023-07-01T06:43:32Z</time>
      </trkpt>
      <trkpt lat="43.69616" lon="-0.19933">
        <ele>82</ele>
        <time>2023-07-01T06:43:34Z</time>
      </trkpt>
      <trkpt lat="43.69615" lon="-0.19931">
        <ele>82</ele>
        <time>2023-07-01T06:43:35Z</time>
      </trkpt>
      <trkpt lat="43.69613" lon="-0.19923">
        <ele>82.2</ele>
        <time>2023-07-01T06:43:40Z</time>
      </trkpt>
      <trkpt lat="43.69612" lon="-0.19921">
        <ele>82.2</ele>
        <time>2023-07-01T06:43:41Z</time>
      </trkpt>
      <trkpt lat="43.6961" lon="-0.19912">
        <ele>82.2</ele>
        <time>2023-07-01T06:43:46Z</time>
      </trkpt>
      <trkpt lat="43.69609" lon="-0.19907">
        <ele>82.2</ele>
        <time>2023-07-01T06:43:49Z</time>
      </trkpt>
      <trkpt lat="43.69608" lon="-0.19899">
        <ele>82.2</ele>
        <time>2023-07-01T06:43:54Z</time>
      </trkpt>
      <trkpt lat="43.69606" lon="-0.19893">
        <ele>82.2</ele>
        <time>2023-07-01T06:43:57Z</time>
      </trkpt>
      <trkpt lat="43.69602" lon="-0.19882">
        <ele>82.2</ele>
        <time>2023-07-01T06:44:04Z</time>
      </trkpt>
      <trkpt lat="43.69601" lon="-0.19877">
        <ele>82.2</ele>
        <time>2023-07-01T06:44:07Z</time>
      </trkpt>
      <trkpt lat="43.69599" lon="-0.19868">
        <ele>82.2</ele>
        <time>2023-07-01T06:44:12Z</time>
      </trkpt>
      <trkpt lat="43.69599" lon="-0.19866">
        <ele>82.2</ele>
        <time>2023-07-01T06:44:13Z</time>
      </trkpt>
      <trkpt lat="43.69598" lon="-0.19861">
        <ele>82.2</ele>
        <time>2023-07-01T06:44:16Z</time>
      </trkpt>
      <trkpt lat="43.69598" lon="-0.19857">
        <ele>82.2</ele>
        <time>2023-07-01T06:44:19Z</time>
      </trkpt>
      <trkpt lat="43.69596" lon="-0.19851">
        <ele>82.2</ele>
        <time>2023-07-01T06:44:22Z</time>
      </trkpt>
      <trkpt lat="43.69591" lon="-0.19835">
        <ele>82.2</ele>
        <time>2023-07-01T06:44:32Z</time>
      </trkpt>
      <trkpt lat="43.69588" lon="-0.19817">
        <ele>82.2</ele>
        <time>2023-07-01T06:44:42Z</time>
      </trkpt>
      <trkpt lat="43.69582" lon="-0.19798">
        <ele>82.2</ele>
        <time>2023-07-01T06:44:52Z</time>
      </trkpt>
      <trkpt lat="43.69578" lon="-0.19782">
        <ele>82.4</ele>
        <time>2023-07-01T06:45:00Z</time>
      </trkpt>
      <trkpt lat="43.69577" lon="-0.19776">
        <ele>82.4</ele>
        <time>2023-07-01T06:45:03Z</time>
      </trkpt>
      <trkpt lat="43.69574" lon="-0.19767">
        <ele>82.6</ele>
        <time>2023-07-01T06:45:09Z</time>
      </trkpt>
      <trkpt lat="43.69573" lon="-0.19763">
        <ele>82.6</ele>
        <time>2023-07-01T06:45:12Z</time>
      </trkpt>
      <trkpt lat="43.69567" lon="-0.19744">
        <ele>82.6</ele>
        <time>2023-07-01T06:45:24Z</time>
      </trkpt>
      <trkpt lat="43.69562" lon="-0.19728">
        <ele>82.8</ele>
        <time>2023-07-01T06:45:33Z</time>
      </trkpt>
      <trkpt lat="43.69558" lon="-0.19713">
        <ele>82.2</ele>
        <time>2023-07-01T06:45:43Z</time>
      </trkpt>
      <trkpt lat="43.69553" lon="-0.19691">
        <ele>82.4</ele>
        <time>2023-07-01T06:45:54Z</time>
      </trkpt>
      <trkpt lat="43.69548" lon="-0.19675">
        <ele>82.4</ele>
        <time>2023-07-01T06:46:04Z</time>
      </trkpt>
      <trkpt lat="43.69543" lon="-0.19658">
        <ele>82.6</ele>
        <time>2023-07-01T06:46:14Z</time>
      </trkpt>
      <trkpt lat="43.6954" lon="-0.19649">
        <ele>82.8</ele>
        <time>2023-07-01T06:46:18Z</time>
      </trkpt>
      <trkpt lat="43.69538" lon="-0.19643">
        <ele>83</ele>
        <time>2023-07-01T06:46:22Z</time>
      </trkpt>
      <trkpt lat="43.69533" lon="-0.19633">
        <ele>82.8</ele>
        <time>2023-07-01T06:46:29Z</time>
      </trkpt>
      <trkpt lat="43.69531" lon="-0.19621">
        <ele>82.8</ele>
        <time>2023-07-01T06:46:35Z</time>
      </trkpt>
      <trkpt lat="43.69527" lon="-0.19606">
        <ele>83</ele>
        <time>2023-07-01T06:46:43Z</time>
      </trkpt>
      <trkpt lat="43.69524" lon="-0.19596">
        <ele>83</ele>
        <time>2023-07-01T06:46:49Z</time>
      </trkpt>
      <trkpt lat="43.69523" lon="-0.19593">
        <ele>82.8</ele>
        <time>2023-07-01T06:46:51Z</time>
      </trkpt>
      <trkpt lat="43.6952" lon="-0.19578">
        <ele>82.8</ele>
        <time>2023-07-01T06:46:59Z</time>
      </trkpt>
      <trkpt lat="43.69518" lon="-0.19564">
        <ele>82.8</ele>
        <time>2023-07-01T06:47:08Z</time>
      </trkpt>
      <trkpt lat="43.69515" lon="-0.19552">
        <ele>82.8</ele>
        <time>2023-07-01T06:47:14Z</time>
      </trkpt>
      <trkpt lat="43.6951" lon="-0.19536">
        <ele>82.8</ele>
        <time>2023-07-01T06:47:24Z</time>
      </trkpt>
      <trkpt lat="43.69508" lon="-0.19527">
        <ele>82.8</ele>
        <time>2023-07-01T06:47:29Z</time>
      </trkpt>
      <trkpt lat="43.69507" lon="-0.19525">
        <ele>82.6</ele>
        <time>2023-07-01T06:47:31Z</time>
      </trkpt>
      <trkpt lat="43.69501" lon="-0.1951">
        <ele>82.6</ele>
        <time>2023-07-01T06:47:40Z</time>
      </trkpt>
      <trkpt lat="43.69498" lon="-0.19501">
        <ele>82.8</ele>
        <time>2023-07-01T06:47:45Z</time>
      </trkpt>
      <trkpt lat="43.69496" lon="-0.19495">
        <ele>83</ele>
        <time>2023-07-01T06:47:48Z</time>
      </trkpt>
      <trkpt lat="43.69493" lon="-0.19484">
        <ele>83.2</ele>
        <time>2023-07-01T06:47:54Z</time>
      </trkpt>
      <trkpt lat="43.69491" lon="-0.19469">
        <ele>82.2</ele>
        <time>2023-07-01T06:48:02Z</time>
      </trkpt>
      <trkpt lat="43.69486" lon="-0.19455">
        <ele>82.6</ele>
        <time>2023-07-01T06:48:10Z</time>
      </trkpt>
      <trkpt lat="43.69483" lon="-0.19443">
        <ele>82.8</ele>
        <time>2023-07-01T06:48:16Z</time>
      </trkpt>
      <trkpt lat="43.69482" lon="-0.19441">
        <ele>82.8</ele>
        <time>2023-07-01T06:48:18Z</time>
      </trkpt>
      <trkpt lat="43.69481" lon="-0.19433">
        <ele>82.8</ele>
        <time>2023-07-01T06:48:23Z</time>
      </trkpt>
      <trkpt lat="43.6948" lon="-0.19429">
        <ele>82.8</ele>
        <time>2023-07-01T06:48:25Z</time>
      </trkpt>
      <trkpt lat="43.69478" lon="-0.19426">
        <ele>82.6</ele>
        <time>2023-07-01T06:48:27Z</time>
      </trkpt>
      <trkpt lat="43.69476" lon="-0.19419">
        <ele>82.8</ele>
        <time>2023-07-01T06:48:31Z</time>
      </trkpt>
      <trkpt lat="43.69472" lon="-0.19404">
        <ele>82.8</ele>
        <time>2023-07-01T06:48:39Z</time>
      </trkpt>
      <trkpt lat="43.6947" lon="-0.19394">
        <ele>82.8</ele>
        <time>2023-07-01T06:48:45Z</time>
      </trkpt>
      <trkpt lat="43.69468" lon="-0.19387">
        <ele>82.8</ele>
        <time>2023-07-01T06:48:49Z</time>
      </trkpt>
      <trkpt lat="43.69463" lon="-0.19373">
        <ele>82.8</ele>
        <time>2023-07-01T06:48:57Z</time>
      </trkpt>
      <trkpt lat="43.69459" lon="-0.19357">
        <ele>83.2</ele>
        <time>2023-07-01T06:49:06Z</time>
      </trkpt>
      <trkpt lat="43.69455" lon="-0.19343">
        <ele>82.8</ele>
        <time>2023-07-01T06:49:14Z</time>
      </trkpt>
      <trkpt lat="43.69454" lon="-0.19339">
        <ele>83</ele>
        <time>2023-07-01T06:49:17Z</time>
      </trkpt>
      <trkpt lat="43.69452" lon="-0.1933">
        <ele>83</ele>
        <time>2023-07-01T06:49:22Z</time>
      </trkpt>
      <trkpt lat="43.69449" lon="-0.19317">
        <ele>83</ele>
        <time>2023-07-01T06:49:29Z</time>
      </trkpt>
      <trkpt lat="43.69448" lon="-0.19313">
        <ele>83</ele>
        <time>2023-07-01T06:49:30Z</time>
      </trkpt>
      <trkpt lat="43.69446" lon="-0.19303">
        <ele>83</ele>
        <time>2023-07-01T06:49:37Z</time>
      </trkpt>
      <trkpt lat="43.69444" lon="-0.19298">
        <ele>83</ele>
        <time>2023-07-01T06:49:40Z</time>
      </trkpt>
      <trkpt lat="43.6944" lon="-0.19281">
        <ele>83</ele>
        <time>2023-07-01T06:49:49Z</time>
      </trkpt>
      <trkpt lat="43.69438" lon="-0.19275">
        <ele>83.4</ele>
        <time>2023-07-01T06:49:52Z</time>
      </trkpt>
      <trkpt lat="43.69436" lon="-0.19269">
        <ele>83.4</ele>
        <time>2023-07-01T06:49:55Z</time>
      </trkpt>
      <trkpt lat="43.69435" lon="-0.19265">
        <ele>83.4</ele>
        <time>2023-07-01T06:49:57Z</time>
      </trkpt>
      <trkpt lat="43.69434" lon="-0.19262">
        <ele>83.4</ele>
        <time>2023-07-01T06:49:59Z</time>
      </trkpt>
      <trkpt lat="43.69429" lon="-0.1925">
        <ele>82.8</ele>
        <time>2023-07-01T06:50:06Z</time>
      </trkpt>
      <trkpt lat="43.69424" lon="-0.1924">
        <ele>82.8</ele>
        <time>2023-07-01T06:50:13Z</time>
      </trkpt>
      <trkpt lat="43.69416" lon="-0.19223">
        <ele>82.8</ele>
        <time>2023-07-01T06:50:21Z</time>
      </trkpt>
      <trkpt lat="43.69416" lon="-0.19222">
        <ele>82.6</ele>
        <time>2023-07-01T06:50:22Z</time>
      </trkpt>
      <trkpt lat="43.69416" lon="-0.19221">
        <ele>82.6</ele>
        <time>2023-07-01T06:50:23Z</time>
      </trkpt>
      <trkpt lat="43.69414" lon="-0.19212">
        <ele>82.4</ele>
        <time>2023-07-01T06:50:30Z</time>
      </trkpt>
      <trkpt lat="43.69411" lon="-0.19198">
        <ele>82.4</ele>
        <time>2023-07-01T06:50:40Z</time>
      </trkpt>
      <trkpt lat="43.69407" lon="-0.1919">
        <ele>82.6</ele>
        <time>2023-07-01T06:50:46Z</time>
      </trkpt>
      <trkpt lat="43.69406" lon="-0.19187">
        <ele>82.6</ele>
        <time>2023-07-01T06:50:48Z</time>
      </trkpt>
      <trkpt lat="43.69406" lon="-0.19185">
        <ele>82.6</ele>
        <time>2023-07-01T06:50:49Z</time>
      </trkpt>
      <trkpt lat="43.69406" lon="-0.19174">
        <ele>82.4</ele>
        <time>2023-07-01T06:50:56Z</time>
      </trkpt>
      <trkpt lat="43.69405" lon="-0.19166">
        <ele>82.6</ele>
        <time>2023-07-01T06:51:02Z</time>
      </trkpt>
      <trkpt lat="43.69405" lon="-0.19165">
        <ele>82.6</ele>
        <time>2023-07-01T06:51:03Z</time>
      </trkpt>
      <trkpt lat="43.69404" lon="-0.19161">
        <ele>82.8</ele>
        <time>2023-07-01T06:51:06Z</time>
      </trkpt>
      <trkpt lat="43.69403" lon="-0.19157">
        <ele>82.6</ele>
        <time>2023-07-01T06:51:08Z</time>
      </trkpt>
      <trkpt lat="43.69401" lon="-0.19153">
        <ele>82.8</ele>
        <time>2023-07-01T06:51:10Z</time>
      </trkpt>
      <trkpt lat="43.694" lon="-0.1915">
        <ele>82.6</ele>
        <time>2023-07-01T06:51:11Z</time>
      </trkpt>
      <trkpt lat="43.69398" lon="-0.19145">
        <ele>82.6</ele>
        <time>2023-07-01T06:51:13Z</time>
      </trkpt>
      <trkpt lat="43.69397" lon="-0.19137">
        <ele>82.6</ele>
        <time>2023-07-01T06:51:18Z</time>
      </trkpt>
      <trkpt lat="43.69397" lon="-0.19123">
        <ele>82.8</ele>
        <time>2023-07-01T06:51:26Z</time>
      </trkpt>
      <trkpt lat="43.69394" lon="-0.19112">
        <ele>83</ele>
        <time>2023-07-01T06:51:33Z</time>
      </trkpt>
      <trkpt lat="43.69391" lon="-0.19098">
        <ele>82.8</ele>
        <time>2023-07-01T06:51:41Z</time>
      </trkpt>
      <trkpt lat="43.69386" lon="-0.19079">
        <ele>83</ele>
        <time>2023-07-01T06:51:49Z</time>
      </trkpt>
      <trkpt lat="43.69385" lon="-0.19078">
        <ele>83</ele>
        <time>2023-07-01T06:51:50Z</time>
      </trkpt>
      <trkpt lat="43.69381" lon="-0.19064">
        <ele>83</ele>
        <time>2023-07-01T06:51:58Z</time>
      </trkpt>
      <trkpt lat="43.69379" lon="-0.19059">
        <ele>83</ele>
        <time>2023-07-01T06:52:00Z</time>
      </trkpt>
      <trkpt lat="43.69378" lon="-0.19055">
        <ele>83</ele>
        <time>2023-07-01T06:52:02Z</time>
      </trkpt>
      <trkpt lat="43.69377" lon="-0.19049">
        <ele>83</ele>
        <time>2023-07-01T06:52:05Z</time>
      </trkpt>
      <trkpt lat="43.69371" lon="-0.19037">
        <ele>83</ele>
        <time>2023-07-01T06:52:13Z</time>
      </trkpt>
      <trkpt lat="43.69364" lon="-0.19025">
        <ele>83.2</ele>
        <time>2023-07-01T06:52:21Z</time>
      </trkpt>
      <trkpt lat="43.69361" lon="-0.19011">
        <ele>83.4</ele>
        <time>2023-07-01T06:52:31Z</time>
      </trkpt>
      <trkpt lat="43.69358" lon="-0.18997">
        <ele>83.2</ele>
        <time>2023-07-01T06:52:39Z</time>
      </trkpt>
      <trkpt lat="43.69355" lon="-0.1899">
        <ele>83.2</ele>
        <time>2023-07-01T06:52:43Z</time>
      </trkpt>
      <trkpt lat="43.69354" lon="-0.18987">
        <ele>83.2</ele>
        <time>2023-07-01T06:52:45Z</time>
      </trkpt>
      <trkpt lat="43.69352" lon="-0.18984">
        <ele>83.4</ele>
        <time>2023-07-01T06:52:47Z</time>
      </trkpt>
      <trkpt lat="43.69349" lon="-0.18975">
        <ele>83.4</ele>
        <time>2023-07-01T06:52:52Z</time>
      </trkpt>
      <trkpt lat="43.69344" lon="-0.1896">
        <ele>83.2</ele>
        <time>2023-07-01T06:53:00Z</time>
      </trkpt>
      <trkpt lat="43.69344" lon="-0.18959">
        <ele>83.2</ele>
        <time>2023-07-01T06:53:01Z</time>
      </trkpt>
      <trkpt lat="43.69339" lon="-0.18945">
        <ele>83</ele>
        <time>2023-07-01T06:53:08Z</time>
      </trkpt>
      <trkpt lat="43.69337" lon="-0.18931">
        <ele>83</ele>
        <time>2023-07-01T06:53:16Z</time>
      </trkpt>
      <trkpt lat="43.69336" lon="-0.1893">
        <ele>83</ele>
        <time>2023-07-01T06:53:17Z</time>
      </trkpt>
      <trkpt lat="43.69332" lon="-0.18917">
        <ele>83.2</ele>
        <time>2023-07-01T06:53:25Z</time>
      </trkpt>
      <trkpt lat="43.69329" lon="-0.1891">
        <ele>83</ele>
        <time>2023-07-01T06:53:31Z</time>
      </trkpt>
      <trkpt lat="43.69329" lon="-0.18896">
        <ele>83.2</ele>
        <time>2023-07-01T06:53:39Z</time>
      </trkpt>
      <trkpt lat="43.6933" lon="-0.18895">
        <ele>83.4</ele>
        <time>2023-07-01T06:53:40Z</time>
      </trkpt>
      <trkpt lat="43.69331" lon="-0.18892">
        <ele>83.2</ele>
        <time>2023-07-01T06:53:43Z</time>
      </trkpt>
      <trkpt lat="43.69331" lon="-0.18889">
        <ele>83.2</ele>
        <time>2023-07-01T06:53:45Z</time>
      </trkpt>
      <trkpt lat="43.6933" lon="-0.18887">
        <ele>83.2</ele>
        <time>2023-07-01T06:53:46Z</time>
      </trkpt>
      <trkpt lat="43.69326" lon="-0.18876">
        <ele>83.2</ele>
        <time>2023-07-01T06:53:52Z</time>
      </trkpt>
      <trkpt lat="43.69325" lon="-0.18874">
        <ele>83.2</ele>
        <time>2023-07-01T06:53:53Z</time>
      </trkpt>
      <trkpt lat="43.69325" lon="-0.18872">
        <ele>83.2</ele>
        <time>2023-07-01T06:53:54Z</time>
      </trkpt>
      <trkpt lat="43.69323" lon="-0.18868">
        <ele>83.2</ele>
        <time>2023-07-01T06:53:57Z</time>
      </trkpt>
      <trkpt lat="43.69323" lon="-0.18864">
        <ele>83</ele>
        <time>2023-07-01T06:54:01Z</time>
      </trkpt>
      <trkpt lat="43.69322" lon="-0.18863">
        <ele>82.8</ele>
        <time>2023-07-01T06:54:02Z</time>
      </trkpt>
      <trkpt lat="43.69322" lon="-0.18856">
        <ele>83</ele>
        <time>2023-07-01T06:54:10Z</time>
      </trkpt>
      <trkpt lat="43.69318" lon="-0.18842">
        <ele>83.2</ele>
        <time>2023-07-01T06:54:18Z</time>
      </trkpt>
      <trkpt lat="43.69317" lon="-0.1884">
        <ele>83</ele>
        <time>2023-07-01T06:54:20Z</time>
      </trkpt>
      <trkpt lat="43.69316" lon="-0.18831">
        <ele>83.2</ele>
        <time>2023-07-01T06:54:25Z</time>
      </trkpt>
      <trkpt lat="43.69312" lon="-0.18818">
        <ele>83.2</ele>
        <time>2023-07-01T06:54:33Z</time>
      </trkpt>
      <trkpt lat="43.6931" lon="-0.1881">
        <ele>83.4</ele>
        <time>2023-07-01T06:54:37Z</time>
      </trkpt>
      <trkpt lat="43.69308" lon="-0.18803">
        <ele>83</ele>
        <time>2023-07-01T06:54:41Z</time>
      </trkpt>
      <trkpt lat="43.69304" lon="-0.18788">
        <ele>83</ele>
        <time>2023-07-01T06:54:49Z</time>
      </trkpt>
      <trkpt lat="43.69302" lon="-0.18776">
        <ele>83.4</ele>
        <time>2023-07-01T06:54:57Z</time>
      </trkpt>
      <trkpt lat="43.69298" lon="-0.18762">
        <ele>83.4</ele>
        <time>2023-07-01T06:55:05Z</time>
      </trkpt>
      <trkpt lat="43.69295" lon="-0.18749">
        <ele>83.6</ele>
        <time>2023-07-01T06:55:13Z</time>
      </trkpt>
      <trkpt lat="43.69293" lon="-0.1874">
        <ele>83.8</ele>
        <time>2023-07-01T06:55:17Z</time>
      </trkpt>
      <trkpt lat="43.69292" lon="-0.18738">
        <ele>84</ele>
        <time>2023-07-01T06:55:18Z</time>
      </trkpt>
      <trkpt lat="43.69291" lon="-0.18733">
        <ele>84</ele>
        <time>2023-07-01T06:55:21Z</time>
      </trkpt>
      <trkpt lat="43.69288" lon="-0.18722">
        <ele>84</ele>
        <time>2023-07-01T06:55:29Z</time>
      </trkpt>
      <trkpt lat="43.69285" lon="-0.18715">
        <ele>84.2</ele>
        <time>2023-07-01T06:55:31Z</time>
      </trkpt>
      <trkpt lat="43.69284" lon="-0.18706">
        <ele>84</ele>
        <time>2023-07-01T06:55:39Z</time>
      </trkpt>
      <trkpt lat="43.69277" lon="-0.1869">
        <ele>84.4</ele>
        <time>2023-07-01T06:55:48Z</time>
      </trkpt>
      <trkpt lat="43.69274" lon="-0.18679">
        <ele>84.2</ele>
        <time>2023-07-01T06:55:55Z</time>
      </trkpt>
      <trkpt lat="43.69273" lon="-0.18677">
        <ele>84.2</ele>
        <time>2023-07-01T06:55:56Z</time>
      </trkpt>
      <trkpt lat="43.69268" lon="-0.18661">
        <ele>84.2</ele>
        <time>2023-07-01T06:56:05Z</time>
      </trkpt>
      <trkpt lat="43.69267" lon="-0.18656">
        <ele>84.2</ele>
        <time>2023-07-01T06:56:08Z</time>
      </trkpt>
      <trkpt lat="43.69264" lon="-0.18647">
        <ele>84.2</ele>
        <time>2023-07-01T06:56:13Z</time>
      </trkpt>
      <trkpt lat="43.69262" lon="-0.18641">
        <ele>84.2</ele>
        <time>2023-07-01T06:56:16Z</time>
      </trkpt>
      <trkpt lat="43.69259" lon="-0.18632">
        <ele>84.6</ele>
        <time>2023-07-01T06:56:22Z</time>
      </trkpt>
      <trkpt lat="43.69258" lon="-0.18629">
        <ele>84.6</ele>
        <time>2023-07-01T06:56:25Z</time>
      </trkpt>
      <trkpt lat="43.69257" lon="-0.18627">
        <ele>84.4</ele>
        <time>2023-07-01T06:56:28Z</time>
      </trkpt>
      <trkpt lat="43.69254" lon="-0.18617">
        <ele>84.2</ele>
        <time>2023-07-01T06:56:35Z</time>
      </trkpt>
      <trkpt lat="43.69253" lon="-0.18614">
        <ele>84.2</ele>
        <time>2023-07-01T06:56:37Z</time>
      </trkpt>
      <trkpt lat="43.69252" lon="-0.18611">
        <ele>84.2</ele>
        <time>2023-07-01T06:56:38Z</time>
      </trkpt>
      <trkpt lat="43.6925" lon="-0.18602">
        <ele>84.4</ele>
        <time>2023-07-01T06:56:43Z</time>
      </trkpt>
      <trkpt lat="43.69249" lon="-0.18601">
        <ele>84.4</ele>
        <time>2023-07-01T06:56:44Z</time>
      </trkpt>
      <trkpt lat="43.69248" lon="-0.18591">
        <ele>84.4</ele>
        <time>2023-07-01T06:56:48Z</time>
      </trkpt>
      <trkpt lat="43.69248" lon="-0.18585">
        <ele>84.8</ele>
        <time>2023-07-01T06:56:52Z</time>
      </trkpt>
      <trkpt lat="43.69248" lon="-0.18584">
        <ele>84.8</ele>
        <time>2023-07-01T06:56:53Z</time>
      </trkpt>
      <trkpt lat="43.69248" lon="-0.18583">
        <ele>85.8</ele>
        <time>2023-07-01T06:56:54Z</time>
      </trkpt>
      <trkpt lat="43.69232" lon="-0.18554">
        <ele>81.8</ele>
        <time>2023-07-01T07:30:30Z</time>
      </trkpt>
      <trkpt lat="43.69226" lon="-0.18547">
        <ele>81.6</ele>
        <time>2023-07-01T07:30:32Z</time>
      </trkpt>
      <trkpt lat="43.6923" lon="-0.18546">
        <ele>81.6</ele>
        <time>2023-07-01T07:30:33Z</time>
      </trkpt>
      <trkpt lat="43.69234" lon="-0.18548">
        <ele>81.6</ele>
        <time>2023-07-01T07:30:34Z</time>
      </trkpt>
      <trkpt lat="43.69232" lon="-0.18547">
        <ele>81.6</ele>
        <time>2023-07-01T07:30:36Z</time>
      </trkpt>
      <trkpt lat="43.69227" lon="-0.18537">
        <ele>81.6</ele>
        <time>2023-07-01T07:30:38Z</time>
      </trkpt>
      <trkpt lat="43.69226" lon="-0.18532">
        <ele>81.6</ele>
        <time>2023-07-01T07:30:40Z</time>
      </trkpt>
      <trkpt lat="43.69235" lon="-0.18535">
        <ele>81.2</ele>
        <time>2023-07-01T07:30:46Z</time>
      </trkpt>
      <trkpt lat="43.69231" lon="-0.18526">
        <ele>81.4</ele>
        <time>2023-07-01T07:30:52Z</time>
      </trkpt>
      <trkpt lat="43.69231" lon="-0.18522">
        <ele>81.4</ele>
        <time>2023-07-01T07:30:54Z</time>
      </trkpt>
      <trkpt lat="43.69228" lon="-0.1851">
        <ele>81.4</ele>
        <time>2023-07-01T07:31:00Z</time>
      </trkpt>
      <trkpt lat="43.69228" lon="-0.18507">
        <ele>81.4</ele>
        <time>2023-07-01T07:31:02Z</time>
      </trkpt>
      <trkpt lat="43.69225" lon="-0.18498">
        <ele>81.4</ele>
        <time>2023-07-01T07:31:09Z</time>
      </trkpt>
      <trkpt lat="43.6922" lon="-0.18488">
        <ele>81.4</ele>
        <time>2023-07-01T07:31:16Z</time>
      </trkpt>
      <trkpt lat="43.69219" lon="-0.18487">
        <ele>81.4</ele>
        <time>2023-07-01T07:31:17Z</time>
      </trkpt>
      <trkpt lat="43.69217" lon="-0.18484">
        <ele>81.2</ele>
        <time>2023-07-01T07:31:19Z</time>
      </trkpt>
      <trkpt lat="43.69215" lon="-0.18476">
        <ele>81.2</ele>
        <time>2023-07-01T07:31:25Z</time>
      </trkpt>
      <trkpt lat="43.69215" lon="-0.18475">
        <ele>81.4</ele>
        <time>2023-07-01T07:31:26Z</time>
      </trkpt>
      <trkpt lat="43.69213" lon="-0.1847">
        <ele>81.6</ele>
        <time>2023-07-01T07:31:29Z</time>
      </trkpt>
      <trkpt lat="43.69213" lon="-0.18467">
        <ele>81.4</ele>
        <time>2023-07-01T07:31:31Z</time>
      </trkpt>
      <trkpt lat="43.69212" lon="-0.18465">
        <ele>81.4</ele>
        <time>2023-07-01T07:31:32Z</time>
      </trkpt>
      <trkpt lat="43.69209" lon="-0.18452">
        <ele>81.8</ele>
        <time>2023-07-01T07:31:40Z</time>
      </trkpt>
      <trkpt lat="43.69208" lon="-0.1845">
        <ele>81.8</ele>
        <time>2023-07-01T07:31:41Z</time>
      </trkpt>
      <trkpt lat="43.69204" lon="-0.18437">
        <ele>82</ele>
        <time>2023-07-01T07:31:49Z</time>
      </trkpt>
      <trkpt lat="43.692" lon="-0.18425">
        <ele>81.6</ele>
        <time>2023-07-01T07:31:57Z</time>
      </trkpt>
      <trkpt lat="43.69198" lon="-0.18413">
        <ele>81.6</ele>
        <time>2023-07-01T07:32:04Z</time>
      </trkpt>
      <trkpt lat="43.69195" lon="-0.18399">
        <ele>81.8</ele>
        <time>2023-07-01T07:32:13Z</time>
      </trkpt>
      <trkpt lat="43.69191" lon="-0.18389">
        <ele>81.8</ele>
        <time>2023-07-01T07:32:20Z</time>
      </trkpt>
      <trkpt lat="43.69191" lon="-0.18388">
        <ele>81.8</ele>
        <time>2023-07-01T07:32:21Z</time>
      </trkpt>
      <trkpt lat="43.6919" lon="-0.18384">
        <ele>81.8</ele>
        <time>2023-07-01T07:32:23Z</time>
      </trkpt>
      <trkpt lat="43.69188" lon="-0.18374">
        <ele>81.8</ele>
        <time>2023-07-01T07:32:29Z</time>
      </trkpt>
      <trkpt lat="43.69187" lon="-0.18372">
        <ele>82</ele>
        <time>2023-07-01T07:32:30Z</time>
      </trkpt>
      <trkpt lat="43.69185" lon="-0.18367">
        <ele>82</ele>
        <time>2023-07-01T07:32:34Z</time>
      </trkpt>
      <trkpt lat="43.69184" lon="-0.18363">
        <ele>81.8</ele>
        <time>2023-07-01T07:32:37Z</time>
      </trkpt>
      <trkpt lat="43.69183" lon="-0.1836">
        <ele>81.8</ele>
        <time>2023-07-01T07:32:39Z</time>
      </trkpt>
      <trkpt lat="43.69183" lon="-0.18357">
        <ele>81.6</ele>
        <time>2023-07-01T07:32:41Z</time>
      </trkpt>
      <trkpt lat="43.6918" lon="-0.18349">
        <ele>81.6</ele>
        <time>2023-07-01T07:32:46Z</time>
      </trkpt>
      <trkpt lat="43.69178" lon="-0.18345">
        <ele>81.6</ele>
        <time>2023-07-01T07:32:48Z</time>
      </trkpt>
      <trkpt lat="43.69177" lon="-0.18338">
        <ele>81.6</ele>
        <time>2023-07-01T07:32:52Z</time>
      </trkpt>
      <trkpt lat="43.69176" lon="-0.18334">
        <ele>81.6</ele>
        <time>2023-07-01T07:32:55Z</time>
      </trkpt>
      <trkpt lat="43.69175" lon="-0.18329">
        <ele>82</ele>
        <time>2023-07-01T07:32:59Z</time>
      </trkpt>
      <trkpt lat="43.69173" lon="-0.18317">
        <ele>82</ele>
        <time>2023-07-01T07:33:06Z</time>
      </trkpt>
      <trkpt lat="43.6917" lon="-0.18305">
        <ele>82</ele>
        <time>2023-07-01T07:33:13Z</time>
      </trkpt>
      <trkpt lat="43.69167" lon="-0.18296">
        <ele>82</ele>
        <time>2023-07-01T07:33:18Z</time>
      </trkpt>
      <trkpt lat="43.69165" lon="-0.18294">
        <ele>81.8</ele>
        <time>2023-07-01T07:33:20Z</time>
      </trkpt>
      <trkpt lat="43.69164" lon="-0.18287">
        <ele>81.8</ele>
        <time>2023-07-01T07:33:24Z</time>
      </trkpt>
      <trkpt lat="43.69161" lon="-0.18279">
        <ele>82</ele>
        <time>2023-07-01T07:33:28Z</time>
      </trkpt>
      <trkpt lat="43.6916" lon="-0.18273">
        <ele>82.2</ele>
        <time>2023-07-01T07:33:32Z</time>
      </trkpt>
      <trkpt lat="43.69158" lon="-0.18268">
        <ele>82.2</ele>
        <time>2023-07-01T07:33:36Z</time>
      </trkpt>
      <trkpt lat="43.69156" lon="-0.18262">
        <ele>82.2</ele>
        <time>2023-07-01T07:33:40Z</time>
      </trkpt>
      <trkpt lat="43.69155" lon="-0.18258">
        <ele>82.2</ele>
        <time>2023-07-01T07:33:42Z</time>
      </trkpt>
      <trkpt lat="43.69154" lon="-0.18253">
        <ele>82.2</ele>
        <time>2023-07-01T07:33:45Z</time>
      </trkpt>
      <trkpt lat="43.69152" lon="-0.18248">
        <ele>82</ele>
        <time>2023-07-01T07:33:48Z</time>
      </trkpt>
      <trkpt lat="43.6915" lon="-0.18239">
        <ele>82</ele>
        <time>2023-07-01T07:33:54Z</time>
      </trkpt>
      <trkpt lat="43.69148" lon="-0.18232">
        <ele>82.2</ele>
        <time>2023-07-01T07:33:58Z</time>
      </trkpt>
      <trkpt lat="43.69147" lon="-0.18222">
        <ele>82</ele>
        <time>2023-07-01T07:34:04Z</time>
      </trkpt>
      <trkpt lat="43.69146" lon="-0.18211">
        <ele>82</ele>
        <time>2023-07-01T07:34:11Z</time>
      </trkpt>
      <trkpt lat="43.69145" lon="-0.18206">
        <ele>82</ele>
        <time>2023-07-01T07:34:15Z</time>
      </trkpt>
      <trkpt lat="43.69144" lon="-0.18199">
        <ele>82.2</ele>
        <time>2023-07-01T07:34:19Z</time>
      </trkpt>
      <trkpt lat="43.69143" lon="-0.18194">
        <ele>82.2</ele>
        <time>2023-07-01T07:34:22Z</time>
      </trkpt>
      <trkpt lat="43.69141" lon="-0.18189">
        <ele>82.4</ele>
        <time>2023-07-01T07:34:26Z</time>
      </trkpt>
      <trkpt lat="43.69137" lon="-0.1818">
        <ele>82.4</ele>
        <time>2023-07-01T07:34:32Z</time>
      </trkpt>
      <trkpt lat="43.69135" lon="-0.18176">
        <ele>82.4</ele>
        <time>2023-07-01T07:34:34Z</time>
      </trkpt>
      <trkpt lat="43.69131" lon="-0.18162">
        <ele>82.2</ele>
        <time>2023-07-01T07:34:43Z</time>
      </trkpt>
      <trkpt lat="43.69129" lon="-0.18156">
        <ele>82.2</ele>
        <time>2023-07-01T07:34:46Z</time>
      </trkpt>
      <trkpt lat="43.69127" lon="-0.18151">
        <ele>82.2</ele>
        <time>2023-07-01T07:34:50Z</time>
      </trkpt>
      <trkpt lat="43.69126" lon="-0.18143">
        <ele>82.4</ele>
        <time>2023-07-01T07:34:55Z</time>
      </trkpt>
      <trkpt lat="43.69125" lon="-0.18141">
        <ele>82.4</ele>
        <time>2023-07-01T07:34:56Z</time>
      </trkpt>
      <trkpt lat="43.69125" lon="-0.18138">
        <ele>82.4</ele>
        <time>2023-07-01T07:34:58Z</time>
      </trkpt>
      <trkpt lat="43.69123" lon="-0.18133">
        <ele>82.4</ele>
        <time>2023-07-01T07:35:02Z</time>
      </trkpt>
      <trkpt lat="43.69122" lon="-0.18127">
        <ele>82.2</ele>
        <time>2023-07-01T07:35:05Z</time>
      </trkpt>
      <trkpt lat="43.69122" lon="-0.18123">
        <ele>82.2</ele>
        <time>2023-07-01T07:35:08Z</time>
      </trkpt>
      <trkpt lat="43.69121" lon="-0.18122">
        <ele>82.2</ele>
        <time>2023-07-01T07:35:09Z</time>
      </trkpt>
      <trkpt lat="43.69118" lon="-0.18108">
        <ele>82.4</ele>
        <time>2023-07-01T07:35:17Z</time>
      </trkpt>
      <trkpt lat="43.69116" lon="-0.18102">
        <ele>82.2</ele>
        <time>2023-07-01T07:35:21Z</time>
      </trkpt>
      <trkpt lat="43.69115" lon="-0.181">
        <ele>82.2</ele>
        <time>2023-07-01T07:35:22Z</time>
      </trkpt>
      <trkpt lat="43.69114" lon="-0.18096">
        <ele>82.2</ele>
        <time>2023-07-01T07:35:25Z</time>
      </trkpt>
      <trkpt lat="43.69109" lon="-0.18083">
        <ele>82.4</ele>
        <time>2023-07-01T07:35:33Z</time>
      </trkpt>
      <trkpt lat="43.69108" lon="-0.1808">
        <ele>82.2</ele>
        <time>2023-07-01T07:35:35Z</time>
      </trkpt>
      <trkpt lat="43.69106" lon="-0.18073">
        <ele>82</ele>
        <time>2023-07-01T07:35:40Z</time>
      </trkpt>
      <trkpt lat="43.69105" lon="-0.18065">
        <ele>82.2</ele>
        <time>2023-07-01T07:35:45Z</time>
      </trkpt>
      <trkpt lat="43.69104" lon="-0.18062">
        <ele>82.2</ele>
        <time>2023-07-01T07:35:47Z</time>
      </trkpt>
      <trkpt lat="43.69099" lon="-0.18049">
        <ele>82</ele>
        <time>2023-07-01T07:35:56Z</time>
      </trkpt>
      <trkpt lat="43.69096" lon="-0.18043">
        <ele>82</ele>
        <time>2023-07-01T07:36:00Z</time>
      </trkpt>
      <trkpt lat="43.69095" lon="-0.18035">
        <ele>82.2</ele>
        <time>2023-07-01T07:36:04Z</time>
      </trkpt>
      <trkpt lat="43.69092" lon="-0.18022">
        <ele>82</ele>
        <time>2023-07-01T07:36:11Z</time>
      </trkpt>
      <trkpt lat="43.69091" lon="-0.1802">
        <ele>82</ele>
        <time>2023-07-01T07:36:12Z</time>
      </trkpt>
      <trkpt lat="43.69089" lon="-0.18005">
        <ele>82.4</ele>
        <time>2023-07-01T07:36:20Z</time>
      </trkpt>
      <trkpt lat="43.69085" lon="-0.17991">
        <ele>82.2</ele>
        <time>2023-07-01T07:36:29Z</time>
      </trkpt>
      <trkpt lat="43.69083" lon="-0.17982">
        <ele>82.4</ele>
        <time>2023-07-01T07:36:35Z</time>
      </trkpt>
      <trkpt lat="43.69079" lon="-0.17967">
        <ele>82</ele>
        <time>2023-07-01T07:36:43Z</time>
      </trkpt>
      <trkpt lat="43.69078" lon="-0.17963">
        <ele>82</ele>
        <time>2023-07-01T07:36:45Z</time>
      </trkpt>
      <trkpt lat="43.69075" lon="-0.17949">
        <ele>82.2</ele>
        <time>2023-07-01T07:36:53Z</time>
      </trkpt>
      <trkpt lat="43.69072" lon="-0.17938">
        <ele>82.2</ele>
        <time>2023-07-01T07:37:01Z</time>
      </trkpt>
      <trkpt lat="43.69068" lon="-0.17923">
        <ele>82.6</ele>
        <time>2023-07-01T07:37:10Z</time>
      </trkpt>
      <trkpt lat="43.69066" lon="-0.17917">
        <ele>82.6</ele>
        <time>2023-07-01T07:37:14Z</time>
      </trkpt>
      <trkpt lat="43.69065" lon="-0.17913">
        <ele>82.6</ele>
        <time>2023-07-01T07:37:17Z</time>
      </trkpt>
      <trkpt lat="43.69061" lon="-0.179">
        <ele>82.6</ele>
        <time>2023-07-01T07:37:24Z</time>
      </trkpt>
      <trkpt lat="43.69061" lon="-0.17898">
        <ele>82.8</ele>
        <time>2023-07-01T07:37:25Z</time>
      </trkpt>
      <trkpt lat="43.6906" lon="-0.17894">
        <ele>82.8</ele>
        <time>2023-07-01T07:37:27Z</time>
      </trkpt>
      <trkpt lat="43.6906" lon="-0.17892">
        <ele>83</ele>
        <time>2023-07-01T07:37:29Z</time>
      </trkpt>
      <trkpt lat="43.69056" lon="-0.17881">
        <ele>83</ele>
        <time>2023-07-01T07:37:35Z</time>
      </trkpt>
      <trkpt lat="43.6905" lon="-0.17869">
        <ele>82.8</ele>
        <time>2023-07-01T07:37:44Z</time>
      </trkpt>
      <trkpt lat="43.69049" lon="-0.17863">
        <ele>82.8</ele>
        <time>2023-07-01T07:37:48Z</time>
      </trkpt>
      <trkpt lat="43.69048" lon="-0.17859">
        <ele>82.8</ele>
        <time>2023-07-01T07:37:50Z</time>
      </trkpt>
      <trkpt lat="43.69047" lon="-0.17856">
        <ele>83</ele>
        <time>2023-07-01T07:37:52Z</time>
      </trkpt>
      <trkpt lat="43.69046" lon="-0.17855">
        <ele>83.2</ele>
        <time>2023-07-01T07:37:53Z</time>
      </trkpt>
      <trkpt lat="43.69045" lon="-0.1785">
        <ele>83</ele>
        <time>2023-07-01T07:37:56Z</time>
      </trkpt>
      <trkpt lat="43.69044" lon="-0.17847">
        <ele>83.2</ele>
        <time>2023-07-01T07:37:58Z</time>
      </trkpt>
      <trkpt lat="43.69041" lon="-0.17836">
        <ele>83.2</ele>
        <time>2023-07-01T07:38:05Z</time>
      </trkpt>
      <trkpt lat="43.6904" lon="-0.17829">
        <ele>83.2</ele>
        <time>2023-07-01T07:38:08Z</time>
      </trkpt>
      <trkpt lat="43.6904" lon="-0.17822">
        <ele>83</ele>
        <time>2023-07-01T07:38:12Z</time>
      </trkpt>
      <trkpt lat="43.69036" lon="-0.1781">
        <ele>82.8</ele>
        <time>2023-07-01T07:38:18Z</time>
      </trkpt>
      <trkpt lat="43.69034" lon="-0.17801">
        <ele>82.6</ele>
        <time>2023-07-01T07:38:24Z</time>
      </trkpt>
      <trkpt lat="43.69034" lon="-0.178">
        <ele>82.6</ele>
        <time>2023-07-01T07:38:25Z</time>
      </trkpt>
      <trkpt lat="43.69034" lon="-0.17799">
        <ele>82.6</ele>
        <time>2023-07-01T07:38:26Z</time>
      </trkpt>
      <trkpt lat="43.69033" lon="-0.17797">
        <ele>82.6</ele>
        <time>2023-07-01T07:38:28Z</time>
      </trkpt>
      <trkpt lat="43.69033" lon="-0.17794">
        <ele>82.6</ele>
        <time>2023-07-01T07:38:30Z</time>
      </trkpt>
      <trkpt lat="43.69032" lon="-0.1779">
        <ele>82.8</ele>
        <time>2023-07-01T07:38:32Z</time>
      </trkpt>
      <trkpt lat="43.69027" lon="-0.17776">
        <ele>82.6</ele>
        <time>2023-07-01T07:38:40Z</time>
      </trkpt>
      <trkpt lat="43.69023" lon="-0.17764">
        <ele>82.8</ele>
        <time>2023-07-01T07:38:47Z</time>
      </trkpt>
      <trkpt lat="43.69017" lon="-0.17751">
        <ele>83</ele>
        <time>2023-07-01T07:38:56Z</time>
      </trkpt>
      <trkpt lat="43.69016" lon="-0.17746">
        <ele>83</ele>
        <time>2023-07-01T07:38:58Z</time>
      </trkpt>
      <trkpt lat="43.69014" lon="-0.17738">
        <ele>83</ele>
        <time>2023-07-01T07:39:03Z</time>
      </trkpt>
      <trkpt lat="43.69012" lon="-0.17727">
        <ele>83.2</ele>
        <time>2023-07-01T07:39:10Z</time>
      </trkpt>
      <trkpt lat="43.6901" lon="-0.17714">
        <ele>83.2</ele>
        <time>2023-07-01T07:39:17Z</time>
      </trkpt>
      <trkpt lat="43.69008" lon="-0.17705">
        <ele>83</ele>
        <time>2023-07-01T07:39:23Z</time>
      </trkpt>
      <trkpt lat="43.69003" lon="-0.17694">
        <ele>83</ele>
        <time>2023-07-01T07:39:30Z</time>
      </trkpt>
      <trkpt lat="43.68998" lon="-0.17682">
        <ele>83.2</ele>
        <time>2023-07-01T07:39:37Z</time>
      </trkpt>
      <trkpt lat="43.68997" lon="-0.17677">
        <ele>83.4</ele>
        <time>2023-07-01T07:39:40Z</time>
      </trkpt>
      <trkpt lat="43.68995" lon="-0.17669">
        <ele>83.2</ele>
        <time>2023-07-01T07:39:44Z</time>
      </trkpt>
      <trkpt lat="43.68991" lon="-0.17658">
        <ele>83</ele>
        <time>2023-07-01T07:39:50Z</time>
      </trkpt>
      <trkpt lat="43.68989" lon="-0.17647">
        <ele>83.2</ele>
        <time>2023-07-01T07:39:56Z</time>
      </trkpt>
      <trkpt lat="43.68986" lon="-0.17632">
        <ele>83.4</ele>
        <time>2023-07-01T07:40:04Z</time>
      </trkpt>
      <trkpt lat="43.68984" lon="-0.17624">
        <ele>83.4</ele>
        <time>2023-07-01T07:40:08Z</time>
      </trkpt>
      <trkpt lat="43.68982" lon="-0.17616">
        <ele>83.6</ele>
        <time>2023-07-01T07:40:13Z</time>
      </trkpt>
      <trkpt lat="43.68978" lon="-0.17603">
        <ele>83.4</ele>
        <time>2023-07-01T07:40:21Z</time>
      </trkpt>
      <trkpt lat="43.68975" lon="-0.17593">
        <ele>83.2</ele>
        <time>2023-07-01T07:40:27Z</time>
      </trkpt>
      <trkpt lat="43.68975" lon="-0.17591">
        <ele>83.2</ele>
        <time>2023-07-01T07:40:28Z</time>
      </trkpt>
      <trkpt lat="43.68972" lon="-0.17578">
        <ele>83.8</ele>
        <time>2023-07-01T07:40:36Z</time>
      </trkpt>
      <trkpt lat="43.68968" lon="-0.17573">
        <ele>83.8</ele>
        <time>2023-07-01T07:40:41Z</time>
      </trkpt>
      <trkpt lat="43.68967" lon="-0.17574">
        <ele>83.6</ele>
        <time>2023-07-01T07:40:43Z</time>
      </trkpt>
      <trkpt lat="43.68966" lon="-0.17576">
        <ele>83.2</ele>
        <time>2023-07-01T07:40:50Z</time>
      </trkpt>
      <trkpt lat="43.68967" lon="-0.17568">
        <ele>83.2</ele>
        <time>2023-07-01T07:40:55Z</time>
      </trkpt>
      <trkpt lat="43.68962" lon="-0.17549">
        <ele>83.6</ele>
        <time>2023-07-01T07:41:05Z</time>
      </trkpt>
      <trkpt lat="43.68957" lon="-0.17534">
        <ele>83.4</ele>
        <time>2023-07-01T07:41:14Z</time>
      </trkpt>
      <trkpt lat="43.68955" lon="-0.17526">
        <ele>83.4</ele>
        <time>2023-07-01T07:41:19Z</time>
      </trkpt>
      <trkpt lat="43.68954" lon="-0.17524">
        <ele>83.4</ele>
        <time>2023-07-01T07:41:21Z</time>
      </trkpt>
      <trkpt lat="43.68953" lon="-0.17523">
        <ele>83.6</ele>
        <time>2023-07-01T07:41:22Z</time>
      </trkpt>
      <trkpt lat="43.68952" lon="-0.17519">
        <ele>83.6</ele>
        <time>2023-07-01T07:41:24Z</time>
      </trkpt>
      <trkpt lat="43.68952" lon="-0.17516">
        <ele>83.6</ele>
        <time>2023-07-01T07:41:26Z</time>
      </trkpt>
      <trkpt lat="43.6895" lon="-0.17509">
        <ele>83.6</ele>
        <time>2023-07-01T07:41:30Z</time>
      </trkpt>
      <trkpt lat="43.68949" lon="-0.17504">
        <ele>83.6</ele>
        <time>2023-07-01T07:41:33Z</time>
      </trkpt>
      <trkpt lat="43.68948" lon="-0.17498">
        <ele>83.6</ele>
        <time>2023-07-01T07:41:36Z</time>
      </trkpt>
      <trkpt lat="43.68947" lon="-0.17493">
        <ele>83.4</ele>
        <time>2023-07-01T07:41:39Z</time>
      </trkpt>
      <trkpt lat="43.68944" lon="-0.17484">
        <ele>83.8</ele>
        <time>2023-07-01T07:41:44Z</time>
      </trkpt>
      <trkpt lat="43.68944" lon="-0.1748">
        <ele>83.8</ele>
        <time>2023-07-01T07:41:46Z</time>
      </trkpt>
      <trkpt lat="43.68943" lon="-0.17476">
        <ele>84.2</ele>
        <time>2023-07-01T07:41:48Z</time>
      </trkpt>
      <trkpt lat="43.68944" lon="-0.17474">
        <ele>84.2</ele>
        <time>2023-07-01T07:41:49Z</time>
      </trkpt>
      <trkpt lat="43.68946" lon="-0.1747">
        <ele>84.4</ele>
        <time>2023-07-01T07:41:52Z</time>
      </trkpt>
      <trkpt lat="43.6895" lon="-0.17464">
        <ele>84.4</ele>
        <time>2023-07-01T07:41:57Z</time>
      </trkpt>
      <trkpt lat="43.68952" lon="-0.17461">
        <ele>84.4</ele>
        <time>2023-07-01T07:41:59Z</time>
      </trkpt>
      <trkpt lat="43.68954" lon="-0.17459">
        <ele>84.2</ele>
        <time>2023-07-01T07:42:01Z</time>
      </trkpt>
      <trkpt lat="43.68955" lon="-0.17458">
        <ele>84.2</ele>
        <time>2023-07-01T07:42:02Z</time>
      </trkpt>
      <trkpt lat="43.68959" lon="-0.17457">
        <ele>83.6</ele>
        <time>2023-07-01T07:42:05Z</time>
      </trkpt>
      <trkpt lat="43.68959" lon="-0.17457">
        <ele>83.6</ele>
        <time>2023-07-01T07:42:06Z</time>
      </trkpt>
      <trkpt lat="43.68958" lon="-0.17457">
        <ele>83.2</ele>
        <time>2023-07-01T07:42:16Z</time>
      </trkpt>
      <trkpt lat="43.68962" lon="-0.17456">
        <ele>83.2</ele>
        <time>2023-07-01T07:42:22Z</time>
      </trkpt>
      <trkpt lat="43.68965" lon="-0.17455">
        <ele>83</ele>
        <time>2023-07-01T07:42:24Z</time>
      </trkpt>
      <trkpt lat="43.6897" lon="-0.17452">
        <ele>83</ele>
        <time>2023-07-01T07:42:28Z</time>
      </trkpt>
      <trkpt lat="43.68973" lon="-0.17448">
        <ele>83</ele>
        <time>2023-07-01T07:42:31Z</time>
      </trkpt>
      <trkpt lat="43.6898" lon="-0.17442">
        <ele>82.6</ele>
        <time>2023-07-01T07:42:37Z</time>
      </trkpt>
      <trkpt lat="43.68989" lon="-0.17432">
        <ele>82.8</ele>
        <time>2023-07-01T07:42:45Z</time>
      </trkpt>
      <trkpt lat="43.68995" lon="-0.17428">
        <ele>82.8</ele>
        <time>2023-07-01T07:42:50Z</time>
      </trkpt>
      <trkpt lat="43.69" lon="-0.17425">
        <ele>83</ele>
        <time>2023-07-01T07:42:54Z</time>
      </trkpt>
      <trkpt lat="43.69003" lon="-0.17423">
        <ele>83</ele>
        <time>2023-07-01T07:42:57Z</time>
      </trkpt>
      <trkpt lat="43.69012" lon="-0.17417">
        <ele>83.2</ele>
        <time>2023-07-01T07:43:04Z</time>
      </trkpt>
      <trkpt lat="43.69018" lon="-0.17412">
        <ele>82.8</ele>
        <time>2023-07-01T07:43:10Z</time>
      </trkpt>
      <trkpt lat="43.69021" lon="-0.1741">
        <ele>82.6</ele>
        <time>2023-07-01T07:43:13Z</time>
      </trkpt>
      <trkpt lat="43.69031" lon="-0.17403">
        <ele>82.8</ele>
        <time>2023-07-01T07:43:21Z</time>
      </trkpt>
      <trkpt lat="43.69036" lon="-0.174">
        <ele>83</ele>
        <time>2023-07-01T07:43:25Z</time>
      </trkpt>
      <trkpt lat="43.69038" lon="-0.17398">
        <ele>83</ele>
        <time>2023-07-01T07:43:27Z</time>
      </trkpt>
      <trkpt lat="43.69042" lon="-0.17393">
        <ele>83</ele>
        <time>2023-07-01T07:43:31Z</time>
      </trkpt>
      <trkpt lat="43.69043" lon="-0.17391">
        <ele>83</ele>
        <time>2023-07-01T07:43:32Z</time>
      </trkpt>
      <trkpt lat="43.69047" lon="-0.17389">
        <ele>82.8</ele>
        <time>2023-07-01T07:43:35Z</time>
      </trkpt>
      <trkpt lat="43.69058" lon="-0.17382">
        <ele>83</ele>
        <time>2023-07-01T07:43:45Z</time>
      </trkpt>
      <trkpt lat="43.69068" lon="-0.17375">
        <ele>83</ele>
        <time>2023-07-01T07:43:53Z</time>
      </trkpt>
      <trkpt lat="43.69078" lon="-0.17367">
        <ele>83</ele>
        <time>2023-07-01T07:44:01Z</time>
      </trkpt>
      <trkpt lat="43.69088" lon="-0.17361">
        <ele>82.8</ele>
        <time>2023-07-01T07:44:09Z</time>
      </trkpt>
      <trkpt lat="43.69096" lon="-0.17356">
        <ele>83</ele>
        <time>2023-07-01T07:44:16Z</time>
      </trkpt>
      <trkpt lat="43.69099" lon="-0.17353">
        <ele>82.8</ele>
        <time>2023-07-01T07:44:19Z</time>
      </trkpt>
      <trkpt lat="43.69103" lon="-0.1735">
        <ele>82.8</ele>
        <time>2023-07-01T07:44:22Z</time>
      </trkpt>
      <trkpt lat="43.69105" lon="-0.17348">
        <ele>82.8</ele>
        <time>2023-07-01T07:44:24Z</time>
      </trkpt>
      <trkpt lat="43.69113" lon="-0.17342">
        <ele>83</ele>
        <time>2023-07-01T07:44:30Z</time>
      </trkpt>
      <trkpt lat="43.69114" lon="-0.17341">
        <ele>83</ele>
        <time>2023-07-01T07:44:31Z</time>
      </trkpt>
      <trkpt lat="43.69117" lon="-0.17338">
        <ele>82.8</ele>
        <time>2023-07-01T07:44:34Z</time>
      </trkpt>
      <trkpt lat="43.69121" lon="-0.17335">
        <ele>82.8</ele>
        <time>2023-07-01T07:44:37Z</time>
      </trkpt>
      <trkpt lat="43.69128" lon="-0.17331">
        <ele>82.8</ele>
        <time>2023-07-01T07:44:43Z</time>
      </trkpt>
      <trkpt lat="43.6913" lon="-0.17329">
        <ele>83</ele>
        <time>2023-07-01T07:44:45Z</time>
      </trkpt>
      <trkpt lat="43.69139" lon="-0.17323">
        <ele>83</ele>
        <time>2023-07-01T07:44:53Z</time>
      </trkpt>
      <trkpt lat="43.69142" lon="-0.1732">
        <ele>83</ele>
        <time>2023-07-01T07:44:56Z</time>
      </trkpt>
      <trkpt lat="43.69149" lon="-0.17315">
        <ele>83.4</ele>
        <time>2023-07-01T07:45:01Z</time>
      </trkpt>
      <trkpt lat="43.69153" lon="-0.17311">
        <ele>83.4</ele>
        <time>2023-07-01T07:45:04Z</time>
      </trkpt>
      <trkpt lat="43.69154" lon="-0.1731">
        <ele>83.4</ele>
        <time>2023-07-01T07:45:05Z</time>
      </trkpt>
      <trkpt lat="43.69158" lon="-0.17307">
        <ele>83.2</ele>
        <time>2023-07-01T07:45:09Z</time>
      </trkpt>
      <trkpt lat="43.69159" lon="-0.17306">
        <ele>83</ele>
        <time>2023-07-01T07:45:10Z</time>
      </trkpt>
      <trkpt lat="43.69165" lon="-0.17303">
        <ele>82.8</ele>
        <time>2023-07-01T07:45:14Z</time>
      </trkpt>
      <trkpt lat="43.69167" lon="-0.17302">
        <ele>82.8</ele>
        <time>2023-07-01T07:45:15Z</time>
      </trkpt>
      <trkpt lat="43.69169" lon="-0.17301">
        <ele>82.8</ele>
        <time>2023-07-01T07:45:17Z</time>
      </trkpt>
      <trkpt lat="43.69176" lon="-0.17296">
        <ele>82.8</ele>
        <time>2023-07-01T07:45:24Z</time>
      </trkpt>
      <trkpt lat="43.69185" lon="-0.17289">
        <ele>82.8</ele>
        <time>2023-07-01T07:45:30Z</time>
      </trkpt>
      <trkpt lat="43.69193" lon="-0.17283">
        <ele>83.2</ele>
        <time>2023-07-01T07:45:36Z</time>
      </trkpt>
      <trkpt lat="43.69194" lon="-0.17283">
        <ele>83.4</ele>
        <time>2023-07-01T07:45:37Z</time>
      </trkpt>
      <trkpt lat="43.69195" lon="-0.17282">
        <ele>83.4</ele>
        <time>2023-07-01T07:45:38Z</time>
      </trkpt>
      <trkpt lat="43.692" lon="-0.17278">
        <ele>83</ele>
        <time>2023-07-01T07:45:43Z</time>
      </trkpt>
      <trkpt lat="43.69208" lon="-0.17271">
        <ele>83</ele>
        <time>2023-07-01T07:45:50Z</time>
      </trkpt>
      <trkpt lat="43.69211" lon="-0.1727">
        <ele>83</ele>
        <time>2023-07-01T07:45:52Z</time>
      </trkpt>
      <trkpt lat="43.69218" lon="-0.17264">
        <ele>83</ele>
        <time>2023-07-01T07:45:58Z</time>
      </trkpt>
      <trkpt lat="43.6922" lon="-0.17263">
        <ele>83.2</ele>
        <time>2023-07-01T07:46:00Z</time>
      </trkpt>
      <trkpt lat="43.69222" lon="-0.17261">
        <ele>83.2</ele>
        <time>2023-07-01T07:46:02Z</time>
      </trkpt>
      <trkpt lat="43.69223" lon="-0.17261">
        <ele>83.4</ele>
        <time>2023-07-01T07:46:03Z</time>
      </trkpt>
      <trkpt lat="43.69226" lon="-0.17259">
        <ele>83.4</ele>
        <time>2023-07-01T07:46:06Z</time>
      </trkpt>
      <trkpt lat="43.69232" lon="-0.17253">
        <ele>83.6</ele>
        <time>2023-07-01T07:46:11Z</time>
      </trkpt>
      <trkpt lat="43.69239" lon="-0.17248">
        <ele>83.6</ele>
        <time>2023-07-01T07:46:17Z</time>
      </trkpt>
      <trkpt lat="43.69241" lon="-0.17246">
        <ele>83.4</ele>
        <time>2023-07-01T07:46:19Z</time>
      </trkpt>
      <trkpt lat="43.69246" lon="-0.17242">
        <ele>83.4</ele>
        <time>2023-07-01T07:46:23Z</time>
      </trkpt>
      <trkpt lat="43.69248" lon="-0.1724">
        <ele>83.2</ele>
        <time>2023-07-01T07:46:25Z</time>
      </trkpt>
      <trkpt lat="43.69257" lon="-0.1723">
        <ele>83.4</ele>
        <time>2023-07-01T07:46:34Z</time>
      </trkpt>
      <trkpt lat="43.69261" lon="-0.17224">
        <ele>83.4</ele>
        <time>2023-07-01T07:46:38Z</time>
      </trkpt>
      <trkpt lat="43.69262" lon="-0.17223">
        <ele>83.4</ele>
        <time>2023-07-01T07:46:39Z</time>
      </trkpt>
      <trkpt lat="43.69265" lon="-0.1722">
        <ele>83.4</ele>
        <time>2023-07-01T07:46:41Z</time>
      </trkpt>
      <trkpt lat="43.69272" lon="-0.17211">
        <ele>83.2</ele>
        <time>2023-07-01T07:46:48Z</time>
      </trkpt>
      <trkpt lat="43.69274" lon="-0.17209">
        <ele>83.2</ele>
        <time>2023-07-01T07:46:50Z</time>
      </trkpt>
      <trkpt lat="43.69278" lon="-0.17204">
        <ele>83</ele>
        <time>2023-07-01T07:46:54Z</time>
      </trkpt>
      <trkpt lat="43.69288" lon="-0.17192">
        <ele>83.4</ele>
        <time>2023-07-01T07:47:03Z</time>
      </trkpt>
      <trkpt lat="43.69292" lon="-0.17185">
        <ele>83.6</ele>
        <time>2023-07-01T07:47:08Z</time>
      </trkpt>
      <trkpt lat="43.69294" lon="-0.17182">
        <ele>83.4</ele>
        <time>2023-07-01T07:47:10Z</time>
      </trkpt>
      <trkpt lat="43.69294" lon="-0.17181">
        <ele>83.2</ele>
        <time>2023-07-01T07:47:11Z</time>
      </trkpt>
      <trkpt lat="43.69299" lon="-0.17173">
        <ele>83.6</ele>
        <time>2023-07-01T07:47:17Z</time>
      </trkpt>
      <trkpt lat="43.69301" lon="-0.17171">
        <ele>83.6</ele>
        <time>2023-07-01T07:47:19Z</time>
      </trkpt>
      <trkpt lat="43.69305" lon="-0.17164">
        <ele>83.2</ele>
        <time>2023-07-01T07:47:23Z</time>
      </trkpt>
      <trkpt lat="43.69306" lon="-0.17163">
        <ele>83</ele>
        <time>2023-07-01T07:47:24Z</time>
      </trkpt>
      <trkpt lat="43.69311" lon="-0.17155">
        <ele>83.2</ele>
        <time>2023-07-01T07:47:30Z</time>
      </trkpt>
      <trkpt lat="43.69312" lon="-0.17153">
        <ele>83.2</ele>
        <time>2023-07-01T07:47:31Z</time>
      </trkpt>
      <trkpt lat="43.69317" lon="-0.17144">
        <ele>83.4</ele>
        <time>2023-07-01T07:47:38Z</time>
      </trkpt>
      <trkpt lat="43.69321" lon="-0.17136">
        <ele>83.4</ele>
        <time>2023-07-01T07:47:44Z</time>
      </trkpt>
      <trkpt lat="43.69321" lon="-0.17135">
        <ele>83.4</ele>
        <time>2023-07-01T07:47:45Z</time>
      </trkpt>
      <trkpt lat="43.69323" lon="-0.17133">
        <ele>83.6</ele>
        <time>2023-07-01T07:47:47Z</time>
      </trkpt>
      <trkpt lat="43.69327" lon="-0.17123">
        <ele>83.4</ele>
        <time>2023-07-01T07:47:52Z</time>
      </trkpt>
      <trkpt lat="43.69328" lon="-0.17121">
        <ele>83.4</ele>
        <time>2023-07-01T07:47:53Z</time>
      </trkpt>
      <trkpt lat="43.69331" lon="-0.17116">
        <ele>83.4</ele>
        <time>2023-07-01T07:47:56Z</time>
      </trkpt>
      <trkpt lat="43.69332" lon="-0.17114">
        <ele>83.4</ele>
        <time>2023-07-01T07:47:58Z</time>
      </trkpt>
      <trkpt lat="43.69333" lon="-0.1711">
        <ele>83.4</ele>
        <time>2023-07-01T07:48:00Z</time>
      </trkpt>
      <trkpt lat="43.69336" lon="-0.17098">
        <ele>83.4</ele>
        <time>2023-07-01T07:48:06Z</time>
      </trkpt>
      <trkpt lat="43.69339" lon="-0.1709">
        <ele>83.6</ele>
        <time>2023-07-01T07:48:11Z</time>
      </trkpt>
      <trkpt lat="43.69339" lon="-0.17088">
        <ele>83.6</ele>
        <time>2023-07-01T07:48:12Z</time>
      </trkpt>
      <trkpt lat="43.69342" lon="-0.17083">
        <ele>83.6</ele>
        <time>2023-07-01T07:48:16Z</time>
      </trkpt>
      <trkpt lat="43.69343" lon="-0.1708">
        <ele>83.8</ele>
        <time>2023-07-01T07:48:18Z</time>
      </trkpt>
      <trkpt lat="43.69344" lon="-0.17079">
        <ele>83.8</ele>
        <time>2023-07-01T07:48:19Z</time>
      </trkpt>
      <trkpt lat="43.69345" lon="-0.17077">
        <ele>83.8</ele>
        <time>2023-07-01T07:48:21Z</time>
      </trkpt>
      <trkpt lat="43.69348" lon="-0.17072">
        <ele>84</ele>
        <time>2023-07-01T07:48:24Z</time>
      </trkpt>
      <trkpt lat="43.69352" lon="-0.1706">
        <ele>83.6</ele>
        <time>2023-07-01T07:48:31Z</time>
      </trkpt>
      <trkpt lat="43.69354" lon="-0.17048">
        <ele>83.6</ele>
        <time>2023-07-01T07:48:37Z</time>
      </trkpt>
      <trkpt lat="43.69356" lon="-0.17034">
        <ele>83.8</ele>
        <time>2023-07-01T07:48:44Z</time>
      </trkpt>
      <trkpt lat="43.69357" lon="-0.17031">
        <ele>83.8</ele>
        <time>2023-07-01T07:48:47Z</time>
      </trkpt>
      <trkpt lat="43.69358" lon="-0.17026">
        <ele>83.8</ele>
        <time>2023-07-01T07:48:50Z</time>
      </trkpt>
      <trkpt lat="43.69362" lon="-0.17012">
        <ele>84</ele>
        <time>2023-07-01T07:48:57Z</time>
      </trkpt>
      <trkpt lat="43.69363" lon="-0.17008">
        <ele>84.2</ele>
        <time>2023-07-01T07:48:59Z</time>
      </trkpt>
      <trkpt lat="43.69364" lon="-0.16994">
        <ele>84.4</ele>
        <time>2023-07-01T07:49:05Z</time>
      </trkpt>
      <trkpt lat="43.69364" lon="-0.16981">
        <ele>84.4</ele>
        <time>2023-07-01T07:49:12Z</time>
      </trkpt>
      <trkpt lat="43.69365" lon="-0.16979">
        <ele>84.4</ele>
        <time>2023-07-01T07:49:13Z</time>
      </trkpt>
      <trkpt lat="43.69367" lon="-0.16968">
        <ele>84.2</ele>
        <time>2023-07-01T07:49:20Z</time>
      </trkpt>
      <trkpt lat="43.69367" lon="-0.16967">
        <ele>84.2</ele>
        <time>2023-07-01T07:49:21Z</time>
      </trkpt>
      <trkpt lat="43.69367" lon="-0.16965">
        <ele>84.2</ele>
        <time>2023-07-01T07:49:22Z</time>
      </trkpt>
      <trkpt lat="43.69368" lon="-0.16957">
        <ele>84.4</ele>
        <time>2023-07-01T07:49:26Z</time>
      </trkpt>
      <trkpt lat="43.69366" lon="-0.16941">
        <ele>84.2</ele>
        <time>2023-07-01T07:49:34Z</time>
      </trkpt>
      <trkpt lat="43.69366" lon="-0.16929">
        <ele>84.6</ele>
        <time>2023-07-01T07:49:42Z</time>
      </trkpt>
      <trkpt lat="43.69367" lon="-0.16927">
        <ele>84.6</ele>
        <time>2023-07-01T07:49:43Z</time>
      </trkpt>
      <trkpt lat="43.69367" lon="-0.16926">
        <ele>84.6</ele>
        <time>2023-07-01T07:49:44Z</time>
      </trkpt>
      <trkpt lat="43.69367" lon="-0.16914">
        <ele>84.6</ele>
        <time>2023-07-01T07:49:50Z</time>
      </trkpt>
      <trkpt lat="43.69367" lon="-0.169">
        <ele>84.4</ele>
        <time>2023-07-01T07:49:57Z</time>
      </trkpt>
      <trkpt lat="43.69369" lon="-0.16893">
        <ele>84.2</ele>
        <time>2023-07-01T07:50:02Z</time>
      </trkpt>
      <trkpt lat="43.69371" lon="-0.16876">
        <ele>84.4</ele>
        <time>2023-07-01T07:50:10Z</time>
      </trkpt>
      <trkpt lat="43.69375" lon="-0.16858">
        <ele>84.8</ele>
        <time>2023-07-01T07:50:19Z</time>
      </trkpt>
      <trkpt lat="43.69375" lon="-0.16857">
        <ele>84.8</ele>
        <time>2023-07-01T07:50:20Z</time>
      </trkpt>
      <trkpt lat="43.69376" lon="-0.16855">
        <ele>84.8</ele>
        <time>2023-07-01T07:50:21Z</time>
      </trkpt>
      <trkpt lat="43.69377" lon="-0.16847">
        <ele>84.6</ele>
        <time>2023-07-01T07:50:25Z</time>
      </trkpt>
      <trkpt lat="43.69379" lon="-0.16833">
        <ele>84.8</ele>
        <time>2023-07-01T07:50:32Z</time>
      </trkpt>
      <trkpt lat="43.69379" lon="-0.16831">
        <ele>84.8</ele>
        <time>2023-07-01T07:50:33Z</time>
      </trkpt>
      <trkpt lat="43.69379" lon="-0.16827">
        <ele>84.8</ele>
        <time>2023-07-01T07:50:35Z</time>
      </trkpt>
      <trkpt lat="43.69379" lon="-0.16824">
        <ele>84.8</ele>
        <time>2023-07-01T07:50:37Z</time>
      </trkpt>
      <trkpt lat="43.6938" lon="-0.16814">
        <ele>84.6</ele>
        <time>2023-07-01T07:50:42Z</time>
      </trkpt>
      <trkpt lat="43.6938" lon="-0.16812">
        <ele>84.4</ele>
        <time>2023-07-01T07:50:43Z</time>
      </trkpt>
      <trkpt lat="43.6938" lon="-0.1681">
        <ele>84.4</ele>
        <time>2023-07-01T07:50:44Z</time>
      </trkpt>
      <trkpt lat="43.6938" lon="-0.16809">
        <ele>84.4</ele>
        <time>2023-07-01T07:50:45Z</time>
      </trkpt>
      <trkpt lat="43.6938" lon="-0.16807">
        <ele>84.6</ele>
        <time>2023-07-01T07:50:46Z</time>
      </trkpt>
      <trkpt lat="43.69381" lon="-0.16805">
        <ele>84.6</ele>
        <time>2023-07-01T07:50:47Z</time>
      </trkpt>
      <trkpt lat="43.69381" lon="-0.16803">
        <ele>84.6</ele>
        <time>2023-07-01T07:50:48Z</time>
      </trkpt>
      <trkpt lat="43.69382" lon="-0.168">
        <ele>84.6</ele>
        <time>2023-07-01T07:50:50Z</time>
      </trkpt>
      <trkpt lat="43.69383" lon="-0.16798">
        <ele>84.6</ele>
        <time>2023-07-01T07:50:51Z</time>
      </trkpt>
      <trkpt lat="43.69384" lon="-0.16795">
        <ele>84.6</ele>
        <time>2023-07-01T07:50:53Z</time>
      </trkpt>
      <trkpt lat="43.69385" lon="-0.16791">
        <ele>84.6</ele>
        <time>2023-07-01T07:50:55Z</time>
      </trkpt>
      <trkpt lat="43.69386" lon="-0.16785">
        <ele>84.6</ele>
        <time>2023-07-01T07:50:58Z</time>
      </trkpt>
      <trkpt lat="43.69387" lon="-0.16776">
        <ele>84.4</ele>
        <time>2023-07-01T07:51:03Z</time>
      </trkpt>
      <trkpt lat="43.69388" lon="-0.1677">
        <ele>84.6</ele>
        <time>2023-07-01T07:51:06Z</time>
      </trkpt>
      <trkpt lat="43.69389" lon="-0.16759">
        <ele>84.8</ele>
        <time>2023-07-01T07:51:12Z</time>
      </trkpt>
      <trkpt lat="43.6939" lon="-0.16754">
        <ele>84.8</ele>
        <time>2023-07-01T07:51:15Z</time>
      </trkpt>
      <trkpt lat="43.69391" lon="-0.16742">
        <ele>84.6</ele>
        <time>2023-07-01T07:51:22Z</time>
      </trkpt>
      <trkpt lat="43.69392" lon="-0.16739">
        <ele>84.8</ele>
        <time>2023-07-01T07:51:24Z</time>
      </trkpt>
      <trkpt lat="43.69394" lon="-0.16721">
        <ele>85.2</ele>
        <time>2023-07-01T07:51:33Z</time>
      </trkpt>
      <trkpt lat="43.69397" lon="-0.16705">
        <ele>85</ele>
        <time>2023-07-01T07:51:42Z</time>
      </trkpt>
      <trkpt lat="43.69399" lon="-0.1669">
        <ele>84.8</ele>
        <time>2023-07-01T07:51:51Z</time>
      </trkpt>
      <trkpt lat="43.69403" lon="-0.16677">
        <ele>85</ele>
        <time>2023-07-01T07:51:59Z</time>
      </trkpt>
      <trkpt lat="43.69404" lon="-0.16673">
        <ele>85.2</ele>
        <time>2023-07-01T07:52:01Z</time>
      </trkpt>
      <trkpt lat="43.69407" lon="-0.16659">
        <ele>85.6</ele>
        <time>2023-07-01T07:52:09Z</time>
      </trkpt>
      <trkpt lat="43.69408" lon="-0.1665">
        <ele>85.4</ele>
        <time>2023-07-01T07:52:14Z</time>
      </trkpt>
      <trkpt lat="43.69409" lon="-0.16643">
        <ele>85.4</ele>
        <time>2023-07-01T07:52:18Z</time>
      </trkpt>
      <trkpt lat="43.69411" lon="-0.16632">
        <ele>85.4</ele>
        <time>2023-07-01T07:52:24Z</time>
      </trkpt>
      <trkpt lat="43.69412" lon="-0.16629">
        <ele>85.4</ele>
        <time>2023-07-01T07:52:26Z</time>
      </trkpt>
      <trkpt lat="43.69417" lon="-0.16616">
        <ele>85.6</ele>
        <time>2023-07-01T07:52:33Z</time>
      </trkpt>
      <trkpt lat="43.6942" lon="-0.1661">
        <ele>85.6</ele>
        <time>2023-07-01T07:52:37Z</time>
      </trkpt>
      <trkpt lat="43.69421" lon="-0.16606">
        <ele>85.8</ele>
        <time>2023-07-01T07:52:39Z</time>
      </trkpt>
      <trkpt lat="43.69424" lon="-0.16596">
        <ele>85.8</ele>
        <time>2023-07-01T07:52:45Z</time>
      </trkpt>
      <trkpt lat="43.69424" lon="-0.16594">
        <ele>85.6</ele>
        <time>2023-07-01T07:52:46Z</time>
      </trkpt>
      <trkpt lat="43.69426" lon="-0.16585">
        <ele>86</ele>
        <time>2023-07-01T07:52:52Z</time>
      </trkpt>
      <trkpt lat="43.69428" lon="-0.16577">
        <ele>86</ele>
        <time>2023-07-01T07:52:57Z</time>
      </trkpt>
      <trkpt lat="43.69429" lon="-0.16575">
        <ele>86</ele>
        <time>2023-07-01T07:52:58Z</time>
      </trkpt>
      <trkpt lat="43.69431" lon="-0.16568">
        <ele>85.6</ele>
        <time>2023-07-01T07:53:02Z</time>
      </trkpt>
      <trkpt lat="43.69432" lon="-0.16566">
        <ele>85.6</ele>
        <time>2023-07-01T07:53:03Z</time>
      </trkpt>
      <trkpt lat="43.69435" lon="-0.16562">
        <ele>85.6</ele>
        <time>2023-07-01T07:53:06Z</time>
      </trkpt>
      <trkpt lat="43.69436" lon="-0.16559">
        <ele>85.6</ele>
        <time>2023-07-01T07:53:08Z</time>
      </trkpt>
      <trkpt lat="43.69438" lon="-0.16556">
        <ele>85.6</ele>
        <time>2023-07-01T07:53:10Z</time>
      </trkpt>
      <trkpt lat="43.6944" lon="-0.16551">
        <ele>85.6</ele>
        <time>2023-07-01T07:53:13Z</time>
      </trkpt>
      <trkpt lat="43.69445" lon="-0.16537">
        <ele>85.6</ele>
        <time>2023-07-01T07:53:21Z</time>
      </trkpt>
      <trkpt lat="43.69451" lon="-0.16526">
        <ele>85.6</ele>
        <time>2023-07-01T07:53:28Z</time>
      </trkpt>
      <trkpt lat="43.69452" lon="-0.16521">
        <ele>85.4</ele>
        <time>2023-07-01T07:53:31Z</time>
      </trkpt>
      <trkpt lat="43.69455" lon="-0.16516">
        <ele>85.4</ele>
        <time>2023-07-01T07:53:34Z</time>
      </trkpt>
      <trkpt lat="43.69455" lon="-0.16514">
        <ele>85.4</ele>
        <time>2023-07-01T07:53:35Z</time>
      </trkpt>
      <trkpt lat="43.69462" lon="-0.16498">
        <ele>85</ele>
        <time>2023-07-01T07:53:44Z</time>
      </trkpt>
      <trkpt lat="43.69464" lon="-0.16495">
        <ele>85</ele>
        <time>2023-07-01T07:53:46Z</time>
      </trkpt>
      <trkpt lat="43.69463" lon="-0.16493">
        <ele>85</ele>
        <time>2023-07-01T07:53:47Z</time>
      </trkpt>
      <trkpt lat="43.69463" lon="-0.16491">
        <ele>85.2</ele>
        <time>2023-07-01T07:53:48Z</time>
      </trkpt>
      <trkpt lat="43.69463" lon="-0.16489">
        <ele>85.2</ele>
        <time>2023-07-01T07:53:49Z</time>
      </trkpt>
      <trkpt lat="43.69464" lon="-0.16486">
        <ele>85.4</ele>
        <time>2023-07-01T07:53:51Z</time>
      </trkpt>
      <trkpt lat="43.69466" lon="-0.16479">
        <ele>85.6</ele>
        <time>2023-07-01T07:53:55Z</time>
      </trkpt>
      <trkpt lat="43.69467" lon="-0.16476">
        <ele>85.8</ele>
        <time>2023-07-01T07:53:57Z</time>
      </trkpt>
      <trkpt lat="43.69468" lon="-0.1647">
        <ele>85.6</ele>
        <time>2023-07-01T07:54:00Z</time>
      </trkpt>
      <trkpt lat="43.69472" lon="-0.1646">
        <ele>85.6</ele>
        <time>2023-07-01T07:54:06Z</time>
      </trkpt>
      <trkpt lat="43.69478" lon="-0.16443">
        <ele>85.6</ele>
        <time>2023-07-01T07:54:15Z</time>
      </trkpt>
      <trkpt lat="43.69479" lon="-0.1644">
        <ele>85.6</ele>
        <time>2023-07-01T07:54:17Z</time>
      </trkpt>
      <trkpt lat="43.6948" lon="-0.16439">
        <ele>85.6</ele>
        <time>2023-07-01T07:54:18Z</time>
      </trkpt>
      <trkpt lat="43.69482" lon="-0.16432">
        <ele>86</ele>
        <time>2023-07-01T07:54:22Z</time>
      </trkpt>
      <trkpt lat="43.69485" lon="-0.16424">
        <ele>86.2</ele>
        <time>2023-07-01T07:54:27Z</time>
      </trkpt>
      <trkpt lat="43.69486" lon="-0.16421">
        <ele>86</ele>
        <time>2023-07-01T07:54:29Z</time>
      </trkpt>
      <trkpt lat="43.69489" lon="-0.16411">
        <ele>86</ele>
        <time>2023-07-01T07:54:35Z</time>
      </trkpt>
      <trkpt lat="43.69493" lon="-0.16399">
        <ele>85.8</ele>
        <time>2023-07-01T07:54:42Z</time>
      </trkpt>
      <trkpt lat="43.69496" lon="-0.16387">
        <ele>86.2</ele>
        <time>2023-07-01T07:54:50Z</time>
      </trkpt>
      <trkpt lat="43.69505" lon="-0.16376">
        <ele>86.2</ele>
        <time>2023-07-01T07:54:58Z</time>
      </trkpt>
      <trkpt lat="43.6951" lon="-0.16371">
        <ele>86.2</ele>
        <time>2023-07-01T07:55:03Z</time>
      </trkpt>
      <trkpt lat="43.69513" lon="-0.16369">
        <ele>86</ele>
        <time>2023-07-01T07:55:05Z</time>
      </trkpt>
      <trkpt lat="43.69523" lon="-0.16362">
        <ele>86.2</ele>
        <time>2023-07-01T07:55:13Z</time>
      </trkpt>
      <trkpt lat="43.69529" lon="-0.16356">
        <ele>86</ele>
        <time>2023-07-01T07:55:19Z</time>
      </trkpt>
      <trkpt lat="43.69538" lon="-0.1635">
        <ele>86.2</ele>
        <time>2023-07-01T07:55:28Z</time>
      </trkpt>
      <trkpt lat="43.69543" lon="-0.16344">
        <ele>86</ele>
        <time>2023-07-01T07:55:34Z</time>
      </trkpt>
      <trkpt lat="43.69547" lon="-0.16338">
        <ele>86.4</ele>
        <time>2023-07-01T07:55:39Z</time>
      </trkpt>
      <trkpt lat="43.69551" lon="-0.16335">
        <ele>86.2</ele>
        <time>2023-07-01T07:55:42Z</time>
      </trkpt>
      <trkpt lat="43.69562" lon="-0.16326">
        <ele>86.6</ele>
        <time>2023-07-01T07:55:51Z</time>
      </trkpt>
      <trkpt lat="43.69572" lon="-0.16319">
        <ele>86.4</ele>
        <time>2023-07-01T07:55:59Z</time>
      </trkpt>
      <trkpt lat="43.69581" lon="-0.16311">
        <ele>86.4</ele>
        <time>2023-07-01T07:56:07Z</time>
      </trkpt>
      <trkpt lat="43.6959" lon="-0.16304">
        <ele>86.8</ele>
        <time>2023-07-01T07:56:14Z</time>
      </trkpt>
      <trkpt lat="43.69595" lon="-0.16299">
        <ele>86.8</ele>
        <time>2023-07-01T07:56:18Z</time>
      </trkpt>
      <trkpt lat="43.69596" lon="-0.16299">
        <ele>86.8</ele>
        <time>2023-07-01T07:56:19Z</time>
      </trkpt>
      <trkpt lat="43.69598" lon="-0.16298">
        <ele>86.8</ele>
        <time>2023-07-01T07:56:20Z</time>
      </trkpt>
      <trkpt lat="43.69601" lon="-0.16294">
        <ele>86.8</ele>
        <time>2023-07-01T07:56:23Z</time>
      </trkpt>
      <trkpt lat="43.69604" lon="-0.16291">
        <ele>87</ele>
        <time>2023-07-01T07:56:26Z</time>
      </trkpt>
      <trkpt lat="43.69605" lon="-0.1629">
        <ele>87</ele>
        <time>2023-07-01T07:56:27Z</time>
      </trkpt>
      <trkpt lat="43.69611" lon="-0.16285">
        <ele>87.2</ele>
        <time>2023-07-01T07:56:33Z</time>
      </trkpt>
      <trkpt lat="43.69612" lon="-0.16283">
        <ele>87.2</ele>
        <time>2023-07-01T07:56:35Z</time>
      </trkpt>
      <trkpt lat="43.69619" lon="-0.16277">
        <ele>87.4</ele>
        <time>2023-07-01T07:56:41Z</time>
      </trkpt>
      <trkpt lat="43.69621" lon="-0.16275">
        <ele>87.2</ele>
        <time>2023-07-01T07:56:43Z</time>
      </trkpt>
      <trkpt lat="43.6963" lon="-0.16265">
        <ele>87.4</ele>
        <time>2023-07-01T07:56:52Z</time>
      </trkpt>
      <trkpt lat="43.69639" lon="-0.16256">
        <ele>87.2</ele>
        <time>2023-07-01T07:57:00Z</time>
      </trkpt>
      <trkpt lat="43.69646" lon="-0.16247">
        <ele>87.2</ele>
        <time>2023-07-01T07:57:07Z</time>
      </trkpt>
      <trkpt lat="43.69651" lon="-0.16242">
        <ele>87.4</ele>
        <time>2023-07-01T07:57:12Z</time>
      </trkpt>
      <trkpt lat="43.6966" lon="-0.16232">
        <ele>87.4</ele>
        <time>2023-07-01T07:57:20Z</time>
      </trkpt>
      <trkpt lat="43.69666" lon="-0.16223">
        <ele>87.4</ele>
        <time>2023-07-01T07:57:26Z</time>
      </trkpt>
      <trkpt lat="43.69676" lon="-0.16214">
        <ele>87</ele>
        <time>2023-07-01T07:57:34Z</time>
      </trkpt>
      <trkpt lat="43.69685" lon="-0.16204">
        <ele>87.2</ele>
        <time>2023-07-01T07:57:42Z</time>
      </trkpt>
      <trkpt lat="43.69695" lon="-0.16192">
        <ele>87.4</ele>
        <time>2023-07-01T07:57:52Z</time>
      </trkpt>
      <trkpt lat="43.69697" lon="-0.16189">
        <ele>87.6</ele>
        <time>2023-07-01T07:57:55Z</time>
      </trkpt>
      <trkpt lat="43.69698" lon="-0.16188">
        <ele>87.6</ele>
        <time>2023-07-01T07:58:00Z</time>
      </trkpt>
      <trkpt lat="43.697" lon="-0.16186">
        <ele>87.6</ele>
        <time>2023-07-01T07:58:02Z</time>
      </trkpt>
      <trkpt lat="43.69705" lon="-0.16177">
        <ele>87.4</ele>
        <time>2023-07-01T07:58:09Z</time>
      </trkpt>
      <trkpt lat="43.69707" lon="-0.16173">
        <ele>87.2</ele>
        <time>2023-07-01T07:58:11Z</time>
      </trkpt>
      <trkpt lat="43.69714" lon="-0.16162">
        <ele>87.2</ele>
        <time>2023-07-01T07:58:18Z</time>
      </trkpt>
      <trkpt lat="43.69716" lon="-0.16159">
        <ele>87.2</ele>
        <time>2023-07-01T07:58:20Z</time>
      </trkpt>
      <trkpt lat="43.69718" lon="-0.16155">
        <ele>87.2</ele>
        <time>2023-07-01T07:58:23Z</time>
      </trkpt>
      <trkpt lat="43.69723" lon="-0.16149">
        <ele>87.2</ele>
        <time>2023-07-01T07:58:27Z</time>
      </trkpt>
      <trkpt lat="43.69729" lon="-0.16141">
        <ele>87.6</ele>
        <time>2023-07-01T07:58:34Z</time>
      </trkpt>
      <trkpt lat="43.69736" lon="-0.16133">
        <ele>87.6</ele>
        <time>2023-07-01T07:58:41Z</time>
      </trkpt>
      <trkpt lat="43.69742" lon="-0.16125">
        <ele>87.6</ele>
        <time>2023-07-01T07:58:48Z</time>
      </trkpt>
      <trkpt lat="43.6975" lon="-0.16116">
        <ele>87.6</ele>
        <time>2023-07-01T07:58:56Z</time>
      </trkpt>
      <trkpt lat="43.69759" lon="-0.16107">
        <ele>87.6</ele>
        <time>2023-07-01T07:59:03Z</time>
      </trkpt>
      <trkpt lat="43.69764" lon="-0.16101">
        <ele>87.6</ele>
        <time>2023-07-01T07:59:09Z</time>
      </trkpt>
      <trkpt lat="43.69769" lon="-0.16096">
        <ele>87.6</ele>
        <time>2023-07-01T07:59:13Z</time>
      </trkpt>
      <trkpt lat="43.69771" lon="-0.16094">
        <ele>87.8</ele>
        <time>2023-07-01T07:59:15Z</time>
      </trkpt>
      <trkpt lat="43.69772" lon="-0.16093">
        <ele>87.8</ele>
        <time>2023-07-01T07:59:16Z</time>
      </trkpt>
      <trkpt lat="43.69778" lon="-0.16089">
        <ele>87.4</ele>
        <time>2023-07-01T07:59:23Z</time>
      </trkpt>
      <trkpt lat="43.69782" lon="-0.16087">
        <ele>87.4</ele>
        <time>2023-07-01T07:59:27Z</time>
      </trkpt>
      <trkpt lat="43.69787" lon="-0.16083">
        <ele>87.8</ele>
        <time>2023-07-01T07:59:31Z</time>
      </trkpt>
      <trkpt lat="43.69794" lon="-0.16077">
        <ele>88.2</ele>
        <time>2023-07-01T07:59:37Z</time>
      </trkpt>
      <trkpt lat="43.69803" lon="-0.16069">
        <ele>88.2</ele>
        <time>2023-07-01T07:59:45Z</time>
      </trkpt>
      <trkpt lat="43.69805" lon="-0.16068">
        <ele>88.2</ele>
        <time>2023-07-01T07:59:46Z</time>
      </trkpt>
      <trkpt lat="43.6981" lon="-0.16067">
        <ele>88.2</ele>
        <time>2023-07-01T07:59:51Z</time>
      </trkpt>
      <trkpt lat="43.6981" lon="-0.16066">
        <ele>88.2</ele>
        <time>2023-07-01T07:59:52Z</time>
      </trkpt>
      <trkpt lat="43.69811" lon="-0.16065">
        <ele>88.2</ele>
        <time>2023-07-01T07:59:53Z</time>
      </trkpt>
      <trkpt lat="43.69806" lon="-0.16053">
        <ele>88</ele>
        <time>2023-07-01T08:00:15Z</time>
      </trkpt>
      <trkpt lat="43.69806" lon="-0.16053">
        <ele>88</ele>
        <time>2023-07-01T08:00:16Z</time>
      </trkpt>
      <trkpt lat="43.69806" lon="-0.16054">
        <ele>88</ele>
        <time>2023-07-01T08:00:17Z</time>
      </trkpt>
      <trkpt lat="43.69812" lon="-0.16059">
        <ele>88.6</ele>
        <time>2023-07-01T08:00:23Z</time>
      </trkpt>
      <trkpt lat="43.69814" lon="-0.16058">
        <ele>88.6</ele>
        <time>2023-07-01T08:00:25Z</time>
      </trkpt>
      <trkpt lat="43.6982" lon="-0.16056">
        <ele>88.4</ele>
        <time>2023-07-01T08:00:30Z</time>
      </trkpt>
      <trkpt lat="43.69823" lon="-0.16055">
        <ele>88.4</ele>
        <time>2023-07-01T08:00:33Z</time>
      </trkpt>
      <trkpt lat="43.69827" lon="-0.16052">
        <ele>88.4</ele>
        <time>2023-07-01T08:00:37Z</time>
      </trkpt>
      <trkpt lat="43.69835" lon="-0.16046">
        <ele>88.4</ele>
        <time>2023-07-01T08:00:44Z</time>
      </trkpt>
      <trkpt lat="43.69845" lon="-0.16041">
        <ele>88.6</ele>
        <time>2023-07-01T08:00:51Z</time>
      </trkpt>
      <trkpt lat="43.69847" lon="-0.16039">
        <ele>89</ele>
        <time>2023-07-01T08:00:53Z</time>
      </trkpt>
      <trkpt lat="43.69852" lon="-0.16035">
        <ele>88.8</ele>
        <time>2023-07-01T08:00:57Z</time>
      </trkpt>
      <trkpt lat="43.69861" lon="-0.1603">
        <ele>88.6</ele>
        <time>2023-07-01T08:01:04Z</time>
      </trkpt>
      <trkpt lat="43.69864" lon="-0.16028">
        <ele>88.4</ele>
        <time>2023-07-01T08:01:08Z</time>
      </trkpt>
      <trkpt lat="43.69866" lon="-0.16027">
        <ele>88.6</ele>
        <time>2023-07-01T08:01:10Z</time>
      </trkpt>
      <trkpt lat="43.69876" lon="-0.16023">
        <ele>88.6</ele>
        <time>2023-07-01T08:01:18Z</time>
      </trkpt>
      <trkpt lat="43.69884" lon="-0.16017">
        <ele>88.8</ele>
        <time>2023-07-01T08:01:24Z</time>
      </trkpt>
      <trkpt lat="43.69894" lon="-0.16011">
        <ele>88.8</ele>
        <time>2023-07-01T08:01:32Z</time>
      </trkpt>
      <trkpt lat="43.69901" lon="-0.16007">
        <ele>89</ele>
        <time>2023-07-01T08:01:38Z</time>
      </trkpt>
      <trkpt lat="43.69903" lon="-0.16005">
        <ele>88.8</ele>
        <time>2023-07-01T08:01:40Z</time>
      </trkpt>
      <trkpt lat="43.69907" lon="-0.16004">
        <ele>88.6</ele>
        <time>2023-07-01T08:01:43Z</time>
      </trkpt>
      <trkpt lat="43.69911" lon="-0.16">
        <ele>88.6</ele>
        <time>2023-07-01T08:01:47Z</time>
      </trkpt>
      <trkpt lat="43.69917" lon="-0.15998">
        <ele>88.6</ele>
        <time>2023-07-01T08:01:51Z</time>
      </trkpt>
      <trkpt lat="43.69923" lon="-0.15996">
        <ele>88.8</ele>
        <time>2023-07-01T08:01:55Z</time>
      </trkpt>
      <trkpt lat="43.69932" lon="-0.15992">
        <ele>88.8</ele>
        <time>2023-07-01T08:02:02Z</time>
      </trkpt>
      <trkpt lat="43.69937" lon="-0.15989">
        <ele>88.8</ele>
        <time>2023-07-01T08:02:06Z</time>
      </trkpt>
      <trkpt lat="43.69941" lon="-0.15986">
        <ele>88.6</ele>
        <time>2023-07-01T08:02:09Z</time>
      </trkpt>
      <trkpt lat="43.69944" lon="-0.15985">
        <ele>88.6</ele>
        <time>2023-07-01T08:02:11Z</time>
      </trkpt>
      <trkpt lat="43.69953" lon="-0.15979">
        <ele>88.8</ele>
        <time>2023-07-01T08:02:19Z</time>
      </trkpt>
      <trkpt lat="43.6996" lon="-0.15975">
        <ele>88.6</ele>
        <time>2023-07-01T08:02:25Z</time>
      </trkpt>
      <trkpt lat="43.69969" lon="-0.15972">
        <ele>88.6</ele>
        <time>2023-07-01T08:02:32Z</time>
      </trkpt>
      <trkpt lat="43.69975" lon="-0.15968">
        <ele>88.6</ele>
        <time>2023-07-01T08:02:38Z</time>
      </trkpt>
      <trkpt lat="43.69983" lon="-0.15962">
        <ele>88.6</ele>
        <time>2023-07-01T08:02:45Z</time>
      </trkpt>
      <trkpt lat="43.69988" lon="-0.1596">
        <ele>88.6</ele>
        <time>2023-07-01T08:02:48Z</time>
      </trkpt>
      <trkpt lat="43.69995" lon="-0.15958">
        <ele>88.6</ele>
        <time>2023-07-01T08:02:52Z</time>
      </trkpt>
      <trkpt lat="43.70002" lon="-0.15958">
        <ele>88.8</ele>
        <time>2023-07-01T08:02:59Z</time>
      </trkpt>
      <trkpt lat="43.70011" lon="-0.15957">
        <ele>89</ele>
        <time>2023-07-01T08:03:06Z</time>
      </trkpt>
      <trkpt lat="43.70018" lon="-0.15955">
        <ele>89.4</ele>
        <time>2023-07-01T08:03:12Z</time>
      </trkpt>
      <trkpt lat="43.7002" lon="-0.15953">
        <ele>89.4</ele>
        <time>2023-07-01T08:03:14Z</time>
      </trkpt>
      <trkpt lat="43.70028" lon="-0.15947">
        <ele>89.2</ele>
        <time>2023-07-01T08:03:20Z</time>
      </trkpt>
      <trkpt lat="43.70031" lon="-0.15944">
        <ele>89.4</ele>
        <time>2023-07-01T08:03:22Z</time>
      </trkpt>
      <trkpt lat="43.70035" lon="-0.15941">
        <ele>89.4</ele>
        <time>2023-07-01T08:03:24Z</time>
      </trkpt>
      <trkpt lat="43.70036" lon="-0.1594">
        <ele>89.6</ele>
        <time>2023-07-01T08:03:25Z</time>
      </trkpt>
      <trkpt lat="43.70038" lon="-0.15936">
        <ele>89.6</ele>
        <time>2023-07-01T08:03:27Z</time>
      </trkpt>
      <trkpt lat="43.70039" lon="-0.15934">
        <ele>89.4</ele>
        <time>2023-07-01T08:03:28Z</time>
      </trkpt>
      <trkpt lat="43.70042" lon="-0.1593">
        <ele>89.2</ele>
        <time>2023-07-01T08:03:31Z</time>
      </trkpt>
      <trkpt lat="43.70046" lon="-0.15926">
        <ele>89.4</ele>
        <time>2023-07-01T08:03:34Z</time>
      </trkpt>
      <trkpt lat="43.70047" lon="-0.15925">
        <ele>89.4</ele>
        <time>2023-07-01T08:03:35Z</time>
      </trkpt>
      <trkpt lat="43.70049" lon="-0.15918">
        <ele>90</ele>
        <time>2023-07-01T08:03:39Z</time>
      </trkpt>
      <trkpt lat="43.70053" lon="-0.15911">
        <ele>89.4</ele>
        <time>2023-07-01T08:03:43Z</time>
      </trkpt>
      <trkpt lat="43.70057" lon="-0.15903">
        <ele>89.6</ele>
        <time>2023-07-01T08:03:49Z</time>
      </trkpt>
      <trkpt lat="43.70058" lon="-0.15901">
        <ele>89.8</ele>
        <time>2023-07-01T08:03:51Z</time>
      </trkpt>
      <trkpt lat="43.7006" lon="-0.15898">
        <ele>89.6</ele>
        <time>2023-07-01T08:03:54Z</time>
      </trkpt>
      <trkpt lat="43.70065" lon="-0.15893">
        <ele>89.6</ele>
        <time>2023-07-01T08:03:58Z</time>
      </trkpt>
      <trkpt lat="43.7007" lon="-0.15889">
        <ele>89.6</ele>
        <time>2023-07-01T08:04:03Z</time>
      </trkpt>
      <trkpt lat="43.70072" lon="-0.15887">
        <ele>89.4</ele>
        <time>2023-07-01T08:04:06Z</time>
      </trkpt>
      <trkpt lat="43.70074" lon="-0.15885">
        <ele>89.2</ele>
        <time>2023-07-01T08:04:09Z</time>
      </trkpt>
      <trkpt lat="43.70081" lon="-0.15882">
        <ele>89.2</ele>
        <time>2023-07-01T08:04:14Z</time>
      </trkpt>
      <trkpt lat="43.70087" lon="-0.15881">
        <ele>89.4</ele>
        <time>2023-07-01T08:04:18Z</time>
      </trkpt>
      <trkpt lat="43.70089" lon="-0.15879">
        <ele>89.4</ele>
        <time>2023-07-01T08:04:20Z</time>
      </trkpt>
      <trkpt lat="43.70097" lon="-0.15875">
        <ele>89.4</ele>
        <time>2023-07-01T08:04:26Z</time>
      </trkpt>
      <trkpt lat="43.70105" lon="-0.15868">
        <ele>89.8</ele>
        <time>2023-07-01T08:04:33Z</time>
      </trkpt>
      <trkpt lat="43.70107" lon="-0.15868">
        <ele>89.8</ele>
        <time>2023-07-01T08:04:34Z</time>
      </trkpt>
      <trkpt lat="43.70119" lon="-0.15858">
        <ele>89.4</ele>
        <time>2023-07-01T08:04:43Z</time>
      </trkpt>
      <trkpt lat="43.70124" lon="-0.15854">
        <ele>89.8</ele>
        <time>2023-07-01T08:04:47Z</time>
      </trkpt>
      <trkpt lat="43.70126" lon="-0.15852">
        <ele>90</ele>
        <time>2023-07-01T08:04:49Z</time>
      </trkpt>
      <trkpt lat="43.70128" lon="-0.15851">
        <ele>90.2</ele>
        <time>2023-07-01T08:04:51Z</time>
      </trkpt>
      <trkpt lat="43.70133" lon="-0.15845">
        <ele>90.4</ele>
        <time>2023-07-01T08:04:57Z</time>
      </trkpt>
      <trkpt lat="43.70136" lon="-0.15841">
        <ele>90.4</ele>
        <time>2023-07-01T08:05:00Z</time>
      </trkpt>
      <trkpt lat="43.70139" lon="-0.15838">
        <ele>90.4</ele>
        <time>2023-07-01T08:05:04Z</time>
      </trkpt>
      <trkpt lat="43.7014" lon="-0.15837">
        <ele>90.6</ele>
        <time>2023-07-01T08:05:05Z</time>
      </trkpt>
      <trkpt lat="43.7014" lon="-0.15838">
        <ele>90.4</ele>
        <time>2023-07-01T08:05:30Z</time>
      </trkpt>
      <trkpt lat="43.70139" lon="-0.15837">
        <ele>90.4</ele>
        <time>2023-07-01T08:05:31Z</time>
      </trkpt>
      <trkpt lat="43.7014" lon="-0.15835">
        <ele>90.4</ele>
        <time>2023-07-01T08:05:33Z</time>
      </trkpt>
      <trkpt lat="43.7014" lon="-0.15821">
        <ele>91</ele>
        <time>2023-07-01T08:05:42Z</time>
      </trkpt>
      <trkpt lat="43.70141" lon="-0.15813">
        <ele>91.4</ele>
        <time>2023-07-01T08:05:47Z</time>
      </trkpt>
      <trkpt lat="43.70142" lon="-0.15807">
        <ele>91.6</ele>
        <time>2023-07-01T08:05:50Z</time>
      </trkpt>
      <trkpt lat="43.70141" lon="-0.15791">
        <ele>92</ele>
        <time>2023-07-01T08:06:00Z</time>
      </trkpt>
      <trkpt lat="43.70143" lon="-0.15778">
        <ele>92.6</ele>
        <time>2023-07-01T08:06:09Z</time>
      </trkpt>
      <trkpt lat="43.70144" lon="-0.15777">
        <ele>92.6</ele>
        <time>2023-07-01T08:06:10Z</time>
      </trkpt>
      <trkpt lat="43.70143" lon="-0.15763">
        <ele>93.2</ele>
        <time>2023-07-01T08:06:19Z</time>
      </trkpt>
      <trkpt lat="43.70143" lon="-0.15754">
        <ele>93.8</ele>
        <time>2023-07-01T08:06:26Z</time>
      </trkpt>
      <trkpt lat="43.70145" lon="-0.15749">
        <ele>94</ele>
        <time>2023-07-01T08:06:29Z</time>
      </trkpt>
      <trkpt lat="43.70146" lon="-0.15734">
        <ele>94.6</ele>
        <time>2023-07-01T08:06:36Z</time>
      </trkpt>
      <trkpt lat="43.70146" lon="-0.1573">
        <ele>94.8</ele>
        <time>2023-07-01T08:06:38Z</time>
      </trkpt>
      <trkpt lat="43.70147" lon="-0.15729">
        <ele>95</ele>
        <time>2023-07-01T08:06:39Z</time>
      </trkpt>
      <trkpt lat="43.70147" lon="-0.15727">
        <ele>95.2</ele>
        <time>2023-07-01T08:06:41Z</time>
      </trkpt>
      <trkpt lat="43.70147" lon="-0.15724">
        <ele>95.4</ele>
        <time>2023-07-01T08:06:43Z</time>
      </trkpt>
      <trkpt lat="43.70148" lon="-0.15719">
        <ele>95.6</ele>
        <time>2023-07-01T08:06:46Z</time>
      </trkpt>
      <trkpt lat="43.70149" lon="-0.15716">
        <ele>95.4</ele>
        <time>2023-07-01T08:06:48Z</time>
      </trkpt>
      <trkpt lat="43.70151" lon="-0.1571">
        <ele>96</ele>
        <time>2023-07-01T08:06:52Z</time>
      </trkpt>
      <trkpt lat="43.70152" lon="-0.15698">
        <ele>96.4</ele>
        <time>2023-07-01T08:07:00Z</time>
      </trkpt>
      <trkpt lat="43.70152" lon="-0.15696">
        <ele>96.6</ele>
        <time>2023-07-01T08:07:01Z</time>
      </trkpt>
      <trkpt lat="43.70151" lon="-0.15684">
        <ele>97</ele>
        <time>2023-07-01T08:07:08Z</time>
      </trkpt>
      <trkpt lat="43.7015" lon="-0.15678">
        <ele>97</ele>
        <time>2023-07-01T08:07:10Z</time>
      </trkpt>
      <trkpt lat="43.70149" lon="-0.15667">
        <ele>97.6</ele>
        <time>2023-07-01T08:07:17Z</time>
      </trkpt>
      <trkpt lat="43.70149" lon="-0.15666">
        <ele>97.6</ele>
        <time>2023-07-01T08:07:18Z</time>
      </trkpt>
      <trkpt lat="43.70148" lon="-0.15665">
        <ele>97.6</ele>
        <time>2023-07-01T08:07:19Z</time>
      </trkpt>
      <trkpt lat="43.70148" lon="-0.15664">
        <ele>97.6</ele>
        <time>2023-07-01T08:07:20Z</time>
      </trkpt>
      <trkpt lat="43.70149" lon="-0.1566">
        <ele>98</ele>
        <time>2023-07-01T08:07:23Z</time>
      </trkpt>
      <trkpt lat="43.70149" lon="-0.15659">
        <ele>98.2</ele>
        <time>2023-07-01T08:07:24Z</time>
      </trkpt>
      <trkpt lat="43.70151" lon="-0.15655">
        <ele>98.6</ele>
        <time>2023-07-01T08:07:28Z</time>
      </trkpt>
      <trkpt lat="43.70152" lon="-0.15655">
        <ele>98.6</ele>
        <time>2023-07-01T08:07:29Z</time>
      </trkpt>
      <trkpt lat="43.70155" lon="-0.15654">
        <ele>99</ele>
        <time>2023-07-01T08:07:32Z</time>
      </trkpt>
      <trkpt lat="43.70155" lon="-0.15653">
        <ele>99.4</ele>
        <time>2023-07-01T08:07:33Z</time>
      </trkpt>
      <trkpt lat="43.70158" lon="-0.15652">
        <ele>100</ele>
        <time>2023-07-01T08:07:36Z</time>
      </trkpt>
      <trkpt lat="43.70159" lon="-0.15651">
        <ele>100.4</ele>
        <time>2023-07-01T08:07:37Z</time>
      </trkpt>
      <trkpt lat="43.7016" lon="-0.15651">
        <ele>100.6</ele>
        <time>2023-07-01T08:07:38Z</time>
      </trkpt>
      <trkpt lat="43.7016" lon="-0.1565">
        <ele>100.6</ele>
        <time>2023-07-01T08:07:39Z</time>
      </trkpt>
      <trkpt lat="43.70161" lon="-0.1565">
        <ele>100.6</ele>
        <time>2023-07-01T08:07:40Z</time>
      </trkpt>
      <trkpt lat="43.70163" lon="-0.15648">
        <ele>101</ele>
        <time>2023-07-01T08:07:43Z</time>
      </trkpt>
      <trkpt lat="43.70166" lon="-0.15646">
        <ele>101.4</ele>
        <time>2023-07-01T08:07:46Z</time>
      </trkpt>
      <trkpt lat="43.70167" lon="-0.15645">
        <ele>101.6</ele>
        <time>2023-07-01T08:07:47Z</time>
      </trkpt>
      <trkpt lat="43.70169" lon="-0.15643">
        <ele>102</ele>
        <time>2023-07-01T08:07:50Z</time>
      </trkpt>
      <trkpt lat="43.70172" lon="-0.15641">
        <ele>102.6</ele>
        <time>2023-07-01T08:07:53Z</time>
      </trkpt>
      <trkpt lat="43.70175" lon="-0.1564">
        <ele>102.8</ele>
        <time>2023-07-01T08:07:55Z</time>
      </trkpt>
      <trkpt lat="43.70176" lon="-0.15639">
        <ele>103</ele>
        <time>2023-07-01T08:07:57Z</time>
      </trkpt>
      <trkpt lat="43.70177" lon="-0.15638">
        <ele>103</ele>
        <time>2023-07-01T08:07:59Z</time>
      </trkpt>
      <trkpt lat="43.70181" lon="-0.15636">
        <ele>103.6</ele>
        <time>2023-07-01T08:08:02Z</time>
      </trkpt>
      <trkpt lat="43.70186" lon="-0.15635">
        <ele>104.2</ele>
        <time>2023-07-01T08:08:06Z</time>
      </trkpt>
      <trkpt lat="43.70189" lon="-0.15634">
        <ele>104.4</ele>
        <time>2023-07-01T08:08:09Z</time>
      </trkpt>
      <trkpt lat="43.7019" lon="-0.15634">
        <ele>104.4</ele>
        <time>2023-07-01T08:08:10Z</time>
      </trkpt>
      <trkpt lat="43.70197" lon="-0.15632">
        <ele>104.6</ele>
        <time>2023-07-01T08:08:18Z</time>
      </trkpt>
      <trkpt lat="43.70199" lon="-0.15631">
        <ele>104.6</ele>
        <time>2023-07-01T08:08:19Z</time>
      </trkpt>
      <trkpt lat="43.70205" lon="-0.15629">
        <ele>105.8</ele>
        <time>2023-07-01T08:08:24Z</time>
      </trkpt>
      <trkpt lat="43.70208" lon="-0.15627">
        <ele>106.2</ele>
        <time>2023-07-01T08:08:27Z</time>
      </trkpt>
      <trkpt lat="43.70209" lon="-0.15626">
        <ele>106.2</ele>
        <time>2023-07-01T08:08:28Z</time>
      </trkpt>
      <trkpt lat="43.70212" lon="-0.15625">
        <ele>106.4</ele>
        <time>2023-07-01T08:08:31Z</time>
      </trkpt>
      <trkpt lat="43.70213" lon="-0.15625">
        <ele>106.8</ele>
        <time>2023-07-01T08:08:33Z</time>
      </trkpt>
      <trkpt lat="43.70214" lon="-0.15625">
        <ele>107</ele>
        <time>2023-07-01T08:08:34Z</time>
      </trkpt>
      <trkpt lat="43.70218" lon="-0.15624">
        <ele>107.4</ele>
        <time>2023-07-01T08:08:38Z</time>
      </trkpt>
      <trkpt lat="43.70221" lon="-0.15623">
        <ele>107.8</ele>
        <time>2023-07-01T08:08:41Z</time>
      </trkpt>
      <trkpt lat="43.70222" lon="-0.15623">
        <ele>108</ele>
        <time>2023-07-01T08:08:42Z</time>
      </trkpt>
      <trkpt lat="43.70229" lon="-0.15619">
        <ele>108.4</ele>
        <time>2023-07-01T08:08:49Z</time>
      </trkpt>
      <trkpt lat="43.70237" lon="-0.15615">
        <ele>108.6</ele>
        <time>2023-07-01T08:08:54Z</time>
      </trkpt>
      <trkpt lat="43.7024" lon="-0.15614">
        <ele>108.8</ele>
        <time>2023-07-01T08:08:56Z</time>
      </trkpt>
      <trkpt lat="43.70247" lon="-0.15612">
        <ele>109</ele>
        <time>2023-07-01T08:09:00Z</time>
      </trkpt>
      <trkpt lat="43.70253" lon="-0.1561">
        <ele>109.2</ele>
        <time>2023-07-01T08:09:04Z</time>
      </trkpt>
      <trkpt lat="43.70262" lon="-0.15604">
        <ele>109.4</ele>
        <time>2023-07-01T08:09:13Z</time>
      </trkpt>
      <trkpt lat="43.70268" lon="-0.15601">
        <ele>110</ele>
        <time>2023-07-01T08:09:18Z</time>
      </trkpt>
      <trkpt lat="43.70269" lon="-0.15601">
        <ele>110</ele>
        <time>2023-07-01T08:09:19Z</time>
      </trkpt>
      <trkpt lat="43.7027" lon="-0.15601">
        <ele>110</ele>
        <time>2023-07-01T08:09:20Z</time>
      </trkpt>
      <trkpt lat="43.7028" lon="-0.15595">
        <ele>110.4</ele>
        <time>2023-07-01T08:09:28Z</time>
      </trkpt>
      <trkpt lat="43.70287" lon="-0.15591">
        <ele>111.2</ele>
        <time>2023-07-01T08:09:34Z</time>
      </trkpt>
      <trkpt lat="43.70288" lon="-0.1559">
        <ele>111.2</ele>
        <time>2023-07-01T08:09:35Z</time>
      </trkpt>
      <trkpt lat="43.70297" lon="-0.15584">
        <ele>111.2</ele>
        <time>2023-07-01T08:09:44Z</time>
      </trkpt>
      <trkpt lat="43.70299" lon="-0.15582">
        <ele>111.6</ele>
        <time>2023-07-01T08:09:47Z</time>
      </trkpt>
      <trkpt lat="43.70303" lon="-0.15582">
        <ele>112.2</ele>
        <time>2023-07-01T08:09:49Z</time>
      </trkpt>
      <trkpt lat="43.70305" lon="-0.1558">
        <ele>112.6</ele>
        <time>2023-07-01T08:09:52Z</time>
      </trkpt>
      <trkpt lat="43.70307" lon="-0.15579">
        <ele>113.2</ele>
        <time>2023-07-01T08:09:54Z</time>
      </trkpt>
      <trkpt lat="43.70308" lon="-0.15578">
        <ele>113.4</ele>
        <time>2023-07-01T08:09:55Z</time>
      </trkpt>
      <trkpt lat="43.70309" lon="-0.15577">
        <ele>113.4</ele>
        <time>2023-07-01T08:09:56Z</time>
      </trkpt>
      <trkpt lat="43.70313" lon="-0.15576">
        <ele>113.6</ele>
        <time>2023-07-01T08:09:59Z</time>
      </trkpt>
      <trkpt lat="43.70322" lon="-0.15571">
        <ele>114.6</ele>
        <time>2023-07-01T08:10:07Z</time>
      </trkpt>
      <trkpt lat="43.70328" lon="-0.15567">
        <ele>115.6</ele>
        <time>2023-07-01T08:10:13Z</time>
      </trkpt>
      <trkpt lat="43.70334" lon="-0.15564">
        <ele>116.2</ele>
        <time>2023-07-01T08:10:19Z</time>
      </trkpt>
      <trkpt lat="43.70337" lon="-0.15563">
        <ele>116.2</ele>
        <time>2023-07-01T08:10:22Z</time>
      </trkpt>
      <trkpt lat="43.70342" lon="-0.1556">
        <ele>116.8</ele>
        <time>2023-07-01T08:10:27Z</time>
      </trkpt>
      <trkpt lat="43.70343" lon="-0.15559">
        <ele>116.8</ele>
        <time>2023-07-01T08:10:28Z</time>
      </trkpt>
      <trkpt lat="43.70348" lon="-0.15557">
        <ele>117</ele>
        <time>2023-07-01T08:10:32Z</time>
      </trkpt>
      <trkpt lat="43.7035" lon="-0.15557">
        <ele>117.2</ele>
        <time>2023-07-01T08:10:34Z</time>
      </trkpt>
      <trkpt lat="43.70353" lon="-0.15556">
        <ele>117.2</ele>
        <time>2023-07-01T08:10:36Z</time>
      </trkpt>
      <trkpt lat="43.70356" lon="-0.15555">
        <ele>117.6</ele>
        <time>2023-07-01T08:10:38Z</time>
      </trkpt>
      <trkpt lat="43.7036" lon="-0.15553">
        <ele>117.8</ele>
        <time>2023-07-01T08:10:42Z</time>
      </trkpt>
      <trkpt lat="43.70361" lon="-0.15552">
        <ele>118</ele>
        <time>2023-07-01T08:10:43Z</time>
      </trkpt>
      <trkpt lat="43.70365" lon="-0.1555">
        <ele>118.2</ele>
        <time>2023-07-01T08:10:46Z</time>
      </trkpt>
      <trkpt lat="43.70369" lon="-0.15548">
        <ele>118.6</ele>
        <time>2023-07-01T08:10:50Z</time>
      </trkpt>
      <trkpt lat="43.70371" lon="-0.15547">
        <ele>118.6</ele>
        <time>2023-07-01T08:10:51Z</time>
      </trkpt>
      <trkpt lat="43.70375" lon="-0.15546">
        <ele>118.8</ele>
        <time>2023-07-01T08:10:54Z</time>
      </trkpt>
      <trkpt lat="43.70379" lon="-0.15544">
        <ele>119</ele>
        <time>2023-07-01T08:10:58Z</time>
      </trkpt>
      <trkpt lat="43.70382" lon="-0.15544">
        <ele>119.4</ele>
        <time>2023-07-01T08:11:01Z</time>
      </trkpt>
      <trkpt lat="43.70385" lon="-0.15541">
        <ele>119.6</ele>
        <time>2023-07-01T08:11:05Z</time>
      </trkpt>
      <trkpt lat="43.70392" lon="-0.15538">
        <ele>120</ele>
        <time>2023-07-01T08:11:09Z</time>
      </trkpt>
      <trkpt lat="43.70393" lon="-0.15536">
        <ele>120.4</ele>
        <time>2023-07-01T08:11:12Z</time>
      </trkpt>
      <trkpt lat="43.70401" lon="-0.15532">
        <ele>120.6</ele>
        <time>2023-07-01T08:11:19Z</time>
      </trkpt>
      <trkpt lat="43.70408" lon="-0.15529">
        <ele>121</ele>
        <time>2023-07-01T08:11:24Z</time>
      </trkpt>
      <trkpt lat="43.70409" lon="-0.15528">
        <ele>121.2</ele>
        <time>2023-07-01T08:11:25Z</time>
      </trkpt>
      <trkpt lat="43.70417" lon="-0.15527">
        <ele>121.4</ele>
        <time>2023-07-01T08:11:32Z</time>
      </trkpt>
      <trkpt lat="43.70429" lon="-0.15522">
        <ele>121.6</ele>
        <time>2023-07-01T08:11:41Z</time>
      </trkpt>
      <trkpt lat="43.70436" lon="-0.15518">
        <ele>122.2</ele>
        <time>2023-07-01T08:11:46Z</time>
      </trkpt>
      <trkpt lat="43.70441" lon="-0.15515">
        <ele>122.8</ele>
        <time>2023-07-01T08:11:50Z</time>
      </trkpt>
      <trkpt lat="43.70452" lon="-0.15512">
        <ele>123</ele>
        <time>2023-07-01T08:11:58Z</time>
      </trkpt>
      <trkpt lat="43.70453" lon="-0.15512">
        <ele>123</ele>
        <time>2023-07-01T08:11:59Z</time>
      </trkpt>
      <trkpt lat="43.70458" lon="-0.15509">
        <ele>123</ele>
        <time>2023-07-01T08:12:03Z</time>
      </trkpt>
      <trkpt lat="43.70461" lon="-0.15508">
        <ele>123.2</ele>
        <time>2023-07-01T08:12:05Z</time>
      </trkpt>
      <trkpt lat="43.70466" lon="-0.15507">
        <ele>123.6</ele>
        <time>2023-07-01T08:12:10Z</time>
      </trkpt>
      <trkpt lat="43.70477" lon="-0.15502">
        <ele>123.4</ele>
        <time>2023-07-01T08:12:18Z</time>
      </trkpt>
      <trkpt lat="43.70481" lon="-0.155">
        <ele>123.4</ele>
        <time>2023-07-01T08:12:21Z</time>
      </trkpt>
      <trkpt lat="43.70482" lon="-0.15499">
        <ele>123.4</ele>
        <time>2023-07-01T08:12:22Z</time>
      </trkpt>
      <trkpt lat="43.70486" lon="-0.15498">
        <ele>123.4</ele>
        <time>2023-07-01T08:12:25Z</time>
      </trkpt>
      <trkpt lat="43.70499" lon="-0.15494">
        <ele>123.4</ele>
        <time>2023-07-01T08:12:34Z</time>
      </trkpt>
      <trkpt lat="43.70508" lon="-0.1549">
        <ele>123.6</ele>
        <time>2023-07-01T08:12:42Z</time>
      </trkpt>
      <trkpt lat="43.70516" lon="-0.15487">
        <ele>124.2</ele>
        <time>2023-07-01T08:12:48Z</time>
      </trkpt>
      <trkpt lat="43.70519" lon="-0.15486">
        <ele>124.4</ele>
        <time>2023-07-01T08:12:50Z</time>
      </trkpt>
      <trkpt lat="43.70524" lon="-0.15486">
        <ele>124.4</ele>
        <time>2023-07-01T08:12:56Z</time>
      </trkpt>
      <trkpt lat="43.70535" lon="-0.15483">
        <ele>123.6</ele>
        <time>2023-07-01T08:13:05Z</time>
      </trkpt>
      <trkpt lat="43.70544" lon="-0.15482">
        <ele>123.4</ele>
        <time>2023-07-01T08:13:13Z</time>
      </trkpt>
      <trkpt lat="43.70552" lon="-0.1548">
        <ele>123.2</ele>
        <time>2023-07-01T08:13:18Z</time>
      </trkpt>
      <trkpt lat="43.70555" lon="-0.1548">
        <ele>123.2</ele>
        <time>2023-07-01T08:13:20Z</time>
      </trkpt>
      <trkpt lat="43.70559" lon="-0.15478">
        <ele>123</ele>
        <time>2023-07-01T08:13:23Z</time>
      </trkpt>
      <trkpt lat="43.70563" lon="-0.15476">
        <ele>123</ele>
        <time>2023-07-01T08:13:27Z</time>
      </trkpt>
      <trkpt lat="43.70569" lon="-0.15476">
        <ele>123</ele>
        <time>2023-07-01T08:13:31Z</time>
      </trkpt>
      <trkpt lat="43.70571" lon="-0.15475">
        <ele>123</ele>
        <time>2023-07-01T08:13:32Z</time>
      </trkpt>
      <trkpt lat="43.70572" lon="-0.15474">
        <ele>123</ele>
        <time>2023-07-01T08:13:33Z</time>
      </trkpt>
      <trkpt lat="43.70576" lon="-0.15472">
        <ele>123.2</ele>
        <time>2023-07-01T08:13:36Z</time>
      </trkpt>
      <trkpt lat="43.7058" lon="-0.15472">
        <ele>123.2</ele>
        <time>2023-07-01T08:13:39Z</time>
      </trkpt>
      <trkpt lat="43.70591" lon="-0.15469">
        <ele>123.4</ele>
        <time>2023-07-01T08:13:47Z</time>
      </trkpt>
      <trkpt lat="43.70595" lon="-0.15467">
        <ele>123.4</ele>
        <time>2023-07-01T08:13:49Z</time>
      </trkpt>
      <trkpt lat="43.706" lon="-0.15466">
        <ele>123.8</ele>
        <time>2023-07-01T08:13:52Z</time>
      </trkpt>
      <trkpt lat="43.70606" lon="-0.15463">
        <ele>123.8</ele>
        <time>2023-07-01T08:13:56Z</time>
      </trkpt>
      <trkpt lat="43.70607" lon="-0.15463">
        <ele>124</ele>
        <time>2023-07-01T08:13:57Z</time>
      </trkpt>
      <trkpt lat="43.7061" lon="-0.15461">
        <ele>124.2</ele>
        <time>2023-07-01T08:14:00Z</time>
      </trkpt>
      <trkpt lat="43.70614" lon="-0.15459">
        <ele>124.2</ele>
        <time>2023-07-01T08:14:04Z</time>
      </trkpt>
      <trkpt lat="43.70619" lon="-0.15457">
        <ele>124.4</ele>
        <time>2023-07-01T08:14:09Z</time>
      </trkpt>
      <trkpt lat="43.70621" lon="-0.15455">
        <ele>124.6</ele>
        <time>2023-07-01T08:14:11Z</time>
      </trkpt>
      <trkpt lat="43.70626" lon="-0.15454">
        <ele>125</ele>
        <time>2023-07-01T08:14:15Z</time>
      </trkpt>
      <trkpt lat="43.70628" lon="-0.15453">
        <ele>125</ele>
        <time>2023-07-01T08:14:17Z</time>
      </trkpt>
      <trkpt lat="43.70629" lon="-0.15452">
        <ele>125.2</ele>
        <time>2023-07-01T08:14:18Z</time>
      </trkpt>
      <trkpt lat="43.7063" lon="-0.1545">
        <ele>125.4</ele>
        <time>2023-07-01T08:14:19Z</time>
      </trkpt>
      <trkpt lat="43.7063" lon="-0.15449">
        <ele>125.6</ele>
        <time>2023-07-01T08:14:20Z</time>
      </trkpt>
      <trkpt lat="43.70635" lon="-0.15444">
        <ele>126.2</ele>
        <time>2023-07-01T08:14:24Z</time>
      </trkpt>
      <trkpt lat="43.70637" lon="-0.15442">
        <ele>126.4</ele>
        <time>2023-07-01T08:14:26Z</time>
      </trkpt>
      <trkpt lat="43.70644" lon="-0.15436">
        <ele>127.4</ele>
        <time>2023-07-01T08:14:34Z</time>
      </trkpt>
      <trkpt lat="43.70645" lon="-0.15436">
        <ele>127.6</ele>
        <time>2023-07-01T08:14:35Z</time>
      </trkpt>
      <trkpt lat="43.7065" lon="-0.15431">
        <ele>127.8</ele>
        <time>2023-07-01T08:14:39Z</time>
      </trkpt>
      <trkpt lat="43.70654" lon="-0.15427">
        <ele>127.8</ele>
        <time>2023-07-01T08:14:43Z</time>
      </trkpt>
      <trkpt lat="43.70662" lon="-0.1542">
        <ele>128</ele>
        <time>2023-07-01T08:14:50Z</time>
      </trkpt>
      <trkpt lat="43.70671" lon="-0.15414">
        <ele>128.6</ele>
        <time>2023-07-01T08:14:56Z</time>
      </trkpt>
      <trkpt lat="43.70672" lon="-0.15413">
        <ele>128.6</ele>
        <time>2023-07-01T08:14:58Z</time>
      </trkpt>
      <trkpt lat="43.70678" lon="-0.15408">
        <ele>129.8</ele>
        <time>2023-07-01T08:15:04Z</time>
      </trkpt>
      <trkpt lat="43.7068" lon="-0.15406">
        <ele>129.8</ele>
        <time>2023-07-01T08:15:05Z</time>
      </trkpt>
      <trkpt lat="43.70684" lon="-0.15402">
        <ele>130</ele>
        <time>2023-07-01T08:15:08Z</time>
      </trkpt>
      <trkpt lat="43.70689" lon="-0.15396">
        <ele>130</ele>
        <time>2023-07-01T08:15:12Z</time>
      </trkpt>
      <trkpt lat="43.70696" lon="-0.15385">
        <ele>130.4</ele>
        <time>2023-07-01T08:15:19Z</time>
      </trkpt>
      <trkpt lat="43.70699" lon="-0.15381">
        <ele>130.8</ele>
        <time>2023-07-01T08:15:22Z</time>
      </trkpt>
      <trkpt lat="43.70702" lon="-0.15375">
        <ele>131</ele>
        <time>2023-07-01T08:15:26Z</time>
      </trkpt>
      <trkpt lat="43.70705" lon="-0.1537">
        <ele>131</ele>
        <time>2023-07-01T08:15:31Z</time>
      </trkpt>
      <trkpt lat="43.70705" lon="-0.15369">
        <ele>131</ele>
        <time>2023-07-01T08:15:32Z</time>
      </trkpt>
      <trkpt lat="43.70711" lon="-0.15359">
        <ele>131</ele>
        <time>2023-07-01T08:15:39Z</time>
      </trkpt>
      <trkpt lat="43.70717" lon="-0.15347">
        <ele>131.4</ele>
        <time>2023-07-01T08:15:48Z</time>
      </trkpt>
      <trkpt lat="43.70718" lon="-0.15345">
        <ele>131.4</ele>
        <time>2023-07-01T08:15:49Z</time>
      </trkpt>
      <trkpt lat="43.70721" lon="-0.15341">
        <ele>131.8</ele>
        <time>2023-07-01T08:15:53Z</time>
      </trkpt>
      <trkpt lat="43.70722" lon="-0.15339">
        <ele>131.8</ele>
        <time>2023-07-01T08:15:54Z</time>
      </trkpt>
      <trkpt lat="43.70727" lon="-0.15328">
        <ele>131.2</ele>
        <time>2023-07-01T08:16:01Z</time>
      </trkpt>
      <trkpt lat="43.70728" lon="-0.15321">
        <ele>130.8</ele>
        <time>2023-07-01T08:16:05Z</time>
      </trkpt>
      <trkpt lat="43.70728" lon="-0.1532">
        <ele>130.8</ele>
        <time>2023-07-01T08:16:06Z</time>
      </trkpt>
      <trkpt lat="43.70728" lon="-0.15319">
        <ele>130.8</ele>
        <time>2023-07-01T08:16:07Z</time>
      </trkpt>
      <trkpt lat="43.70731" lon="-0.15311">
        <ele>131</ele>
        <time>2023-07-01T08:16:12Z</time>
      </trkpt>
      <trkpt lat="43.70732" lon="-0.15307">
        <ele>131.2</ele>
        <time>2023-07-01T08:16:14Z</time>
      </trkpt>
      <trkpt lat="43.70737" lon="-0.15297">
        <ele>131.2</ele>
        <time>2023-07-01T08:16:20Z</time>
      </trkpt>
      <trkpt lat="43.70739" lon="-0.15292">
        <ele>131.4</ele>
        <time>2023-07-01T08:16:23Z</time>
      </trkpt>
      <trkpt lat="43.70742" lon="-0.15287">
        <ele>131.4</ele>
        <time>2023-07-01T08:16:27Z</time>
      </trkpt>
      <trkpt lat="43.70743" lon="-0.15284">
        <ele>131</ele>
        <time>2023-07-01T08:16:29Z</time>
      </trkpt>
      <trkpt lat="43.70746" lon="-0.1528">
        <ele>131</ele>
        <time>2023-07-01T08:16:32Z</time>
      </trkpt>
      <trkpt lat="43.70747" lon="-0.15276">
        <ele>131</ele>
        <time>2023-07-01T08:16:34Z</time>
      </trkpt>
      <trkpt lat="43.70751" lon="-0.15271">
        <ele>131.2</ele>
        <time>2023-07-01T08:16:37Z</time>
      </trkpt>
      <trkpt lat="43.70757" lon="-0.15265">
        <ele>130.8</ele>
        <time>2023-07-01T08:16:42Z</time>
      </trkpt>
      <trkpt lat="43.70764" lon="-0.15256">
        <ele>130.6</ele>
        <time>2023-07-01T08:16:49Z</time>
      </trkpt>
      <trkpt lat="43.70769" lon="-0.15246">
        <ele>130.4</ele>
        <time>2023-07-01T08:16:57Z</time>
      </trkpt>
      <trkpt lat="43.70773" lon="-0.15236">
        <ele>130.4</ele>
        <time>2023-07-01T08:17:04Z</time>
      </trkpt>
      <trkpt lat="43.70782" lon="-0.15224">
        <ele>130.4</ele>
        <time>2023-07-01T08:17:12Z</time>
      </trkpt>
      <trkpt lat="43.70789" lon="-0.15212">
        <ele>130.4</ele>
        <time>2023-07-01T08:17:19Z</time>
      </trkpt>
      <trkpt lat="43.70792" lon="-0.15206">
        <ele>130.4</ele>
        <time>2023-07-01T08:17:23Z</time>
      </trkpt>
      <trkpt lat="43.70794" lon="-0.15203">
        <ele>130.6</ele>
        <time>2023-07-01T08:17:25Z</time>
      </trkpt>
      <trkpt lat="43.708" lon="-0.15196">
        <ele>131</ele>
        <time>2023-07-01T08:17:32Z</time>
      </trkpt>
      <trkpt lat="43.70801" lon="-0.15195">
        <ele>131.2</ele>
        <time>2023-07-01T08:17:33Z</time>
      </trkpt>
      <trkpt lat="43.70804" lon="-0.15191">
        <ele>131.2</ele>
        <time>2023-07-01T08:17:36Z</time>
      </trkpt>
      <trkpt lat="43.70808" lon="-0.15187">
        <ele>131.2</ele>
        <time>2023-07-01T08:17:40Z</time>
      </trkpt>
      <trkpt lat="43.70809" lon="-0.15186">
        <ele>131.4</ele>
        <time>2023-07-01T08:17:41Z</time>
      </trkpt>
      <trkpt lat="43.7081" lon="-0.15185">
        <ele>131.4</ele>
        <time>2023-07-01T08:17:42Z</time>
      </trkpt>
      <trkpt lat="43.70812" lon="-0.15184">
        <ele>131.4</ele>
        <time>2023-07-01T08:17:43Z</time>
      </trkpt>
      <trkpt lat="43.70815" lon="-0.15182">
        <ele>131.4</ele>
        <time>2023-07-01T08:17:45Z</time>
      </trkpt>
      <trkpt lat="43.70815" lon="-0.15181">
        <ele>131.6</ele>
        <time>2023-07-01T08:17:46Z</time>
      </trkpt>
      <trkpt lat="43.70819" lon="-0.15173">
        <ele>131.6</ele>
        <time>2023-07-01T08:17:54Z</time>
      </trkpt>
      <trkpt lat="43.70825" lon="-0.15167">
        <ele>131.4</ele>
        <time>2023-07-01T08:17:59Z</time>
      </trkpt>
      <trkpt lat="43.70826" lon="-0.15165">
        <ele>131.2</ele>
        <time>2023-07-01T08:18:00Z</time>
      </trkpt>
      <trkpt lat="43.70828" lon="-0.15164">
        <ele>131.2</ele>
        <time>2023-07-01T08:18:01Z</time>
      </trkpt>
      <trkpt lat="43.70833" lon="-0.15159">
        <ele>131</ele>
        <time>2023-07-01T08:18:05Z</time>
      </trkpt>
      <trkpt lat="43.70835" lon="-0.15155">
        <ele>131</ele>
        <time>2023-07-01T08:18:08Z</time>
      </trkpt>
      <trkpt lat="43.70839" lon="-0.15151">
        <ele>130.8</ele>
        <time>2023-07-01T08:18:11Z</time>
      </trkpt>
      <trkpt lat="43.70842" lon="-0.15145">
        <ele>130.6</ele>
        <time>2023-07-01T08:18:15Z</time>
      </trkpt>
      <trkpt lat="43.70847" lon="-0.15131">
        <ele>130.6</ele>
        <time>2023-07-01T08:18:22Z</time>
      </trkpt>
      <trkpt lat="43.70845" lon="-0.15123">
        <ele>130.6</ele>
        <time>2023-07-01T08:18:26Z</time>
      </trkpt>
      <trkpt lat="43.70843" lon="-0.15117">
        <ele>130.8</ele>
        <time>2023-07-01T08:18:29Z</time>
      </trkpt>
      <trkpt lat="43.70843" lon="-0.15107">
        <ele>130.8</ele>
        <time>2023-07-01T08:18:34Z</time>
      </trkpt>
      <trkpt lat="43.70844" lon="-0.15101">
        <ele>130.6</ele>
        <time>2023-07-01T08:18:37Z</time>
      </trkpt>
      <trkpt lat="43.70842" lon="-0.15088">
        <ele>131</ele>
        <time>2023-07-01T08:18:44Z</time>
      </trkpt>
      <trkpt lat="43.70842" lon="-0.15084">
        <ele>131.2</ele>
        <time>2023-07-01T08:18:47Z</time>
      </trkpt>
      <trkpt lat="43.70842" lon="-0.15075">
        <ele>131.6</ele>
        <time>2023-07-01T08:18:52Z</time>
      </trkpt>
      <trkpt lat="43.70842" lon="-0.1507">
        <ele>131.6</ele>
        <time>2023-07-01T08:18:55Z</time>
      </trkpt>
      <trkpt lat="43.70841" lon="-0.15058">
        <ele>131.2</ele>
        <time>2023-07-01T08:19:01Z</time>
      </trkpt>
      <trkpt lat="43.7084" lon="-0.15042">
        <ele>131.2</ele>
        <time>2023-07-01T08:19:10Z</time>
      </trkpt>
      <trkpt lat="43.70838" lon="-0.15031">
        <ele>131.2</ele>
        <time>2023-07-01T08:19:16Z</time>
      </trkpt>
      <trkpt lat="43.70838" lon="-0.15023">
        <ele>131.4</ele>
        <time>2023-07-01T08:19:21Z</time>
      </trkpt>
      <trkpt lat="43.70837" lon="-0.15018">
        <ele>131.6</ele>
        <time>2023-07-01T08:19:24Z</time>
      </trkpt>
      <trkpt lat="43.70837" lon="-0.15015">
        <ele>131.6</ele>
        <time>2023-07-01T08:19:26Z</time>
      </trkpt>
      <trkpt lat="43.70838" lon="-0.15009">
        <ele>131.8</ele>
        <time>2023-07-01T08:19:29Z</time>
      </trkpt>
      <trkpt lat="43.70838" lon="-0.15007">
        <ele>131.8</ele>
        <time>2023-07-01T08:19:30Z</time>
      </trkpt>
      <trkpt lat="43.70838" lon="-0.14995">
        <ele>131.8</ele>
        <time>2023-07-01T08:19:37Z</time>
      </trkpt>
      <trkpt lat="43.70838" lon="-0.14984">
        <ele>131.6</ele>
        <time>2023-07-01T08:19:43Z</time>
      </trkpt>
      <trkpt lat="43.70839" lon="-0.14983">
        <ele>131.6</ele>
        <time>2023-07-01T08:19:44Z</time>
      </trkpt>
      <trkpt lat="43.70843" lon="-0.14973">
        <ele>131.2</ele>
        <time>2023-07-01T08:19:50Z</time>
      </trkpt>
      <trkpt lat="43.70844" lon="-0.14972">
        <ele>131</ele>
        <time>2023-07-01T08:19:51Z</time>
      </trkpt>
      <trkpt lat="43.70845" lon="-0.14971">
        <ele>130.8</ele>
        <time>2023-07-01T08:19:52Z</time>
      </trkpt>
      <trkpt lat="43.70848" lon="-0.14967">
        <ele>130.6</ele>
        <time>2023-07-01T08:19:55Z</time>
      </trkpt>
      <trkpt lat="43.70851" lon="-0.14964">
        <ele>129.6</ele>
        <time>2023-07-01T08:19:59Z</time>
      </trkpt>
      <trkpt lat="43.70854" lon="-0.14963">
        <ele>129.4</ele>
        <time>2023-07-01T08:20:01Z</time>
      </trkpt>
      <trkpt lat="43.70859" lon="-0.14961">
        <ele>128.6</ele>
        <time>2023-07-01T08:20:07Z</time>
      </trkpt>
      <trkpt lat="43.70866" lon="-0.14961">
        <ele>128</ele>
        <time>2023-07-01T08:20:13Z</time>
      </trkpt>
      <trkpt lat="43.70868" lon="-0.14961">
        <ele>128</ele>
        <time>2023-07-01T08:20:15Z</time>
      </trkpt>
      <trkpt lat="43.7087" lon="-0.14959">
        <ele>127.8</ele>
        <time>2023-07-01T08:20:17Z</time>
      </trkpt>
      <trkpt lat="43.70872" lon="-0.14958">
        <ele>127.6</ele>
        <time>2023-07-01T08:20:19Z</time>
      </trkpt>
      <trkpt lat="43.70874" lon="-0.14957">
        <ele>127.4</ele>
        <time>2023-07-01T08:20:22Z</time>
      </trkpt>
      <trkpt lat="43.70874" lon="-0.14957">
        <ele>127.2</ele>
        <time>2023-07-01T08:20:23Z</time>
      </trkpt>
      <trkpt lat="43.70875" lon="-0.14957">
        <ele>127.8</ele>
        <time>2023-07-01T08:20:50Z</time>
      </trkpt>
      <trkpt lat="43.70876" lon="-0.14957">
        <ele>127.8</ele>
        <time>2023-07-01T08:20:51Z</time>
      </trkpt>
      <trkpt lat="43.70878" lon="-0.14957">
        <ele>127.4</ele>
        <time>2023-07-01T08:20:53Z</time>
      </trkpt>
      <trkpt lat="43.70884" lon="-0.14957">
        <ele>127.2</ele>
        <time>2023-07-01T08:20:57Z</time>
      </trkpt>
      <trkpt lat="43.70887" lon="-0.14957">
        <ele>127</ele>
        <time>2023-07-01T08:21:00Z</time>
      </trkpt>
      <trkpt lat="43.7089" lon="-0.14956">
        <ele>126.8</ele>
        <time>2023-07-01T08:21:02Z</time>
      </trkpt>
      <trkpt lat="43.70899" lon="-0.14956">
        <ele>126.8</ele>
        <time>2023-07-01T08:21:09Z</time>
      </trkpt>
      <trkpt lat="43.709" lon="-0.14956">
        <ele>126.8</ele>
        <time>2023-07-01T08:21:10Z</time>
      </trkpt>
      <trkpt lat="43.70908" lon="-0.14955">
        <ele>126.6</ele>
        <time>2023-07-01T08:21:16Z</time>
      </trkpt>
      <trkpt lat="43.7091" lon="-0.14954">
        <ele>126.4</ele>
        <time>2023-07-01T08:21:18Z</time>
      </trkpt>
      <trkpt lat="43.70915" lon="-0.14954">
        <ele>126.4</ele>
        <time>2023-07-01T08:21:22Z</time>
      </trkpt>
      <trkpt lat="43.70921" lon="-0.14956">
        <ele>126.2</ele>
        <time>2023-07-01T08:21:27Z</time>
      </trkpt>
      <trkpt lat="43.70932" lon="-0.14954">
        <ele>126</ele>
        <time>2023-07-01T08:21:34Z</time>
      </trkpt>
      <trkpt lat="43.70937" lon="-0.14953">
        <ele>126</ele>
        <time>2023-07-01T08:21:38Z</time>
      </trkpt>
      <trkpt lat="43.70944" lon="-0.14951">
        <ele>126</ele>
        <time>2023-07-01T08:21:43Z</time>
      </trkpt>
      <trkpt lat="43.70955" lon="-0.14952">
        <ele>125.8</ele>
        <time>2023-07-01T08:21:51Z</time>
      </trkpt>
      <trkpt lat="43.7096" lon="-0.14951">
        <ele>125.8</ele>
        <time>2023-07-01T08:21:55Z</time>
      </trkpt>
      <trkpt lat="43.70966" lon="-0.1495">
        <ele>125.8</ele>
        <time>2023-07-01T08:21:59Z</time>
      </trkpt>
      <trkpt lat="43.70977" lon="-0.14948">
        <ele>126.2</ele>
        <time>2023-07-01T08:22:07Z</time>
      </trkpt>
      <trkpt lat="43.7098" lon="-0.14948">
        <ele>126.2</ele>
        <time>2023-07-01T08:22:09Z</time>
      </trkpt>
      <trkpt lat="43.70993" lon="-0.14947">
        <ele>126</ele>
        <time>2023-07-01T08:22:19Z</time>
      </trkpt>
      <trkpt lat="43.71005" lon="-0.14945">
        <ele>126</ele>
        <time>2023-07-01T08:22:27Z</time>
      </trkpt>
      <trkpt lat="43.71012" lon="-0.14947">
        <ele>125.8</ele>
        <time>2023-07-01T08:22:32Z</time>
      </trkpt>
      <trkpt lat="43.71016" lon="-0.14948">
        <ele>125.8</ele>
        <time>2023-07-01T08:22:35Z</time>
      </trkpt>
      <trkpt lat="43.71025" lon="-0.14945">
        <ele>125.8</ele>
        <time>2023-07-01T08:22:41Z</time>
      </trkpt>
      <trkpt lat="43.71026" lon="-0.14945">
        <ele>126</ele>
        <time>2023-07-01T08:22:42Z</time>
      </trkpt>
      <trkpt lat="43.71032" lon="-0.14943">
        <ele>126.2</ele>
        <time>2023-07-01T08:22:47Z</time>
      </trkpt>
      <trkpt lat="43.71036" lon="-0.14942">
        <ele>126.8</ele>
        <time>2023-07-01T08:22:52Z</time>
      </trkpt>
      <trkpt lat="43.71041" lon="-0.1494">
        <ele>126.4</ele>
        <time>2023-07-01T08:22:56Z</time>
      </trkpt>
      <trkpt lat="43.71042" lon="-0.1494">
        <ele>126.4</ele>
        <time>2023-07-01T08:22:57Z</time>
      </trkpt>
      <trkpt lat="43.71047" lon="-0.1494">
        <ele>126.6</ele>
        <time>2023-07-01T08:23:01Z</time>
      </trkpt>
      <trkpt lat="43.71049" lon="-0.1494">
        <ele>126.6</ele>
        <time>2023-07-01T08:23:02Z</time>
      </trkpt>
      <trkpt lat="43.71055" lon="-0.14939">
        <ele>126.8</ele>
        <time>2023-07-01T08:23:06Z</time>
      </trkpt>
      <trkpt lat="43.71061" lon="-0.14941">
        <ele>126.8</ele>
        <time>2023-07-01T08:23:10Z</time>
      </trkpt>
      <trkpt lat="43.71066" lon="-0.1494">
        <ele>126.8</ele>
        <time>2023-07-01T08:23:14Z</time>
      </trkpt>
      <trkpt lat="43.71071" lon="-0.14938">
        <ele>126.6</ele>
        <time>2023-07-01T08:23:18Z</time>
      </trkpt>
      <trkpt lat="43.71073" lon="-0.14938">
        <ele>126.6</ele>
        <time>2023-07-01T08:23:20Z</time>
      </trkpt>
      <trkpt lat="43.71075" lon="-0.14937">
        <ele>126.6</ele>
        <time>2023-07-01T08:23:21Z</time>
      </trkpt>
      <trkpt lat="43.71087" lon="-0.14936">
        <ele>127.2</ele>
        <time>2023-07-01T08:23:30Z</time>
      </trkpt>
      <trkpt lat="43.71088" lon="-0.14935">
        <ele>127.2</ele>
        <time>2023-07-01T08:23:31Z</time>
      </trkpt>
      <trkpt lat="43.71098" lon="-0.14933">
        <ele>127.2</ele>
        <time>2023-07-01T08:23:40Z</time>
      </trkpt>
      <trkpt lat="43.71113" lon="-0.14933">
        <ele>127</ele>
        <time>2023-07-01T08:23:50Z</time>
      </trkpt>
      <trkpt lat="43.71125" lon="-0.14932">
        <ele>126.4</ele>
        <time>2023-07-01T08:23:58Z</time>
      </trkpt>
      <trkpt lat="43.71127" lon="-0.14932">
        <ele>126.4</ele>
        <time>2023-07-01T08:23:59Z</time>
      </trkpt>
      <trkpt lat="43.71135" lon="-0.14932">
        <ele>126.6</ele>
        <time>2023-07-01T08:24:05Z</time>
      </trkpt>
      <trkpt lat="43.71138" lon="-0.14931">
        <ele>126.6</ele>
        <time>2023-07-01T08:24:08Z</time>
      </trkpt>
      <trkpt lat="43.71148" lon="-0.14929">
        <ele>126.6</ele>
        <time>2023-07-01T08:24:15Z</time>
      </trkpt>
      <trkpt lat="43.71159" lon="-0.14927">
        <ele>126.2</ele>
        <time>2023-07-01T08:24:24Z</time>
      </trkpt>
      <trkpt lat="43.71169" lon="-0.14927">
        <ele>126.2</ele>
        <time>2023-07-01T08:24:32Z</time>
      </trkpt>
      <trkpt lat="43.7118" lon="-0.14926">
        <ele>126</ele>
        <time>2023-07-01T08:24:39Z</time>
      </trkpt>
      <trkpt lat="43.71191" lon="-0.14923">
        <ele>126.2</ele>
        <time>2023-07-01T08:24:48Z</time>
      </trkpt>
      <trkpt lat="43.71201" lon="-0.14919">
        <ele>126.2</ele>
        <time>2023-07-01T08:24:55Z</time>
      </trkpt>
      <trkpt lat="43.71208" lon="-0.14916">
        <ele>126.4</ele>
        <time>2023-07-01T08:25:01Z</time>
      </trkpt>
      <trkpt lat="43.71209" lon="-0.14915">
        <ele>126.4</ele>
        <time>2023-07-01T08:25:02Z</time>
      </trkpt>
      <trkpt lat="43.71217" lon="-0.14911">
        <ele>126.4</ele>
        <time>2023-07-01T08:25:08Z</time>
      </trkpt>
      <trkpt lat="43.71226" lon="-0.14905">
        <ele>126.4</ele>
        <time>2023-07-01T08:25:16Z</time>
      </trkpt>
      <trkpt lat="43.71228" lon="-0.14903">
        <ele>126.2</ele>
        <time>2023-07-01T08:25:18Z</time>
      </trkpt>
      <trkpt lat="43.71231" lon="-0.14903">
        <ele>125.8</ele>
        <time>2023-07-01T08:25:20Z</time>
      </trkpt>
      <trkpt lat="43.71232" lon="-0.14903">
        <ele>125.6</ele>
        <time>2023-07-01T08:25:21Z</time>
      </trkpt>
      <trkpt lat="43.71234" lon="-0.14902">
        <ele>125.6</ele>
        <time>2023-07-01T08:25:23Z</time>
      </trkpt>
      <trkpt lat="43.71235" lon="-0.14901">
        <ele>125.6</ele>
        <time>2023-07-01T08:25:24Z</time>
      </trkpt>
      <trkpt lat="43.71238" lon="-0.149">
        <ele>125.4</ele>
        <time>2023-07-01T08:25:26Z</time>
      </trkpt>
      <trkpt lat="43.71242" lon="-0.149">
        <ele>125.4</ele>
        <time>2023-07-01T08:25:28Z</time>
      </trkpt>
      <trkpt lat="43.71245" lon="-0.14898">
        <ele>125.4</ele>
        <time>2023-07-01T08:25:30Z</time>
      </trkpt>
      <trkpt lat="43.71246" lon="-0.14898">
        <ele>125.4</ele>
        <time>2023-07-01T08:25:31Z</time>
      </trkpt>
      <trkpt lat="43.71248" lon="-0.14897">
        <ele>125.2</ele>
        <time>2023-07-01T08:25:32Z</time>
      </trkpt>
      <trkpt lat="43.71254" lon="-0.14892">
        <ele>125</ele>
        <time>2023-07-01T08:25:38Z</time>
      </trkpt>
      <trkpt lat="43.71256" lon="-0.14891">
        <ele>125</ele>
        <time>2023-07-01T08:25:39Z</time>
      </trkpt>
      <trkpt lat="43.71262" lon="-0.14886">
        <ele>124.6</ele>
        <time>2023-07-01T08:25:45Z</time>
      </trkpt>
      <trkpt lat="43.71265" lon="-0.14882">
        <ele>124.6</ele>
        <time>2023-07-01T08:25:48Z</time>
      </trkpt>
      <trkpt lat="43.71269" lon="-0.1488">
        <ele>124.4</ele>
        <time>2023-07-01T08:25:50Z</time>
      </trkpt>
      <trkpt lat="43.7127" lon="-0.14879">
        <ele>124.4</ele>
        <time>2023-07-01T08:25:51Z</time>
      </trkpt>
      <trkpt lat="43.7128" lon="-0.14873">
        <ele>123.8</ele>
        <time>2023-07-01T08:25:59Z</time>
      </trkpt>
      <trkpt lat="43.71284" lon="-0.14869">
        <ele>123.6</ele>
        <time>2023-07-01T08:26:03Z</time>
      </trkpt>
      <trkpt lat="43.7129" lon="-0.14864">
        <ele>123.4</ele>
        <time>2023-07-01T08:26:07Z</time>
      </trkpt>
      <trkpt lat="43.71292" lon="-0.14863">
        <ele>123.2</ele>
        <time>2023-07-01T08:26:08Z</time>
      </trkpt>
      <trkpt lat="43.71294" lon="-0.1486">
        <ele>123</ele>
        <time>2023-07-01T08:26:10Z</time>
      </trkpt>
      <trkpt lat="43.71297" lon="-0.14858">
        <ele>122.8</ele>
        <time>2023-07-01T08:26:12Z</time>
      </trkpt>
      <trkpt lat="43.71298" lon="-0.14857">
        <ele>122.6</ele>
        <time>2023-07-01T08:26:13Z</time>
      </trkpt>
      <trkpt lat="43.713" lon="-0.14855">
        <ele>122.4</ele>
        <time>2023-07-01T08:26:15Z</time>
      </trkpt>
      <trkpt lat="43.71301" lon="-0.14854">
        <ele>122.4</ele>
        <time>2023-07-01T08:26:16Z</time>
      </trkpt>
      <trkpt lat="43.71307" lon="-0.14848">
        <ele>122.2</ele>
        <time>2023-07-01T08:26:22Z</time>
      </trkpt>
      <trkpt lat="43.71311" lon="-0.14841">
        <ele>121.8</ele>
        <time>2023-07-01T08:26:27Z</time>
      </trkpt>
      <trkpt lat="43.71316" lon="-0.14836">
        <ele>121.8</ele>
        <time>2023-07-01T08:26:32Z</time>
      </trkpt>
      <trkpt lat="43.71321" lon="-0.14831">
        <ele>121.4</ele>
        <time>2023-07-01T08:26:37Z</time>
      </trkpt>
      <trkpt lat="43.71325" lon="-0.14827">
        <ele>121.8</ele>
        <time>2023-07-01T08:26:41Z</time>
      </trkpt>
      <trkpt lat="43.71336" lon="-0.14816">
        <ele>121.6</ele>
        <time>2023-07-01T08:26:50Z</time>
      </trkpt>
      <trkpt lat="43.71345" lon="-0.14809">
        <ele>121.4</ele>
        <time>2023-07-01T08:26:58Z</time>
      </trkpt>
      <trkpt lat="43.7135" lon="-0.14805">
        <ele>121.4</ele>
        <time>2023-07-01T08:27:03Z</time>
      </trkpt>
      <trkpt lat="43.71355" lon="-0.14802">
        <ele>121.8</ele>
        <time>2023-07-01T08:27:07Z</time>
      </trkpt>
      <trkpt lat="43.71362" lon="-0.14798">
        <ele>122</ele>
        <time>2023-07-01T08:27:13Z</time>
      </trkpt>
      <trkpt lat="43.71366" lon="-0.14795">
        <ele>122.2</ele>
        <time>2023-07-01T08:27:16Z</time>
      </trkpt>
      <trkpt lat="43.71368" lon="-0.14793">
        <ele>122.2</ele>
        <time>2023-07-01T08:27:18Z</time>
      </trkpt>
      <trkpt lat="43.71372" lon="-0.14792">
        <ele>122.2</ele>
        <time>2023-07-01T08:27:21Z</time>
      </trkpt>
      <trkpt lat="43.71374" lon="-0.14791">
        <ele>122</ele>
        <time>2023-07-01T08:27:23Z</time>
      </trkpt>
      <trkpt lat="43.71375" lon="-0.14791">
        <ele>122.2</ele>
        <time>2023-07-01T08:27:25Z</time>
      </trkpt>
      <trkpt lat="43.71376" lon="-0.1479">
        <ele>122.2</ele>
        <time>2023-07-01T08:27:26Z</time>
      </trkpt>
      <trkpt lat="43.71377" lon="-0.14789">
        <ele>122.2</ele>
        <time>2023-07-01T08:27:28Z</time>
      </trkpt>
      <trkpt lat="43.71378" lon="-0.14788">
        <ele>122.4</ele>
        <time>2023-07-01T08:27:29Z</time>
      </trkpt>
      <trkpt lat="43.71383" lon="-0.14783">
        <ele>122.4</ele>
        <time>2023-07-01T08:27:34Z</time>
      </trkpt>
      <trkpt lat="43.71391" lon="-0.14776">
        <ele>123.2</ele>
        <time>2023-07-01T08:27:41Z</time>
      </trkpt>
      <trkpt lat="43.71394" lon="-0.14773">
        <ele>123.6</ele>
        <time>2023-07-01T08:27:44Z</time>
      </trkpt>
      <trkpt lat="43.71397" lon="-0.14771">
        <ele>123.6</ele>
        <time>2023-07-01T08:27:48Z</time>
      </trkpt>
      <trkpt lat="43.71401" lon="-0.14768">
        <ele>124.4</ele>
        <time>2023-07-01T08:27:52Z</time>
      </trkpt>
      <trkpt lat="43.71402" lon="-0.14767">
        <ele>124.6</ele>
        <time>2023-07-01T08:27:53Z</time>
      </trkpt>
      <trkpt lat="43.71403" lon="-0.14766">
        <ele>124.6</ele>
        <time>2023-07-01T08:27:54Z</time>
      </trkpt>
      <trkpt lat="43.71405" lon="-0.14764">
        <ele>124.8</ele>
        <time>2023-07-01T08:27:56Z</time>
      </trkpt>
      <trkpt lat="43.71412" lon="-0.14759">
        <ele>125.4</ele>
        <time>2023-07-01T08:28:03Z</time>
      </trkpt>
      <trkpt lat="43.71414" lon="-0.14759">
        <ele>125.4</ele>
        <time>2023-07-01T08:28:04Z</time>
      </trkpt>
      <trkpt lat="43.71415" lon="-0.14758">
        <ele>125.6</ele>
        <time>2023-07-01T08:28:05Z</time>
      </trkpt>
      <trkpt lat="43.71423" lon="-0.14753">
        <ele>126</ele>
        <time>2023-07-01T08:28:11Z</time>
      </trkpt>
      <trkpt lat="43.71424" lon="-0.14752">
        <ele>126</ele>
        <time>2023-07-01T08:28:12Z</time>
      </trkpt>
      <trkpt lat="43.71432" lon="-0.14749">
        <ele>126.2</ele>
        <time>2023-07-01T08:28:20Z</time>
      </trkpt>
      <trkpt lat="43.71437" lon="-0.14746">
        <ele>126.4</ele>
        <time>2023-07-01T08:28:24Z</time>
      </trkpt>
      <trkpt lat="43.71438" lon="-0.14744">
        <ele>126.4</ele>
        <time>2023-07-01T08:28:26Z</time>
      </trkpt>
      <trkpt lat="43.7144" lon="-0.14742">
        <ele>126.4</ele>
        <time>2023-07-01T08:28:28Z</time>
      </trkpt>
      <trkpt lat="43.7144" lon="-0.14741">
        <ele>126.4</ele>
        <time>2023-07-01T08:28:29Z</time>
      </trkpt>
      <trkpt lat="43.71442" lon="-0.1474">
        <ele>126.4</ele>
        <time>2023-07-01T08:28:31Z</time>
      </trkpt>
      <trkpt lat="43.71444" lon="-0.14737">
        <ele>126.6</ele>
        <time>2023-07-01T08:28:33Z</time>
      </trkpt>
      <trkpt lat="43.71453" lon="-0.1473">
        <ele>126.4</ele>
        <time>2023-07-01T08:28:40Z</time>
      </trkpt>
      <trkpt lat="43.71456" lon="-0.14729">
        <ele>126.4</ele>
        <time>2023-07-01T08:28:42Z</time>
      </trkpt>
      <trkpt lat="43.71465" lon="-0.14721">
        <ele>126</ele>
        <time>2023-07-01T08:28:49Z</time>
      </trkpt>
      <trkpt lat="43.71469" lon="-0.14718">
        <ele>126</ele>
        <time>2023-07-01T08:28:52Z</time>
      </trkpt>
      <trkpt lat="43.71472" lon="-0.14716">
        <ele>126.2</ele>
        <time>2023-07-01T08:28:55Z</time>
      </trkpt>
      <trkpt lat="43.71477" lon="-0.14712">
        <ele>126.2</ele>
        <time>2023-07-01T08:28:59Z</time>
      </trkpt>
      <trkpt lat="43.71482" lon="-0.14707">
        <ele>125.8</ele>
        <time>2023-07-01T08:29:03Z</time>
      </trkpt>
      <trkpt lat="43.71484" lon="-0.14705">
        <ele>125.6</ele>
        <time>2023-07-01T08:29:04Z</time>
      </trkpt>
      <trkpt lat="43.71497" lon="-0.14701">
        <ele>124.8</ele>
        <time>2023-07-01T08:29:12Z</time>
      </trkpt>
      <trkpt lat="43.71501" lon="-0.14698">
        <ele>124.6</ele>
        <time>2023-07-01T08:29:15Z</time>
      </trkpt>
      <trkpt lat="43.71507" lon="-0.14692">
        <ele>124.2</ele>
        <time>2023-07-01T08:29:20Z</time>
      </trkpt>
      <trkpt lat="43.71514" lon="-0.14683">
        <ele>123.4</ele>
        <time>2023-07-01T08:29:26Z</time>
      </trkpt>
      <trkpt lat="43.71522" lon="-0.14675">
        <ele>122.8</ele>
        <time>2023-07-01T08:29:33Z</time>
      </trkpt>
      <trkpt lat="43.71523" lon="-0.14674">
        <ele>122.6</ele>
        <time>2023-07-01T08:29:34Z</time>
      </trkpt>
      <trkpt lat="43.71526" lon="-0.14672">
        <ele>122.6</ele>
        <time>2023-07-01T08:29:36Z</time>
      </trkpt>
      <trkpt lat="43.71527" lon="-0.14671">
        <ele>122.2</ele>
        <time>2023-07-01T08:29:37Z</time>
      </trkpt>
      <trkpt lat="43.7153" lon="-0.14669">
        <ele>122</ele>
        <time>2023-07-01T08:29:40Z</time>
      </trkpt>
      <trkpt lat="43.71539" lon="-0.14659">
        <ele>121.4</ele>
        <time>2023-07-01T08:29:49Z</time>
      </trkpt>
      <trkpt lat="43.71542" lon="-0.14656">
        <ele>121.2</ele>
        <time>2023-07-01T08:29:51Z</time>
      </trkpt>
      <trkpt lat="43.71549" lon="-0.14648">
        <ele>121</ele>
        <time>2023-07-01T08:29:57Z</time>
      </trkpt>
      <trkpt lat="43.71552" lon="-0.14643">
        <ele>121.2</ele>
        <time>2023-07-01T08:30:01Z</time>
      </trkpt>
      <trkpt lat="43.71556" lon="-0.14639">
        <ele>121</ele>
        <time>2023-07-01T08:30:05Z</time>
      </trkpt>
      <trkpt lat="43.71562" lon="-0.14633">
        <ele>121</ele>
        <time>2023-07-01T08:30:10Z</time>
      </trkpt>
      <trkpt lat="43.71569" lon="-0.14624">
        <ele>120.8</ele>
        <time>2023-07-01T08:30:18Z</time>
      </trkpt>
      <trkpt lat="43.7157" lon="-0.14623">
        <ele>120.8</ele>
        <time>2023-07-01T08:30:19Z</time>
      </trkpt>
      <trkpt lat="43.71579" lon="-0.14615">
        <ele>121</ele>
        <time>2023-07-01T08:30:26Z</time>
      </trkpt>
      <trkpt lat="43.71582" lon="-0.14613">
        <ele>121</ele>
        <time>2023-07-01T08:30:29Z</time>
      </trkpt>
      <trkpt lat="43.71587" lon="-0.14609">
        <ele>121.2</ele>
        <time>2023-07-01T08:30:33Z</time>
      </trkpt>
      <trkpt lat="43.71597" lon="-0.14604">
        <ele>121.2</ele>
        <time>2023-07-01T08:30:40Z</time>
      </trkpt>
      <trkpt lat="43.71601" lon="-0.14602">
        <ele>121.2</ele>
        <time>2023-07-01T08:30:45Z</time>
      </trkpt>
      <trkpt lat="43.71602" lon="-0.14601">
        <ele>121.2</ele>
        <time>2023-07-01T08:30:46Z</time>
      </trkpt>
      <trkpt lat="43.71606" lon="-0.14601">
        <ele>121.2</ele>
        <time>2023-07-01T08:30:51Z</time>
      </trkpt>
      <trkpt lat="43.71606" lon="-0.14602">
        <ele>121.2</ele>
        <time>2023-07-01T08:30:52Z</time>
      </trkpt>
      <trkpt lat="43.71607" lon="-0.14603">
        <ele>120.8</ele>
        <time>2023-07-01T08:30:54Z</time>
      </trkpt>
      <trkpt lat="43.71608" lon="-0.14604">
        <ele>120.8</ele>
        <time>2023-07-01T08:30:55Z</time>
      </trkpt>
      <trkpt lat="43.71612" lon="-0.14605">
        <ele>121</ele>
        <time>2023-07-01T08:30:59Z</time>
      </trkpt>
      <trkpt lat="43.71615" lon="-0.14604">
        <ele>121.4</ele>
        <time>2023-07-01T08:31:02Z</time>
      </trkpt>
      <trkpt lat="43.71619" lon="-0.14603">
        <ele>121.6</ele>
        <time>2023-07-01T08:31:05Z</time>
      </trkpt>
      <trkpt lat="43.71623" lon="-0.14602">
        <ele>121.8</ele>
        <time>2023-07-01T08:31:08Z</time>
      </trkpt>
      <trkpt lat="43.71626" lon="-0.14602">
        <ele>122</ele>
        <time>2023-07-01T08:31:10Z</time>
      </trkpt>
      <trkpt lat="43.71628" lon="-0.14601">
        <ele>122.2</ele>
        <time>2023-07-01T08:31:12Z</time>
      </trkpt>
      <trkpt lat="43.71631" lon="-0.146">
        <ele>122.4</ele>
        <time>2023-07-01T08:31:15Z</time>
      </trkpt>
      <trkpt lat="43.71633" lon="-0.146">
        <ele>122.6</ele>
        <time>2023-07-01T08:31:17Z</time>
      </trkpt>
      <trkpt lat="43.71634" lon="-0.14599">
        <ele>122.8</ele>
        <time>2023-07-01T08:31:18Z</time>
      </trkpt>
      <trkpt lat="43.71635" lon="-0.14599">
        <ele>122.8</ele>
        <time>2023-07-01T08:31:19Z</time>
      </trkpt>
      <trkpt lat="43.71638" lon="-0.14599">
        <ele>123.2</ele>
        <time>2023-07-01T08:31:21Z</time>
      </trkpt>
      <trkpt lat="43.71643" lon="-0.14597">
        <ele>123.6</ele>
        <time>2023-07-01T08:31:25Z</time>
      </trkpt>
      <trkpt lat="43.71652" lon="-0.1459">
        <ele>124.2</ele>
        <time>2023-07-01T08:31:31Z</time>
      </trkpt>
      <trkpt lat="43.71654" lon="-0.14588">
        <ele>124.4</ele>
        <time>2023-07-01T08:31:33Z</time>
      </trkpt>
      <trkpt lat="43.71657" lon="-0.14586">
        <ele>124.8</ele>
        <time>2023-07-01T08:31:36Z</time>
      </trkpt>
      <trkpt lat="43.7166" lon="-0.14585">
        <ele>125</ele>
        <time>2023-07-01T08:31:37Z</time>
      </trkpt>
      <trkpt lat="43.71667" lon="-0.14583">
        <ele>125</ele>
        <time>2023-07-01T08:31:41Z</time>
      </trkpt>
      <trkpt lat="43.7167" lon="-0.1458">
        <ele>125.4</ele>
        <time>2023-07-01T08:31:44Z</time>
      </trkpt>
      <trkpt lat="43.71671" lon="-0.14579">
        <ele>125.6</ele>
        <time>2023-07-01T08:31:45Z</time>
      </trkpt>
      <trkpt lat="43.71675" lon="-0.14576">
        <ele>126</ele>
        <time>2023-07-01T08:31:48Z</time>
      </trkpt>
      <trkpt lat="43.71681" lon="-0.14567">
        <ele>126.4</ele>
        <time>2023-07-01T08:31:55Z</time>
      </trkpt>
      <trkpt lat="43.71686" lon="-0.14563">
        <ele>126.8</ele>
        <time>2023-07-01T08:31:59Z</time>
      </trkpt>
      <trkpt lat="43.71687" lon="-0.1456">
        <ele>127</ele>
        <time>2023-07-01T08:32:01Z</time>
      </trkpt>
      <trkpt lat="43.7169" lon="-0.14557">
        <ele>127.2</ele>
        <time>2023-07-01T08:32:04Z</time>
      </trkpt>
      <trkpt lat="43.71692" lon="-0.14555">
        <ele>127.2</ele>
        <time>2023-07-01T08:32:07Z</time>
      </trkpt>
      <trkpt lat="43.71694" lon="-0.14553">
        <ele>127.8</ele>
        <time>2023-07-01T08:32:09Z</time>
      </trkpt>
      <trkpt lat="43.71697" lon="-0.14551">
        <ele>127.8</ele>
        <time>2023-07-01T08:32:12Z</time>
      </trkpt>
      <trkpt lat="43.717" lon="-0.1455">
        <ele>128</ele>
        <time>2023-07-01T08:32:15Z</time>
      </trkpt>
      <trkpt lat="43.71702" lon="-0.14548">
        <ele>128.2</ele>
        <time>2023-07-01T08:32:17Z</time>
      </trkpt>
      <trkpt lat="43.71707" lon="-0.14542">
        <ele>128.8</ele>
        <time>2023-07-01T08:32:21Z</time>
      </trkpt>
      <trkpt lat="43.71708" lon="-0.14541">
        <ele>128.8</ele>
        <time>2023-07-01T08:32:22Z</time>
      </trkpt>
      <trkpt lat="43.71712" lon="-0.14536">
        <ele>129.2</ele>
        <time>2023-07-01T08:32:26Z</time>
      </trkpt>
      <trkpt lat="43.71714" lon="-0.14533">
        <ele>129</ele>
        <time>2023-07-01T08:32:28Z</time>
      </trkpt>
      <trkpt lat="43.71717" lon="-0.14529">
        <ele>128.8</ele>
        <time>2023-07-01T08:32:31Z</time>
      </trkpt>
      <trkpt lat="43.71718" lon="-0.14527">
        <ele>128.8</ele>
        <time>2023-07-01T08:32:32Z</time>
      </trkpt>
      <trkpt lat="43.71721" lon="-0.14523">
        <ele>128.8</ele>
        <time>2023-07-01T08:32:35Z</time>
      </trkpt>
      <trkpt lat="43.71723" lon="-0.1452">
        <ele>128.8</ele>
        <time>2023-07-01T08:32:37Z</time>
      </trkpt>
      <trkpt lat="43.71733" lon="-0.14509">
        <ele>128.4</ele>
        <time>2023-07-01T08:32:47Z</time>
      </trkpt>
      <trkpt lat="43.71741" lon="-0.145">
        <ele>128.4</ele>
        <time>2023-07-01T08:32:55Z</time>
      </trkpt>
      <trkpt lat="43.71745" lon="-0.14495">
        <ele>128.2</ele>
        <time>2023-07-01T08:32:59Z</time>
      </trkpt>
      <trkpt lat="43.71746" lon="-0.14494">
        <ele>128.2</ele>
        <time>2023-07-01T08:33:00Z</time>
      </trkpt>
      <trkpt lat="43.71749" lon="-0.14491">
        <ele>128</ele>
        <time>2023-07-01T08:33:03Z</time>
      </trkpt>
      <trkpt lat="43.71749" lon="-0.1449">
        <ele>128.2</ele>
        <time>2023-07-01T08:33:04Z</time>
      </trkpt>
      <trkpt lat="43.7175" lon="-0.14489">
        <ele>128.2</ele>
        <time>2023-07-01T08:33:05Z</time>
      </trkpt>
      <trkpt lat="43.71753" lon="-0.14487">
        <ele>128.2</ele>
        <time>2023-07-01T08:33:07Z</time>
      </trkpt>
      <trkpt lat="43.71753" lon="-0.14486">
        <ele>128.2</ele>
        <time>2023-07-01T08:33:08Z</time>
      </trkpt>
      <trkpt lat="43.71755" lon="-0.14483">
        <ele>128.2</ele>
        <time>2023-07-01T08:33:10Z</time>
      </trkpt>
      <trkpt lat="43.71757" lon="-0.14481">
        <ele>128.2</ele>
        <time>2023-07-01T08:33:12Z</time>
      </trkpt>
      <trkpt lat="43.71758" lon="-0.1448">
        <ele>128</ele>
        <time>2023-07-01T08:33:13Z</time>
      </trkpt>
      <trkpt lat="43.71763" lon="-0.14474">
        <ele>128</ele>
        <time>2023-07-01T08:33:18Z</time>
      </trkpt>
      <trkpt lat="43.71766" lon="-0.14471">
        <ele>127.8</ele>
        <time>2023-07-01T08:33:21Z</time>
      </trkpt>
      <trkpt lat="43.71768" lon="-0.1447">
        <ele>127.8</ele>
        <time>2023-07-01T08:33:22Z</time>
      </trkpt>
      <trkpt lat="43.7177" lon="-0.14467">
        <ele>127.6</ele>
        <time>2023-07-01T08:33:24Z</time>
      </trkpt>
      <trkpt lat="43.71777" lon="-0.14459">
        <ele>127.6</ele>
        <time>2023-07-01T08:33:31Z</time>
      </trkpt>
      <trkpt lat="43.71779" lon="-0.14456">
        <ele>127.6</ele>
        <time>2023-07-01T08:33:33Z</time>
      </trkpt>
      <trkpt lat="43.71784" lon="-0.14448">
        <ele>127.4</ele>
        <time>2023-07-01T08:33:38Z</time>
      </trkpt>
      <trkpt lat="43.71785" lon="-0.14447">
        <ele>127.4</ele>
        <time>2023-07-01T08:33:39Z</time>
      </trkpt>
      <trkpt lat="43.71789" lon="-0.14444">
        <ele>127</ele>
        <time>2023-07-01T08:33:42Z</time>
      </trkpt>
      <trkpt lat="43.71792" lon="-0.1444">
        <ele>126.8</ele>
        <time>2023-07-01T08:33:46Z</time>
      </trkpt>
      <trkpt lat="43.71793" lon="-0.14438">
        <ele>126.8</ele>
        <time>2023-07-01T08:33:47Z</time>
      </trkpt>
      <trkpt lat="43.71796" lon="-0.14434">
        <ele>126.8</ele>
        <time>2023-07-01T08:33:50Z</time>
      </trkpt>
      <trkpt lat="43.71802" lon="-0.14418">
        <ele>126.6</ele>
        <time>2023-07-01T08:34:01Z</time>
      </trkpt>
      <trkpt lat="43.71804" lon="-0.14413">
        <ele>126.2</ele>
        <time>2023-07-01T08:34:04Z</time>
      </trkpt>
      <trkpt lat="43.71808" lon="-0.14399">
        <ele>125.8</ele>
        <time>2023-07-01T08:34:12Z</time>
      </trkpt>
      <trkpt lat="43.71809" lon="-0.14398">
        <ele>125.8</ele>
        <time>2023-07-01T08:34:13Z</time>
      </trkpt>
      <trkpt lat="43.7181" lon="-0.14395">
        <ele>125.8</ele>
        <time>2023-07-01T08:34:15Z</time>
      </trkpt>
      <trkpt lat="43.71814" lon="-0.14383">
        <ele>125.8</ele>
        <time>2023-07-01T08:34:22Z</time>
      </trkpt>
      <trkpt lat="43.71816" lon="-0.14378">
        <ele>125.8</ele>
        <time>2023-07-01T08:34:25Z</time>
      </trkpt>
      <trkpt lat="43.71822" lon="-0.14364">
        <ele>125.2</ele>
        <time>2023-07-01T08:34:33Z</time>
      </trkpt>
      <trkpt lat="43.71828" lon="-0.14352">
        <ele>124.6</ele>
        <time>2023-07-01T08:34:41Z</time>
      </trkpt>
      <trkpt lat="43.7183" lon="-0.14347">
        <ele>124.4</ele>
        <time>2023-07-01T08:34:44Z</time>
      </trkpt>
      <trkpt lat="43.71831" lon="-0.14343">
        <ele>124.4</ele>
        <time>2023-07-01T08:34:46Z</time>
      </trkpt>
      <trkpt lat="43.71833" lon="-0.14338">
        <ele>124.2</ele>
        <time>2023-07-01T08:34:49Z</time>
      </trkpt>
      <trkpt lat="43.71835" lon="-0.14334">
        <ele>124</ele>
        <time>2023-07-01T08:34:52Z</time>
      </trkpt>
      <trkpt lat="43.71837" lon="-0.14328">
        <ele>123.6</ele>
        <time>2023-07-01T08:34:56Z</time>
      </trkpt>
      <trkpt lat="43.71838" lon="-0.14326">
        <ele>123.4</ele>
        <time>2023-07-01T08:34:57Z</time>
      </trkpt>
      <trkpt lat="43.71842" lon="-0.14316">
        <ele>123</ele>
        <time>2023-07-01T08:35:03Z</time>
      </trkpt>
      <trkpt lat="43.71844" lon="-0.1431">
        <ele>122.6</ele>
        <time>2023-07-01T08:35:06Z</time>
      </trkpt>
      <trkpt lat="43.71848" lon="-0.14293">
        <ele>122.6</ele>
        <time>2023-07-01T08:35:16Z</time>
      </trkpt>
      <trkpt lat="43.71851" lon="-0.14287">
        <ele>122.4</ele>
        <time>2023-07-01T08:35:19Z</time>
      </trkpt>
      <trkpt lat="43.71854" lon="-0.1428">
        <ele>122.4</ele>
        <time>2023-07-01T08:35:23Z</time>
      </trkpt>
      <trkpt lat="43.71858" lon="-0.14275">
        <ele>122.4</ele>
        <time>2023-07-01T08:35:27Z</time>
      </trkpt>
      <trkpt lat="43.7186" lon="-0.14272">
        <ele>122.2</ele>
        <time>2023-07-01T08:35:29Z</time>
      </trkpt>
      <trkpt lat="43.71863" lon="-0.14265">
        <ele>122.4</ele>
        <time>2023-07-01T08:35:33Z</time>
      </trkpt>
      <trkpt lat="43.71866" lon="-0.14259">
        <ele>122.4</ele>
        <time>2023-07-01T08:35:37Z</time>
      </trkpt>
      <trkpt lat="43.71869" lon="-0.14253">
        <ele>122.4</ele>
        <time>2023-07-01T08:35:42Z</time>
      </trkpt>
      <trkpt lat="43.71871" lon="-0.14248">
        <ele>122.6</ele>
        <time>2023-07-01T08:35:45Z</time>
      </trkpt>
      <trkpt lat="43.71878" lon="-0.14238">
        <ele>122.8</ele>
        <time>2023-07-01T08:35:53Z</time>
      </trkpt>
      <trkpt lat="43.71882" lon="-0.14234">
        <ele>122.8</ele>
        <time>2023-07-01T08:35:57Z</time>
      </trkpt>
      <trkpt lat="43.71887" lon="-0.14227">
        <ele>123</ele>
        <time>2023-07-01T08:36:03Z</time>
      </trkpt>
      <trkpt lat="43.71889" lon="-0.14223">
        <ele>123.6</ele>
        <time>2023-07-01T08:36:06Z</time>
      </trkpt>
      <trkpt lat="43.71895" lon="-0.14217">
        <ele>124.2</ele>
        <time>2023-07-01T08:36:12Z</time>
      </trkpt>
      <trkpt lat="43.719" lon="-0.14212">
        <ele>124.6</ele>
        <time>2023-07-01T08:36:17Z</time>
      </trkpt>
      <trkpt lat="43.71905" lon="-0.14209">
        <ele>125</ele>
        <time>2023-07-01T08:36:22Z</time>
      </trkpt>
      <trkpt lat="43.71914" lon="-0.14202">
        <ele>125.6</ele>
        <time>2023-07-01T08:36:30Z</time>
      </trkpt>
      <trkpt lat="43.71915" lon="-0.14201">
        <ele>125.6</ele>
        <time>2023-07-01T08:36:31Z</time>
      </trkpt>
      <trkpt lat="43.71922" lon="-0.14198">
        <ele>125.8</ele>
        <time>2023-07-01T08:36:38Z</time>
      </trkpt>
      <trkpt lat="43.71923" lon="-0.14197">
        <ele>126</ele>
        <time>2023-07-01T08:36:39Z</time>
      </trkpt>
      <trkpt lat="43.71931" lon="-0.14193">
        <ele>126.6</ele>
        <time>2023-07-01T08:36:45Z</time>
      </trkpt>
      <trkpt lat="43.71932" lon="-0.14192">
        <ele>126.6</ele>
        <time>2023-07-01T08:36:46Z</time>
      </trkpt>
      <trkpt lat="43.71939" lon="-0.14186">
        <ele>127.4</ele>
        <time>2023-07-01T08:36:53Z</time>
      </trkpt>
      <trkpt lat="43.71942" lon="-0.14184">
        <ele>127.6</ele>
        <time>2023-07-01T08:36:56Z</time>
      </trkpt>
      <trkpt lat="43.71946" lon="-0.14182">
        <ele>128.2</ele>
        <time>2023-07-01T08:37:00Z</time>
      </trkpt>
      <trkpt lat="43.71951" lon="-0.14178">
        <ele>128.8</ele>
        <time>2023-07-01T08:37:05Z</time>
      </trkpt>
      <trkpt lat="43.71952" lon="-0.14178">
        <ele>129</ele>
        <time>2023-07-01T08:37:06Z</time>
      </trkpt>
      <trkpt lat="43.71956" lon="-0.14176">
        <ele>129.2</ele>
        <time>2023-07-01T08:37:09Z</time>
      </trkpt>
      <trkpt lat="43.71961" lon="-0.14173">
        <ele>129.4</ele>
        <time>2023-07-01T08:37:14Z</time>
      </trkpt>
      <trkpt lat="43.71963" lon="-0.14172">
        <ele>129.8</ele>
        <time>2023-07-01T08:37:16Z</time>
      </trkpt>
      <trkpt lat="43.71963" lon="-0.14171">
        <ele>129.8</ele>
        <time>2023-07-01T08:37:17Z</time>
      </trkpt>
      <trkpt lat="43.71971" lon="-0.14166">
        <ele>130.2</ele>
        <time>2023-07-01T08:37:23Z</time>
      </trkpt>
      <trkpt lat="43.71979" lon="-0.1416">
        <ele>130.4</ele>
        <time>2023-07-01T08:37:30Z</time>
      </trkpt>
      <trkpt lat="43.71989" lon="-0.14154">
        <ele>130.6</ele>
        <time>2023-07-01T08:37:39Z</time>
      </trkpt>
      <trkpt lat="43.71995" lon="-0.14149">
        <ele>130.4</ele>
        <time>2023-07-01T08:37:45Z</time>
      </trkpt>
      <trkpt lat="43.72003" lon="-0.14144">
        <ele>130</ele>
        <time>2023-07-01T08:37:52Z</time>
      </trkpt>
      <trkpt lat="43.72012" lon="-0.14138">
        <ele>130</ele>
        <time>2023-07-01T08:37:59Z</time>
      </trkpt>
      <trkpt lat="43.72015" lon="-0.14135">
        <ele>130</ele>
        <time>2023-07-01T08:38:02Z</time>
      </trkpt>
      <trkpt lat="43.72026" lon="-0.1413">
        <ele>129.2</ele>
        <time>2023-07-01T08:38:11Z</time>
      </trkpt>
      <trkpt lat="43.72031" lon="-0.14124">
        <ele>128.8</ele>
        <time>2023-07-01T08:38:16Z</time>
      </trkpt>
      <trkpt lat="43.72038" lon="-0.1412">
        <ele>128.4</ele>
        <time>2023-07-01T08:38:22Z</time>
      </trkpt>
      <trkpt lat="43.72042" lon="-0.14116">
        <ele>128.6</ele>
        <time>2023-07-01T08:38:26Z</time>
      </trkpt>
      <trkpt lat="43.72046" lon="-0.14114">
        <ele>128.6</ele>
        <time>2023-07-01T08:38:29Z</time>
      </trkpt>
      <trkpt lat="43.72047" lon="-0.14114">
        <ele>128.6</ele>
        <time>2023-07-01T08:38:30Z</time>
      </trkpt>
      <trkpt lat="43.72051" lon="-0.14111">
        <ele>128.4</ele>
        <time>2023-07-01T08:38:33Z</time>
      </trkpt>
      <trkpt lat="43.72057" lon="-0.14107">
        <ele>128.2</ele>
        <time>2023-07-01T08:38:37Z</time>
      </trkpt>
      <trkpt lat="43.72063" lon="-0.14102">
        <ele>128</ele>
        <time>2023-07-01T08:38:42Z</time>
      </trkpt>
      <trkpt lat="43.72065" lon="-0.14101">
        <ele>128</ele>
        <time>2023-07-01T08:38:44Z</time>
      </trkpt>
      <trkpt lat="43.72068" lon="-0.141">
        <ele>128.2</ele>
        <time>2023-07-01T08:38:47Z</time>
      </trkpt>
      <trkpt lat="43.72072" lon="-0.14097">
        <ele>128.2</ele>
        <time>2023-07-01T08:38:52Z</time>
      </trkpt>
      <trkpt lat="43.72075" lon="-0.14095">
        <ele>128</ele>
        <time>2023-07-01T08:38:54Z</time>
      </trkpt>
      <trkpt lat="43.72078" lon="-0.14092">
        <ele>128</ele>
        <time>2023-07-01T08:38:57Z</time>
      </trkpt>
      <trkpt lat="43.72084" lon="-0.14089">
        <ele>128</ele>
        <time>2023-07-01T08:39:01Z</time>
      </trkpt>
      <trkpt lat="43.72085" lon="-0.14088">
        <ele>128</ele>
        <time>2023-07-01T08:39:02Z</time>
      </trkpt>
      <trkpt lat="43.72089" lon="-0.14084">
        <ele>128</ele>
        <time>2023-07-01T08:39:06Z</time>
      </trkpt>
      <trkpt lat="43.72096" lon="-0.1408">
        <ele>128.2</ele>
        <time>2023-07-01T08:39:11Z</time>
      </trkpt>
      <trkpt lat="43.72109" lon="-0.14072">
        <ele>128.2</ele>
        <time>2023-07-01T08:39:20Z</time>
      </trkpt>
      <trkpt lat="43.72119" lon="-0.14066">
        <ele>128.4</ele>
        <time>2023-07-01T08:39:28Z</time>
      </trkpt>
      <trkpt lat="43.72122" lon="-0.14064">
        <ele>128.4</ele>
        <time>2023-07-01T08:39:31Z</time>
      </trkpt>
      <trkpt lat="43.72125" lon="-0.14062">
        <ele>128.4</ele>
        <time>2023-07-01T08:39:33Z</time>
      </trkpt>
      <trkpt lat="43.72132" lon="-0.14057">
        <ele>128.6</ele>
        <time>2023-07-01T08:39:39Z</time>
      </trkpt>
      <trkpt lat="43.72137" lon="-0.14054">
        <ele>129</ele>
        <time>2023-07-01T08:39:43Z</time>
      </trkpt>
      <trkpt lat="43.72138" lon="-0.14054">
        <ele>129</ele>
        <time>2023-07-01T08:39:44Z</time>
      </trkpt>
      <trkpt lat="43.72144" lon="-0.1405">
        <ele>129.4</ele>
        <time>2023-07-01T08:39:49Z</time>
      </trkpt>
      <trkpt lat="43.72149" lon="-0.14045">
        <ele>129.4</ele>
        <time>2023-07-01T08:39:54Z</time>
      </trkpt>
      <trkpt lat="43.72156" lon="-0.14041">
        <ele>129.4</ele>
        <time>2023-07-01T08:39:59Z</time>
      </trkpt>
      <trkpt lat="43.72162" lon="-0.14039">
        <ele>129.8</ele>
        <time>2023-07-01T08:40:04Z</time>
      </trkpt>
      <trkpt lat="43.72168" lon="-0.14036">
        <ele>130</ele>
        <time>2023-07-01T08:40:08Z</time>
      </trkpt>
      <trkpt lat="43.72169" lon="-0.14036">
        <ele>129.8</ele>
        <time>2023-07-01T08:40:09Z</time>
      </trkpt>
      <trkpt lat="43.72172" lon="-0.14035">
        <ele>129.8</ele>
        <time>2023-07-01T08:40:11Z</time>
      </trkpt>
      <trkpt lat="43.72178" lon="-0.14031">
        <ele>130.2</ele>
        <time>2023-07-01T08:40:16Z</time>
      </trkpt>
      <trkpt lat="43.7218" lon="-0.1403">
        <ele>130.4</ele>
        <time>2023-07-01T08:40:18Z</time>
      </trkpt>
      <trkpt lat="43.72192" lon="-0.14023">
        <ele>130</ele>
        <time>2023-07-01T08:40:27Z</time>
      </trkpt>
      <trkpt lat="43.72195" lon="-0.14021">
        <ele>130</ele>
        <time>2023-07-01T08:40:29Z</time>
      </trkpt>
      <trkpt lat="43.72201" lon="-0.14016">
        <ele>130.2</ele>
        <time>2023-07-01T08:40:34Z</time>
      </trkpt>
      <trkpt lat="43.72209" lon="-0.14012">
        <ele>130.4</ele>
        <time>2023-07-01T08:40:41Z</time>
      </trkpt>
      <trkpt lat="43.72219" lon="-0.14006">
        <ele>130.2</ele>
        <time>2023-07-01T08:40:50Z</time>
      </trkpt>
      <trkpt lat="43.72229" lon="-0.14002">
        <ele>130.6</ele>
        <time>2023-07-01T08:40:58Z</time>
      </trkpt>
      <trkpt lat="43.7224" lon="-0.13998">
        <ele>130.6</ele>
        <time>2023-07-01T08:41:06Z</time>
      </trkpt>
      <trkpt lat="43.72245" lon="-0.13996">
        <ele>130.8</ele>
        <time>2023-07-01T08:41:10Z</time>
      </trkpt>
      <trkpt lat="43.72251" lon="-0.13992">
        <ele>131.8</ele>
        <time>2023-07-01T08:41:15Z</time>
      </trkpt>
      <trkpt lat="43.72259" lon="-0.13984">
        <ele>131.8</ele>
        <time>2023-07-01T08:41:23Z</time>
      </trkpt>
      <trkpt lat="43.7227" lon="-0.13976">
        <ele>131.4</ele>
        <time>2023-07-01T08:41:31Z</time>
      </trkpt>
      <trkpt lat="43.72275" lon="-0.13972">
        <ele>131.2</ele>
        <time>2023-07-01T08:41:35Z</time>
      </trkpt>
      <trkpt lat="43.72278" lon="-0.13969">
        <ele>131.2</ele>
        <time>2023-07-01T08:41:38Z</time>
      </trkpt>
      <trkpt lat="43.7228" lon="-0.13966">
        <ele>131.2</ele>
        <time>2023-07-01T08:41:40Z</time>
      </trkpt>
      <trkpt lat="43.72294" lon="-0.13953">
        <ele>131.2</ele>
        <time>2023-07-01T08:41:52Z</time>
      </trkpt>
      <trkpt lat="43.72299" lon="-0.13948">
        <ele>131.2</ele>
        <time>2023-07-01T08:41:56Z</time>
      </trkpt>
      <trkpt lat="43.723" lon="-0.13947">
        <ele>131</ele>
        <time>2023-07-01T08:41:57Z</time>
      </trkpt>
      <trkpt lat="43.72302" lon="-0.13946">
        <ele>130.8</ele>
        <time>2023-07-01T08:41:59Z</time>
      </trkpt>
      <trkpt lat="43.72312" lon="-0.13938">
        <ele>131.2</ele>
        <time>2023-07-01T08:42:08Z</time>
      </trkpt>
      <trkpt lat="43.72316" lon="-0.13933">
        <ele>131.6</ele>
        <time>2023-07-01T08:42:12Z</time>
      </trkpt>
      <trkpt lat="43.72322" lon="-0.13928">
        <ele>131.2</ele>
        <time>2023-07-01T08:42:17Z</time>
      </trkpt>
      <trkpt lat="43.72325" lon="-0.13925">
        <ele>131.2</ele>
        <time>2023-07-01T08:42:20Z</time>
      </trkpt>
      <trkpt lat="43.72328" lon="-0.13923">
        <ele>131.4</ele>
        <time>2023-07-01T08:42:22Z</time>
      </trkpt>
      <trkpt lat="43.72329" lon="-0.13922">
        <ele>131.4</ele>
        <time>2023-07-01T08:42:23Z</time>
      </trkpt>
      <trkpt lat="43.72336" lon="-0.13918">
        <ele>132</ele>
        <time>2023-07-01T08:42:28Z</time>
      </trkpt>
      <trkpt lat="43.72346" lon="-0.13911">
        <ele>132</ele>
        <time>2023-07-01T08:42:37Z</time>
      </trkpt>
      <trkpt lat="43.72354" lon="-0.13905">
        <ele>132</ele>
        <time>2023-07-01T08:42:44Z</time>
      </trkpt>
      <trkpt lat="43.72358" lon="-0.13902">
        <ele>132.2</ele>
        <time>2023-07-01T08:42:48Z</time>
      </trkpt>
      <trkpt lat="43.72359" lon="-0.13902">
        <ele>132.2</ele>
        <time>2023-07-01T08:42:49Z</time>
      </trkpt>
      <trkpt lat="43.7236" lon="-0.139">
        <ele>132.4</ele>
        <time>2023-07-01T08:42:51Z</time>
      </trkpt>
      <trkpt lat="43.72367" lon="-0.13897">
        <ele>132.8</ele>
        <time>2023-07-01T08:42:58Z</time>
      </trkpt>
      <trkpt lat="43.72369" lon="-0.13896">
        <ele>133</ele>
        <time>2023-07-01T08:43:00Z</time>
      </trkpt>
      <trkpt lat="43.72376" lon="-0.13892">
        <ele>133.2</ele>
        <time>2023-07-01T08:43:07Z</time>
      </trkpt>
      <trkpt lat="43.72383" lon="-0.13888">
        <ele>133.4</ele>
        <time>2023-07-01T08:43:12Z</time>
      </trkpt>
      <trkpt lat="43.72388" lon="-0.13886">
        <ele>133.2</ele>
        <time>2023-07-01T08:43:16Z</time>
      </trkpt>
      <trkpt lat="43.72396" lon="-0.13886">
        <ele>133.8</ele>
        <time>2023-07-01T08:43:23Z</time>
      </trkpt>
      <trkpt lat="43.72396" lon="-0.13886">
        <ele>134</ele>
        <time>2023-07-01T08:43:24Z</time>
      </trkpt>
      <trkpt lat="43.72401" lon="-0.13884">
        <ele>134</ele>
        <time>2023-07-01T08:43:29Z</time>
      </trkpt>
      <trkpt lat="43.7241" lon="-0.13881">
        <ele>134</ele>
        <time>2023-07-01T08:43:35Z</time>
      </trkpt>
      <trkpt lat="43.72413" lon="-0.1388">
        <ele>134.2</ele>
        <time>2023-07-01T08:43:37Z</time>
      </trkpt>
      <trkpt lat="43.72415" lon="-0.13879">
        <ele>134.2</ele>
        <time>2023-07-01T08:43:38Z</time>
      </trkpt>
      <trkpt lat="43.72418" lon="-0.13877">
        <ele>134.6</ele>
        <time>2023-07-01T08:43:41Z</time>
      </trkpt>
      <trkpt lat="43.72422" lon="-0.13873">
        <ele>134.6</ele>
        <time>2023-07-01T08:43:44Z</time>
      </trkpt>
      <trkpt lat="43.72424" lon="-0.13871">
        <ele>134.8</ele>
        <time>2023-07-01T08:43:46Z</time>
      </trkpt>
      <trkpt lat="43.72428" lon="-0.13868">
        <ele>135.2</ele>
        <time>2023-07-01T08:43:49Z</time>
      </trkpt>
      <trkpt lat="43.7243" lon="-0.13866">
        <ele>135.2</ele>
        <time>2023-07-01T08:43:52Z</time>
      </trkpt>
      <trkpt lat="43.72431" lon="-0.13866">
        <ele>135.2</ele>
        <time>2023-07-01T08:43:54Z</time>
      </trkpt>
      <trkpt lat="43.72432" lon="-0.13865">
        <ele>135.2</ele>
        <time>2023-07-01T08:43:56Z</time>
      </trkpt>
      <trkpt lat="43.72434" lon="-0.13863">
        <ele>135.4</ele>
        <time>2023-07-01T08:43:58Z</time>
      </trkpt>
      <trkpt lat="43.72441" lon="-0.13853">
        <ele>136</ele>
        <time>2023-07-01T08:44:05Z</time>
      </trkpt>
      <trkpt lat="43.72442" lon="-0.13851">
        <ele>136.2</ele>
        <time>2023-07-01T08:44:06Z</time>
      </trkpt>
      <trkpt lat="43.72447" lon="-0.13847">
        <ele>136.6</ele>
        <time>2023-07-01T08:44:12Z</time>
      </trkpt>
      <trkpt lat="43.72448" lon="-0.13846">
        <ele>136.8</ele>
        <time>2023-07-01T08:44:13Z</time>
      </trkpt>
      <trkpt lat="43.72457" lon="-0.13843">
        <ele>137</ele>
        <time>2023-07-01T08:44:20Z</time>
      </trkpt>
      <trkpt lat="43.72462" lon="-0.13842">
        <ele>137.2</ele>
        <time>2023-07-01T08:44:25Z</time>
      </trkpt>
      <trkpt lat="43.72464" lon="-0.13842">
        <ele>137.4</ele>
        <time>2023-07-01T08:44:27Z</time>
      </trkpt>
      <trkpt lat="43.72474" lon="-0.13842">
        <ele>138</ele>
        <time>2023-07-01T08:44:34Z</time>
      </trkpt>
      <trkpt lat="43.72485" lon="-0.13838">
        <ele>138</ele>
        <time>2023-07-01T08:44:42Z</time>
      </trkpt>
      <trkpt lat="43.72489" lon="-0.13838">
        <ele>138</ele>
        <time>2023-07-01T08:44:46Z</time>
      </trkpt>
      <trkpt lat="43.72492" lon="-0.13838">
        <ele>138</ele>
        <time>2023-07-01T08:44:48Z</time>
      </trkpt>
      <trkpt lat="43.72495" lon="-0.13838">
        <ele>138</ele>
        <time>2023-07-01T08:44:51Z</time>
      </trkpt>
      <trkpt lat="43.72498" lon="-0.13837">
        <ele>138.2</ele>
        <time>2023-07-01T08:44:53Z</time>
      </trkpt>
      <trkpt lat="43.72502" lon="-0.13836">
        <ele>138.2</ele>
        <time>2023-07-01T08:44:56Z</time>
      </trkpt>
      <trkpt lat="43.72506" lon="-0.13836">
        <ele>138.4</ele>
        <time>2023-07-01T08:44:59Z</time>
      </trkpt>
      <trkpt lat="43.72512" lon="-0.13835">
        <ele>138.8</ele>
        <time>2023-07-01T08:45:03Z</time>
      </trkpt>
      <trkpt lat="43.72523" lon="-0.13833">
        <ele>139.4</ele>
        <time>2023-07-01T08:45:12Z</time>
      </trkpt>
      <trkpt lat="43.72525" lon="-0.13833">
        <ele>139.4</ele>
        <time>2023-07-01T08:45:13Z</time>
      </trkpt>
      <trkpt lat="43.72532" lon="-0.1383">
        <ele>139.6</ele>
        <time>2023-07-01T08:45:20Z</time>
      </trkpt>
      <trkpt lat="43.72541" lon="-0.13827">
        <ele>139.8</ele>
        <time>2023-07-01T08:45:27Z</time>
      </trkpt>
      <trkpt lat="43.72542" lon="-0.13826">
        <ele>140</ele>
        <time>2023-07-01T08:45:28Z</time>
      </trkpt>
      <trkpt lat="43.72547" lon="-0.13825">
        <ele>140.2</ele>
        <time>2023-07-01T08:45:32Z</time>
      </trkpt>
      <trkpt lat="43.72549" lon="-0.13824">
        <ele>140.4</ele>
        <time>2023-07-01T08:45:34Z</time>
      </trkpt>
      <trkpt lat="43.72556" lon="-0.13821">
        <ele>141</ele>
        <time>2023-07-01T08:45:40Z</time>
      </trkpt>
      <trkpt lat="43.7256" lon="-0.13819">
        <ele>141</ele>
        <time>2023-07-01T08:45:43Z</time>
      </trkpt>
      <trkpt lat="43.72566" lon="-0.13815">
        <ele>141</ele>
        <time>2023-07-01T08:45:48Z</time>
      </trkpt>
      <trkpt lat="43.72576" lon="-0.13809">
        <ele>141.2</ele>
        <time>2023-07-01T08:45:57Z</time>
      </trkpt>
      <trkpt lat="43.72585" lon="-0.13805">
        <ele>141.2</ele>
        <time>2023-07-01T08:46:04Z</time>
      </trkpt>
      <trkpt lat="43.72593" lon="-0.138">
        <ele>141.6</ele>
        <time>2023-07-01T08:46:11Z</time>
      </trkpt>
      <trkpt lat="43.72596" lon="-0.13798">
        <ele>141.4</ele>
        <time>2023-07-01T08:46:14Z</time>
      </trkpt>
      <trkpt lat="43.726" lon="-0.13795">
        <ele>141.4</ele>
        <time>2023-07-01T08:46:18Z</time>
      </trkpt>
      <trkpt lat="43.72604" lon="-0.13793">
        <ele>141.4</ele>
        <time>2023-07-01T08:46:21Z</time>
      </trkpt>
      <trkpt lat="43.72607" lon="-0.13792">
        <ele>141.4</ele>
        <time>2023-07-01T08:46:23Z</time>
      </trkpt>
      <trkpt lat="43.72608" lon="-0.13791">
        <ele>141.6</ele>
        <time>2023-07-01T08:46:24Z</time>
      </trkpt>
      <trkpt lat="43.72612" lon="-0.13788">
        <ele>141.6</ele>
        <time>2023-07-01T08:46:27Z</time>
      </trkpt>
      <trkpt lat="43.72617" lon="-0.13784">
        <ele>142</ele>
        <time>2023-07-01T08:46:32Z</time>
      </trkpt>
      <trkpt lat="43.72627" lon="-0.13776">
        <ele>142.4</ele>
        <time>2023-07-01T08:46:41Z</time>
      </trkpt>
      <trkpt lat="43.72628" lon="-0.13776">
        <ele>142.4</ele>
        <time>2023-07-01T08:46:42Z</time>
      </trkpt>
      <trkpt lat="43.7263" lon="-0.13775">
        <ele>142.4</ele>
        <time>2023-07-01T08:46:43Z</time>
      </trkpt>
      <trkpt lat="43.72635" lon="-0.13772">
        <ele>142.6</ele>
        <time>2023-07-01T08:46:47Z</time>
      </trkpt>
      <trkpt lat="43.7264" lon="-0.13769">
        <ele>143.2</ele>
        <time>2023-07-01T08:46:51Z</time>
      </trkpt>
      <trkpt lat="43.72643" lon="-0.13767">
        <ele>143.6</ele>
        <time>2023-07-01T08:46:54Z</time>
      </trkpt>
      <trkpt lat="43.72649" lon="-0.13763">
        <ele>144</ele>
        <time>2023-07-01T08:46:59Z</time>
      </trkpt>
      <trkpt lat="43.72654" lon="-0.13759">
        <ele>144.6</ele>
        <time>2023-07-01T08:47:05Z</time>
      </trkpt>
      <trkpt lat="43.72655" lon="-0.13758">
        <ele>144.8</ele>
        <time>2023-07-01T08:47:06Z</time>
      </trkpt>
      <trkpt lat="43.72658" lon="-0.13756">
        <ele>145</ele>
        <time>2023-07-01T08:47:09Z</time>
      </trkpt>
      <trkpt lat="43.72659" lon="-0.13756">
        <ele>145.2</ele>
        <time>2023-07-01T08:47:10Z</time>
      </trkpt>
      <trkpt lat="43.72662" lon="-0.13754">
        <ele>145.6</ele>
        <time>2023-07-01T08:47:13Z</time>
      </trkpt>
      <trkpt lat="43.72663" lon="-0.13753">
        <ele>145.6</ele>
        <time>2023-07-01T08:47:14Z</time>
      </trkpt>
      <trkpt lat="43.72664" lon="-0.13752">
        <ele>145.8</ele>
        <time>2023-07-01T08:47:15Z</time>
      </trkpt>
      <trkpt lat="43.72667" lon="-0.13749">
        <ele>146</ele>
        <time>2023-07-01T08:47:18Z</time>
      </trkpt>
      <trkpt lat="43.72676" lon="-0.13742">
        <ele>146.8</ele>
        <time>2023-07-01T08:47:26Z</time>
      </trkpt>
      <trkpt lat="43.72677" lon="-0.13741">
        <ele>147</ele>
        <time>2023-07-01T08:47:27Z</time>
      </trkpt>
      <trkpt lat="43.72687" lon="-0.13734">
        <ele>147.2</ele>
        <time>2023-07-01T08:47:36Z</time>
      </trkpt>
      <trkpt lat="43.72691" lon="-0.13731">
        <ele>147</ele>
        <time>2023-07-01T08:47:40Z</time>
      </trkpt>
      <trkpt lat="43.72694" lon="-0.13729">
        <ele>146.8</ele>
        <time>2023-07-01T08:47:43Z</time>
      </trkpt>
      <trkpt lat="43.727" lon="-0.13725">
        <ele>147.2</ele>
        <time>2023-07-01T08:47:49Z</time>
      </trkpt>
      <trkpt lat="43.72707" lon="-0.13719">
        <ele>147.4</ele>
        <time>2023-07-01T08:47:55Z</time>
      </trkpt>
      <trkpt lat="43.72716" lon="-0.13715">
        <ele>147.4</ele>
        <time>2023-07-01T08:48:02Z</time>
      </trkpt>
      <trkpt lat="43.72723" lon="-0.13715">
        <ele>147.2</ele>
        <time>2023-07-01T08:48:09Z</time>
      </trkpt>
      <trkpt lat="43.72729" lon="-0.13716">
        <ele>147.8</ele>
        <time>2023-07-01T08:48:15Z</time>
      </trkpt>
      <trkpt lat="43.7273" lon="-0.13716">
        <ele>148</ele>
        <time>2023-07-01T08:48:16Z</time>
      </trkpt>
      <trkpt lat="43.72733" lon="-0.13715">
        <ele>148.2</ele>
        <time>2023-07-01T08:48:18Z</time>
      </trkpt>
      <trkpt lat="43.72734" lon="-0.13715">
        <ele>148.2</ele>
        <time>2023-07-01T08:48:19Z</time>
      </trkpt>
      <trkpt lat="43.72735" lon="-0.13715">
        <ele>148.2</ele>
        <time>2023-07-01T08:48:20Z</time>
      </trkpt>
      <trkpt lat="43.72736" lon="-0.13715">
        <ele>148.2</ele>
        <time>2023-07-01T08:48:21Z</time>
      </trkpt>
      <trkpt lat="43.72742" lon="-0.13714">
        <ele>148.8</ele>
        <time>2023-07-01T08:48:36Z</time>
      </trkpt>
      <trkpt lat="43.72743" lon="-0.13714">
        <ele>148.8</ele>
        <time>2023-07-01T08:48:37Z</time>
      </trkpt>
      <trkpt lat="43.72748" lon="-0.13712">
        <ele>149</ele>
        <time>2023-07-01T08:48:41Z</time>
      </trkpt>
      <trkpt lat="43.72752" lon="-0.13712">
        <ele>149.8</ele>
        <time>2023-07-01T08:48:45Z</time>
      </trkpt>
      <trkpt lat="43.72754" lon="-0.13711">
        <ele>150.2</ele>
        <time>2023-07-01T08:48:46Z</time>
      </trkpt>
      <trkpt lat="43.72758" lon="-0.13706">
        <ele>150.6</ele>
        <time>2023-07-01T08:48:51Z</time>
      </trkpt>
      <trkpt lat="43.72758" lon="-0.13705">
        <ele>150.8</ele>
        <time>2023-07-01T08:48:52Z</time>
      </trkpt>
      <trkpt lat="43.72761" lon="-0.137">
        <ele>150.8</ele>
        <time>2023-07-01T08:48:57Z</time>
      </trkpt>
      <trkpt lat="43.72765" lon="-0.13694">
        <ele>151</ele>
        <time>2023-07-01T08:49:01Z</time>
      </trkpt>
      <trkpt lat="43.72765" lon="-0.13688">
        <ele>151.2</ele>
        <time>2023-07-01T08:49:04Z</time>
      </trkpt>
      <trkpt lat="43.72767" lon="-0.13678">
        <ele>150.8</ele>
        <time>2023-07-01T08:49:10Z</time>
      </trkpt>
      <trkpt lat="43.72768" lon="-0.13667">
        <ele>150.6</ele>
        <time>2023-07-01T08:49:16Z</time>
      </trkpt>
      <trkpt lat="43.72767" lon="-0.13664">
        <ele>150.6</ele>
        <time>2023-07-01T08:49:18Z</time>
      </trkpt>
      <trkpt lat="43.72767" lon="-0.13661">
        <ele>150.4</ele>
        <time>2023-07-01T08:49:20Z</time>
      </trkpt>
      <trkpt lat="43.72766" lon="-0.13657">
        <ele>150.4</ele>
        <time>2023-07-01T08:49:22Z</time>
      </trkpt>
      <trkpt lat="43.72766" lon="-0.13655">
        <ele>150.4</ele>
        <time>2023-07-01T08:49:23Z</time>
      </trkpt>
      <trkpt lat="43.72767" lon="-0.13651">
        <ele>150.4</ele>
        <time>2023-07-01T08:49:25Z</time>
      </trkpt>
      <trkpt lat="43.72767" lon="-0.13645">
        <ele>150.6</ele>
        <time>2023-07-01T08:49:28Z</time>
      </trkpt>
      <trkpt lat="43.72767" lon="-0.13642">
        <ele>150.6</ele>
        <time>2023-07-01T08:49:30Z</time>
      </trkpt>
      <trkpt lat="43.72768" lon="-0.13637">
        <ele>150.4</ele>
        <time>2023-07-01T08:49:33Z</time>
      </trkpt>
      <trkpt lat="43.72768" lon="-0.13634">
        <ele>150</ele>
        <time>2023-07-01T08:49:35Z</time>
      </trkpt>
      <trkpt lat="43.7277" lon="-0.13624">
        <ele>150</ele>
        <time>2023-07-01T08:49:41Z</time>
      </trkpt>
      <trkpt lat="43.72771" lon="-0.13617">
        <ele>150.2</ele>
        <time>2023-07-01T08:49:45Z</time>
      </trkpt>
      <trkpt lat="43.72771" lon="-0.13611">
        <ele>150</ele>
        <time>2023-07-01T08:49:48Z</time>
      </trkpt>
      <trkpt lat="43.72773" lon="-0.13607">
        <ele>149.8</ele>
        <time>2023-07-01T08:49:50Z</time>
      </trkpt>
      <trkpt lat="43.72773" lon="-0.13599">
        <ele>149.4</ele>
        <time>2023-07-01T08:49:55Z</time>
      </trkpt>
      <trkpt lat="43.72773" lon="-0.13587">
        <ele>149</ele>
        <time>2023-07-01T08:50:01Z</time>
      </trkpt>
      <trkpt lat="43.72773" lon="-0.13585">
        <ele>149</ele>
        <time>2023-07-01T08:50:02Z</time>
      </trkpt>
      <trkpt lat="43.72774" lon="-0.13582">
        <ele>148.8</ele>
        <time>2023-07-01T08:50:04Z</time>
      </trkpt>
      <trkpt lat="43.72775" lon="-0.13572">
        <ele>149.2</ele>
        <time>2023-07-01T08:50:09Z</time>
      </trkpt>
      <trkpt lat="43.72776" lon="-0.13566">
        <ele>149.2</ele>
        <time>2023-07-01T08:50:12Z</time>
      </trkpt>
      <trkpt lat="43.72777" lon="-0.1356">
        <ele>148.4</ele>
        <time>2023-07-01T08:50:16Z</time>
      </trkpt>
      <trkpt lat="43.72777" lon="-0.13557">
        <ele>148</ele>
        <time>2023-07-01T08:50:18Z</time>
      </trkpt>
      <trkpt lat="43.72778" lon="-0.13552">
        <ele>147.8</ele>
        <time>2023-07-01T08:50:21Z</time>
      </trkpt>
      <trkpt lat="43.72779" lon="-0.13549">
        <ele>147.6</ele>
        <time>2023-07-01T08:50:23Z</time>
      </trkpt>
      <trkpt lat="43.7278" lon="-0.13546">
        <ele>147.4</ele>
        <time>2023-07-01T08:50:25Z</time>
      </trkpt>
      <trkpt lat="43.72782" lon="-0.13542">
        <ele>146.8</ele>
        <time>2023-07-01T08:50:28Z</time>
      </trkpt>
      <trkpt lat="43.72785" lon="-0.13538">
        <ele>146.6</ele>
        <time>2023-07-01T08:50:32Z</time>
      </trkpt>
      <trkpt lat="43.72787" lon="-0.13536">
        <ele>146.2</ele>
        <time>2023-07-01T08:50:34Z</time>
      </trkpt>
      <trkpt lat="43.72789" lon="-0.13535">
        <ele>145.8</ele>
        <time>2023-07-01T08:50:36Z</time>
      </trkpt>
      <trkpt lat="43.72791" lon="-0.13533">
        <ele>145.6</ele>
        <time>2023-07-01T08:50:38Z</time>
      </trkpt>
      <trkpt lat="43.72792" lon="-0.13532">
        <ele>145.6</ele>
        <time>2023-07-01T08:50:39Z</time>
      </trkpt>
      <trkpt lat="43.72793" lon="-0.13531">
        <ele>145.4</ele>
        <time>2023-07-01T08:50:41Z</time>
      </trkpt>
      <trkpt lat="43.72799" lon="-0.13524">
        <ele>145</ele>
        <time>2023-07-01T08:50:47Z</time>
      </trkpt>
      <trkpt lat="43.72802" lon="-0.13521">
        <ele>144.6</ele>
        <time>2023-07-01T08:50:50Z</time>
      </trkpt>
      <trkpt lat="43.72804" lon="-0.13516">
        <ele>144.4</ele>
        <time>2023-07-01T08:50:53Z</time>
      </trkpt>
      <trkpt lat="43.72811" lon="-0.13498">
        <ele>144</ele>
        <time>2023-07-01T08:51:01Z</time>
      </trkpt>
      <trkpt lat="43.72813" lon="-0.13483">
        <ele>143.6</ele>
        <time>2023-07-01T08:51:08Z</time>
      </trkpt>
      <trkpt lat="43.72816" lon="-0.13475">
        <ele>143.6</ele>
        <time>2023-07-01T08:51:12Z</time>
      </trkpt>
      <trkpt lat="43.72818" lon="-0.1347">
        <ele>143.6</ele>
        <time>2023-07-01T08:51:15Z</time>
      </trkpt>
      <trkpt lat="43.7282" lon="-0.13457">
        <ele>143.2</ele>
        <time>2023-07-01T08:51:22Z</time>
      </trkpt>
      <trkpt lat="43.72822" lon="-0.13449">
        <ele>142.8</ele>
        <time>2023-07-01T08:51:28Z</time>
      </trkpt>
      <trkpt lat="43.72823" lon="-0.13442">
        <ele>143</ele>
        <time>2023-07-01T08:51:32Z</time>
      </trkpt>
      <trkpt lat="43.72824" lon="-0.13435">
        <ele>143.2</ele>
        <time>2023-07-01T08:51:36Z</time>
      </trkpt>
      <trkpt lat="43.72827" lon="-0.13426">
        <ele>143.2</ele>
        <time>2023-07-01T08:51:40Z</time>
      </trkpt>
      <trkpt lat="43.72827" lon="-0.13424">
        <ele>143.2</ele>
        <time>2023-07-01T08:51:41Z</time>
      </trkpt>
      <trkpt lat="43.72828" lon="-0.13422">
        <ele>143.2</ele>
        <time>2023-07-01T08:51:42Z</time>
      </trkpt>
      <trkpt lat="43.72828" lon="-0.13418">
        <ele>143</ele>
        <time>2023-07-01T08:51:44Z</time>
      </trkpt>
      <trkpt lat="43.7283" lon="-0.13408">
        <ele>142.8</ele>
        <time>2023-07-01T08:51:49Z</time>
      </trkpt>
      <trkpt lat="43.7283" lon="-0.13404">
        <ele>143</ele>
        <time>2023-07-01T08:51:52Z</time>
      </trkpt>
      <trkpt lat="43.72831" lon="-0.13398">
        <ele>143</ele>
        <time>2023-07-01T08:51:55Z</time>
      </trkpt>
      <trkpt lat="43.72831" lon="-0.13397">
        <ele>143</ele>
        <time>2023-07-01T08:51:56Z</time>
      </trkpt>
      <trkpt lat="43.72829" lon="-0.13375">
        <ele>145.4</ele>
        <time>2023-07-01T09:36:42Z</time>
      </trkpt>
      <trkpt lat="43.72828" lon="-0.13378">
        <ele>145.4</ele>
        <time>2023-07-01T09:36:43Z</time>
      </trkpt>
      <trkpt lat="43.72829" lon="-0.13372">
        <ele>145.4</ele>
        <time>2023-07-01T09:36:46Z</time>
      </trkpt>
      <trkpt lat="43.7283" lon="-0.13366">
        <ele>145.4</ele>
        <time>2023-07-01T09:36:48Z</time>
      </trkpt>
      <trkpt lat="43.7283" lon="-0.13362">
        <ele>145.6</ele>
        <time>2023-07-01T09:36:50Z</time>
      </trkpt>
      <trkpt lat="43.72831" lon="-0.13355">
        <ele>145.6</ele>
        <time>2023-07-01T09:36:53Z</time>
      </trkpt>
      <trkpt lat="43.72832" lon="-0.13345">
        <ele>145</ele>
        <time>2023-07-01T09:36:59Z</time>
      </trkpt>
      <trkpt lat="43.72832" lon="-0.13343">
        <ele>145.2</ele>
        <time>2023-07-01T09:37:00Z</time>
      </trkpt>
      <trkpt lat="43.72836" lon="-0.13333">
        <ele>145.4</ele>
        <time>2023-07-01T09:37:06Z</time>
      </trkpt>
      <trkpt lat="43.72837" lon="-0.13327">
        <ele>145.4</ele>
        <time>2023-07-01T09:37:09Z</time>
      </trkpt>
      <trkpt lat="43.72837" lon="-0.13326">
        <ele>145</ele>
        <time>2023-07-01T09:37:10Z</time>
      </trkpt>
      <trkpt lat="43.72838" lon="-0.13322">
        <ele>144.8</ele>
        <time>2023-07-01T09:37:12Z</time>
      </trkpt>
      <trkpt lat="43.72838" lon="-0.1332">
        <ele>144.6</ele>
        <time>2023-07-01T09:37:13Z</time>
      </trkpt>
      <trkpt lat="43.72839" lon="-0.13319">
        <ele>144.6</ele>
        <time>2023-07-01T09:37:14Z</time>
      </trkpt>
      <trkpt lat="43.72839" lon="-0.13317">
        <ele>144.6</ele>
        <time>2023-07-01T09:37:15Z</time>
      </trkpt>
      <trkpt lat="43.7284" lon="-0.13307">
        <ele>144.6</ele>
        <time>2023-07-01T09:37:21Z</time>
      </trkpt>
      <trkpt lat="43.7284" lon="-0.13303">
        <ele>144.6</ele>
        <time>2023-07-01T09:37:23Z</time>
      </trkpt>
      <trkpt lat="43.72841" lon="-0.13287">
        <ele>144.6</ele>
        <time>2023-07-01T09:37:31Z</time>
      </trkpt>
      <trkpt lat="43.72841" lon="-0.13284">
        <ele>144.6</ele>
        <time>2023-07-01T09:37:33Z</time>
      </trkpt>
      <trkpt lat="43.72842" lon="-0.13273">
        <ele>144.4</ele>
        <time>2023-07-01T09:37:39Z</time>
      </trkpt>
      <trkpt lat="43.72842" lon="-0.13268">
        <ele>144.4</ele>
        <time>2023-07-01T09:37:42Z</time>
      </trkpt>
      <trkpt lat="43.7284" lon="-0.13254">
        <ele>144.4</ele>
        <time>2023-07-01T09:37:49Z</time>
      </trkpt>
      <trkpt lat="43.7284" lon="-0.13253">
        <ele>144.4</ele>
        <time>2023-07-01T09:37:50Z</time>
      </trkpt>
      <trkpt lat="43.72841" lon="-0.13239">
        <ele>144</ele>
        <time>2023-07-01T09:37:58Z</time>
      </trkpt>
      <trkpt lat="43.7284" lon="-0.13223">
        <ele>144.2</ele>
        <time>2023-07-01T09:38:06Z</time>
      </trkpt>
      <trkpt lat="43.72841" lon="-0.13213">
        <ele>144.8</ele>
        <time>2023-07-01T09:38:12Z</time>
      </trkpt>
      <trkpt lat="43.72842" lon="-0.13201">
        <ele>144.6</ele>
        <time>2023-07-01T09:38:18Z</time>
      </trkpt>
      <trkpt lat="43.72842" lon="-0.13196">
        <ele>144.6</ele>
        <time>2023-07-01T09:38:21Z</time>
      </trkpt>
      <trkpt lat="43.72843" lon="-0.13186">
        <ele>144.6</ele>
        <time>2023-07-01T09:38:27Z</time>
      </trkpt>
      <trkpt lat="43.72843" lon="-0.1318">
        <ele>144.8</ele>
        <time>2023-07-01T09:38:31Z</time>
      </trkpt>
      <trkpt lat="43.72844" lon="-0.13178">
        <ele>144.8</ele>
        <time>2023-07-01T09:38:32Z</time>
      </trkpt>
      <trkpt lat="43.72843" lon="-0.13172">
        <ele>144.8</ele>
        <time>2023-07-01T09:38:35Z</time>
      </trkpt>
      <trkpt lat="43.72842" lon="-0.13163">
        <ele>145</ele>
        <time>2023-07-01T09:38:40Z</time>
      </trkpt>
      <trkpt lat="43.72843" lon="-0.13148">
        <ele>145.4</ele>
        <time>2023-07-01T09:38:48Z</time>
      </trkpt>
      <trkpt lat="43.72844" lon="-0.13138">
        <ele>145.2</ele>
        <time>2023-07-01T09:38:54Z</time>
      </trkpt>
      <trkpt lat="43.72844" lon="-0.13129">
        <ele>145.6</ele>
        <time>2023-07-01T09:38:59Z</time>
      </trkpt>
      <trkpt lat="43.72844" lon="-0.1312">
        <ele>145.4</ele>
        <time>2023-07-01T09:39:04Z</time>
      </trkpt>
      <trkpt lat="43.72844" lon="-0.13107">
        <ele>145.8</ele>
        <time>2023-07-01T09:39:11Z</time>
      </trkpt>
      <trkpt lat="43.72843" lon="-0.13096">
        <ele>146.2</ele>
        <time>2023-07-01T09:39:17Z</time>
      </trkpt>
      <trkpt lat="43.72843" lon="-0.13092">
        <ele>146.2</ele>
        <time>2023-07-01T09:39:19Z</time>
      </trkpt>
      <trkpt lat="43.72843" lon="-0.1309">
        <ele>146</ele>
        <time>2023-07-01T09:39:20Z</time>
      </trkpt>
      <trkpt lat="43.72843" lon="-0.13085">
        <ele>146</ele>
        <time>2023-07-01T09:39:23Z</time>
      </trkpt>
      <trkpt lat="43.72844" lon="-0.13078">
        <ele>146.2</ele>
        <time>2023-07-01T09:39:27Z</time>
      </trkpt>
      <trkpt lat="43.72844" lon="-0.13076">
        <ele>146.2</ele>
        <time>2023-07-01T09:39:28Z</time>
      </trkpt>
      <trkpt lat="43.72844" lon="-0.13072">
        <ele>146.4</ele>
        <time>2023-07-01T09:39:30Z</time>
      </trkpt>
      <trkpt lat="43.72844" lon="-0.13069">
        <ele>146.6</ele>
        <time>2023-07-01T09:39:32Z</time>
      </trkpt>
      <trkpt lat="43.72844" lon="-0.13062">
        <ele>146.8</ele>
        <time>2023-07-01T09:39:36Z</time>
      </trkpt>
      <trkpt lat="43.72844" lon="-0.1306">
        <ele>146.8</ele>
        <time>2023-07-01T09:39:37Z</time>
      </trkpt>
      <trkpt lat="43.72844" lon="-0.13058">
        <ele>146.8</ele>
        <time>2023-07-01T09:39:38Z</time>
      </trkpt>
      <trkpt lat="43.72847" lon="-0.13048">
        <ele>147</ele>
        <time>2023-07-01T09:39:44Z</time>
      </trkpt>
      <trkpt lat="43.72847" lon="-0.13047">
        <ele>147</ele>
        <time>2023-07-01T09:39:45Z</time>
      </trkpt>
      <trkpt lat="43.72849" lon="-0.13036">
        <ele>147</ele>
        <time>2023-07-01T09:39:51Z</time>
      </trkpt>
      <trkpt lat="43.7285" lon="-0.13032">
        <ele>147</ele>
        <time>2023-07-01T09:39:53Z</time>
      </trkpt>
      <trkpt lat="43.72849" lon="-0.13014">
        <ele>147</ele>
        <time>2023-07-01T09:40:03Z</time>
      </trkpt>
      <trkpt lat="43.72849" lon="-0.1301">
        <ele>147</ele>
        <time>2023-07-01T09:40:05Z</time>
      </trkpt>
      <trkpt lat="43.7285" lon="-0.12998">
        <ele>146.2</ele>
        <time>2023-07-01T09:40:12Z</time>
      </trkpt>
      <trkpt lat="43.72851" lon="-0.12996">
        <ele>146.2</ele>
        <time>2023-07-01T09:40:13Z</time>
      </trkpt>
      <trkpt lat="43.72854" lon="-0.12981">
        <ele>146.2</ele>
        <time>2023-07-01T09:40:21Z</time>
      </trkpt>
      <trkpt lat="43.72855" lon="-0.12968">
        <ele>145.8</ele>
        <time>2023-07-01T09:40:28Z</time>
      </trkpt>
      <trkpt lat="43.72855" lon="-0.12966">
        <ele>145.6</ele>
        <time>2023-07-01T09:40:29Z</time>
      </trkpt>
      <trkpt lat="43.72855" lon="-0.12964">
        <ele>145.6</ele>
        <time>2023-07-01T09:40:30Z</time>
      </trkpt>
      <trkpt lat="43.72855" lon="-0.12955">
        <ele>144.4</ele>
        <time>2023-07-01T09:40:35Z</time>
      </trkpt>
      <trkpt lat="43.72856" lon="-0.1295">
        <ele>144.2</ele>
        <time>2023-07-01T09:40:38Z</time>
      </trkpt>
      <trkpt lat="43.72856" lon="-0.12942">
        <ele>143.8</ele>
        <time>2023-07-01T09:40:42Z</time>
      </trkpt>
      <trkpt lat="43.72856" lon="-0.12937">
        <ele>143.2</ele>
        <time>2023-07-01T09:40:45Z</time>
      </trkpt>
      <trkpt lat="43.72857" lon="-0.1293">
        <ele>142.6</ele>
        <time>2023-07-01T09:40:49Z</time>
      </trkpt>
      <trkpt lat="43.72857" lon="-0.12925">
        <ele>142</ele>
        <time>2023-07-01T09:40:52Z</time>
      </trkpt>
      <trkpt lat="43.72857" lon="-0.12923">
        <ele>142</ele>
        <time>2023-07-01T09:40:53Z</time>
      </trkpt>
      <trkpt lat="43.72857" lon="-0.12921">
        <ele>141.8</ele>
        <time>2023-07-01T09:40:55Z</time>
      </trkpt>
      <trkpt lat="43.72858" lon="-0.12916">
        <ele>141.6</ele>
        <time>2023-07-01T09:40:58Z</time>
      </trkpt>
      <trkpt lat="43.72858" lon="-0.12915">
        <ele>141.4</ele>
        <time>2023-07-01T09:40:59Z</time>
      </trkpt>
      <trkpt lat="43.72862" lon="-0.12913">
        <ele>140.8</ele>
        <time>2023-07-01T09:41:02Z</time>
      </trkpt>
      <trkpt lat="43.72864" lon="-0.12912">
        <ele>140.6</ele>
        <time>2023-07-01T09:41:04Z</time>
      </trkpt>
      <trkpt lat="43.72868" lon="-0.12915">
        <ele>140.2</ele>
        <time>2023-07-01T09:41:07Z</time>
      </trkpt>
      <trkpt lat="43.72872" lon="-0.12918">
        <ele>140</ele>
        <time>2023-07-01T09:41:10Z</time>
      </trkpt>
      <trkpt lat="43.72875" lon="-0.12921">
        <ele>139.6</ele>
        <time>2023-07-01T09:41:12Z</time>
      </trkpt>
      <trkpt lat="43.72879" lon="-0.12925">
        <ele>138.6</ele>
        <time>2023-07-01T09:41:16Z</time>
      </trkpt>
      <trkpt lat="43.72883" lon="-0.12931">
        <ele>137.8</ele>
        <time>2023-07-01T09:41:20Z</time>
      </trkpt>
      <trkpt lat="43.72887" lon="-0.12935">
        <ele>137.4</ele>
        <time>2023-07-01T09:41:23Z</time>
      </trkpt>
      <trkpt lat="43.72895" lon="-0.12942">
        <ele>136.4</ele>
        <time>2023-07-01T09:41:29Z</time>
      </trkpt>
      <trkpt lat="43.72896" lon="-0.12944">
        <ele>136.4</ele>
        <time>2023-07-01T09:41:30Z</time>
      </trkpt>
      <trkpt lat="43.72909" lon="-0.12954">
        <ele>135.2</ele>
        <time>2023-07-01T09:41:40Z</time>
      </trkpt>
      <trkpt lat="43.72911" lon="-0.12956">
        <ele>134.8</ele>
        <time>2023-07-01T09:41:42Z</time>
      </trkpt>
      <trkpt lat="43.72915" lon="-0.12959">
        <ele>134.4</ele>
        <time>2023-07-01T09:41:45Z</time>
      </trkpt>
      <trkpt lat="43.72916" lon="-0.1296">
        <ele>134.2</ele>
        <time>2023-07-01T09:41:46Z</time>
      </trkpt>
      <trkpt lat="43.72921" lon="-0.12963">
        <ele>133.8</ele>
        <time>2023-07-01T09:41:50Z</time>
      </trkpt>
      <trkpt lat="43.72928" lon="-0.12967">
        <ele>133.2</ele>
        <time>2023-07-01T09:41:56Z</time>
      </trkpt>
      <trkpt lat="43.7293" lon="-0.12967">
        <ele>133</ele>
        <time>2023-07-01T09:41:57Z</time>
      </trkpt>
      <trkpt lat="43.72939" lon="-0.12971">
        <ele>132.2</ele>
        <time>2023-07-01T09:42:05Z</time>
      </trkpt>
      <trkpt lat="43.72942" lon="-0.12969">
        <ele>132.2</ele>
        <time>2023-07-01T09:42:08Z</time>
      </trkpt>
      <trkpt lat="43.72943" lon="-0.12968">
        <ele>132.2</ele>
        <time>2023-07-01T09:42:09Z</time>
      </trkpt>
      <trkpt lat="43.72945" lon="-0.12963">
        <ele>131.8</ele>
        <time>2023-07-01T09:42:12Z</time>
      </trkpt>
      <trkpt lat="43.72948" lon="-0.12957">
        <ele>131.2</ele>
        <time>2023-07-01T09:42:16Z</time>
      </trkpt>
      <trkpt lat="43.7295" lon="-0.12953">
        <ele>131</ele>
        <time>2023-07-01T09:42:18Z</time>
      </trkpt>
      <trkpt lat="43.72952" lon="-0.12947">
        <ele>130.8</ele>
        <time>2023-07-01T09:42:22Z</time>
      </trkpt>
      <trkpt lat="43.72953" lon="-0.12944">
        <ele>130.8</ele>
        <time>2023-07-01T09:42:24Z</time>
      </trkpt>
      <trkpt lat="43.72957" lon="-0.12936">
        <ele>130.2</ele>
        <time>2023-07-01T09:42:29Z</time>
      </trkpt>
      <trkpt lat="43.72957" lon="-0.12934">
        <ele>130.2</ele>
        <time>2023-07-01T09:42:30Z</time>
      </trkpt>
      <trkpt lat="43.72958" lon="-0.12932">
        <ele>130</ele>
        <time>2023-07-01T09:42:31Z</time>
      </trkpt>
      <trkpt lat="43.72963" lon="-0.12921">
        <ele>130</ele>
        <time>2023-07-01T09:42:38Z</time>
      </trkpt>
      <trkpt lat="43.72968" lon="-0.12907">
        <ele>130.4</ele>
        <time>2023-07-01T09:42:46Z</time>
      </trkpt>
      <trkpt lat="43.72973" lon="-0.12892">
        <ele>130.2</ele>
        <time>2023-07-01T09:42:55Z</time>
      </trkpt>
      <trkpt lat="43.72976" lon="-0.12884">
        <ele>130</ele>
        <time>2023-07-01T09:43:01Z</time>
      </trkpt>
      <trkpt lat="43.72978" lon="-0.12881">
        <ele>130</ele>
        <time>2023-07-01T09:43:03Z</time>
      </trkpt>
      <trkpt lat="43.72979" lon="-0.12878">
        <ele>130</ele>
        <time>2023-07-01T09:43:05Z</time>
      </trkpt>
      <trkpt lat="43.72984" lon="-0.12871">
        <ele>129.8</ele>
        <time>2023-07-01T09:43:10Z</time>
      </trkpt>
      <trkpt lat="43.72985" lon="-0.12867">
        <ele>129.8</ele>
        <time>2023-07-01T09:43:12Z</time>
      </trkpt>
      <trkpt lat="43.72987" lon="-0.12861">
        <ele>129.8</ele>
        <time>2023-07-01T09:43:16Z</time>
      </trkpt>
      <trkpt lat="43.72988" lon="-0.12859">
        <ele>130</ele>
        <time>2023-07-01T09:43:18Z</time>
      </trkpt>
      <trkpt lat="43.72993" lon="-0.12846">
        <ele>130</ele>
        <time>2023-07-01T09:43:26Z</time>
      </trkpt>
      <trkpt lat="43.72994" lon="-0.12841">
        <ele>130</ele>
        <time>2023-07-01T09:43:30Z</time>
      </trkpt>
      <trkpt lat="43.72995" lon="-0.12836">
        <ele>130</ele>
        <time>2023-07-01T09:43:33Z</time>
      </trkpt>
      <trkpt lat="43.72997" lon="-0.12831">
        <ele>130</ele>
        <time>2023-07-01T09:43:36Z</time>
      </trkpt>
      <trkpt lat="43.72999" lon="-0.12827">
        <ele>130</ele>
        <time>2023-07-01T09:43:39Z</time>
      </trkpt>
      <trkpt lat="43.73003" lon="-0.12819">
        <ele>130</ele>
        <time>2023-07-01T09:43:44Z</time>
      </trkpt>
      <trkpt lat="43.73006" lon="-0.12813">
        <ele>130.2</ele>
        <time>2023-07-01T09:43:48Z</time>
      </trkpt>
      <trkpt lat="43.73009" lon="-0.12808">
        <ele>130.2</ele>
        <time>2023-07-01T09:43:52Z</time>
      </trkpt>
      <trkpt lat="43.73012" lon="-0.12801">
        <ele>129.8</ele>
        <time>2023-07-01T09:43:57Z</time>
      </trkpt>
      <trkpt lat="43.73013" lon="-0.12797">
        <ele>129.8</ele>
        <time>2023-07-01T09:43:59Z</time>
      </trkpt>
      <trkpt lat="43.73015" lon="-0.12793">
        <ele>130</ele>
        <time>2023-07-01T09:44:02Z</time>
      </trkpt>
      <trkpt lat="43.73019" lon="-0.12782">
        <ele>130.6</ele>
        <time>2023-07-01T09:44:09Z</time>
      </trkpt>
      <trkpt lat="43.73023" lon="-0.1277">
        <ele>131</ele>
        <time>2023-07-01T09:44:17Z</time>
      </trkpt>
      <trkpt lat="43.73024" lon="-0.12766">
        <ele>131</ele>
        <time>2023-07-01T09:44:19Z</time>
      </trkpt>
      <trkpt lat="43.73028" lon="-0.12757">
        <ele>131.8</ele>
        <time>2023-07-01T09:44:25Z</time>
      </trkpt>
      <trkpt lat="43.73029" lon="-0.12756">
        <ele>131.8</ele>
        <time>2023-07-01T09:44:26Z</time>
      </trkpt>
      <trkpt lat="43.7303" lon="-0.12751">
        <ele>131.8</ele>
        <time>2023-07-01T09:44:29Z</time>
      </trkpt>
      <trkpt lat="43.73032" lon="-0.12744">
        <ele>131.4</ele>
        <time>2023-07-01T09:44:34Z</time>
      </trkpt>
      <trkpt lat="43.73033" lon="-0.12742">
        <ele>131.2</ele>
        <time>2023-07-01T09:44:35Z</time>
      </trkpt>
      <trkpt lat="43.73039" lon="-0.12727">
        <ele>130.6</ele>
        <time>2023-07-01T09:44:45Z</time>
      </trkpt>
      <trkpt lat="43.73043" lon="-0.12716">
        <ele>130.2</ele>
        <time>2023-07-01T09:44:52Z</time>
      </trkpt>
      <trkpt lat="43.73043" lon="-0.12715">
        <ele>130.2</ele>
        <time>2023-07-01T09:44:53Z</time>
      </trkpt>
      <trkpt lat="43.73046" lon="-0.12707">
        <ele>130.6</ele>
        <time>2023-07-01T09:44:58Z</time>
      </trkpt>
      <trkpt lat="43.73047" lon="-0.12706">
        <ele>130.6</ele>
        <time>2023-07-01T09:44:59Z</time>
      </trkpt>
      <trkpt lat="43.73052" lon="-0.12694">
        <ele>130</ele>
        <time>2023-07-01T09:45:06Z</time>
      </trkpt>
      <trkpt lat="43.73058" lon="-0.12681">
        <ele>129.6</ele>
        <time>2023-07-01T09:45:15Z</time>
      </trkpt>
      <trkpt lat="43.7306" lon="-0.12677">
        <ele>129.6</ele>
        <time>2023-07-01T09:45:18Z</time>
      </trkpt>
      <trkpt lat="43.7306" lon="-0.12676">
        <ele>129.6</ele>
        <time>2023-07-01T09:45:19Z</time>
      </trkpt>
      <trkpt lat="43.73063" lon="-0.12669">
        <ele>129.4</ele>
        <time>2023-07-01T09:45:23Z</time>
      </trkpt>
      <trkpt lat="43.73065" lon="-0.12662">
        <ele>129.4</ele>
        <time>2023-07-01T09:45:27Z</time>
      </trkpt>
      <trkpt lat="43.73067" lon="-0.12656">
        <ele>129.2</ele>
        <time>2023-07-01T09:45:31Z</time>
      </trkpt>
      <trkpt lat="43.73069" lon="-0.12652">
        <ele>129</ele>
        <time>2023-07-01T09:45:34Z</time>
      </trkpt>
      <trkpt lat="43.73072" lon="-0.12645">
        <ele>129</ele>
        <time>2023-07-01T09:45:39Z</time>
      </trkpt>
      <trkpt lat="43.73072" lon="-0.12643">
        <ele>129.2</ele>
        <time>2023-07-01T09:45:40Z</time>
      </trkpt>
      <trkpt lat="43.73072" lon="-0.1264">
        <ele>129.4</ele>
        <time>2023-07-01T09:45:42Z</time>
      </trkpt>
      <trkpt lat="43.73074" lon="-0.12636">
        <ele>129.4</ele>
        <time>2023-07-01T09:45:45Z</time>
      </trkpt>
      <trkpt lat="43.73075" lon="-0.12633">
        <ele>129.2</ele>
        <time>2023-07-01T09:45:47Z</time>
      </trkpt>
      <trkpt lat="43.73077" lon="-0.12629">
        <ele>129</ele>
        <time>2023-07-01T09:45:49Z</time>
      </trkpt>
      <trkpt lat="43.73077" lon="-0.12628">
        <ele>129</ele>
        <time>2023-07-01T09:45:50Z</time>
      </trkpt>
      <trkpt lat="43.73078" lon="-0.12626">
        <ele>129</ele>
        <time>2023-07-01T09:45:51Z</time>
      </trkpt>
      <trkpt lat="43.73079" lon="-0.12624">
        <ele>129.2</ele>
        <time>2023-07-01T09:45:53Z</time>
      </trkpt>
      <trkpt lat="43.73083" lon="-0.12616">
        <ele>129.6</ele>
        <time>2023-07-01T09:45:58Z</time>
      </trkpt>
      <trkpt lat="43.73089" lon="-0.12609">
        <ele>130</ele>
        <time>2023-07-01T09:46:03Z</time>
      </trkpt>
      <trkpt lat="43.73092" lon="-0.12605">
        <ele>129.8</ele>
        <time>2023-07-01T09:46:06Z</time>
      </trkpt>
      <trkpt lat="43.73097" lon="-0.12597">
        <ele>130</ele>
        <time>2023-07-01T09:46:12Z</time>
      </trkpt>
      <trkpt lat="43.73103" lon="-0.12584">
        <ele>129.8</ele>
        <time>2023-07-01T09:46:20Z</time>
      </trkpt>
      <trkpt lat="43.73105" lon="-0.12577">
        <ele>129.8</ele>
        <time>2023-07-01T09:46:24Z</time>
      </trkpt>
      <trkpt lat="43.73107" lon="-0.12568">
        <ele>130</ele>
        <time>2023-07-01T09:46:30Z</time>
      </trkpt>
      <trkpt lat="43.73111" lon="-0.12556">
        <ele>130</ele>
        <time>2023-07-01T09:46:37Z</time>
      </trkpt>
      <trkpt lat="43.73111" lon="-0.12554">
        <ele>130</ele>
        <time>2023-07-01T09:46:38Z</time>
      </trkpt>
      <trkpt lat="43.73115" lon="-0.12543">
        <ele>129.6</ele>
        <time>2023-07-01T09:46:45Z</time>
      </trkpt>
      <trkpt lat="43.73117" lon="-0.12534">
        <ele>129.4</ele>
        <time>2023-07-01T09:46:50Z</time>
      </trkpt>
      <trkpt lat="43.7312" lon="-0.12528">
        <ele>129.4</ele>
        <time>2023-07-01T09:46:54Z</time>
      </trkpt>
      <trkpt lat="43.73125" lon="-0.12517">
        <ele>129</ele>
        <time>2023-07-01T09:47:01Z</time>
      </trkpt>
      <trkpt lat="43.73126" lon="-0.12516">
        <ele>129</ele>
        <time>2023-07-01T09:47:02Z</time>
      </trkpt>
      <trkpt lat="43.7313" lon="-0.12505">
        <ele>128.8</ele>
        <time>2023-07-01T09:47:09Z</time>
      </trkpt>
      <trkpt lat="43.7313" lon="-0.12503">
        <ele>128.8</ele>
        <time>2023-07-01T09:47:10Z</time>
      </trkpt>
      <trkpt lat="43.73137" lon="-0.1249">
        <ele>128</ele>
        <time>2023-07-01T09:47:19Z</time>
      </trkpt>
      <trkpt lat="43.73138" lon="-0.12488">
        <ele>127.8</ele>
        <time>2023-07-01T09:47:20Z</time>
      </trkpt>
      <trkpt lat="43.73142" lon="-0.12478">
        <ele>127.4</ele>
        <time>2023-07-01T09:47:26Z</time>
      </trkpt>
      <trkpt lat="43.73144" lon="-0.12471">
        <ele>127</ele>
        <time>2023-07-01T09:47:30Z</time>
      </trkpt>
      <trkpt lat="43.73145" lon="-0.12468">
        <ele>126.8</ele>
        <time>2023-07-01T09:47:32Z</time>
      </trkpt>
      <trkpt lat="43.73146" lon="-0.12466">
        <ele>126.8</ele>
        <time>2023-07-01T09:47:33Z</time>
      </trkpt>
      <trkpt lat="43.73148" lon="-0.12457">
        <ele>126.2</ele>
        <time>2023-07-01T09:47:39Z</time>
      </trkpt>
      <trkpt lat="43.73151" lon="-0.12449">
        <ele>125.6</ele>
        <time>2023-07-01T09:47:45Z</time>
      </trkpt>
      <trkpt lat="43.73152" lon="-0.12448">
        <ele>125.6</ele>
        <time>2023-07-01T09:47:46Z</time>
      </trkpt>
      <trkpt lat="43.73155" lon="-0.1244">
        <ele>125.4</ele>
        <time>2023-07-01T09:47:51Z</time>
      </trkpt>
      <trkpt lat="43.73156" lon="-0.12437">
        <ele>125.2</ele>
        <time>2023-07-01T09:47:53Z</time>
      </trkpt>
      <trkpt lat="43.73157" lon="-0.12436">
        <ele>125</ele>
        <time>2023-07-01T09:47:54Z</time>
      </trkpt>
      <trkpt lat="43.73161" lon="-0.12423">
        <ele>125</ele>
        <time>2023-07-01T09:48:02Z</time>
      </trkpt>
      <trkpt lat="43.73161" lon="-0.12419">
        <ele>124.6</ele>
        <time>2023-07-01T09:48:05Z</time>
      </trkpt>
      <trkpt lat="43.73161" lon="-0.12417">
        <ele>124.6</ele>
        <time>2023-07-01T09:48:06Z</time>
      </trkpt>
      <trkpt lat="43.73166" lon="-0.12413">
        <ele>124.4</ele>
        <time>2023-07-01T09:49:04Z</time>
      </trkpt>
      <trkpt lat="43.73165" lon="-0.12412">
        <ele>124.2</ele>
        <time>2023-07-01T09:49:05Z</time>
      </trkpt>
      <trkpt lat="43.73164" lon="-0.12411">
        <ele>124.4</ele>
        <time>2023-07-01T09:49:06Z</time>
      </trkpt>
      <trkpt lat="43.73159" lon="-0.12406">
        <ele>124.8</ele>
        <time>2023-07-01T09:49:12Z</time>
      </trkpt>
      <trkpt lat="43.73157" lon="-0.12403">
        <ele>124.8</ele>
        <time>2023-07-01T09:49:14Z</time>
      </trkpt>
      <trkpt lat="43.73147" lon="-0.12396">
        <ele>125</ele>
        <time>2023-07-01T09:49:21Z</time>
      </trkpt>
      <trkpt lat="43.73147" lon="-0.12395">
        <ele>125</ele>
        <time>2023-07-01T09:49:22Z</time>
      </trkpt>
      <trkpt lat="43.73143" lon="-0.12392">
        <ele>125</ele>
        <time>2023-07-01T09:49:26Z</time>
      </trkpt>
      <trkpt lat="43.73142" lon="-0.12391">
        <ele>125</ele>
        <time>2023-07-01T09:49:28Z</time>
      </trkpt>
      <trkpt lat="43.73135" lon="-0.12385">
        <ele>125.6</ele>
        <time>2023-07-01T09:49:34Z</time>
      </trkpt>
      <trkpt lat="43.73134" lon="-0.12385">
        <ele>125.6</ele>
        <time>2023-07-01T09:49:35Z</time>
      </trkpt>
      <trkpt lat="43.73129" lon="-0.12384">
        <ele>126</ele>
        <time>2023-07-01T09:49:39Z</time>
      </trkpt>
      <trkpt lat="43.73128" lon="-0.12383">
        <ele>126</ele>
        <time>2023-07-01T09:49:40Z</time>
      </trkpt>
      <trkpt lat="43.73127" lon="-0.12383">
        <ele>126.2</ele>
        <time>2023-07-01T09:49:41Z</time>
      </trkpt>
      <trkpt lat="43.73122" lon="-0.1238">
        <ele>126</ele>
        <time>2023-07-01T09:49:47Z</time>
      </trkpt>
      <trkpt lat="43.7312" lon="-0.12378">
        <ele>126.2</ele>
        <time>2023-07-01T09:49:48Z</time>
      </trkpt>
      <trkpt lat="43.73117" lon="-0.12375">
        <ele>126.6</ele>
        <time>2023-07-01T09:49:51Z</time>
      </trkpt>
      <trkpt lat="43.73116" lon="-0.12374">
        <ele>126.8</ele>
        <time>2023-07-01T09:49:52Z</time>
      </trkpt>
      <trkpt lat="43.73114" lon="-0.12372">
        <ele>127</ele>
        <time>2023-07-01T09:49:55Z</time>
      </trkpt>
      <trkpt lat="43.7311" lon="-0.12371">
        <ele>127</ele>
        <time>2023-07-01T09:49:58Z</time>
      </trkpt>
      <trkpt lat="43.73106" lon="-0.12368">
        <ele>127.2</ele>
        <time>2023-07-01T09:50:01Z</time>
      </trkpt>
      <trkpt lat="43.73105" lon="-0.12367">
        <ele>127.2</ele>
        <time>2023-07-01T09:50:02Z</time>
      </trkpt>
      <trkpt lat="43.73101" lon="-0.12362">
        <ele>127.6</ele>
        <time>2023-07-01T09:50:07Z</time>
      </trkpt>
      <trkpt lat="43.731" lon="-0.1236">
        <ele>127.8</ele>
        <time>2023-07-01T09:50:08Z</time>
      </trkpt>
      <trkpt lat="43.73099" lon="-0.12358">
        <ele>127.8</ele>
        <time>2023-07-01T09:50:09Z</time>
      </trkpt>
      <trkpt lat="43.73099" lon="-0.12355">
        <ele>127.8</ele>
        <time>2023-07-01T09:50:10Z</time>
      </trkpt>
      <trkpt lat="43.73099" lon="-0.12346">
        <ele>128.2</ele>
        <time>2023-07-01T09:50:15Z</time>
      </trkpt>
      <trkpt lat="43.73099" lon="-0.12341">
        <ele>128.4</ele>
        <time>2023-07-01T09:50:18Z</time>
      </trkpt>
      <trkpt lat="43.73101" lon="-0.12335">
        <ele>128.4</ele>
        <time>2023-07-01T09:50:22Z</time>
      </trkpt>
      <trkpt lat="43.73102" lon="-0.12331">
        <ele>128.2</ele>
        <time>2023-07-01T09:50:25Z</time>
      </trkpt>
      <trkpt lat="43.73105" lon="-0.1232">
        <ele>128.2</ele>
        <time>2023-07-01T09:50:31Z</time>
      </trkpt>
      <trkpt lat="43.73106" lon="-0.12317">
        <ele>128.2</ele>
        <time>2023-07-01T09:50:32Z</time>
      </trkpt>
      <trkpt lat="43.73109" lon="-0.12309">
        <ele>127.8</ele>
        <time>2023-07-01T09:50:36Z</time>
      </trkpt>
      <trkpt lat="43.7311" lon="-0.12307">
        <ele>127.8</ele>
        <time>2023-07-01T09:50:37Z</time>
      </trkpt>
      <trkpt lat="43.73111" lon="-0.12301">
        <ele>127.8</ele>
        <time>2023-07-01T09:50:40Z</time>
      </trkpt>
      <trkpt lat="43.73112" lon="-0.123">
        <ele>127.6</ele>
        <time>2023-07-01T09:50:41Z</time>
      </trkpt>
      <trkpt lat="43.73113" lon="-0.12298">
        <ele>127.6</ele>
        <time>2023-07-01T09:50:42Z</time>
      </trkpt>
      <trkpt lat="43.73113" lon="-0.12297">
        <ele>127.8</ele>
        <time>2023-07-01T09:50:43Z</time>
      </trkpt>
      <trkpt lat="43.73113" lon="-0.12296">
        <ele>127.6</ele>
        <time>2023-07-01T09:50:44Z</time>
      </trkpt>
      <trkpt lat="43.73113" lon="-0.1229">
        <ele>127.6</ele>
        <time>2023-07-01T09:50:47Z</time>
      </trkpt>
      <trkpt lat="43.73113" lon="-0.12287">
        <ele>127.4</ele>
        <time>2023-07-01T09:50:49Z</time>
      </trkpt>
      <trkpt lat="43.73113" lon="-0.12284">
        <ele>127.4</ele>
        <time>2023-07-01T09:50:51Z</time>
      </trkpt>
      <trkpt lat="43.73114" lon="-0.1228">
        <ele>127.4</ele>
        <time>2023-07-01T09:50:53Z</time>
      </trkpt>
      <trkpt lat="43.73114" lon="-0.12275">
        <ele>127.2</ele>
        <time>2023-07-01T09:50:56Z</time>
      </trkpt>
      <trkpt lat="43.73115" lon="-0.12267">
        <ele>127.4</ele>
        <time>2023-07-01T09:51:00Z</time>
      </trkpt>
      <trkpt lat="43.73114" lon="-0.12261">
        <ele>127.4</ele>
        <time>2023-07-01T09:51:04Z</time>
      </trkpt>
      <trkpt lat="43.73114" lon="-0.12258">
        <ele>127.4</ele>
        <time>2023-07-01T09:51:06Z</time>
      </trkpt>
      <trkpt lat="43.73115" lon="-0.12249">
        <ele>127.4</ele>
        <time>2023-07-01T09:51:11Z</time>
      </trkpt>
      <trkpt lat="43.73116" lon="-0.12247">
        <ele>127.4</ele>
        <time>2023-07-01T09:51:12Z</time>
      </trkpt>
      <trkpt lat="43.73117" lon="-0.12244">
        <ele>127.2</ele>
        <time>2023-07-01T09:51:14Z</time>
      </trkpt>
      <trkpt lat="43.73118" lon="-0.12238">
        <ele>127.2</ele>
        <time>2023-07-01T09:51:18Z</time>
      </trkpt>
      <trkpt lat="43.7312" lon="-0.12234">
        <ele>127.4</ele>
        <time>2023-07-01T09:51:20Z</time>
      </trkpt>
      <trkpt lat="43.73122" lon="-0.12226">
        <ele>127.4</ele>
        <time>2023-07-01T09:51:24Z</time>
      </trkpt>
      <trkpt lat="43.73126" lon="-0.1222">
        <ele>127.2</ele>
        <time>2023-07-01T09:51:28Z</time>
      </trkpt>
      <trkpt lat="43.73129" lon="-0.12212">
        <ele>127.2</ele>
        <time>2023-07-01T09:51:34Z</time>
      </trkpt>
      <trkpt lat="43.73129" lon="-0.1221">
        <ele>127.2</ele>
        <time>2023-07-01T09:51:35Z</time>
      </trkpt>
      <trkpt lat="43.73132" lon="-0.12203">
        <ele>127</ele>
        <time>2023-07-01T09:51:40Z</time>
      </trkpt>
      <trkpt lat="43.73133" lon="-0.12201">
        <ele>127</ele>
        <time>2023-07-01T09:51:41Z</time>
      </trkpt>
      <trkpt lat="43.73135" lon="-0.12195">
        <ele>126.6</ele>
        <time>2023-07-01T09:51:45Z</time>
      </trkpt>
      <trkpt lat="43.73136" lon="-0.12192">
        <ele>126.4</ele>
        <time>2023-07-01T09:51:48Z</time>
      </trkpt>
      <trkpt lat="43.73141" lon="-0.12183">
        <ele>126.2</ele>
        <time>2023-07-01T09:51:56Z</time>
      </trkpt>
      <trkpt lat="43.73144" lon="-0.12176">
        <ele>126.6</ele>
        <time>2023-07-01T09:52:00Z</time>
      </trkpt>
      <trkpt lat="43.73145" lon="-0.12174">
        <ele>126.6</ele>
        <time>2023-07-01T09:52:01Z</time>
      </trkpt>
      <trkpt lat="43.73146" lon="-0.12171">
        <ele>126.8</ele>
        <time>2023-07-01T09:52:03Z</time>
      </trkpt>
      <trkpt lat="43.73147" lon="-0.12169">
        <ele>126.8</ele>
        <time>2023-07-01T09:52:04Z</time>
      </trkpt>
      <trkpt lat="43.73151" lon="-0.12164">
        <ele>126.8</ele>
        <time>2023-07-01T09:52:08Z</time>
      </trkpt>
      <trkpt lat="43.73152" lon="-0.12162">
        <ele>126.6</ele>
        <time>2023-07-01T09:52:09Z</time>
      </trkpt>
      <trkpt lat="43.73156" lon="-0.12153">
        <ele>127</ele>
        <time>2023-07-01T09:52:16Z</time>
      </trkpt>
      <trkpt lat="43.73161" lon="-0.1214">
        <ele>126.8</ele>
        <time>2023-07-01T09:52:23Z</time>
      </trkpt>
      <trkpt lat="43.73165" lon="-0.12135">
        <ele>126.8</ele>
        <time>2023-07-01T09:52:27Z</time>
      </trkpt>
      <trkpt lat="43.73166" lon="-0.12134">
        <ele>126.8</ele>
        <time>2023-07-01T09:52:28Z</time>
      </trkpt>
      <trkpt lat="43.73168" lon="-0.12133">
        <ele>126.8</ele>
        <time>2023-07-01T09:52:29Z</time>
      </trkpt>
      <trkpt lat="43.73171" lon="-0.12131">
        <ele>126.6</ele>
        <time>2023-07-01T09:52:32Z</time>
      </trkpt>
      <trkpt lat="43.73171" lon="-0.1213">
        <ele>126.6</ele>
        <time>2023-07-01T09:52:33Z</time>
      </trkpt>
      <trkpt lat="43.73172" lon="-0.12129">
        <ele>126.6</ele>
        <time>2023-07-01T09:52:34Z</time>
      </trkpt>
      <trkpt lat="43.73176" lon="-0.12129">
        <ele>126.8</ele>
        <time>2023-07-01T09:52:37Z</time>
      </trkpt>
      <trkpt lat="43.73178" lon="-0.12125">
        <ele>126.8</ele>
        <time>2023-07-01T09:52:40Z</time>
      </trkpt>
      <trkpt lat="43.73183" lon="-0.12117">
        <ele>126.6</ele>
        <time>2023-07-01T09:52:48Z</time>
      </trkpt>
      <trkpt lat="43.73187" lon="-0.12108">
        <ele>126.8</ele>
        <time>2023-07-01T09:52:54Z</time>
      </trkpt>
      <trkpt lat="43.73191" lon="-0.12102">
        <ele>127</ele>
        <time>2023-07-01T09:52:58Z</time>
      </trkpt>
      <trkpt lat="43.73192" lon="-0.121">
        <ele>127</ele>
        <time>2023-07-01T09:53:00Z</time>
      </trkpt>
      <trkpt lat="43.73196" lon="-0.12095">
        <ele>127</ele>
        <time>2023-07-01T09:53:03Z</time>
      </trkpt>
      <trkpt lat="43.73199" lon="-0.12091">
        <ele>126.8</ele>
        <time>2023-07-01T09:53:06Z</time>
      </trkpt>
      <trkpt lat="43.73202" lon="-0.12087">
        <ele>126.8</ele>
        <time>2023-07-01T09:53:09Z</time>
      </trkpt>
      <trkpt lat="43.73206" lon="-0.12082">
        <ele>126.8</ele>
        <time>2023-07-01T09:53:12Z</time>
      </trkpt>
      <trkpt lat="43.73206" lon="-0.12074">
        <ele>127</ele>
        <time>2023-07-01T09:53:16Z</time>
      </trkpt>
      <trkpt lat="43.73207" lon="-0.1207">
        <ele>127.2</ele>
        <time>2023-07-01T09:53:18Z</time>
      </trkpt>
      <trkpt lat="43.73211" lon="-0.12061">
        <ele>127.2</ele>
        <time>2023-07-01T09:53:23Z</time>
      </trkpt>
      <trkpt lat="43.73212" lon="-0.12058">
        <ele>127.2</ele>
        <time>2023-07-01T09:53:25Z</time>
      </trkpt>
      <trkpt lat="43.73214" lon="-0.1205">
        <ele>127.2</ele>
        <time>2023-07-01T09:53:30Z</time>
      </trkpt>
      <trkpt lat="43.73215" lon="-0.12049">
        <ele>127.2</ele>
        <time>2023-07-01T09:53:31Z</time>
      </trkpt>
      <trkpt lat="43.7322" lon="-0.12042">
        <ele>127</ele>
        <time>2023-07-01T09:53:36Z</time>
      </trkpt>
      <trkpt lat="43.73221" lon="-0.12039">
        <ele>126.6</ele>
        <time>2023-07-01T09:53:38Z</time>
      </trkpt>
      <trkpt lat="43.73221" lon="-0.12038">
        <ele>126.6</ele>
        <time>2023-07-01T09:53:39Z</time>
      </trkpt>
      <trkpt lat="43.73221" lon="-0.12037">
        <ele>126.6</ele>
        <time>2023-07-01T09:53:40Z</time>
      </trkpt>
      <trkpt lat="43.73222" lon="-0.12035">
        <ele>126.6</ele>
        <time>2023-07-01T09:53:42Z</time>
      </trkpt>
      <trkpt lat="43.73223" lon="-0.12031">
        <ele>126.8</ele>
        <time>2023-07-01T09:53:45Z</time>
      </trkpt>
      <trkpt lat="43.73224" lon="-0.12027">
        <ele>126.8</ele>
        <time>2023-07-01T09:53:48Z</time>
      </trkpt>
      <trkpt lat="43.73223" lon="-0.12021">
        <ele>126.6</ele>
        <time>2023-07-01T09:53:51Z</time>
      </trkpt>
      <trkpt lat="43.73225" lon="-0.12008">
        <ele>126.6</ele>
        <time>2023-07-01T09:53:57Z</time>
      </trkpt>
      <trkpt lat="43.73229" lon="-0.12">
        <ele>126.6</ele>
        <time>2023-07-01T09:54:02Z</time>
      </trkpt>
      <trkpt lat="43.73231" lon="-0.11997">
        <ele>126.4</ele>
        <time>2023-07-01T09:54:04Z</time>
      </trkpt>
      <trkpt lat="43.73234" lon="-0.11989">
        <ele>126.4</ele>
        <time>2023-07-01T09:54:09Z</time>
      </trkpt>
      <trkpt lat="43.73236" lon="-0.11977">
        <ele>126.2</ele>
        <time>2023-07-01T09:54:16Z</time>
      </trkpt>
      <trkpt lat="43.73236" lon="-0.11972">
        <ele>126.2</ele>
        <time>2023-07-01T09:54:20Z</time>
      </trkpt>
      <trkpt lat="43.73236" lon="-0.1197">
        <ele>126.2</ele>
        <time>2023-07-01T09:54:21Z</time>
      </trkpt>
      <trkpt lat="43.73239" lon="-0.11961">
        <ele>126.2</ele>
        <time>2023-07-01T09:54:27Z</time>
      </trkpt>
      <trkpt lat="43.73241" lon="-0.11959">
        <ele>126.2</ele>
        <time>2023-07-01T09:54:29Z</time>
      </trkpt>
      <trkpt lat="43.73244" lon="-0.11952">
        <ele>126.2</ele>
        <time>2023-07-01T09:54:33Z</time>
      </trkpt>
      <trkpt lat="43.73245" lon="-0.11948">
        <ele>126.2</ele>
        <time>2023-07-01T09:54:36Z</time>
      </trkpt>
      <trkpt lat="43.73245" lon="-0.11942">
        <ele>126</ele>
        <time>2023-07-01T09:54:39Z</time>
      </trkpt>
      <trkpt lat="43.73248" lon="-0.11938">
        <ele>126</ele>
        <time>2023-07-01T09:54:42Z</time>
      </trkpt>
      <trkpt lat="43.73249" lon="-0.1193">
        <ele>126</ele>
        <time>2023-07-01T09:54:46Z</time>
      </trkpt>
      <trkpt lat="43.73251" lon="-0.1192">
        <ele>126</ele>
        <time>2023-07-01T09:54:52Z</time>
      </trkpt>
      <trkpt lat="43.73251" lon="-0.11917">
        <ele>125.8</ele>
        <time>2023-07-01T09:54:53Z</time>
      </trkpt>
      <trkpt lat="43.73251" lon="-0.11906">
        <ele>125.8</ele>
        <time>2023-07-01T09:54:58Z</time>
      </trkpt>
      <trkpt lat="43.7325" lon="-0.11905">
        <ele>125.8</ele>
        <time>2023-07-01T09:54:59Z</time>
      </trkpt>
      <trkpt lat="43.7325" lon="-0.11903">
        <ele>125.8</ele>
        <time>2023-07-01T09:55:00Z</time>
      </trkpt>
      <trkpt lat="43.73252" lon="-0.11893">
        <ele>126</ele>
        <time>2023-07-01T09:55:05Z</time>
      </trkpt>
      <trkpt lat="43.73252" lon="-0.11892">
        <ele>126</ele>
        <time>2023-07-01T09:55:06Z</time>
      </trkpt>
      <trkpt lat="43.73251" lon="-0.11889">
        <ele>126</ele>
        <time>2023-07-01T09:55:08Z</time>
      </trkpt>
      <trkpt lat="43.7325" lon="-0.11883">
        <ele>125.8</ele>
        <time>2023-07-01T09:55:12Z</time>
      </trkpt>
      <trkpt lat="43.7325" lon="-0.11881">
        <ele>125.6</ele>
        <time>2023-07-01T09:55:14Z</time>
      </trkpt>
      <trkpt lat="43.7325" lon="-0.11877">
        <ele>125.4</ele>
        <time>2023-07-01T09:55:16Z</time>
      </trkpt>
      <trkpt lat="43.73248" lon="-0.11869">
        <ele>125.4</ele>
        <time>2023-07-01T09:55:19Z</time>
      </trkpt>
      <trkpt lat="43.73247" lon="-0.11862">
        <ele>125.2</ele>
        <time>2023-07-01T09:55:23Z</time>
      </trkpt>
      <trkpt lat="43.73247" lon="-0.11861">
        <ele>125.2</ele>
        <time>2023-07-01T09:55:24Z</time>
      </trkpt>
      <trkpt lat="43.73247" lon="-0.11856">
        <ele>125.2</ele>
        <time>2023-07-01T09:55:28Z</time>
      </trkpt>
      <trkpt lat="43.73247" lon="-0.11851">
        <ele>125</ele>
        <time>2023-07-01T09:55:31Z</time>
      </trkpt>
      <trkpt lat="43.7325" lon="-0.11841">
        <ele>124.8</ele>
        <time>2023-07-01T09:55:36Z</time>
      </trkpt>
      <trkpt lat="43.73251" lon="-0.1184">
        <ele>125</ele>
        <time>2023-07-01T09:55:37Z</time>
      </trkpt>
      <trkpt lat="43.73251" lon="-0.11839">
        <ele>125</ele>
        <time>2023-07-01T09:55:38Z</time>
      </trkpt>
      <trkpt lat="43.73257" lon="-0.11833">
        <ele>124.8</ele>
        <time>2023-07-01T09:55:43Z</time>
      </trkpt>
      <trkpt lat="43.7326" lon="-0.11832">
        <ele>124.6</ele>
        <time>2023-07-01T09:55:45Z</time>
      </trkpt>
      <trkpt lat="43.73261" lon="-0.11832">
        <ele>124.6</ele>
        <time>2023-07-01T09:55:46Z</time>
      </trkpt>
      <trkpt lat="43.73264" lon="-0.1183">
        <ele>124.4</ele>
        <time>2023-07-01T09:55:50Z</time>
      </trkpt>
      <trkpt lat="43.73266" lon="-0.1183">
        <ele>124.2</ele>
        <time>2023-07-01T09:55:52Z</time>
      </trkpt>
      <trkpt lat="43.73272" lon="-0.11831">
        <ele>124.2</ele>
        <time>2023-07-01T09:55:57Z</time>
      </trkpt>
      <trkpt lat="43.7328" lon="-0.11833">
        <ele>123.6</ele>
        <time>2023-07-01T09:56:04Z</time>
      </trkpt>
      <trkpt lat="43.73287" lon="-0.11834">
        <ele>123.6</ele>
        <time>2023-07-01T09:56:10Z</time>
      </trkpt>
      <trkpt lat="43.73288" lon="-0.11834">
        <ele>123.4</ele>
        <time>2023-07-01T09:56:11Z</time>
      </trkpt>
      <trkpt lat="43.73294" lon="-0.11832">
        <ele>122.8</ele>
        <time>2023-07-01T09:56:16Z</time>
      </trkpt>
      <trkpt lat="43.73295" lon="-0.11832">
        <ele>122.8</ele>
        <time>2023-07-01T09:56:17Z</time>
      </trkpt>
      <trkpt lat="43.73298" lon="-0.1183">
        <ele>122.6</ele>
        <time>2023-07-01T09:56:19Z</time>
      </trkpt>
      <trkpt lat="43.733" lon="-0.11829">
        <ele>122.6</ele>
        <time>2023-07-01T09:56:20Z</time>
      </trkpt>
      <trkpt lat="43.73302" lon="-0.11828">
        <ele>122.4</ele>
        <time>2023-07-01T09:56:21Z</time>
      </trkpt>
      <trkpt lat="43.73304" lon="-0.11826">
        <ele>122.2</ele>
        <time>2023-07-01T09:56:23Z</time>
      </trkpt>
      <trkpt lat="43.73305" lon="-0.11826">
        <ele>122.2</ele>
        <time>2023-07-01T09:56:24Z</time>
      </trkpt>
      <trkpt lat="43.73309" lon="-0.11823">
        <ele>121.8</ele>
        <time>2023-07-01T09:56:27Z</time>
      </trkpt>
      <trkpt lat="43.73309" lon="-0.11823">
        <ele>121.4</ele>
        <time>2023-07-01T09:56:28Z</time>
      </trkpt>
      <trkpt lat="43.73311" lon="-0.11822">
        <ele>121.2</ele>
        <time>2023-07-01T09:56:29Z</time>
      </trkpt>
      <trkpt lat="43.73312" lon="-0.11821">
        <ele>121</ele>
        <time>2023-07-01T09:56:30Z</time>
      </trkpt>
      <trkpt lat="43.73313" lon="-0.1182">
        <ele>120.8</ele>
        <time>2023-07-01T09:56:31Z</time>
      </trkpt>
      <trkpt lat="43.73319" lon="-0.11815">
        <ele>120.4</ele>
        <time>2023-07-01T09:56:36Z</time>
      </trkpt>
      <trkpt lat="43.7332" lon="-0.11814">
        <ele>120.4</ele>
        <time>2023-07-01T09:56:37Z</time>
      </trkpt>
      <trkpt lat="43.73322" lon="-0.11815">
        <ele>120.4</ele>
        <time>2023-07-01T09:56:38Z</time>
      </trkpt>
      <trkpt lat="43.73323" lon="-0.11814">
        <ele>120.2</ele>
        <time>2023-07-01T09:56:39Z</time>
      </trkpt>
      <trkpt lat="43.73324" lon="-0.11813">
        <ele>120</ele>
        <time>2023-07-01T09:56:40Z</time>
      </trkpt>
      <trkpt lat="43.73333" lon="-0.11811">
        <ele>119.6</ele>
        <time>2023-07-01T09:56:45Z</time>
      </trkpt>
      <trkpt lat="43.73337" lon="-0.1181">
        <ele>119.4</ele>
        <time>2023-07-01T09:56:47Z</time>
      </trkpt>
      <trkpt lat="43.73344" lon="-0.1181">
        <ele>119.2</ele>
        <time>2023-07-01T09:56:52Z</time>
      </trkpt>
      <trkpt lat="43.73357" lon="-0.1181">
        <ele>118.6</ele>
        <time>2023-07-01T09:57:02Z</time>
      </trkpt>
      <trkpt lat="43.73358" lon="-0.1181">
        <ele>118.6</ele>
        <time>2023-07-01T09:57:03Z</time>
      </trkpt>
      <trkpt lat="43.73358" lon="-0.1181">
        <ele>118.4</ele>
        <time>2023-07-01T09:57:04Z</time>
      </trkpt>
      <trkpt lat="43.7336" lon="-0.11809">
        <ele>118.4</ele>
        <time>2023-07-01T09:57:06Z</time>
      </trkpt>
      <trkpt lat="43.73362" lon="-0.11808">
        <ele>118.4</ele>
        <time>2023-07-01T09:57:07Z</time>
      </trkpt>
      <trkpt lat="43.73364" lon="-0.11807">
        <ele>118.4</ele>
        <time>2023-07-01T09:57:08Z</time>
      </trkpt>
      <trkpt lat="43.73365" lon="-0.11806">
        <ele>118.2</ele>
        <time>2023-07-01T09:57:09Z</time>
      </trkpt>
      <trkpt lat="43.73371" lon="-0.11803">
        <ele>117.6</ele>
        <time>2023-07-01T09:57:15Z</time>
      </trkpt>
      <trkpt lat="43.73372" lon="-0.11803">
        <ele>117.4</ele>
        <time>2023-07-01T09:57:16Z</time>
      </trkpt>
      <trkpt lat="43.73373" lon="-0.11803">
        <ele>117.6</ele>
        <time>2023-07-01T09:57:17Z</time>
      </trkpt>
      <trkpt lat="43.73377" lon="-0.11804">
        <ele>117.6</ele>
        <time>2023-07-01T09:57:19Z</time>
      </trkpt>
      <trkpt lat="43.73382" lon="-0.11806">
        <ele>117.6</ele>
        <time>2023-07-01T09:57:22Z</time>
      </trkpt>
      <trkpt lat="43.73386" lon="-0.11806">
        <ele>117.2</ele>
        <time>2023-07-01T09:57:25Z</time>
      </trkpt>
      <trkpt lat="43.7339" lon="-0.11805">
        <ele>117.2</ele>
        <time>2023-07-01T09:57:30Z</time>
      </trkpt>
      <trkpt lat="43.73394" lon="-0.11803">
        <ele>117</ele>
        <time>2023-07-01T09:57:34Z</time>
      </trkpt>
      <trkpt lat="43.73397" lon="-0.11803">
        <ele>116.8</ele>
        <time>2023-07-01T09:57:36Z</time>
      </trkpt>
      <trkpt lat="43.73399" lon="-0.11803">
        <ele>116.8</ele>
        <time>2023-07-01T09:57:37Z</time>
      </trkpt>
      <trkpt lat="43.73403" lon="-0.11799">
        <ele>116.6</ele>
        <time>2023-07-01T09:57:41Z</time>
      </trkpt>
      <trkpt lat="43.73408" lon="-0.11795">
        <ele>116.6</ele>
        <time>2023-07-01T09:57:44Z</time>
      </trkpt>
      <trkpt lat="43.7341" lon="-0.11792">
        <ele>116.4</ele>
        <time>2023-07-01T09:57:47Z</time>
      </trkpt>
      <trkpt lat="43.73413" lon="-0.11789">
        <ele>116.4</ele>
        <time>2023-07-01T09:57:50Z</time>
      </trkpt>
      <trkpt lat="43.73415" lon="-0.11788">
        <ele>116.2</ele>
        <time>2023-07-01T09:57:52Z</time>
      </trkpt>
      <trkpt lat="43.73418" lon="-0.11786">
        <ele>115.8</ele>
        <time>2023-07-01T09:57:55Z</time>
      </trkpt>
      <trkpt lat="43.73418" lon="-0.11784">
        <ele>115.4</ele>
        <time>2023-07-01T09:57:57Z</time>
      </trkpt>
      <trkpt lat="43.7342" lon="-0.11782">
        <ele>115</ele>
        <time>2023-07-01T09:57:59Z</time>
      </trkpt>
      <trkpt lat="43.73421" lon="-0.11782">
        <ele>115</ele>
        <time>2023-07-01T09:58:00Z</time>
      </trkpt>
      <trkpt lat="43.73424" lon="-0.1178">
        <ele>114.8</ele>
        <time>2023-07-01T09:58:02Z</time>
      </trkpt>
      <trkpt lat="43.73427" lon="-0.11778">
        <ele>114.6</ele>
        <time>2023-07-01T09:58:04Z</time>
      </trkpt>
      <trkpt lat="43.73431" lon="-0.11776">
        <ele>114</ele>
        <time>2023-07-01T09:58:07Z</time>
      </trkpt>
      <trkpt lat="43.73435" lon="-0.11773">
        <ele>113.8</ele>
        <time>2023-07-01T09:58:10Z</time>
      </trkpt>
      <trkpt lat="43.73437" lon="-0.11772">
        <ele>113.4</ele>
        <time>2023-07-01T09:58:12Z</time>
      </trkpt>
      <trkpt lat="43.7344" lon="-0.11769">
        <ele>112.8</ele>
        <time>2023-07-01T09:58:15Z</time>
      </trkpt>
      <trkpt lat="43.73441" lon="-0.11768">
        <ele>112.6</ele>
        <time>2023-07-01T09:58:16Z</time>
      </trkpt>
      <trkpt lat="43.73442" lon="-0.11764">
        <ele>112.4</ele>
        <time>2023-07-01T09:58:18Z</time>
      </trkpt>
      <trkpt lat="43.73443" lon="-0.11762">
        <ele>112.2</ele>
        <time>2023-07-01T09:58:19Z</time>
      </trkpt>
      <trkpt lat="43.73444" lon="-0.11761">
        <ele>112</ele>
        <time>2023-07-01T09:58:20Z</time>
      </trkpt>
      <trkpt lat="43.73445" lon="-0.1176">
        <ele>111.8</ele>
        <time>2023-07-01T09:58:22Z</time>
      </trkpt>
      <trkpt lat="43.73447" lon="-0.11759">
        <ele>111.6</ele>
        <time>2023-07-01T09:58:25Z</time>
      </trkpt>
      <trkpt lat="43.73456" lon="-0.11754">
        <ele>111</ele>
        <time>2023-07-01T09:58:32Z</time>
      </trkpt>
      <trkpt lat="43.73458" lon="-0.11753">
        <ele>111</ele>
        <time>2023-07-01T09:58:33Z</time>
      </trkpt>
      <trkpt lat="43.73461" lon="-0.1175">
        <ele>110.8</ele>
        <time>2023-07-01T09:58:35Z</time>
      </trkpt>
      <trkpt lat="43.73463" lon="-0.11749">
        <ele>110.6</ele>
        <time>2023-07-01T09:58:37Z</time>
      </trkpt>
      <trkpt lat="43.73465" lon="-0.11748">
        <ele>110.6</ele>
        <time>2023-07-01T09:58:38Z</time>
      </trkpt>
      <trkpt lat="43.73467" lon="-0.11747">
        <ele>110.4</ele>
        <time>2023-07-01T09:58:39Z</time>
      </trkpt>
      <trkpt lat="43.73476" lon="-0.11744">
        <ele>109.8</ele>
        <time>2023-07-01T09:58:45Z</time>
      </trkpt>
      <trkpt lat="43.73477" lon="-0.11742">
        <ele>109.8</ele>
        <time>2023-07-01T09:58:46Z</time>
      </trkpt>
      <trkpt lat="43.73478" lon="-0.11742">
        <ele>109.6</ele>
        <time>2023-07-01T09:58:47Z</time>
      </trkpt>
      <trkpt lat="43.73482" lon="-0.11739">
        <ele>109.2</ele>
        <time>2023-07-01T09:58:51Z</time>
      </trkpt>
      <trkpt lat="43.73483" lon="-0.11738">
        <ele>109</ele>
        <time>2023-07-01T09:58:52Z</time>
      </trkpt>
      <trkpt lat="43.73487" lon="-0.11737">
        <ele>108.6</ele>
        <time>2023-07-01T09:58:55Z</time>
      </trkpt>
      <trkpt lat="43.73488" lon="-0.11735">
        <ele>108.4</ele>
        <time>2023-07-01T09:58:57Z</time>
      </trkpt>
      <trkpt lat="43.73489" lon="-0.11733">
        <ele>108.2</ele>
        <time>2023-07-01T09:58:59Z</time>
      </trkpt>
      <trkpt lat="43.73495" lon="-0.11728">
        <ele>107.8</ele>
        <time>2023-07-01T09:59:04Z</time>
      </trkpt>
      <trkpt lat="43.73496" lon="-0.11726">
        <ele>107.8</ele>
        <time>2023-07-01T09:59:05Z</time>
      </trkpt>
      <trkpt lat="43.73498" lon="-0.11725">
        <ele>107.4</ele>
        <time>2023-07-01T09:59:07Z</time>
      </trkpt>
      <trkpt lat="43.73505" lon="-0.11721">
        <ele>106.8</ele>
        <time>2023-07-01T09:59:13Z</time>
      </trkpt>
      <trkpt lat="43.73507" lon="-0.11719">
        <ele>106.4</ele>
        <time>2023-07-01T09:59:15Z</time>
      </trkpt>
      <trkpt lat="43.73513" lon="-0.11714">
        <ele>106.2</ele>
        <time>2023-07-01T09:59:20Z</time>
      </trkpt>
      <trkpt lat="43.73514" lon="-0.11713">
        <ele>106</ele>
        <time>2023-07-01T09:59:21Z</time>
      </trkpt>
      <trkpt lat="43.7352" lon="-0.11706">
        <ele>105.2</ele>
        <time>2023-07-01T09:59:25Z</time>
      </trkpt>
      <trkpt lat="43.73521" lon="-0.11705">
        <ele>105.2</ele>
        <time>2023-07-01T09:59:26Z</time>
      </trkpt>
      <trkpt lat="43.73523" lon="-0.11704">
        <ele>105</ele>
        <time>2023-07-01T09:59:27Z</time>
      </trkpt>
      <trkpt lat="43.73528" lon="-0.117">
        <ele>104.2</ele>
        <time>2023-07-01T09:59:31Z</time>
      </trkpt>
      <trkpt lat="43.73529" lon="-0.11699">
        <ele>104.2</ele>
        <time>2023-07-01T09:59:32Z</time>
      </trkpt>
      <trkpt lat="43.73536" lon="-0.11693">
        <ele>103</ele>
        <time>2023-07-01T09:59:40Z</time>
      </trkpt>
      <trkpt lat="43.7354" lon="-0.1169">
        <ele>102.2</ele>
        <time>2023-07-01T09:59:44Z</time>
      </trkpt>
      <trkpt lat="43.73542" lon="-0.11689">
        <ele>102</ele>
        <time>2023-07-01T09:59:45Z</time>
      </trkpt>
      <trkpt lat="43.73543" lon="-0.11689">
        <ele>101.8</ele>
        <time>2023-07-01T09:59:46Z</time>
      </trkpt>
      <trkpt lat="43.73544" lon="-0.11688">
        <ele>101.6</ele>
        <time>2023-07-01T09:59:47Z</time>
      </trkpt>
      <trkpt lat="43.73548" lon="-0.11687">
        <ele>101.4</ele>
        <time>2023-07-01T09:59:49Z</time>
      </trkpt>
      <trkpt lat="43.73552" lon="-0.11686">
        <ele>100.8</ele>
        <time>2023-07-01T09:59:52Z</time>
      </trkpt>
      <trkpt lat="43.73554" lon="-0.11686">
        <ele>100.6</ele>
        <time>2023-07-01T09:59:53Z</time>
      </trkpt>
      <trkpt lat="43.73555" lon="-0.11684">
        <ele>100.6</ele>
        <time>2023-07-01T09:59:54Z</time>
      </trkpt>
      <trkpt lat="43.73558" lon="-0.11679">
        <ele>100</ele>
        <time>2023-07-01T09:59:57Z</time>
      </trkpt>
      <trkpt lat="43.73558" lon="-0.11678">
        <ele>99.6</ele>
        <time>2023-07-01T09:59:58Z</time>
      </trkpt>
      <trkpt lat="43.7356" lon="-0.11675">
        <ele>99.2</ele>
        <time>2023-07-01T10:00:00Z</time>
      </trkpt>
      <trkpt lat="43.7356" lon="-0.11673">
        <ele>99.2</ele>
        <time>2023-07-01T10:00:01Z</time>
      </trkpt>
      <trkpt lat="43.73561" lon="-0.1167">
        <ele>98.6</ele>
        <time>2023-07-01T10:00:03Z</time>
      </trkpt>
      <trkpt lat="43.73562" lon="-0.11666">
        <ele>98</ele>
        <time>2023-07-01T10:00:06Z</time>
      </trkpt>
      <trkpt lat="43.73563" lon="-0.11663">
        <ele>97.6</ele>
        <time>2023-07-01T10:00:08Z</time>
      </trkpt>
      <trkpt lat="43.73563" lon="-0.11661">
        <ele>97.4</ele>
        <time>2023-07-01T10:00:09Z</time>
      </trkpt>
      <trkpt lat="43.73564" lon="-0.11656">
        <ele>97.2</ele>
        <time>2023-07-01T10:00:12Z</time>
      </trkpt>
      <trkpt lat="43.73564" lon="-0.1165">
        <ele>97.4</ele>
        <time>2023-07-01T10:00:15Z</time>
      </trkpt>
      <trkpt lat="43.73565" lon="-0.11636">
        <ele>97.4</ele>
        <time>2023-07-01T10:00:22Z</time>
      </trkpt>
      <trkpt lat="43.73565" lon="-0.11634">
        <ele>97.4</ele>
        <time>2023-07-01T10:00:23Z</time>
      </trkpt>
      <trkpt lat="43.73568" lon="-0.11628">
        <ele>97.2</ele>
        <time>2023-07-01T10:00:26Z</time>
      </trkpt>
      <trkpt lat="43.73569" lon="-0.11624">
        <ele>97</ele>
        <time>2023-07-01T10:00:28Z</time>
      </trkpt>
      <trkpt lat="43.73569" lon="-0.11622">
        <ele>97.2</ele>
        <time>2023-07-01T10:00:30Z</time>
      </trkpt>
      <trkpt lat="43.7357" lon="-0.11619">
        <ele>97.2</ele>
        <time>2023-07-01T10:00:32Z</time>
      </trkpt>
      <trkpt lat="43.73571" lon="-0.11615">
        <ele>97.2</ele>
        <time>2023-07-01T10:00:34Z</time>
      </trkpt>
      <trkpt lat="43.73571" lon="-0.11614">
        <ele>97.2</ele>
        <time>2023-07-01T10:00:35Z</time>
      </trkpt>
      <trkpt lat="43.73574" lon="-0.11609">
        <ele>97.4</ele>
        <time>2023-07-01T10:00:39Z</time>
      </trkpt>
      <trkpt lat="43.73575" lon="-0.11607">
        <ele>97.4</ele>
        <time>2023-07-01T10:00:40Z</time>
      </trkpt>
      <trkpt lat="43.73577" lon="-0.11601">
        <ele>97.2</ele>
        <time>2023-07-01T10:00:45Z</time>
      </trkpt>
      <trkpt lat="43.73577" lon="-0.11599">
        <ele>97.2</ele>
        <time>2023-07-01T10:00:46Z</time>
      </trkpt>
      <trkpt lat="43.7358" lon="-0.11595">
        <ele>97.2</ele>
        <time>2023-07-01T10:00:49Z</time>
      </trkpt>
      <trkpt lat="43.7358" lon="-0.11594">
        <ele>97.2</ele>
        <time>2023-07-01T10:00:50Z</time>
      </trkpt>
      <trkpt lat="43.73582" lon="-0.11593">
        <ele>97.2</ele>
        <time>2023-07-01T10:00:52Z</time>
      </trkpt>
      <trkpt lat="43.73584" lon="-0.11591">
        <ele>97.4</ele>
        <time>2023-07-01T10:00:54Z</time>
      </trkpt>
      <trkpt lat="43.73586" lon="-0.1159">
        <ele>97.4</ele>
        <time>2023-07-01T10:00:56Z</time>
      </trkpt>
      <trkpt lat="43.7359" lon="-0.11587">
        <ele>97.6</ele>
        <time>2023-07-01T10:01:00Z</time>
      </trkpt>
      <trkpt lat="43.73591" lon="-0.11586">
        <ele>97.6</ele>
        <time>2023-07-01T10:01:02Z</time>
      </trkpt>
      <trkpt lat="43.73591" lon="-0.11585">
        <ele>97.6</ele>
        <time>2023-07-01T10:01:03Z</time>
      </trkpt>
      <trkpt lat="43.73591" lon="-0.11583">
        <ele>97.4</ele>
        <time>2023-07-01T10:01:04Z</time>
      </trkpt>
      <trkpt lat="43.73596" lon="-0.11577">
        <ele>97.6</ele>
        <time>2023-07-01T10:01:10Z</time>
      </trkpt>
      <trkpt lat="43.73598" lon="-0.11578">
        <ele>97.6</ele>
        <time>2023-07-01T10:01:12Z</time>
      </trkpt>
      <trkpt lat="43.73599" lon="-0.11579">
        <ele>97.6</ele>
        <time>2023-07-01T10:01:14Z</time>
      </trkpt>
      <trkpt lat="43.736" lon="-0.1158">
        <ele>97.8</ele>
        <time>2023-07-01T10:01:15Z</time>
      </trkpt>
      <trkpt lat="43.73601" lon="-0.11581">
        <ele>97.8</ele>
        <time>2023-07-01T10:01:16Z</time>
      </trkpt>
      <trkpt lat="43.73602" lon="-0.11583">
        <ele>97.8</ele>
        <time>2023-07-01T10:01:17Z</time>
      </trkpt>
      <trkpt lat="43.73605" lon="-0.11592">
        <ele>98.2</ele>
        <time>2023-07-01T10:01:23Z</time>
      </trkpt>
      <trkpt lat="43.73606" lon="-0.11596">
        <ele>98.2</ele>
        <time>2023-07-01T10:01:26Z</time>
      </trkpt>
      <trkpt lat="43.73607" lon="-0.11607">
        <ele>98.2</ele>
        <time>2023-07-01T10:01:33Z</time>
      </trkpt>
      <trkpt lat="43.73607" lon="-0.11613">
        <ele>98.2</ele>
        <time>2023-07-01T10:01:38Z</time>
      </trkpt>
      <trkpt lat="43.73608" lon="-0.11617">
        <ele>98.4</ele>
        <time>2023-07-01T10:01:41Z</time>
      </trkpt>
      <trkpt lat="43.7361" lon="-0.11629">
        <ele>98.2</ele>
        <time>2023-07-01T10:01:47Z</time>
      </trkpt>
      <trkpt lat="43.73612" lon="-0.11632">
        <ele>98.4</ele>
        <time>2023-07-01T10:01:49Z</time>
      </trkpt>
      <trkpt lat="43.73614" lon="-0.11641">
        <ele>98.6</ele>
        <time>2023-07-01T10:01:54Z</time>
      </trkpt>
      <trkpt lat="43.73614" lon="-0.11647">
        <ele>98.4</ele>
        <time>2023-07-01T10:01:58Z</time>
      </trkpt>
      <trkpt lat="43.73615" lon="-0.11649">
        <ele>98.2</ele>
        <time>2023-07-01T10:02:00Z</time>
      </trkpt>
      <trkpt lat="43.73615" lon="-0.11651">
        <ele>98.2</ele>
        <time>2023-07-01T10:02:01Z</time>
      </trkpt>
      <trkpt lat="43.73616" lon="-0.11652">
        <ele>98.2</ele>
        <time>2023-07-01T10:02:02Z</time>
      </trkpt>
      <trkpt lat="43.7362" lon="-0.1166">
        <ele>98.4</ele>
        <time>2023-07-01T10:02:07Z</time>
      </trkpt>
      <trkpt lat="43.73621" lon="-0.11664">
        <ele>98.4</ele>
        <time>2023-07-01T10:02:09Z</time>
      </trkpt>
      <trkpt lat="43.73622" lon="-0.11667">
        <ele>98.2</ele>
        <time>2023-07-01T10:02:12Z</time>
      </trkpt>
      <trkpt lat="43.73623" lon="-0.11669">
        <ele>98.2</ele>
        <time>2023-07-01T10:02:13Z</time>
      </trkpt>
      <trkpt lat="43.73625" lon="-0.11676">
        <ele>98</ele>
        <time>2023-07-01T10:02:18Z</time>
      </trkpt>
      <trkpt lat="43.73627" lon="-0.11682">
        <ele>97.8</ele>
        <time>2023-07-01T10:02:22Z</time>
      </trkpt>
      <trkpt lat="43.73629" lon="-0.11686">
        <ele>97.8</ele>
        <time>2023-07-01T10:02:24Z</time>
      </trkpt>
      <trkpt lat="43.73629" lon="-0.11688">
        <ele>97.8</ele>
        <time>2023-07-01T10:02:25Z</time>
      </trkpt>
      <trkpt lat="43.7363" lon="-0.11698">
        <ele>98</ele>
        <time>2023-07-01T10:02:31Z</time>
      </trkpt>
      <trkpt lat="43.7363" lon="-0.11704">
        <ele>98.4</ele>
        <time>2023-07-01T10:02:35Z</time>
      </trkpt>
      <trkpt lat="43.7363" lon="-0.11706">
        <ele>98.4</ele>
        <time>2023-07-01T10:02:36Z</time>
      </trkpt>
      <trkpt lat="43.73631" lon="-0.11711">
        <ele>98.4</ele>
        <time>2023-07-01T10:02:39Z</time>
      </trkpt>
      <trkpt lat="43.73632" lon="-0.11716">
        <ele>97.8</ele>
        <time>2023-07-01T10:02:44Z</time>
      </trkpt>
      <trkpt lat="43.73632" lon="-0.11719">
        <ele>98</ele>
        <time>2023-07-01T10:02:46Z</time>
      </trkpt>
      <trkpt lat="43.73634" lon="-0.11725">
        <ele>98.2</ele>
        <time>2023-07-01T10:02:50Z</time>
      </trkpt>
      <trkpt lat="43.73633" lon="-0.11729">
        <ele>98.2</ele>
        <time>2023-07-01T10:02:53Z</time>
      </trkpt>
      <trkpt lat="43.73634" lon="-0.11734">
        <ele>98.4</ele>
        <time>2023-07-01T10:02:56Z</time>
      </trkpt>
      <trkpt lat="43.73636" lon="-0.1174">
        <ele>98.2</ele>
        <time>2023-07-01T10:03:00Z</time>
      </trkpt>
      <trkpt lat="43.73637" lon="-0.11745">
        <ele>98.2</ele>
        <time>2023-07-01T10:03:03Z</time>
      </trkpt>
      <trkpt lat="43.73639" lon="-0.11746">
        <ele>98.6</ele>
        <time>2023-07-01T10:03:05Z</time>
      </trkpt>
      <trkpt lat="43.73642" lon="-0.11747">
        <ele>98.6</ele>
        <time>2023-07-01T10:03:07Z</time>
      </trkpt>
      <trkpt lat="43.73646" lon="-0.11745">
        <ele>98.8</ele>
        <time>2023-07-01T10:03:12Z</time>
      </trkpt>
      <trkpt lat="43.73648" lon="-0.11744">
        <ele>99</ele>
        <time>2023-07-01T10:03:14Z</time>
      </trkpt>
      <trkpt lat="43.73649" lon="-0.11743">
        <ele>99</ele>
        <time>2023-07-01T10:03:15Z</time>
      </trkpt>
      <trkpt lat="43.73651" lon="-0.11741">
        <ele>99.6</ele>
        <time>2023-07-01T10:03:18Z</time>
      </trkpt>
      <trkpt lat="43.73653" lon="-0.11739">
        <ele>99.8</ele>
        <time>2023-07-01T10:03:20Z</time>
      </trkpt>
      <trkpt lat="43.73654" lon="-0.11738">
        <ele>100</ele>
        <time>2023-07-01T10:03:21Z</time>
      </trkpt>
      <trkpt lat="43.73655" lon="-0.11738">
        <ele>100.2</ele>
        <time>2023-07-01T10:03:22Z</time>
      </trkpt>
      <trkpt lat="43.73657" lon="-0.11737">
        <ele>100.4</ele>
        <time>2023-07-01T10:03:24Z</time>
      </trkpt>
      <trkpt lat="43.73657" lon="-0.11735">
        <ele>100.6</ele>
        <time>2023-07-01T10:03:25Z</time>
      </trkpt>
      <trkpt lat="43.73659" lon="-0.11733">
        <ele>100.8</ele>
        <time>2023-07-01T10:03:27Z</time>
      </trkpt>
      <trkpt lat="43.73661" lon="-0.11732">
        <ele>101.4</ele>
        <time>2023-07-01T10:03:29Z</time>
      </trkpt>
      <trkpt lat="43.73661" lon="-0.11729">
        <ele>101.6</ele>
        <time>2023-07-01T10:03:31Z</time>
      </trkpt>
      <trkpt lat="43.73663" lon="-0.11727">
        <ele>102</ele>
        <time>2023-07-01T10:03:34Z</time>
      </trkpt>
      <trkpt lat="43.73668" lon="-0.11723">
        <ele>102.8</ele>
        <time>2023-07-01T10:03:40Z</time>
      </trkpt>
      <trkpt lat="43.73669" lon="-0.11723">
        <ele>103</ele>
        <time>2023-07-01T10:03:41Z</time>
      </trkpt>
      <trkpt lat="43.7367" lon="-0.11722">
        <ele>103.2</ele>
        <time>2023-07-01T10:03:42Z</time>
      </trkpt>
      <trkpt lat="43.73671" lon="-0.11722">
        <ele>103.4</ele>
        <time>2023-07-01T10:03:43Z</time>
      </trkpt>
      <trkpt lat="43.73672" lon="-0.11721">
        <ele>103.6</ele>
        <time>2023-07-01T10:03:45Z</time>
      </trkpt>
      <trkpt lat="43.73674" lon="-0.11719">
        <ele>104</ele>
        <time>2023-07-01T10:03:47Z</time>
      </trkpt>
      <trkpt lat="43.73676" lon="-0.11718">
        <ele>104.2</ele>
        <time>2023-07-01T10:03:48Z</time>
      </trkpt>
      <trkpt lat="43.73679" lon="-0.11717">
        <ele>105</ele>
        <time>2023-07-01T10:03:51Z</time>
      </trkpt>
      <trkpt lat="43.73682" lon="-0.11714">
        <ele>105.2</ele>
        <time>2023-07-01T10:03:54Z</time>
      </trkpt>
      <trkpt lat="43.73683" lon="-0.11714">
        <ele>105.4</ele>
        <time>2023-07-01T10:03:55Z</time>
      </trkpt>
      <trkpt lat="43.73685" lon="-0.11713">
        <ele>105.6</ele>
        <time>2023-07-01T10:03:56Z</time>
      </trkpt>
      <trkpt lat="43.73685" lon="-0.11712">
        <ele>105.8</ele>
        <time>2023-07-01T10:03:57Z</time>
      </trkpt>
      <trkpt lat="43.73686" lon="-0.11712">
        <ele>106.2</ele>
        <time>2023-07-01T10:03:58Z</time>
      </trkpt>
      <trkpt lat="43.73687" lon="-0.11711">
        <ele>106.2</ele>
        <time>2023-07-01T10:03:59Z</time>
      </trkpt>
      <trkpt lat="43.73689" lon="-0.1171">
        <ele>106.6</ele>
        <time>2023-07-01T10:04:02Z</time>
      </trkpt>
      <trkpt lat="43.73694" lon="-0.11709">
        <ele>107.2</ele>
        <time>2023-07-01T10:04:07Z</time>
      </trkpt>
      <trkpt lat="43.73696" lon="-0.11709">
        <ele>107.4</ele>
        <time>2023-07-01T10:04:09Z</time>
      </trkpt>
      <trkpt lat="43.73699" lon="-0.11708">
        <ele>107.8</ele>
        <time>2023-07-01T10:04:11Z</time>
      </trkpt>
      <trkpt lat="43.73701" lon="-0.11707">
        <ele>108</ele>
        <time>2023-07-01T10:04:13Z</time>
      </trkpt>
      <trkpt lat="43.73702" lon="-0.11706">
        <ele>108.4</ele>
        <time>2023-07-01T10:04:15Z</time>
      </trkpt>
      <trkpt lat="43.73705" lon="-0.11705">
        <ele>109</ele>
        <time>2023-07-01T10:04:17Z</time>
      </trkpt>
      <trkpt lat="43.73706" lon="-0.11704">
        <ele>109.4</ele>
        <time>2023-07-01T10:04:19Z</time>
      </trkpt>
      <trkpt lat="43.73708" lon="-0.11704">
        <ele>109.8</ele>
        <time>2023-07-01T10:04:21Z</time>
      </trkpt>
      <trkpt lat="43.73713" lon="-0.11704">
        <ele>110.6</ele>
        <time>2023-07-01T10:04:26Z</time>
      </trkpt>
      <trkpt lat="43.73716" lon="-0.11704">
        <ele>111.2</ele>
        <time>2023-07-01T10:04:30Z</time>
      </trkpt>
      <trkpt lat="43.73719" lon="-0.11703">
        <ele>111.6</ele>
        <time>2023-07-01T10:04:33Z</time>
      </trkpt>
      <trkpt lat="43.73725" lon="-0.117">
        <ele>112</ele>
        <time>2023-07-01T10:04:39Z</time>
      </trkpt>
      <trkpt lat="43.73728" lon="-0.11701">
        <ele>112.2</ele>
        <time>2023-07-01T10:04:41Z</time>
      </trkpt>
      <trkpt lat="43.73731" lon="-0.117">
        <ele>112.6</ele>
        <time>2023-07-01T10:04:44Z</time>
      </trkpt>
      <trkpt lat="43.73733" lon="-0.117">
        <ele>112.8</ele>
        <time>2023-07-01T10:04:45Z</time>
      </trkpt>
      <trkpt lat="43.73736" lon="-0.117">
        <ele>113</ele>
        <time>2023-07-01T10:04:48Z</time>
      </trkpt>
      <trkpt lat="43.73744" lon="-0.11695">
        <ele>113.6</ele>
        <time>2023-07-01T10:04:56Z</time>
      </trkpt>
      <trkpt lat="43.73744" lon="-0.11694">
        <ele>113.8</ele>
        <time>2023-07-01T10:04:57Z</time>
      </trkpt>
      <trkpt lat="43.73748" lon="-0.11692">
        <ele>114</ele>
        <time>2023-07-01T10:05:01Z</time>
      </trkpt>
      <trkpt lat="43.7375" lon="-0.11691">
        <ele>114</ele>
        <time>2023-07-01T10:05:03Z</time>
      </trkpt>
      <trkpt lat="43.73752" lon="-0.1169">
        <ele>114</ele>
        <time>2023-07-01T10:05:06Z</time>
      </trkpt>
      <trkpt lat="43.73756" lon="-0.11686">
        <ele>114.2</ele>
        <time>2023-07-01T10:05:10Z</time>
      </trkpt>
      <trkpt lat="43.73757" lon="-0.11686">
        <ele>114.2</ele>
        <time>2023-07-01T10:05:11Z</time>
      </trkpt>
      <trkpt lat="43.73759" lon="-0.11684">
        <ele>114.6</ele>
        <time>2023-07-01T10:05:13Z</time>
      </trkpt>
      <trkpt lat="43.7376" lon="-0.11683">
        <ele>114.8</ele>
        <time>2023-07-01T10:05:14Z</time>
      </trkpt>
      <trkpt lat="43.73765" lon="-0.11679">
        <ele>115</ele>
        <time>2023-07-01T10:05:18Z</time>
      </trkpt>
      <trkpt lat="43.73766" lon="-0.11678">
        <ele>115</ele>
        <time>2023-07-01T10:05:19Z</time>
      </trkpt>
      <trkpt lat="43.73769" lon="-0.11672">
        <ele>115.2</ele>
        <time>2023-07-01T10:05:25Z</time>
      </trkpt>
      <trkpt lat="43.7377" lon="-0.11671">
        <ele>115.2</ele>
        <time>2023-07-01T10:05:26Z</time>
      </trkpt>
      <trkpt lat="43.7377" lon="-0.1167">
        <ele>115.2</ele>
        <time>2023-07-01T10:05:27Z</time>
      </trkpt>
      <trkpt lat="43.7377" lon="-0.11667">
        <ele>115.2</ele>
        <time>2023-07-01T10:05:28Z</time>
      </trkpt>
      <trkpt lat="43.73771" lon="-0.11661">
        <ele>115.8</ele>
        <time>2023-07-01T10:05:31Z</time>
      </trkpt>
      <trkpt lat="43.73777" lon="-0.11649">
        <ele>115.6</ele>
        <time>2023-07-01T10:05:39Z</time>
      </trkpt>
      <trkpt lat="43.7378" lon="-0.11645">
        <ele>115.8</ele>
        <time>2023-07-01T10:05:42Z</time>
      </trkpt>
      <trkpt lat="43.73784" lon="-0.11641">
        <ele>115.8</ele>
        <time>2023-07-01T10:05:46Z</time>
      </trkpt>
      <trkpt lat="43.73786" lon="-0.11636">
        <ele>116</ele>
        <time>2023-07-01T10:05:50Z</time>
      </trkpt>
      <trkpt lat="43.73788" lon="-0.11633">
        <ele>116.2</ele>
        <time>2023-07-01T10:05:53Z</time>
      </trkpt>
      <trkpt lat="43.73789" lon="-0.11628">
        <ele>116.2</ele>
        <time>2023-07-01T10:05:56Z</time>
      </trkpt>
      <trkpt lat="43.73791" lon="-0.11623">
        <ele>116.2</ele>
        <time>2023-07-01T10:05:59Z</time>
      </trkpt>
      <trkpt lat="43.73795" lon="-0.1161">
        <ele>116</ele>
        <time>2023-07-01T10:06:07Z</time>
      </trkpt>
      <trkpt lat="43.738" lon="-0.11603">
        <ele>116</ele>
        <time>2023-07-01T10:06:12Z</time>
      </trkpt>
      <trkpt lat="43.73801" lon="-0.11602">
        <ele>115.8</ele>
        <time>2023-07-01T10:06:14Z</time>
      </trkpt>
      <trkpt lat="43.73807" lon="-0.11594">
        <ele>115</ele>
        <time>2023-07-01T10:06:21Z</time>
      </trkpt>
      <trkpt lat="43.73808" lon="-0.11593">
        <ele>114.8</ele>
        <time>2023-07-01T10:06:22Z</time>
      </trkpt>
      <trkpt lat="43.73814" lon="-0.11586">
        <ele>114.4</ele>
        <time>2023-07-01T10:06:27Z</time>
      </trkpt>
      <trkpt lat="43.73819" lon="-0.11584">
        <ele>114.4</ele>
        <time>2023-07-01T10:06:32Z</time>
      </trkpt>
      <trkpt lat="43.73826" lon="-0.11581">
        <ele>114.6</ele>
        <time>2023-07-01T10:06:37Z</time>
      </trkpt>
      <trkpt lat="43.7383" lon="-0.11576">
        <ele>114.8</ele>
        <time>2023-07-01T10:06:40Z</time>
      </trkpt>
      <trkpt lat="43.73835" lon="-0.11564">
        <ele>115.4</ele>
        <time>2023-07-01T10:06:47Z</time>
      </trkpt>
      <trkpt lat="43.73838" lon="-0.11555">
        <ele>115.8</ele>
        <time>2023-07-01T10:06:52Z</time>
      </trkpt>
      <trkpt lat="43.73839" lon="-0.11552">
        <ele>116.2</ele>
        <time>2023-07-01T10:06:54Z</time>
      </trkpt>
      <trkpt lat="43.73842" lon="-0.11547">
        <ele>116.2</ele>
        <time>2023-07-01T10:06:58Z</time>
      </trkpt>
      <trkpt lat="43.73843" lon="-0.11545">
        <ele>116.2</ele>
        <time>2023-07-01T10:06:59Z</time>
      </trkpt>
      <trkpt lat="43.73848" lon="-0.11538">
        <ele>116.8</ele>
        <time>2023-07-01T10:07:05Z</time>
      </trkpt>
      <trkpt lat="43.73849" lon="-0.11536">
        <ele>117</ele>
        <time>2023-07-01T10:07:06Z</time>
      </trkpt>
      <trkpt lat="43.73852" lon="-0.1153">
        <ele>117.2</ele>
        <time>2023-07-01T10:07:11Z</time>
      </trkpt>
      <trkpt lat="43.73856" lon="-0.11527">
        <ele>117.4</ele>
        <time>2023-07-01T10:07:14Z</time>
      </trkpt>
      <trkpt lat="43.73859" lon="-0.11521">
        <ele>118</ele>
        <time>2023-07-01T10:07:18Z</time>
      </trkpt>
      <trkpt lat="43.73863" lon="-0.11514">
        <ele>118.4</ele>
        <time>2023-07-01T10:07:23Z</time>
      </trkpt>
      <trkpt lat="43.7387" lon="-0.115">
        <ele>118.8</ele>
        <time>2023-07-01T10:07:33Z</time>
      </trkpt>
      <trkpt lat="43.73871" lon="-0.11499">
        <ele>118.8</ele>
        <time>2023-07-01T10:07:34Z</time>
      </trkpt>
      <trkpt lat="43.73872" lon="-0.11497">
        <ele>119</ele>
        <time>2023-07-01T10:07:35Z</time>
      </trkpt>
      <trkpt lat="43.73876" lon="-0.1149">
        <ele>119.6</ele>
        <time>2023-07-01T10:07:40Z</time>
      </trkpt>
      <trkpt lat="43.73876" lon="-0.11489">
        <ele>119.6</ele>
        <time>2023-07-01T10:07:41Z</time>
      </trkpt>
      <trkpt lat="43.73877" lon="-0.11487">
        <ele>119.8</ele>
        <time>2023-07-01T10:07:42Z</time>
      </trkpt>
      <trkpt lat="43.73882" lon="-0.1148">
        <ele>120</ele>
        <time>2023-07-01T10:07:48Z</time>
      </trkpt>
      <trkpt lat="43.73883" lon="-0.11479">
        <ele>120.2</ele>
        <time>2023-07-01T10:07:49Z</time>
      </trkpt>
      <trkpt lat="43.73892" lon="-0.11463">
        <ele>121</ele>
        <time>2023-07-01T10:08:00Z</time>
      </trkpt>
      <trkpt lat="43.73894" lon="-0.11459">
        <ele>121</ele>
        <time>2023-07-01T10:08:03Z</time>
      </trkpt>
      <trkpt lat="43.73899" lon="-0.11451">
        <ele>120.8</ele>
        <time>2023-07-01T10:08:09Z</time>
      </trkpt>
      <trkpt lat="43.73906" lon="-0.11438">
        <ele>121.6</ele>
        <time>2023-07-01T10:08:18Z</time>
      </trkpt>
      <trkpt lat="43.73909" lon="-0.11432">
        <ele>121.4</ele>
        <time>2023-07-01T10:08:22Z</time>
      </trkpt>
      <trkpt lat="43.73911" lon="-0.1143">
        <ele>121.4</ele>
        <time>2023-07-01T10:08:24Z</time>
      </trkpt>
      <trkpt lat="43.73914" lon="-0.11424">
        <ele>121.6</ele>
        <time>2023-07-01T10:08:28Z</time>
      </trkpt>
      <trkpt lat="43.73916" lon="-0.11419">
        <ele>121.6</ele>
        <time>2023-07-01T10:08:31Z</time>
      </trkpt>
      <trkpt lat="43.73917" lon="-0.11417">
        <ele>121.6</ele>
        <time>2023-07-01T10:08:32Z</time>
      </trkpt>
      <trkpt lat="43.73919" lon="-0.11415">
        <ele>121.4</ele>
        <time>2023-07-01T10:08:34Z</time>
      </trkpt>
      <trkpt lat="43.7392" lon="-0.11414">
        <ele>121.6</ele>
        <time>2023-07-01T10:08:35Z</time>
      </trkpt>
      <trkpt lat="43.73925" lon="-0.1141">
        <ele>121.6</ele>
        <time>2023-07-01T10:08:40Z</time>
      </trkpt>
      <trkpt lat="43.73933" lon="-0.11408">
        <ele>122</ele>
        <time>2023-07-01T10:08:46Z</time>
      </trkpt>
      <trkpt lat="43.73937" lon="-0.11408">
        <ele>122</ele>
        <time>2023-07-01T10:08:49Z</time>
      </trkpt>
      <trkpt lat="43.73938" lon="-0.11408">
        <ele>122</ele>
        <time>2023-07-01T10:08:50Z</time>
      </trkpt>
      <trkpt lat="43.7394" lon="-0.11408">
        <ele>122</ele>
        <time>2023-07-01T10:08:51Z</time>
      </trkpt>
      <trkpt lat="43.73955" lon="-0.11408">
        <ele>121.8</ele>
        <time>2023-07-01T10:09:03Z</time>
      </trkpt>
      <trkpt lat="43.73957" lon="-0.11406">
        <ele>121.8</ele>
        <time>2023-07-01T10:09:06Z</time>
      </trkpt>
      <trkpt lat="43.73957" lon="-0.11406">
        <ele>121.8</ele>
        <time>2023-07-01T10:09:07Z</time>
      </trkpt>
      <trkpt lat="43.73962" lon="-0.11409">
        <ele>122</ele>
        <time>2023-07-01T10:10:05Z</time>
      </trkpt>
      <trkpt lat="43.73963" lon="-0.11409">
        <ele>122</ele>
        <time>2023-07-01T10:10:06Z</time>
      </trkpt>
      <trkpt lat="43.73968" lon="-0.1141">
        <ele>122.6</ele>
        <time>2023-07-01T10:10:10Z</time>
      </trkpt>
      <trkpt lat="43.73972" lon="-0.1141">
        <ele>122.6</ele>
        <time>2023-07-01T10:10:12Z</time>
      </trkpt>
      <trkpt lat="43.73979" lon="-0.11409">
        <ele>122.2</ele>
        <time>2023-07-01T10:10:17Z</time>
      </trkpt>
      <trkpt lat="43.73983" lon="-0.11409">
        <ele>122.2</ele>
        <time>2023-07-01T10:10:19Z</time>
      </trkpt>
      <trkpt lat="43.73996" lon="-0.11406">
        <ele>121.8</ele>
        <time>2023-07-01T10:10:28Z</time>
      </trkpt>
      <trkpt lat="43.74006" lon="-0.11405">
        <ele>121.4</ele>
        <time>2023-07-01T10:10:36Z</time>
      </trkpt>
      <trkpt lat="43.74011" lon="-0.11405">
        <ele>121.2</ele>
        <time>2023-07-01T10:10:39Z</time>
      </trkpt>
      <trkpt lat="43.74014" lon="-0.11405">
        <ele>121.2</ele>
        <time>2023-07-01T10:10:41Z</time>
      </trkpt>
      <trkpt lat="43.74018" lon="-0.11405">
        <ele>121</ele>
        <time>2023-07-01T10:10:44Z</time>
      </trkpt>
      <trkpt lat="43.74023" lon="-0.11404">
        <ele>120.4</ele>
        <time>2023-07-01T10:10:48Z</time>
      </trkpt>
      <trkpt lat="43.74029" lon="-0.11402">
        <ele>120.4</ele>
        <time>2023-07-01T10:10:52Z</time>
      </trkpt>
      <trkpt lat="43.74034" lon="-0.11399">
        <ele>120.4</ele>
        <time>2023-07-01T10:10:56Z</time>
      </trkpt>
      <trkpt lat="43.74036" lon="-0.11395">
        <ele>120.2</ele>
        <time>2023-07-01T10:10:59Z</time>
      </trkpt>
      <trkpt lat="43.74039" lon="-0.11387">
        <ele>120.2</ele>
        <time>2023-07-01T10:11:03Z</time>
      </trkpt>
      <trkpt lat="43.7404" lon="-0.11372">
        <ele>120.2</ele>
        <time>2023-07-01T10:11:11Z</time>
      </trkpt>
      <trkpt lat="43.7404" lon="-0.11365">
        <ele>120</ele>
        <time>2023-07-01T10:11:14Z</time>
      </trkpt>
      <trkpt lat="43.7404" lon="-0.11358">
        <ele>120</ele>
        <time>2023-07-01T10:11:18Z</time>
      </trkpt>
      <trkpt lat="43.7404" lon="-0.11352">
        <ele>119.6</ele>
        <time>2023-07-01T10:11:21Z</time>
      </trkpt>
      <trkpt lat="43.7404" lon="-0.11331">
        <ele>119.4</ele>
        <time>2023-07-01T10:11:32Z</time>
      </trkpt>
      <trkpt lat="43.7404" lon="-0.11323">
        <ele>119.2</ele>
        <time>2023-07-01T10:11:37Z</time>
      </trkpt>
      <trkpt lat="43.74042" lon="-0.11316">
        <ele>119.2</ele>
        <time>2023-07-01T10:11:41Z</time>
      </trkpt>
      <trkpt lat="43.74048" lon="-0.11309">
        <ele>119</ele>
        <time>2023-07-01T10:11:46Z</time>
      </trkpt>
      <trkpt lat="43.74049" lon="-0.11308">
        <ele>118.8</ele>
        <time>2023-07-01T10:11:47Z</time>
      </trkpt>
      <trkpt lat="43.7405" lon="-0.11307">
        <ele>118.6</ele>
        <time>2023-07-01T10:11:48Z</time>
      </trkpt>
      <trkpt lat="43.74054" lon="-0.11303">
        <ele>118.6</ele>
        <time>2023-07-01T10:11:51Z</time>
      </trkpt>
      <trkpt lat="43.74055" lon="-0.11303">
        <ele>118.6</ele>
        <time>2023-07-01T10:11:52Z</time>
      </trkpt>
      <trkpt lat="43.7406" lon="-0.113">
        <ele>118.2</ele>
        <time>2023-07-01T10:11:56Z</time>
      </trkpt>
      <trkpt lat="43.74062" lon="-0.11298">
        <ele>117.8</ele>
        <time>2023-07-01T10:11:58Z</time>
      </trkpt>
      <trkpt lat="43.74066" lon="-0.11295">
        <ele>117.6</ele>
        <time>2023-07-01T10:12:01Z</time>
      </trkpt>
      <trkpt lat="43.74068" lon="-0.11292">
        <ele>117.4</ele>
        <time>2023-07-01T10:12:03Z</time>
      </trkpt>
      <trkpt lat="43.74072" lon="-0.1129">
        <ele>117.4</ele>
        <time>2023-07-01T10:12:06Z</time>
      </trkpt>
      <trkpt lat="43.74076" lon="-0.11288">
        <ele>117.2</ele>
        <time>2023-07-01T10:12:09Z</time>
      </trkpt>
      <trkpt lat="43.74078" lon="-0.11287">
        <ele>117.2</ele>
        <time>2023-07-01T10:12:10Z</time>
      </trkpt>
      <trkpt lat="43.74083" lon="-0.11282">
        <ele>116.8</ele>
        <time>2023-07-01T10:12:15Z</time>
      </trkpt>
      <trkpt lat="43.74084" lon="-0.11281">
        <ele>116.8</ele>
        <time>2023-07-01T10:12:16Z</time>
      </trkpt>
      <trkpt lat="43.74088" lon="-0.11277">
        <ele>116.4</ele>
        <time>2023-07-01T10:12:20Z</time>
      </trkpt>
      <trkpt lat="43.74095" lon="-0.11272">
        <ele>115.8</ele>
        <time>2023-07-01T10:12:26Z</time>
      </trkpt>
      <trkpt lat="43.74096" lon="-0.11271">
        <ele>115.6</ele>
        <time>2023-07-01T10:12:27Z</time>
      </trkpt>
      <trkpt lat="43.74099" lon="-0.11267">
        <ele>115.4</ele>
        <time>2023-07-01T10:12:30Z</time>
      </trkpt>
      <trkpt lat="43.74105" lon="-0.11262">
        <ele>115.2</ele>
        <time>2023-07-01T10:12:35Z</time>
      </trkpt>
      <trkpt lat="43.74109" lon="-0.11257">
        <ele>114.6</ele>
        <time>2023-07-01T10:12:39Z</time>
      </trkpt>
      <trkpt lat="43.74115" lon="-0.11251">
        <ele>113.6</ele>
        <time>2023-07-01T10:12:44Z</time>
      </trkpt>
      <trkpt lat="43.74116" lon="-0.1125">
        <ele>113.4</ele>
        <time>2023-07-01T10:12:45Z</time>
      </trkpt>
      <trkpt lat="43.74127" lon="-0.11242">
        <ele>112.2</ele>
        <time>2023-07-01T10:12:54Z</time>
      </trkpt>
      <trkpt lat="43.74136" lon="-0.11234">
        <ele>111.2</ele>
        <time>2023-07-01T10:13:02Z</time>
      </trkpt>
      <trkpt lat="43.74143" lon="-0.11227">
        <ele>110.2</ele>
        <time>2023-07-01T10:13:08Z</time>
      </trkpt>
      <trkpt lat="43.74145" lon="-0.11226">
        <ele>110</ele>
        <time>2023-07-01T10:13:09Z</time>
      </trkpt>
      <trkpt lat="43.74151" lon="-0.11221">
        <ele>109</ele>
        <time>2023-07-01T10:13:14Z</time>
      </trkpt>
      <trkpt lat="43.74155" lon="-0.11219">
        <ele>108.6</ele>
        <time>2023-07-01T10:13:17Z</time>
      </trkpt>
      <trkpt lat="43.74158" lon="-0.11215">
        <ele>108</ele>
        <time>2023-07-01T10:13:21Z</time>
      </trkpt>
      <trkpt lat="43.7416" lon="-0.11212">
        <ele>107.6</ele>
        <time>2023-07-01T10:13:23Z</time>
      </trkpt>
      <trkpt lat="43.74164" lon="-0.11208">
        <ele>107</ele>
        <time>2023-07-01T10:13:28Z</time>
      </trkpt>
      <trkpt lat="43.74166" lon="-0.11206">
        <ele>106</ele>
        <time>2023-07-01T10:13:31Z</time>
      </trkpt>
      <trkpt lat="43.74167" lon="-0.11205">
        <ele>106</ele>
        <time>2023-07-01T10:13:32Z</time>
      </trkpt>
      <trkpt lat="43.74172" lon="-0.11203">
        <ele>105.2</ele>
        <time>2023-07-01T10:13:36Z</time>
      </trkpt>
      <trkpt lat="43.74172" lon="-0.11202">
        <ele>104.8</ele>
        <time>2023-07-01T10:13:37Z</time>
      </trkpt>
      <trkpt lat="43.74173" lon="-0.11201">
        <ele>104.6</ele>
        <time>2023-07-01T10:13:38Z</time>
      </trkpt>
      <trkpt lat="43.74175" lon="-0.112">
        <ele>104.2</ele>
        <time>2023-07-01T10:13:40Z</time>
      </trkpt>
      <trkpt lat="43.74181" lon="-0.11198">
        <ele>103.8</ele>
        <time>2023-07-01T10:13:44Z</time>
      </trkpt>
      <trkpt lat="43.74184" lon="-0.11199">
        <ele>103.6</ele>
        <time>2023-07-01T10:13:46Z</time>
      </trkpt>
      <trkpt lat="43.74187" lon="-0.112">
        <ele>103.4</ele>
        <time>2023-07-01T10:13:48Z</time>
      </trkpt>
      <trkpt lat="43.74192" lon="-0.112">
        <ele>103.4</ele>
        <time>2023-07-01T10:13:52Z</time>
      </trkpt>
      <trkpt lat="43.74193" lon="-0.112">
        <ele>103.4</ele>
        <time>2023-07-01T10:13:53Z</time>
      </trkpt>
      <trkpt lat="43.74193" lon="-0.11199">
        <ele>103.4</ele>
        <time>2023-07-01T10:13:54Z</time>
      </trkpt>
      <trkpt lat="43.74193" lon="-0.11202">
        <ele>103.2</ele>
        <time>2023-07-01T10:14:01Z</time>
      </trkpt>
      <trkpt lat="43.74198" lon="-0.1121">
        <ele>103</ele>
        <time>2023-07-01T10:14:08Z</time>
      </trkpt>
      <trkpt lat="43.74201" lon="-0.11212">
        <ele>103</ele>
        <time>2023-07-01T10:14:10Z</time>
      </trkpt>
      <trkpt lat="43.74205" lon="-0.11218">
        <ele>103</ele>
        <time>2023-07-01T10:14:14Z</time>
      </trkpt>
      <trkpt lat="43.74207" lon="-0.11221">
        <ele>102.8</ele>
        <time>2023-07-01T10:14:17Z</time>
      </trkpt>
      <trkpt lat="43.74208" lon="-0.11223">
        <ele>102.8</ele>
        <time>2023-07-01T10:14:18Z</time>
      </trkpt>
      <trkpt lat="43.74209" lon="-0.11224">
        <ele>102.8</ele>
        <time>2023-07-01T10:14:19Z</time>
      </trkpt>
      <trkpt lat="43.7421" lon="-0.11225">
        <ele>102.6</ele>
        <time>2023-07-01T10:14:20Z</time>
      </trkpt>
      <trkpt lat="43.7421" lon="-0.11227">
        <ele>102.6</ele>
        <time>2023-07-01T10:14:21Z</time>
      </trkpt>
      <trkpt lat="43.74214" lon="-0.11233">
        <ele>102.6</ele>
        <time>2023-07-01T10:14:25Z</time>
      </trkpt>
      <trkpt lat="43.74216" lon="-0.11236">
        <ele>102.8</ele>
        <time>2023-07-01T10:14:27Z</time>
      </trkpt>
      <trkpt lat="43.7422" lon="-0.11242">
        <ele>103</ele>
        <time>2023-07-01T10:14:32Z</time>
      </trkpt>
      <trkpt lat="43.74221" lon="-0.11243">
        <ele>103.2</ele>
        <time>2023-07-01T10:14:33Z</time>
      </trkpt>
      <trkpt lat="43.74224" lon="-0.11246">
        <ele>103.2</ele>
        <time>2023-07-01T10:14:36Z</time>
      </trkpt>
      <trkpt lat="43.74228" lon="-0.11247">
        <ele>103.2</ele>
        <time>2023-07-01T10:14:38Z</time>
      </trkpt>
      <trkpt lat="43.74233" lon="-0.11252">
        <ele>103.2</ele>
        <time>2023-07-01T10:14:43Z</time>
      </trkpt>
      <trkpt lat="43.74236" lon="-0.11255">
        <ele>103.4</ele>
        <time>2023-07-01T10:14:45Z</time>
      </trkpt>
      <trkpt lat="43.74239" lon="-0.11257">
        <ele>103.4</ele>
        <time>2023-07-01T10:14:47Z</time>
      </trkpt>
      <trkpt lat="43.74244" lon="-0.11262">
        <ele>103.2</ele>
        <time>2023-07-01T10:14:51Z</time>
      </trkpt>
      <trkpt lat="43.74245" lon="-0.11264">
        <ele>103.2</ele>
        <time>2023-07-01T10:14:52Z</time>
      </trkpt>
      <trkpt lat="43.74247" lon="-0.11265">
        <ele>103.2</ele>
        <time>2023-07-01T10:14:53Z</time>
      </trkpt>
      <trkpt lat="43.74249" lon="-0.11267">
        <ele>103</ele>
        <time>2023-07-01T10:14:55Z</time>
      </trkpt>
      <trkpt lat="43.7425" lon="-0.11269">
        <ele>102.8</ele>
        <time>2023-07-01T10:14:56Z</time>
      </trkpt>
      <trkpt lat="43.74252" lon="-0.1127">
        <ele>102.6</ele>
        <time>2023-07-01T10:14:57Z</time>
      </trkpt>
      <trkpt lat="43.74253" lon="-0.11273">
        <ele>102.6</ele>
        <time>2023-07-01T10:14:59Z</time>
      </trkpt>
      <trkpt lat="43.74254" lon="-0.11274">
        <ele>102.8</ele>
        <time>2023-07-01T10:15:00Z</time>
      </trkpt>
      <trkpt lat="43.74256" lon="-0.11276">
        <ele>102.8</ele>
        <time>2023-07-01T10:15:02Z</time>
      </trkpt>
      <trkpt lat="43.74256" lon="-0.11277">
        <ele>103</ele>
        <time>2023-07-01T10:15:03Z</time>
      </trkpt>
      <trkpt lat="43.74258" lon="-0.11281">
        <ele>103.2</ele>
        <time>2023-07-01T10:15:06Z</time>
      </trkpt>
      <trkpt lat="43.74261" lon="-0.11285">
        <ele>103.2</ele>
        <time>2023-07-01T10:15:10Z</time>
      </trkpt>
      <trkpt lat="43.74265" lon="-0.11294">
        <ele>103.2</ele>
        <time>2023-07-01T10:15:17Z</time>
      </trkpt>
      <trkpt lat="43.7427" lon="-0.11301">
        <ele>103.6</ele>
        <time>2023-07-01T10:15:22Z</time>
      </trkpt>
      <trkpt lat="43.74271" lon="-0.11303">
        <ele>103.6</ele>
        <time>2023-07-01T10:15:23Z</time>
      </trkpt>
      <trkpt lat="43.74272" lon="-0.11304">
        <ele>103.6</ele>
        <time>2023-07-01T10:15:24Z</time>
      </trkpt>
      <trkpt lat="43.74274" lon="-0.11304">
        <ele>103.8</ele>
        <time>2023-07-01T10:15:25Z</time>
      </trkpt>
      <trkpt lat="43.7428" lon="-0.11308">
        <ele>103.8</ele>
        <time>2023-07-01T10:15:30Z</time>
      </trkpt>
      <trkpt lat="43.74281" lon="-0.11308">
        <ele>103.8</ele>
        <time>2023-07-01T10:15:31Z</time>
      </trkpt>
      <trkpt lat="43.7429" lon="-0.1131">
        <ele>103.6</ele>
        <time>2023-07-01T10:15:37Z</time>
      </trkpt>
      <trkpt lat="43.743" lon="-0.1131">
        <ele>103.4</ele>
        <time>2023-07-01T10:15:43Z</time>
      </trkpt>
      <trkpt lat="43.74306" lon="-0.11308">
        <ele>103.8</ele>
        <time>2023-07-01T10:15:47Z</time>
      </trkpt>
      <trkpt lat="43.74307" lon="-0.11307">
        <ele>103.8</ele>
        <time>2023-07-01T10:15:48Z</time>
      </trkpt>
      <trkpt lat="43.74316" lon="-0.11304">
        <ele>104.6</ele>
        <time>2023-07-01T10:15:55Z</time>
      </trkpt>
      <trkpt lat="43.74318" lon="-0.11302">
        <ele>105</ele>
        <time>2023-07-01T10:15:57Z</time>
      </trkpt>
      <trkpt lat="43.7432" lon="-0.11301">
        <ele>105</ele>
        <time>2023-07-01T10:15:59Z</time>
      </trkpt>
      <trkpt lat="43.74321" lon="-0.11301">
        <ele>105</ele>
        <time>2023-07-01T10:16:00Z</time>
      </trkpt>
      <trkpt lat="43.74328" lon="-0.11294">
        <ele>105.2</ele>
        <time>2023-07-01T10:16:07Z</time>
      </trkpt>
      <trkpt lat="43.74329" lon="-0.11294">
        <ele>105.2</ele>
        <time>2023-07-01T10:16:08Z</time>
      </trkpt>
      <trkpt lat="43.74335" lon="-0.11286">
        <ele>106</ele>
        <time>2023-07-01T10:16:15Z</time>
      </trkpt>
      <trkpt lat="43.74336" lon="-0.11285">
        <ele>106.2</ele>
        <time>2023-07-01T10:16:16Z</time>
      </trkpt>
      <trkpt lat="43.74343" lon="-0.11277">
        <ele>106.8</ele>
        <time>2023-07-01T10:16:22Z</time>
      </trkpt>
      <trkpt lat="43.74347" lon="-0.11274">
        <ele>107</ele>
        <time>2023-07-01T10:16:26Z</time>
      </trkpt>
      <trkpt lat="43.74351" lon="-0.11272">
        <ele>107.2</ele>
        <time>2023-07-01T10:16:29Z</time>
      </trkpt>
      <trkpt lat="43.7436" lon="-0.11265">
        <ele>107.8</ele>
        <time>2023-07-01T10:16:36Z</time>
      </trkpt>
      <trkpt lat="43.74367" lon="-0.11261">
        <ele>108.2</ele>
        <time>2023-07-01T10:16:42Z</time>
      </trkpt>
      <trkpt lat="43.74368" lon="-0.11259">
        <ele>108.2</ele>
        <time>2023-07-01T10:16:44Z</time>
      </trkpt>
      <trkpt lat="43.74375" lon="-0.11255">
        <ele>108.8</ele>
        <time>2023-07-01T10:16:49Z</time>
      </trkpt>
      <trkpt lat="43.74377" lon="-0.11253">
        <ele>109</ele>
        <time>2023-07-01T10:16:51Z</time>
      </trkpt>
      <trkpt lat="43.7438" lon="-0.11251">
        <ele>109.4</ele>
        <time>2023-07-01T10:16:53Z</time>
      </trkpt>
      <trkpt lat="43.74384" lon="-0.11249">
        <ele>109.6</ele>
        <time>2023-07-01T10:16:57Z</time>
      </trkpt>
      <trkpt lat="43.74385" lon="-0.11248">
        <ele>109.4</ele>
        <time>2023-07-01T10:16:58Z</time>
      </trkpt>
      <trkpt lat="43.74392" lon="-0.11241">
        <ele>109.8</ele>
        <time>2023-07-01T10:17:05Z</time>
      </trkpt>
      <trkpt lat="43.74397" lon="-0.11235">
        <ele>110.2</ele>
        <time>2023-07-01T10:17:10Z</time>
      </trkpt>
      <trkpt lat="43.74398" lon="-0.11234">
        <ele>110.4</ele>
        <time>2023-07-01T10:17:11Z</time>
      </trkpt>
      <trkpt lat="43.744" lon="-0.11232">
        <ele>110.4</ele>
        <time>2023-07-01T10:17:13Z</time>
      </trkpt>
      <trkpt lat="43.74402" lon="-0.1123">
        <ele>110.4</ele>
        <time>2023-07-01T10:17:15Z</time>
      </trkpt>
      <trkpt lat="43.74405" lon="-0.11228">
        <ele>110.4</ele>
        <time>2023-07-01T10:17:18Z</time>
      </trkpt>
      <trkpt lat="43.7441" lon="-0.11223">
        <ele>110.6</ele>
        <time>2023-07-01T10:17:24Z</time>
      </trkpt>
      <trkpt lat="43.74414" lon="-0.11219">
        <ele>110.8</ele>
        <time>2023-07-01T10:17:28Z</time>
      </trkpt>
      <trkpt lat="43.74419" lon="-0.11216">
        <ele>110.8</ele>
        <time>2023-07-01T10:17:33Z</time>
      </trkpt>
      <trkpt lat="43.7442" lon="-0.11215">
        <ele>110.6</ele>
        <time>2023-07-01T10:17:34Z</time>
      </trkpt>
      <trkpt lat="43.74428" lon="-0.11208">
        <ele>111.4</ele>
        <time>2023-07-01T10:17:40Z</time>
      </trkpt>
      <trkpt lat="43.74436" lon="-0.11203">
        <ele>111.2</ele>
        <time>2023-07-01T10:17:46Z</time>
      </trkpt>
      <trkpt lat="43.74438" lon="-0.11201">
        <ele>111.2</ele>
        <time>2023-07-01T10:17:49Z</time>
      </trkpt>
      <trkpt lat="43.74441" lon="-0.11198">
        <ele>110.8</ele>
        <time>2023-07-01T10:17:53Z</time>
      </trkpt>
      <trkpt lat="43.74443" lon="-0.11197">
        <ele>110.8</ele>
        <time>2023-07-01T10:17:54Z</time>
      </trkpt>
      <trkpt lat="43.74449" lon="-0.11196">
        <ele>110.8</ele>
        <time>2023-07-01T10:17:58Z</time>
      </trkpt>
      <trkpt lat="43.7446" lon="-0.11193">
        <ele>110.8</ele>
        <time>2023-07-01T10:18:07Z</time>
      </trkpt>
      <trkpt lat="43.74461" lon="-0.11191">
        <ele>111</ele>
        <time>2023-07-01T10:18:09Z</time>
      </trkpt>
      <trkpt lat="43.74463" lon="-0.1119">
        <ele>111</ele>
        <time>2023-07-01T10:18:10Z</time>
      </trkpt>
      <trkpt lat="43.74464" lon="-0.1119">
        <ele>111</ele>
        <time>2023-07-01T10:18:11Z</time>
      </trkpt>
      <trkpt lat="43.74469" lon="-0.11186">
        <ele>110.8</ele>
        <time>2023-07-01T10:18:15Z</time>
      </trkpt>
      <trkpt lat="43.74472" lon="-0.11184">
        <ele>110.4</ele>
        <time>2023-07-01T10:18:17Z</time>
      </trkpt>
      <trkpt lat="43.74473" lon="-0.11183">
        <ele>110.4</ele>
        <time>2023-07-01T10:18:18Z</time>
      </trkpt>
      <trkpt lat="43.74477" lon="-0.11179">
        <ele>110.2</ele>
        <time>2023-07-01T10:18:21Z</time>
      </trkpt>
      <trkpt lat="43.74478" lon="-0.11178">
        <ele>110.2</ele>
        <time>2023-07-01T10:18:22Z</time>
      </trkpt>
      <trkpt lat="43.74487" lon="-0.11169">
        <ele>110.4</ele>
        <time>2023-07-01T10:18:29Z</time>
      </trkpt>
      <trkpt lat="43.74494" lon="-0.11157">
        <ele>110.8</ele>
        <time>2023-07-01T10:18:36Z</time>
      </trkpt>
      <trkpt lat="43.74495" lon="-0.11154">
        <ele>111</ele>
        <time>2023-07-01T10:18:38Z</time>
      </trkpt>
      <trkpt lat="43.74498" lon="-0.11146">
        <ele>111.4</ele>
        <time>2023-07-01T10:18:43Z</time>
      </trkpt>
      <trkpt lat="43.74501" lon="-0.11142">
        <ele>111.8</ele>
        <time>2023-07-01T10:18:46Z</time>
      </trkpt>
      <trkpt lat="43.74503" lon="-0.1114">
        <ele>112</ele>
        <time>2023-07-01T10:18:48Z</time>
      </trkpt>
      <trkpt lat="43.74505" lon="-0.11139">
        <ele>112</ele>
        <time>2023-07-01T10:18:49Z</time>
      </trkpt>
      <trkpt lat="43.74506" lon="-0.11138">
        <ele>112</ele>
        <time>2023-07-01T10:18:50Z</time>
      </trkpt>
      <trkpt lat="43.74509" lon="-0.11132">
        <ele>112.4</ele>
        <time>2023-07-01T10:18:54Z</time>
      </trkpt>
      <trkpt lat="43.7451" lon="-0.11129">
        <ele>112.8</ele>
        <time>2023-07-01T10:18:56Z</time>
      </trkpt>
      <trkpt lat="43.74511" lon="-0.11128">
        <ele>112.8</ele>
        <time>2023-07-01T10:18:57Z</time>
      </trkpt>
      <trkpt lat="43.74512" lon="-0.11126">
        <ele>112.8</ele>
        <time>2023-07-01T10:18:58Z</time>
      </trkpt>
      <trkpt lat="43.74514" lon="-0.1112">
        <ele>112.8</ele>
        <time>2023-07-01T10:19:02Z</time>
      </trkpt>
      <trkpt lat="43.74516" lon="-0.11115">
        <ele>112.6</ele>
        <time>2023-07-01T10:19:05Z</time>
      </trkpt>
      <trkpt lat="43.74517" lon="-0.11111">
        <ele>112.6</ele>
        <time>2023-07-01T10:19:08Z</time>
      </trkpt>
      <trkpt lat="43.74517" lon="-0.1111">
        <ele>112.6</ele>
        <time>2023-07-01T10:19:09Z</time>
      </trkpt>
      <trkpt lat="43.74519" lon="-0.11098">
        <ele>113.2</ele>
        <time>2023-07-01T10:19:16Z</time>
      </trkpt>
      <trkpt lat="43.74521" lon="-0.11085">
        <ele>113</ele>
        <time>2023-07-01T10:19:23Z</time>
      </trkpt>
      <trkpt lat="43.74521" lon="-0.11082">
        <ele>113</ele>
        <time>2023-07-01T10:19:25Z</time>
      </trkpt>
      <trkpt lat="43.74521" lon="-0.11076">
        <ele>113.4</ele>
        <time>2023-07-01T10:19:29Z</time>
      </trkpt>
      <trkpt lat="43.74522" lon="-0.11075">
        <ele>113.4</ele>
        <time>2023-07-01T10:19:30Z</time>
      </trkpt>
      <trkpt lat="43.74521" lon="-0.11069">
        <ele>114.6</ele>
        <time>2023-07-01T10:19:36Z</time>
      </trkpt>
      <trkpt lat="43.74519" lon="-0.1106">
        <ele>115.6</ele>
        <time>2023-07-01T10:19:44Z</time>
      </trkpt>
      <trkpt lat="43.74517" lon="-0.11055">
        <ele>115.8</ele>
        <time>2023-07-01T10:19:46Z</time>
      </trkpt>
      <trkpt lat="43.74516" lon="-0.11052">
        <ele>116.2</ele>
        <time>2023-07-01T10:19:48Z</time>
      </trkpt>
      <trkpt lat="43.74514" lon="-0.11047">
        <ele>116.2</ele>
        <time>2023-07-01T10:19:50Z</time>
      </trkpt>
      <trkpt lat="43.74513" lon="-0.11044">
        <ele>116.2</ele>
        <time>2023-07-01T10:19:51Z</time>
      </trkpt>
      <trkpt lat="43.7451" lon="-0.11035">
        <ele>116.2</ele>
        <time>2023-07-01T10:19:55Z</time>
      </trkpt>
      <trkpt lat="43.74505" lon="-0.11024">
        <ele>116.6</ele>
        <time>2023-07-01T10:20:02Z</time>
      </trkpt>
      <trkpt lat="43.74502" lon="-0.11018">
        <ele>116.6</ele>
        <time>2023-07-01T10:20:06Z</time>
      </trkpt>
      <trkpt lat="43.74499" lon="-0.11013">
        <ele>116.8</ele>
        <time>2023-07-01T10:20:09Z</time>
      </trkpt>
      <trkpt lat="43.74492" lon="-0.11002">
        <ele>117</ele>
        <time>2023-07-01T10:20:16Z</time>
      </trkpt>
      <trkpt lat="43.74488" lon="-0.10992">
        <ele>117.4</ele>
        <time>2023-07-01T10:20:22Z</time>
      </trkpt>
      <trkpt lat="43.74487" lon="-0.10989">
        <ele>117.6</ele>
        <time>2023-07-01T10:20:24Z</time>
      </trkpt>
      <trkpt lat="43.74486" lon="-0.10987">
        <ele>117.8</ele>
        <time>2023-07-01T10:20:25Z</time>
      </trkpt>
      <trkpt lat="43.74481" lon="-0.10978">
        <ele>118</ele>
        <time>2023-07-01T10:20:31Z</time>
      </trkpt>
      <trkpt lat="43.7448" lon="-0.10973">
        <ele>118.2</ele>
        <time>2023-07-01T10:20:34Z</time>
      </trkpt>
      <trkpt lat="43.74479" lon="-0.10972">
        <ele>118.2</ele>
        <time>2023-07-01T10:20:35Z</time>
      </trkpt>
      <trkpt lat="43.74474" lon="-0.10963">
        <ele>118.6</ele>
        <time>2023-07-01T10:20:42Z</time>
      </trkpt>
      <trkpt lat="43.74473" lon="-0.1096">
        <ele>119.2</ele>
        <time>2023-07-01T10:20:44Z</time>
      </trkpt>
      <trkpt lat="43.74472" lon="-0.10957">
        <ele>119.4</ele>
        <time>2023-07-01T10:20:46Z</time>
      </trkpt>
      <trkpt lat="43.74469" lon="-0.10951">
        <ele>119.6</ele>
        <time>2023-07-01T10:20:50Z</time>
      </trkpt>
      <trkpt lat="43.74467" lon="-0.10946">
        <ele>120.2</ele>
        <time>2023-07-01T10:20:53Z</time>
      </trkpt>
      <trkpt lat="43.74462" lon="-0.10936">
        <ele>120.2</ele>
        <time>2023-07-01T10:21:00Z</time>
      </trkpt>
      <trkpt lat="43.7446" lon="-0.1093">
        <ele>120</ele>
        <time>2023-07-01T10:21:05Z</time>
      </trkpt>
      <trkpt lat="43.74457" lon="-0.10923">
        <ele>120.2</ele>
        <time>2023-07-01T10:21:09Z</time>
      </trkpt>
      <trkpt lat="43.74453" lon="-0.10909">
        <ele>120</ele>
        <time>2023-07-01T10:21:17Z</time>
      </trkpt>
      <trkpt lat="43.7445" lon="-0.10897">
        <ele>120.2</ele>
        <time>2023-07-01T10:21:24Z</time>
      </trkpt>
      <trkpt lat="43.74446" lon="-0.1088">
        <ele>121</ele>
        <time>2023-07-01T10:21:34Z</time>
      </trkpt>
      <trkpt lat="43.74443" lon="-0.10861">
        <ele>120.8</ele>
        <time>2023-07-01T10:21:44Z</time>
      </trkpt>
      <trkpt lat="43.74443" lon="-0.10852">
        <ele>120.8</ele>
        <time>2023-07-01T10:21:49Z</time>
      </trkpt>
      <trkpt lat="43.74443" lon="-0.10848">
        <ele>121</ele>
        <time>2023-07-01T10:21:52Z</time>
      </trkpt>
      <trkpt lat="43.7444" lon="-0.10836">
        <ele>121.2</ele>
        <time>2023-07-01T10:21:59Z</time>
      </trkpt>
      <trkpt lat="43.74439" lon="-0.10828">
        <ele>121.2</ele>
        <time>2023-07-01T10:22:04Z</time>
      </trkpt>
      <trkpt lat="43.74439" lon="-0.10825">
        <ele>121.2</ele>
        <time>2023-07-01T10:22:06Z</time>
      </trkpt>
      <trkpt lat="43.74438" lon="-0.10823">
        <ele>121.2</ele>
        <time>2023-07-01T10:22:07Z</time>
      </trkpt>
      <trkpt lat="43.74436" lon="-0.10811">
        <ele>121.6</ele>
        <time>2023-07-01T10:22:14Z</time>
      </trkpt>
      <trkpt lat="43.74433" lon="-0.10801">
        <ele>122</ele>
        <time>2023-07-01T10:22:20Z</time>
      </trkpt>
      <trkpt lat="43.74433" lon="-0.10797">
        <ele>122.2</ele>
        <time>2023-07-01T10:22:22Z</time>
      </trkpt>
      <trkpt lat="43.7443" lon="-0.10786">
        <ele>122.4</ele>
        <time>2023-07-01T10:22:28Z</time>
      </trkpt>
      <trkpt lat="43.74429" lon="-0.10781">
        <ele>122.4</ele>
        <time>2023-07-01T10:22:30Z</time>
      </trkpt>
      <trkpt lat="43.74428" lon="-0.10778">
        <ele>122.4</ele>
        <time>2023-07-01T10:22:31Z</time>
      </trkpt>
      <trkpt lat="43.74429" lon="-0.10772">
        <ele>122.2</ele>
        <time>2023-07-01T10:22:34Z</time>
      </trkpt>
      <trkpt lat="43.74429" lon="-0.10771">
        <ele>122.2</ele>
        <time>2023-07-01T10:22:36Z</time>
      </trkpt>
      <trkpt lat="43.74429" lon="-0.10769">
        <ele>122.4</ele>
        <time>2023-07-01T10:22:37Z</time>
      </trkpt>
      <trkpt lat="43.74429" lon="-0.10762">
        <ele>122.6</ele>
        <time>2023-07-01T10:22:41Z</time>
      </trkpt>
      <trkpt lat="43.74429" lon="-0.1076">
        <ele>122.8</ele>
        <time>2023-07-01T10:22:42Z</time>
      </trkpt>
      <trkpt lat="43.74429" lon="-0.10756">
        <ele>122.8</ele>
        <time>2023-07-01T10:22:44Z</time>
      </trkpt>
      <trkpt lat="43.74428" lon="-0.10749">
        <ele>122.8</ele>
        <time>2023-07-01T10:22:49Z</time>
      </trkpt>
      <trkpt lat="43.74427" lon="-0.10747">
        <ele>122.8</ele>
        <time>2023-07-01T10:22:50Z</time>
      </trkpt>
      <trkpt lat="43.74427" lon="-0.10745">
        <ele>122.8</ele>
        <time>2023-07-01T10:22:51Z</time>
      </trkpt>
      <trkpt lat="43.74426" lon="-0.10742">
        <ele>122.8</ele>
        <time>2023-07-01T10:22:53Z</time>
      </trkpt>
      <trkpt lat="43.74424" lon="-0.10736">
        <ele>123</ele>
        <time>2023-07-01T10:22:56Z</time>
      </trkpt>
      <trkpt lat="43.74422" lon="-0.10731">
        <ele>122.8</ele>
        <time>2023-07-01T10:22:58Z</time>
      </trkpt>
      <trkpt lat="43.7442" lon="-0.10722">
        <ele>122.8</ele>
        <time>2023-07-01T10:23:03Z</time>
      </trkpt>
      <trkpt lat="43.7442" lon="-0.10718">
        <ele>123</ele>
        <time>2023-07-01T10:23:05Z</time>
      </trkpt>
      <trkpt lat="43.74422" lon="-0.10709">
        <ele>123.4</ele>
        <time>2023-07-01T10:23:09Z</time>
      </trkpt>
      <trkpt lat="43.7443" lon="-0.10697">
        <ele>123.4</ele>
        <time>2023-07-01T10:23:18Z</time>
      </trkpt>
      <trkpt lat="43.7443" lon="-0.10695">
        <ele>123.4</ele>
        <time>2023-07-01T10:23:19Z</time>
      </trkpt>
      <trkpt lat="43.74431" lon="-0.10695">
        <ele>123.4</ele>
        <time>2023-07-01T10:23:20Z</time>
      </trkpt>
      <trkpt lat="43.74438" lon="-0.10689">
        <ele>123.4</ele>
        <time>2023-07-01T10:23:25Z</time>
      </trkpt>
      <trkpt lat="43.74445" lon="-0.10683">
        <ele>123.6</ele>
        <time>2023-07-01T10:23:31Z</time>
      </trkpt>
      <trkpt lat="43.74455" lon="-0.10674">
        <ele>123.8</ele>
        <time>2023-07-01T10:23:38Z</time>
      </trkpt>
      <trkpt lat="43.74459" lon="-0.10672">
        <ele>123.4</ele>
        <time>2023-07-01T10:23:41Z</time>
      </trkpt>
      <trkpt lat="43.74461" lon="-0.1067">
        <ele>123.6</ele>
        <time>2023-07-01T10:23:43Z</time>
      </trkpt>
      <trkpt lat="43.74469" lon="-0.10665">
        <ele>122.8</ele>
        <time>2023-07-01T10:23:49Z</time>
      </trkpt>
      <trkpt lat="43.74471" lon="-0.10664">
        <ele>122.8</ele>
        <time>2023-07-01T10:23:50Z</time>
      </trkpt>
      <trkpt lat="43.74474" lon="-0.1066">
        <ele>122.8</ele>
        <time>2023-07-01T10:23:53Z</time>
      </trkpt>
      <trkpt lat="43.74476" lon="-0.10658">
        <ele>122.8</ele>
        <time>2023-07-01T10:23:55Z</time>
      </trkpt>
      <trkpt lat="43.7448" lon="-0.10651">
        <ele>123</ele>
        <time>2023-07-01T10:24:00Z</time>
      </trkpt>
      <trkpt lat="43.74482" lon="-0.10647">
        <ele>122.8</ele>
        <time>2023-07-01T10:24:03Z</time>
      </trkpt>
      <trkpt lat="43.74482" lon="-0.10646">
        <ele>122.8</ele>
        <time>2023-07-01T10:24:04Z</time>
      </trkpt>
      <trkpt lat="43.74481" lon="-0.10639">
        <ele>123.4</ele>
        <time>2023-07-01T10:24:08Z</time>
      </trkpt>
      <trkpt lat="43.74476" lon="-0.1063">
        <ele>123.6</ele>
        <time>2023-07-01T10:24:15Z</time>
      </trkpt>
      <trkpt lat="43.74469" lon="-0.10622">
        <ele>124</ele>
        <time>2023-07-01T10:24:23Z</time>
      </trkpt>
      <trkpt lat="43.74468" lon="-0.10621">
        <ele>124.2</ele>
        <time>2023-07-01T10:24:24Z</time>
      </trkpt>
      <trkpt lat="43.74463" lon="-0.10613">
        <ele>124.4</ele>
        <time>2023-07-01T10:24:29Z</time>
      </trkpt>
      <trkpt lat="43.74455" lon="-0.10605">
        <ele>124.6</ele>
        <time>2023-07-01T10:24:36Z</time>
      </trkpt>
      <trkpt lat="43.74447" lon="-0.10596">
        <ele>124.2</ele>
        <time>2023-07-01T10:24:43Z</time>
      </trkpt>
      <trkpt lat="43.74437" lon="-0.10583">
        <ele>124.6</ele>
        <time>2023-07-01T10:24:53Z</time>
      </trkpt>
      <trkpt lat="43.74427" lon="-0.10569">
        <ele>124.2</ele>
        <time>2023-07-01T10:25:03Z</time>
      </trkpt>
      <trkpt lat="43.7442" lon="-0.10561">
        <ele>124.4</ele>
        <time>2023-07-01T10:25:11Z</time>
      </trkpt>
      <trkpt lat="43.74411" lon="-0.10552">
        <ele>124.4</ele>
        <time>2023-07-01T10:25:19Z</time>
      </trkpt>
      <trkpt lat="43.74402" lon="-0.10543">
        <ele>125</ele>
        <time>2023-07-01T10:25:27Z</time>
      </trkpt>
      <trkpt lat="43.74399" lon="-0.10538">
        <ele>125</ele>
        <time>2023-07-01T10:25:31Z</time>
      </trkpt>
      <trkpt lat="43.74396" lon="-0.10535">
        <ele>125</ele>
        <time>2023-07-01T10:25:34Z</time>
      </trkpt>
      <trkpt lat="43.74394" lon="-0.10532">
        <ele>125</ele>
        <time>2023-07-01T10:25:36Z</time>
      </trkpt>
      <trkpt lat="43.74392" lon="-0.1053">
        <ele>125</ele>
        <time>2023-07-01T10:25:38Z</time>
      </trkpt>
      <trkpt lat="43.74389" lon="-0.10526">
        <ele>125.2</ele>
        <time>2023-07-01T10:25:41Z</time>
      </trkpt>
      <trkpt lat="43.74382" lon="-0.10517">
        <ele>125</ele>
        <time>2023-07-01T10:25:48Z</time>
      </trkpt>
      <trkpt lat="43.74373" lon="-0.10505">
        <ele>125</ele>
        <time>2023-07-01T10:25:57Z</time>
      </trkpt>
      <trkpt lat="43.74364" lon="-0.10495">
        <ele>124.6</ele>
        <time>2023-07-01T10:26:05Z</time>
      </trkpt>
      <trkpt lat="43.74361" lon="-0.10492">
        <ele>124.6</ele>
        <time>2023-07-01T10:26:07Z</time>
      </trkpt>
      <trkpt lat="43.74352" lon="-0.10482">
        <ele>124.2</ele>
        <time>2023-07-01T10:26:15Z</time>
      </trkpt>
      <trkpt lat="43.74348" lon="-0.10477">
        <ele>124.2</ele>
        <time>2023-07-01T10:26:19Z</time>
      </trkpt>
      <trkpt lat="43.74345" lon="-0.10473">
        <ele>124.2</ele>
        <time>2023-07-01T10:26:23Z</time>
      </trkpt>
      <trkpt lat="43.74342" lon="-0.10468">
        <ele>124.4</ele>
        <time>2023-07-01T10:26:28Z</time>
      </trkpt>
      <trkpt lat="43.74341" lon="-0.10466">
        <ele>124.4</ele>
        <time>2023-07-01T10:26:30Z</time>
      </trkpt>
      <trkpt lat="43.74339" lon="-0.10464">
        <ele>124.4</ele>
        <time>2023-07-01T10:26:32Z</time>
      </trkpt>
      <trkpt lat="43.74335" lon="-0.10462">
        <ele>124.6</ele>
        <time>2023-07-01T10:26:35Z</time>
      </trkpt>
      <trkpt lat="43.74328" lon="-0.10452">
        <ele>124.8</ele>
        <time>2023-07-01T10:26:43Z</time>
      </trkpt>
      <trkpt lat="43.7432" lon="-0.10443">
        <ele>124.8</ele>
        <time>2023-07-01T10:26:51Z</time>
      </trkpt>
      <trkpt lat="43.74313" lon="-0.10435">
        <ele>125.2</ele>
        <time>2023-07-01T10:26:57Z</time>
      </trkpt>
      <trkpt lat="43.74311" lon="-0.10434">
        <ele>125.2</ele>
        <time>2023-07-01T10:26:58Z</time>
      </trkpt>
      <trkpt lat="43.74302" lon="-0.10423">
        <ele>125.6</ele>
        <time>2023-07-01T10:27:06Z</time>
      </trkpt>
      <trkpt lat="43.74293" lon="-0.10412">
        <ele>125.4</ele>
        <time>2023-07-01T10:27:14Z</time>
      </trkpt>
      <trkpt lat="43.74288" lon="-0.10408">
        <ele>125.4</ele>
        <time>2023-07-01T10:27:18Z</time>
      </trkpt>
      <trkpt lat="43.74286" lon="-0.10404">
        <ele>125.6</ele>
        <time>2023-07-01T10:27:21Z</time>
      </trkpt>
      <trkpt lat="43.74279" lon="-0.10395">
        <ele>126.2</ele>
        <time>2023-07-01T10:27:29Z</time>
      </trkpt>
      <trkpt lat="43.74278" lon="-0.1039">
        <ele>126.2</ele>
        <time>2023-07-01T10:27:31Z</time>
      </trkpt>
      <trkpt lat="43.7428" lon="-0.10382">
        <ele>126</ele>
        <time>2023-07-01T10:27:35Z</time>
      </trkpt>
      <trkpt lat="43.74287" lon="-0.10374">
        <ele>125.8</ele>
        <time>2023-07-01T10:27:42Z</time>
      </trkpt>
      <trkpt lat="43.74288" lon="-0.10373">
        <ele>125.8</ele>
        <time>2023-07-01T10:27:43Z</time>
      </trkpt>
      <trkpt lat="43.7429" lon="-0.10371">
        <ele>125.8</ele>
        <time>2023-07-01T10:27:45Z</time>
      </trkpt>
      <trkpt lat="43.74294" lon="-0.10368">
        <ele>125.8</ele>
        <time>2023-07-01T10:27:48Z</time>
      </trkpt>
      <trkpt lat="43.74296" lon="-0.10365">
        <ele>125.8</ele>
        <time>2023-07-01T10:27:50Z</time>
      </trkpt>
      <trkpt lat="43.74301" lon="-0.10363">
        <ele>125.8</ele>
        <time>2023-07-01T10:27:54Z</time>
      </trkpt>
      <trkpt lat="43.74302" lon="-0.10362">
        <ele>125.6</ele>
        <time>2023-07-01T10:27:55Z</time>
      </trkpt>
      <trkpt lat="43.74306" lon="-0.10359">
        <ele>125.8</ele>
        <time>2023-07-01T10:27:58Z</time>
      </trkpt>
      <trkpt lat="43.74314" lon="-0.10353">
        <ele>126.2</ele>
        <time>2023-07-01T10:28:05Z</time>
      </trkpt>
      <trkpt lat="43.74314" lon="-0.10351">
        <ele>126.4</ele>
        <time>2023-07-01T10:28:07Z</time>
      </trkpt>
      <trkpt lat="43.74316" lon="-0.1035">
        <ele>126.4</ele>
        <time>2023-07-01T10:28:10Z</time>
      </trkpt>
      <trkpt lat="43.74317" lon="-0.1035">
        <ele>126.6</ele>
        <time>2023-07-01T10:28:11Z</time>
      </trkpt>
      <trkpt lat="43.74318" lon="-0.10349">
        <ele>126.6</ele>
        <time>2023-07-01T10:28:12Z</time>
      </trkpt>
      <trkpt lat="43.74299" lon="-0.10359">
        <ele>127.8</ele>
        <time>2023-07-01T11:23:32Z</time>
      </trkpt>
      <trkpt lat="43.74304" lon="-0.10358">
        <ele>127.8</ele>
        <time>2023-07-01T11:23:33Z</time>
      </trkpt>
      <trkpt lat="43.74305" lon="-0.10358">
        <ele>127.8</ele>
        <time>2023-07-01T11:23:35Z</time>
      </trkpt>
      <trkpt lat="43.74308" lon="-0.10357">
        <ele>127.8</ele>
        <time>2023-07-01T11:23:36Z</time>
      </trkpt>
      <trkpt lat="43.74308" lon="-0.10357">
        <ele>127.8</ele>
        <time>2023-07-01T11:23:37Z</time>
      </trkpt>
      <trkpt lat="43.7431" lon="-0.10359">
        <ele>127.2</ele>
        <time>2023-07-01T11:23:44Z</time>
      </trkpt>
      <trkpt lat="43.7431" lon="-0.10359">
        <ele>127.2</ele>
        <time>2023-07-01T11:23:45Z</time>
      </trkpt>
      <trkpt lat="43.74303" lon="-0.10364">
        <ele>126.6</ele>
        <time>2023-07-01T11:23:54Z</time>
      </trkpt>
      <trkpt lat="43.74301" lon="-0.10366">
        <ele>126.8</ele>
        <time>2023-07-01T11:23:56Z</time>
      </trkpt>
      <trkpt lat="43.743" lon="-0.10367">
        <ele>126.8</ele>
        <time>2023-07-01T11:23:57Z</time>
      </trkpt>
      <trkpt lat="43.74293" lon="-0.10372">
        <ele>126.6</ele>
        <time>2023-07-01T11:24:06Z</time>
      </trkpt>
      <trkpt lat="43.7429" lon="-0.10371">
        <ele>126.4</ele>
        <time>2023-07-01T11:24:10Z</time>
      </trkpt>
      <trkpt lat="43.74288" lon="-0.10369">
        <ele>126.4</ele>
        <time>2023-07-01T11:24:13Z</time>
      </trkpt>
      <trkpt lat="43.74287" lon="-0.10369">
        <ele>126.4</ele>
        <time>2023-07-01T11:24:25Z</time>
      </trkpt>
      <trkpt lat="43.74289" lon="-0.10358">
        <ele>126</ele>
        <time>2023-07-01T11:24:32Z</time>
      </trkpt>
      <trkpt lat="43.7429" lon="-0.10353">
        <ele>126.2</ele>
        <time>2023-07-01T11:24:35Z</time>
      </trkpt>
      <trkpt lat="43.74291" lon="-0.10347">
        <ele>126</ele>
        <time>2023-07-01T11:24:39Z</time>
      </trkpt>
      <trkpt lat="43.74293" lon="-0.10342">
        <ele>125.8</ele>
        <time>2023-07-01T11:24:42Z</time>
      </trkpt>
      <trkpt lat="43.74297" lon="-0.10331">
        <ele>125.8</ele>
        <time>2023-07-01T11:24:50Z</time>
      </trkpt>
      <trkpt lat="43.743" lon="-0.10325">
        <ele>125.6</ele>
        <time>2023-07-01T11:24:55Z</time>
      </trkpt>
      <trkpt lat="43.74302" lon="-0.10322">
        <ele>125.6</ele>
        <time>2023-07-01T11:24:57Z</time>
      </trkpt>
      <trkpt lat="43.74308" lon="-0.10314">
        <ele>125.2</ele>
        <time>2023-07-01T11:25:04Z</time>
      </trkpt>
      <trkpt lat="43.74309" lon="-0.10313">
        <ele>125.2</ele>
        <time>2023-07-01T11:25:05Z</time>
      </trkpt>
      <trkpt lat="43.74312" lon="-0.10308">
        <ele>124.8</ele>
        <time>2023-07-01T11:25:08Z</time>
      </trkpt>
      <trkpt lat="43.74315" lon="-0.10305">
        <ele>124.6</ele>
        <time>2023-07-01T11:25:11Z</time>
      </trkpt>
      <trkpt lat="43.74316" lon="-0.10304">
        <ele>124.6</ele>
        <time>2023-07-01T11:25:12Z</time>
      </trkpt>
      <trkpt lat="43.74318" lon="-0.103">
        <ele>124.2</ele>
        <time>2023-07-01T11:25:15Z</time>
      </trkpt>
      <trkpt lat="43.7432" lon="-0.10295">
        <ele>124.2</ele>
        <time>2023-07-01T11:25:18Z</time>
      </trkpt>
      <trkpt lat="43.74326" lon="-0.1028">
        <ele>124</ele>
        <time>2023-07-01T11:25:28Z</time>
      </trkpt>
      <trkpt lat="43.74329" lon="-0.10269">
        <ele>123.8</ele>
        <time>2023-07-01T11:25:36Z</time>
      </trkpt>
      <trkpt lat="43.74331" lon="-0.10263">
        <ele>123.6</ele>
        <time>2023-07-01T11:25:40Z</time>
      </trkpt>
      <trkpt lat="43.74332" lon="-0.10259">
        <ele>123.4</ele>
        <time>2023-07-01T11:25:43Z</time>
      </trkpt>
      <trkpt lat="43.74335" lon="-0.10246">
        <ele>123.2</ele>
        <time>2023-07-01T11:25:51Z</time>
      </trkpt>
      <trkpt lat="43.7434" lon="-0.10239">
        <ele>123.4</ele>
        <time>2023-07-01T11:25:56Z</time>
      </trkpt>
      <trkpt lat="43.7434" lon="-0.10234">
        <ele>123.4</ele>
        <time>2023-07-01T11:25:59Z</time>
      </trkpt>
      <trkpt lat="43.7434" lon="-0.10228">
        <ele>123.2</ele>
        <time>2023-07-01T11:26:02Z</time>
      </trkpt>
      <trkpt lat="43.74339" lon="-0.10226">
        <ele>123.2</ele>
        <time>2023-07-01T11:26:03Z</time>
      </trkpt>
      <trkpt lat="43.74338" lon="-0.10218">
        <ele>123</ele>
        <time>2023-07-01T11:26:07Z</time>
      </trkpt>
      <trkpt lat="43.74337" lon="-0.10215">
        <ele>123</ele>
        <time>2023-07-01T11:26:09Z</time>
      </trkpt>
      <trkpt lat="43.74335" lon="-0.10212">
        <ele>122.8</ele>
        <time>2023-07-01T11:26:11Z</time>
      </trkpt>
      <trkpt lat="43.74329" lon="-0.102">
        <ele>122.6</ele>
        <time>2023-07-01T11:26:19Z</time>
      </trkpt>
      <trkpt lat="43.74329" lon="-0.10198">
        <ele>122.4</ele>
        <time>2023-07-01T11:26:20Z</time>
      </trkpt>
      <trkpt lat="43.74328" lon="-0.10197">
        <ele>122.4</ele>
        <time>2023-07-01T11:26:21Z</time>
      </trkpt>
      <trkpt lat="43.74324" lon="-0.10192">
        <ele>122.2</ele>
        <time>2023-07-01T11:26:25Z</time>
      </trkpt>
      <trkpt lat="43.74318" lon="-0.10186">
        <ele>122</ele>
        <time>2023-07-01T11:26:31Z</time>
      </trkpt>
      <trkpt lat="43.74317" lon="-0.10184">
        <ele>122</ele>
        <time>2023-07-01T11:26:33Z</time>
      </trkpt>
      <trkpt lat="43.74316" lon="-0.10181">
        <ele>122</ele>
        <time>2023-07-01T11:26:35Z</time>
      </trkpt>
      <trkpt lat="43.74315" lon="-0.1018">
        <ele>122</ele>
        <time>2023-07-01T11:26:36Z</time>
      </trkpt>
      <trkpt lat="43.74315" lon="-0.10179">
        <ele>122</ele>
        <time>2023-07-01T11:26:37Z</time>
      </trkpt>
      <trkpt lat="43.74314" lon="-0.10177">
        <ele>122</ele>
        <time>2023-07-01T11:26:38Z</time>
      </trkpt>
      <trkpt lat="43.74312" lon="-0.10173">
        <ele>121.8</ele>
        <time>2023-07-01T11:26:40Z</time>
      </trkpt>
      <trkpt lat="43.7431" lon="-0.10169">
        <ele>121.6</ele>
        <time>2023-07-01T11:26:42Z</time>
      </trkpt>
      <trkpt lat="43.7431" lon="-0.10168">
        <ele>121.6</ele>
        <time>2023-07-01T11:26:43Z</time>
      </trkpt>
      <trkpt lat="43.74309" lon="-0.10166">
        <ele>121.8</ele>
        <time>2023-07-01T11:26:44Z</time>
      </trkpt>
      <trkpt lat="43.74307" lon="-0.10164">
        <ele>121.8</ele>
        <time>2023-07-01T11:26:46Z</time>
      </trkpt>
      <trkpt lat="43.74305" lon="-0.10161">
        <ele>121.6</ele>
        <time>2023-07-01T11:26:48Z</time>
      </trkpt>
      <trkpt lat="43.74305" lon="-0.10159">
        <ele>121.6</ele>
        <time>2023-07-01T11:26:49Z</time>
      </trkpt>
      <trkpt lat="43.74303" lon="-0.10155">
        <ele>121.4</ele>
        <time>2023-07-01T11:26:51Z</time>
      </trkpt>
      <trkpt lat="43.74299" lon="-0.10147">
        <ele>121.2</ele>
        <time>2023-07-01T11:26:56Z</time>
      </trkpt>
      <trkpt lat="43.74296" lon="-0.10144">
        <ele>121.4</ele>
        <time>2023-07-01T11:26:59Z</time>
      </trkpt>
      <trkpt lat="43.74291" lon="-0.10139">
        <ele>121.4</ele>
        <time>2023-07-01T11:27:04Z</time>
      </trkpt>
      <trkpt lat="43.74289" lon="-0.10137">
        <ele>121.4</ele>
        <time>2023-07-01T11:27:06Z</time>
      </trkpt>
      <trkpt lat="43.74281" lon="-0.10129">
        <ele>121</ele>
        <time>2023-07-01T11:27:14Z</time>
      </trkpt>
      <trkpt lat="43.74275" lon="-0.1012">
        <ele>120.6</ele>
        <time>2023-07-01T11:27:22Z</time>
      </trkpt>
      <trkpt lat="43.74274" lon="-0.10119">
        <ele>120.8</ele>
        <time>2023-07-01T11:27:23Z</time>
      </trkpt>
      <trkpt lat="43.7427" lon="-0.10112">
        <ele>121</ele>
        <time>2023-07-01T11:27:28Z</time>
      </trkpt>
      <trkpt lat="43.74263" lon="-0.10098">
        <ele>120.6</ele>
        <time>2023-07-01T11:27:36Z</time>
      </trkpt>
      <trkpt lat="43.74261" lon="-0.10093">
        <ele>120.4</ele>
        <time>2023-07-01T11:27:39Z</time>
      </trkpt>
      <trkpt lat="43.74257" lon="-0.10086">
        <ele>120.2</ele>
        <time>2023-07-01T11:27:44Z</time>
      </trkpt>
      <trkpt lat="43.74256" lon="-0.10082">
        <ele>120.4</ele>
        <time>2023-07-01T11:27:46Z</time>
      </trkpt>
      <trkpt lat="43.74252" lon="-0.10071">
        <ele>120.4</ele>
        <time>2023-07-01T11:27:52Z</time>
      </trkpt>
      <trkpt lat="43.74248" lon="-0.10057">
        <ele>120.2</ele>
        <time>2023-07-01T11:28:00Z</time>
      </trkpt>
      <trkpt lat="43.74246" lon="-0.10052">
        <ele>120.2</ele>
        <time>2023-07-01T11:28:03Z</time>
      </trkpt>
      <trkpt lat="43.74244" lon="-0.10048">
        <ele>120.4</ele>
        <time>2023-07-01T11:28:06Z</time>
      </trkpt>
      <trkpt lat="43.74242" lon="-0.10046">
        <ele>120.6</ele>
        <time>2023-07-01T11:28:08Z</time>
      </trkpt>
      <trkpt lat="43.74237" lon="-0.1004">
        <ele>120.8</ele>
        <time>2023-07-01T11:28:13Z</time>
      </trkpt>
      <trkpt lat="43.74235" lon="-0.10038">
        <ele>120.6</ele>
        <time>2023-07-01T11:28:15Z</time>
      </trkpt>
      <trkpt lat="43.74231" lon="-0.10031">
        <ele>120.8</ele>
        <time>2023-07-01T11:28:21Z</time>
      </trkpt>
      <trkpt lat="43.74226" lon="-0.10025">
        <ele>121.2</ele>
        <time>2023-07-01T11:28:26Z</time>
      </trkpt>
      <trkpt lat="43.74224" lon="-0.10023">
        <ele>121.4</ele>
        <time>2023-07-01T11:28:28Z</time>
      </trkpt>
      <trkpt lat="43.74223" lon="-0.10022">
        <ele>121.4</ele>
        <time>2023-07-01T11:28:29Z</time>
      </trkpt>
      <trkpt lat="43.74217" lon="-0.10014">
        <ele>121.8</ele>
        <time>2023-07-01T11:28:36Z</time>
      </trkpt>
      <trkpt lat="43.74212" lon="-0.10002">
        <ele>122.4</ele>
        <time>2023-07-01T11:28:43Z</time>
      </trkpt>
      <trkpt lat="43.74211" lon="-0.1">
        <ele>122.6</ele>
        <time>2023-07-01T11:28:44Z</time>
      </trkpt>
      <trkpt lat="43.7421" lon="-0.09998">
        <ele>122.6</ele>
        <time>2023-07-01T11:28:45Z</time>
      </trkpt>
      <trkpt lat="43.74205" lon="-0.09987">
        <ele>122.6</ele>
        <time>2023-07-01T11:28:52Z</time>
      </trkpt>
      <trkpt lat="43.74198" lon="-0.0998">
        <ele>122.4</ele>
        <time>2023-07-01T11:29:01Z</time>
      </trkpt>
      <trkpt lat="43.74196" lon="-0.09981">
        <ele>122.4</ele>
        <time>2023-07-01T11:29:04Z</time>
      </trkpt>
      <trkpt lat="43.74195" lon="-0.09982">
        <ele>122.2</ele>
        <time>2023-07-01T11:29:06Z</time>
      </trkpt>
      <trkpt lat="43.74189" lon="-0.09972">
        <ele>122.2</ele>
        <time>2023-07-01T11:29:50Z</time>
      </trkpt>
      <trkpt lat="43.74189" lon="-0.09971">
        <ele>122.2</ele>
        <time>2023-07-01T11:29:51Z</time>
      </trkpt>
      <trkpt lat="43.74189" lon="-0.09963">
        <ele>122.2</ele>
        <time>2023-07-01T11:29:56Z</time>
      </trkpt>
      <trkpt lat="43.74187" lon="-0.09956">
        <ele>122</ele>
        <time>2023-07-01T11:30:00Z</time>
      </trkpt>
      <trkpt lat="43.74185" lon="-0.09951">
        <ele>121.8</ele>
        <time>2023-07-01T11:30:03Z</time>
      </trkpt>
      <trkpt lat="43.74184" lon="-0.09947">
        <ele>121.6</ele>
        <time>2023-07-01T11:30:05Z</time>
      </trkpt>
      <trkpt lat="43.74183" lon="-0.09945">
        <ele>121.6</ele>
        <time>2023-07-01T11:30:06Z</time>
      </trkpt>
      <trkpt lat="43.74181" lon="-0.09938">
        <ele>121</ele>
        <time>2023-07-01T11:30:10Z</time>
      </trkpt>
      <trkpt lat="43.74179" lon="-0.09931">
        <ele>120.4</ele>
        <time>2023-07-01T11:30:14Z</time>
      </trkpt>
      <trkpt lat="43.74177" lon="-0.09924">
        <ele>120</ele>
        <time>2023-07-01T11:30:18Z</time>
      </trkpt>
      <trkpt lat="43.74176" lon="-0.0992">
        <ele>119.6</ele>
        <time>2023-07-01T11:30:21Z</time>
      </trkpt>
      <trkpt lat="43.74175" lon="-0.09918">
        <ele>119.4</ele>
        <time>2023-07-01T11:30:22Z</time>
      </trkpt>
      <trkpt lat="43.74174" lon="-0.09915">
        <ele>119</ele>
        <time>2023-07-01T11:30:25Z</time>
      </trkpt>
      <trkpt lat="43.74174" lon="-0.09914">
        <ele>119</ele>
        <time>2023-07-01T11:30:26Z</time>
      </trkpt>
      <trkpt lat="43.74173" lon="-0.09911">
        <ele>118.6</ele>
        <time>2023-07-01T11:30:28Z</time>
      </trkpt>
      <trkpt lat="43.74172" lon="-0.09909">
        <ele>118.4</ele>
        <time>2023-07-01T11:30:30Z</time>
      </trkpt>
      <trkpt lat="43.74171" lon="-0.09905">
        <ele>117.8</ele>
        <time>2023-07-01T11:30:33Z</time>
      </trkpt>
      <trkpt lat="43.7417" lon="-0.09904">
        <ele>117.8</ele>
        <time>2023-07-01T11:30:34Z</time>
      </trkpt>
      <trkpt lat="43.74168" lon="-0.099">
        <ele>117.2</ele>
        <time>2023-07-01T11:30:37Z</time>
      </trkpt>
      <trkpt lat="43.74168" lon="-0.09898">
        <ele>117.2</ele>
        <time>2023-07-01T11:30:38Z</time>
      </trkpt>
      <trkpt lat="43.74166" lon="-0.09894">
        <ele>117</ele>
        <time>2023-07-01T11:30:41Z</time>
      </trkpt>
      <trkpt lat="43.74167" lon="-0.09882">
        <ele>116.8</ele>
        <time>2023-07-01T11:30:49Z</time>
      </trkpt>
      <trkpt lat="43.74167" lon="-0.09877">
        <ele>116.6</ele>
        <time>2023-07-01T11:30:51Z</time>
      </trkpt>
      <trkpt lat="43.74167" lon="-0.09873">
        <ele>116.2</ele>
        <time>2023-07-01T11:30:53Z</time>
      </trkpt>
      <trkpt lat="43.74167" lon="-0.09872">
        <ele>116</ele>
        <time>2023-07-01T11:30:54Z</time>
      </trkpt>
      <trkpt lat="43.74167" lon="-0.0987">
        <ele>116</ele>
        <time>2023-07-01T11:30:55Z</time>
      </trkpt>
      <trkpt lat="43.74168" lon="-0.09868">
        <ele>115.8</ele>
        <time>2023-07-01T11:30:56Z</time>
      </trkpt>
      <trkpt lat="43.74169" lon="-0.09859">
        <ele>115.4</ele>
        <time>2023-07-01T11:31:00Z</time>
      </trkpt>
      <trkpt lat="43.7417" lon="-0.09855">
        <ele>115.2</ele>
        <time>2023-07-01T11:31:02Z</time>
      </trkpt>
      <trkpt lat="43.7417" lon="-0.0985">
        <ele>115</ele>
        <time>2023-07-01T11:31:06Z</time>
      </trkpt>
      <trkpt lat="43.7417" lon="-0.09844">
        <ele>114.6</ele>
        <time>2023-07-01T11:31:11Z</time>
      </trkpt>
      <trkpt lat="43.74171" lon="-0.09841">
        <ele>114.4</ele>
        <time>2023-07-01T11:31:13Z</time>
      </trkpt>
      <trkpt lat="43.74172" lon="-0.09829">
        <ele>114</ele>
        <time>2023-07-01T11:31:20Z</time>
      </trkpt>
      <trkpt lat="43.74172" lon="-0.09828">
        <ele>113.8</ele>
        <time>2023-07-01T11:31:21Z</time>
      </trkpt>
      <trkpt lat="43.74173" lon="-0.09826">
        <ele>113.6</ele>
        <time>2023-07-01T11:31:22Z</time>
      </trkpt>
      <trkpt lat="43.74175" lon="-0.09817">
        <ele>113.4</ele>
        <time>2023-07-01T11:31:27Z</time>
      </trkpt>
      <trkpt lat="43.74177" lon="-0.09811">
        <ele>113.4</ele>
        <time>2023-07-01T11:31:30Z</time>
      </trkpt>
      <trkpt lat="43.74177" lon="-0.09809">
        <ele>113.4</ele>
        <time>2023-07-01T11:31:31Z</time>
      </trkpt>
      <trkpt lat="43.74177" lon="-0.09805">
        <ele>113.2</ele>
        <time>2023-07-01T11:31:33Z</time>
      </trkpt>
      <trkpt lat="43.74177" lon="-0.09802">
        <ele>113</ele>
        <time>2023-07-01T11:31:35Z</time>
      </trkpt>
      <trkpt lat="43.74178" lon="-0.09795">
        <ele>113</ele>
        <time>2023-07-01T11:31:39Z</time>
      </trkpt>
      <trkpt lat="43.74177" lon="-0.09791">
        <ele>112.6</ele>
        <time>2023-07-01T11:31:42Z</time>
      </trkpt>
      <trkpt lat="43.74178" lon="-0.09789">
        <ele>112.6</ele>
        <time>2023-07-01T11:31:43Z</time>
      </trkpt>
      <trkpt lat="43.74176" lon="-0.0978">
        <ele>112.2</ele>
        <time>2023-07-01T11:31:47Z</time>
      </trkpt>
      <trkpt lat="43.74175" lon="-0.09778">
        <ele>112.2</ele>
        <time>2023-07-01T11:31:48Z</time>
      </trkpt>
      <trkpt lat="43.74175" lon="-0.09773">
        <ele>112.2</ele>
        <time>2023-07-01T11:31:50Z</time>
      </trkpt>
      <trkpt lat="43.74174" lon="-0.09761">
        <ele>112.2</ele>
        <time>2023-07-01T11:31:56Z</time>
      </trkpt>
      <trkpt lat="43.74173" lon="-0.09759">
        <ele>112.2</ele>
        <time>2023-07-01T11:31:57Z</time>
      </trkpt>
      <trkpt lat="43.74172" lon="-0.09756">
        <ele>112</ele>
        <time>2023-07-01T11:31:59Z</time>
      </trkpt>
      <trkpt lat="43.74171" lon="-0.09754">
        <ele>111.8</ele>
        <time>2023-07-01T11:32:00Z</time>
      </trkpt>
      <trkpt lat="43.74169" lon="-0.09748">
        <ele>111.2</ele>
        <time>2023-07-01T11:32:04Z</time>
      </trkpt>
      <trkpt lat="43.74164" lon="-0.09736">
        <ele>110.6</ele>
        <time>2023-07-01T11:32:13Z</time>
      </trkpt>
      <trkpt lat="43.74161" lon="-0.0973">
        <ele>110.2</ele>
        <time>2023-07-01T11:32:17Z</time>
      </trkpt>
      <trkpt lat="43.74161" lon="-0.09729">
        <ele>110.2</ele>
        <time>2023-07-01T11:32:18Z</time>
      </trkpt>
      <trkpt lat="43.74159" lon="-0.09724">
        <ele>109.8</ele>
        <time>2023-07-01T11:32:21Z</time>
      </trkpt>
      <trkpt lat="43.74159" lon="-0.09722">
        <ele>109.6</ele>
        <time>2023-07-01T11:32:23Z</time>
      </trkpt>
      <trkpt lat="43.74159" lon="-0.0972">
        <ele>109.6</ele>
        <time>2023-07-01T11:32:24Z</time>
      </trkpt>
      <trkpt lat="43.7416" lon="-0.09714">
        <ele>109.2</ele>
        <time>2023-07-01T11:32:26Z</time>
      </trkpt>
      <trkpt lat="43.7416" lon="-0.09713">
        <ele>109.2</ele>
        <time>2023-07-01T11:32:27Z</time>
      </trkpt>
      <trkpt lat="43.74161" lon="-0.09709">
        <ele>109</ele>
        <time>2023-07-01T11:32:29Z</time>
      </trkpt>
      <trkpt lat="43.74163" lon="-0.09702">
        <ele>108.4</ele>
        <time>2023-07-01T11:32:34Z</time>
      </trkpt>
      <trkpt lat="43.74164" lon="-0.09697">
        <ele>108.2</ele>
        <time>2023-07-01T11:32:37Z</time>
      </trkpt>
      <trkpt lat="43.74167" lon="-0.09688">
        <ele>107.6</ele>
        <time>2023-07-01T11:32:42Z</time>
      </trkpt>
      <trkpt lat="43.74168" lon="-0.09687">
        <ele>107.4</ele>
        <time>2023-07-01T11:32:43Z</time>
      </trkpt>
      <trkpt lat="43.74174" lon="-0.09673">
        <ele>107</ele>
        <time>2023-07-01T11:32:51Z</time>
      </trkpt>
      <trkpt lat="43.74179" lon="-0.09664">
        <ele>106.4</ele>
        <time>2023-07-01T11:32:57Z</time>
      </trkpt>
      <trkpt lat="43.74182" lon="-0.09651">
        <ele>105.4</ele>
        <time>2023-07-01T11:33:05Z</time>
      </trkpt>
      <trkpt lat="43.74182" lon="-0.09649">
        <ele>105.4</ele>
        <time>2023-07-01T11:33:06Z</time>
      </trkpt>
      <trkpt lat="43.74181" lon="-0.09639">
        <ele>104.6</ele>
        <time>2023-07-01T11:33:11Z</time>
      </trkpt>
      <trkpt lat="43.74181" lon="-0.09636">
        <ele>104.4</ele>
        <time>2023-07-01T11:33:13Z</time>
      </trkpt>
      <trkpt lat="43.74181" lon="-0.09634">
        <ele>104.4</ele>
        <time>2023-07-01T11:33:14Z</time>
      </trkpt>
      <trkpt lat="43.7418" lon="-0.09632">
        <ele>104.2</ele>
        <time>2023-07-01T11:33:16Z</time>
      </trkpt>
      <trkpt lat="43.74177" lon="-0.09626">
        <ele>103.8</ele>
        <time>2023-07-01T11:33:21Z</time>
      </trkpt>
      <trkpt lat="43.74174" lon="-0.09617">
        <ele>103.4</ele>
        <time>2023-07-01T11:33:27Z</time>
      </trkpt>
      <trkpt lat="43.74172" lon="-0.09612">
        <ele>103.2</ele>
        <time>2023-07-01T11:33:30Z</time>
      </trkpt>
      <trkpt lat="43.74171" lon="-0.09608">
        <ele>103</ele>
        <time>2023-07-01T11:33:32Z</time>
      </trkpt>
      <trkpt lat="43.74171" lon="-0.09603">
        <ele>103</ele>
        <time>2023-07-01T11:33:34Z</time>
      </trkpt>
      <trkpt lat="43.74172" lon="-0.09598">
        <ele>102.8</ele>
        <time>2023-07-01T11:33:36Z</time>
      </trkpt>
      <trkpt lat="43.74179" lon="-0.09587">
        <ele>102.8</ele>
        <time>2023-07-01T11:33:43Z</time>
      </trkpt>
      <trkpt lat="43.74182" lon="-0.09581">
        <ele>102.4</ele>
        <time>2023-07-01T11:33:48Z</time>
      </trkpt>
      <trkpt lat="43.74186" lon="-0.09577">
        <ele>102</ele>
        <time>2023-07-01T11:33:51Z</time>
      </trkpt>
      <trkpt lat="43.74187" lon="-0.09574">
        <ele>102</ele>
        <time>2023-07-01T11:33:53Z</time>
      </trkpt>
      <trkpt lat="43.74189" lon="-0.09572">
        <ele>101.8</ele>
        <time>2023-07-01T11:33:55Z</time>
      </trkpt>
      <trkpt lat="43.74193" lon="-0.09566">
        <ele>101.4</ele>
        <time>2023-07-01T11:33:59Z</time>
      </trkpt>
      <trkpt lat="43.74199" lon="-0.09559">
        <ele>100.6</ele>
        <time>2023-07-01T11:34:05Z</time>
      </trkpt>
      <trkpt lat="43.74201" lon="-0.09556">
        <ele>100.2</ele>
        <time>2023-07-01T11:34:07Z</time>
      </trkpt>
      <trkpt lat="43.7421" lon="-0.09547">
        <ele>99.6</ele>
        <time>2023-07-01T11:34:15Z</time>
      </trkpt>
      <trkpt lat="43.74216" lon="-0.0954">
        <ele>99.2</ele>
        <time>2023-07-01T11:34:22Z</time>
      </trkpt>
      <trkpt lat="43.74216" lon="-0.09539">
        <ele>99.2</ele>
        <time>2023-07-01T11:34:23Z</time>
      </trkpt>
      <trkpt lat="43.74217" lon="-0.09535">
        <ele>98.6</ele>
        <time>2023-07-01T11:34:26Z</time>
      </trkpt>
      <trkpt lat="43.74218" lon="-0.09532">
        <ele>98.6</ele>
        <time>2023-07-01T11:34:28Z</time>
      </trkpt>
      <trkpt lat="43.74218" lon="-0.09528">
        <ele>98.2</ele>
        <time>2023-07-01T11:34:31Z</time>
      </trkpt>
      <trkpt lat="43.74218" lon="-0.09526">
        <ele>98</ele>
        <time>2023-07-01T11:34:32Z</time>
      </trkpt>
      <trkpt lat="43.74219" lon="-0.09525">
        <ele>98</ele>
        <time>2023-07-01T11:34:33Z</time>
      </trkpt>
      <trkpt lat="43.74225" lon="-0.09512">
        <ele>97.6</ele>
        <time>2023-07-01T11:34:40Z</time>
      </trkpt>
      <trkpt lat="43.74225" lon="-0.0951">
        <ele>97.6</ele>
        <time>2023-07-01T11:34:41Z</time>
      </trkpt>
      <trkpt lat="43.74229" lon="-0.095">
        <ele>97</ele>
        <time>2023-07-01T11:34:48Z</time>
      </trkpt>
      <trkpt lat="43.7423" lon="-0.09499">
        <ele>97</ele>
        <time>2023-07-01T11:34:49Z</time>
      </trkpt>
      <trkpt lat="43.74232" lon="-0.09495">
        <ele>96.8</ele>
        <time>2023-07-01T11:34:51Z</time>
      </trkpt>
      <trkpt lat="43.74233" lon="-0.0949">
        <ele>96.8</ele>
        <time>2023-07-01T11:34:54Z</time>
      </trkpt>
      <trkpt lat="43.74236" lon="-0.09484">
        <ele>96.6</ele>
        <time>2023-07-01T11:34:57Z</time>
      </trkpt>
      <trkpt lat="43.74237" lon="-0.09482">
        <ele>96.4</ele>
        <time>2023-07-01T11:34:58Z</time>
      </trkpt>
      <trkpt lat="43.74242" lon="-0.09465">
        <ele>96.8</ele>
        <time>2023-07-01T11:35:07Z</time>
      </trkpt>
      <trkpt lat="43.74244" lon="-0.09459">
        <ele>96.8</ele>
        <time>2023-07-01T11:35:10Z</time>
      </trkpt>
      <trkpt lat="43.74247" lon="-0.09451">
        <ele>96.6</ele>
        <time>2023-07-01T11:35:15Z</time>
      </trkpt>
      <trkpt lat="43.7425" lon="-0.09444">
        <ele>96.4</ele>
        <time>2023-07-01T11:35:19Z</time>
      </trkpt>
      <trkpt lat="43.74255" lon="-0.0943">
        <ele>96.2</ele>
        <time>2023-07-01T11:35:27Z</time>
      </trkpt>
      <trkpt lat="43.74259" lon="-0.09423">
        <ele>96.4</ele>
        <time>2023-07-01T11:35:33Z</time>
      </trkpt>
      <trkpt lat="43.74263" lon="-0.09413">
        <ele>96</ele>
        <time>2023-07-01T11:35:40Z</time>
      </trkpt>
      <trkpt lat="43.74265" lon="-0.09409">
        <ele>96</ele>
        <time>2023-07-01T11:35:43Z</time>
      </trkpt>
      <trkpt lat="43.74269" lon="-0.09402">
        <ele>95.6</ele>
        <time>2023-07-01T11:35:47Z</time>
      </trkpt>
      <trkpt lat="43.74274" lon="-0.09391">
        <ele>95.6</ele>
        <time>2023-07-01T11:35:55Z</time>
      </trkpt>
      <trkpt lat="43.74275" lon="-0.09386">
        <ele>95.6</ele>
        <time>2023-07-01T11:36:00Z</time>
      </trkpt>
      <trkpt lat="43.74275" lon="-0.09385">
        <ele>95.4</ele>
        <time>2023-07-01T11:36:02Z</time>
      </trkpt>
      <trkpt lat="43.74276" lon="-0.09376">
        <ele>95</ele>
        <time>2023-07-01T11:36:09Z</time>
      </trkpt>
      <trkpt lat="43.74276" lon="-0.09375">
        <ele>95</ele>
        <time>2023-07-01T11:36:10Z</time>
      </trkpt>
      <trkpt lat="43.74276" lon="-0.09373">
        <ele>94.8</ele>
        <time>2023-07-01T11:36:11Z</time>
      </trkpt>
      <trkpt lat="43.74276" lon="-0.09366">
        <ele>94.8</ele>
        <time>2023-07-01T11:36:15Z</time>
      </trkpt>
      <trkpt lat="43.74277" lon="-0.09364">
        <ele>94.6</ele>
        <time>2023-07-01T11:36:16Z</time>
      </trkpt>
      <trkpt lat="43.7428" lon="-0.09357">
        <ele>94.4</ele>
        <time>2023-07-01T11:36:21Z</time>
      </trkpt>
      <trkpt lat="43.74282" lon="-0.09343">
        <ele>94.6</ele>
        <time>2023-07-01T11:36:29Z</time>
      </trkpt>
      <trkpt lat="43.74282" lon="-0.0934">
        <ele>94.6</ele>
        <time>2023-07-01T11:36:30Z</time>
      </trkpt>
      <trkpt lat="43.74283" lon="-0.09338">
        <ele>94.6</ele>
        <time>2023-07-01T11:36:31Z</time>
      </trkpt>
      <trkpt lat="43.74286" lon="-0.09328">
        <ele>94.2</ele>
        <time>2023-07-01T11:36:37Z</time>
      </trkpt>
      <trkpt lat="43.74287" lon="-0.09325">
        <ele>94.2</ele>
        <time>2023-07-01T11:36:39Z</time>
      </trkpt>
      <trkpt lat="43.74289" lon="-0.09315">
        <ele>94</ele>
        <time>2023-07-01T11:36:44Z</time>
      </trkpt>
      <trkpt lat="43.7429" lon="-0.09307">
        <ele>93.8</ele>
        <time>2023-07-01T11:36:49Z</time>
      </trkpt>
      <trkpt lat="43.7429" lon="-0.09302">
        <ele>93.8</ele>
        <time>2023-07-01T11:36:52Z</time>
      </trkpt>
      <trkpt lat="43.74291" lon="-0.09292">
        <ele>93.6</ele>
        <time>2023-07-01T11:36:58Z</time>
      </trkpt>
      <trkpt lat="43.74295" lon="-0.09279">
        <ele>93.8</ele>
        <time>2023-07-01T11:37:04Z</time>
      </trkpt>
      <trkpt lat="43.74299" lon="-0.09262">
        <ele>93.8</ele>
        <time>2023-07-01T11:37:13Z</time>
      </trkpt>
      <trkpt lat="43.74308" lon="-0.09243">
        <ele>92.8</ele>
        <time>2023-07-01T11:37:24Z</time>
      </trkpt>
      <trkpt lat="43.74309" lon="-0.09242">
        <ele>92.6</ele>
        <time>2023-07-01T11:37:25Z</time>
      </trkpt>
      <trkpt lat="43.74313" lon="-0.09228">
        <ele>92.6</ele>
        <time>2023-07-01T11:37:34Z</time>
      </trkpt>
      <trkpt lat="43.74317" lon="-0.09215">
        <ele>92.4</ele>
        <time>2023-07-01T11:37:42Z</time>
      </trkpt>
      <trkpt lat="43.74321" lon="-0.092">
        <ele>92.2</ele>
        <time>2023-07-01T11:37:51Z</time>
      </trkpt>
      <trkpt lat="43.74324" lon="-0.0919">
        <ele>92.2</ele>
        <time>2023-07-01T11:37:57Z</time>
      </trkpt>
      <trkpt lat="43.74325" lon="-0.09186">
        <ele>92.2</ele>
        <time>2023-07-01T11:38:00Z</time>
      </trkpt>
      <trkpt lat="43.74326" lon="-0.09181">
        <ele>91.8</ele>
        <time>2023-07-01T11:38:04Z</time>
      </trkpt>
      <trkpt lat="43.74326" lon="-0.09179">
        <ele>91.8</ele>
        <time>2023-07-01T11:38:05Z</time>
      </trkpt>
      <trkpt lat="43.74326" lon="-0.09171">
        <ele>91.8</ele>
        <time>2023-07-01T11:38:10Z</time>
      </trkpt>
      <trkpt lat="43.74327" lon="-0.09166">
        <ele>91.8</ele>
        <time>2023-07-01T11:38:14Z</time>
      </trkpt>
      <trkpt lat="43.74329" lon="-0.09162">
        <ele>91.6</ele>
        <time>2023-07-01T11:38:16Z</time>
      </trkpt>
      <trkpt lat="43.74335" lon="-0.09153">
        <ele>91.8</ele>
        <time>2023-07-01T11:38:23Z</time>
      </trkpt>
      <trkpt lat="43.74344" lon="-0.09152">
        <ele>91.8</ele>
        <time>2023-07-01T11:38:30Z</time>
      </trkpt>
      <trkpt lat="43.74351" lon="-0.09155">
        <ele>91.8</ele>
        <time>2023-07-01T11:38:36Z</time>
      </trkpt>
      <trkpt lat="43.74357" lon="-0.09163">
        <ele>91.6</ele>
        <time>2023-07-01T11:38:43Z</time>
      </trkpt>
      <trkpt lat="43.74364" lon="-0.0917">
        <ele>91.4</ele>
        <time>2023-07-01T11:38:49Z</time>
      </trkpt>
      <trkpt lat="43.74365" lon="-0.09171">
        <ele>91.4</ele>
        <time>2023-07-01T11:38:50Z</time>
      </trkpt>
      <trkpt lat="43.74372" lon="-0.09177">
        <ele>91.4</ele>
        <time>2023-07-01T11:38:55Z</time>
      </trkpt>
      <trkpt lat="43.74375" lon="-0.09181">
        <ele>91.4</ele>
        <time>2023-07-01T11:38:58Z</time>
      </trkpt>
      <trkpt lat="43.74376" lon="-0.09182">
        <ele>91.4</ele>
        <time>2023-07-01T11:38:59Z</time>
      </trkpt>
      <trkpt lat="43.74378" lon="-0.09184">
        <ele>91.4</ele>
        <time>2023-07-01T11:39:01Z</time>
      </trkpt>
      <trkpt lat="43.74379" lon="-0.09185">
        <ele>91.4</ele>
        <time>2023-07-01T11:39:02Z</time>
      </trkpt>
      <trkpt lat="43.74382" lon="-0.09187">
        <ele>91.4</ele>
        <time>2023-07-01T11:39:04Z</time>
      </trkpt>
      <trkpt lat="43.74384" lon="-0.09189">
        <ele>91.4</ele>
        <time>2023-07-01T11:39:06Z</time>
      </trkpt>
      <trkpt lat="43.74385" lon="-0.0919">
        <ele>91.4</ele>
        <time>2023-07-01T11:39:07Z</time>
      </trkpt>
      <trkpt lat="43.74386" lon="-0.09191">
        <ele>91.4</ele>
        <time>2023-07-01T11:39:08Z</time>
      </trkpt>
      <trkpt lat="43.74392" lon="-0.09203">
        <ele>92.2</ele>
        <time>2023-07-01T11:39:15Z</time>
      </trkpt>
      <trkpt lat="43.74394" lon="-0.09206">
        <ele>92.2</ele>
        <time>2023-07-01T11:39:17Z</time>
      </trkpt>
      <trkpt lat="43.74394" lon="-0.09207">
        <ele>92.2</ele>
        <time>2023-07-01T11:39:18Z</time>
      </trkpt>
      <trkpt lat="43.74397" lon="-0.09211">
        <ele>92.2</ele>
        <time>2023-07-01T11:39:21Z</time>
      </trkpt>
      <trkpt lat="43.74398" lon="-0.09212">
        <ele>92.2</ele>
        <time>2023-07-01T11:39:22Z</time>
      </trkpt>
      <trkpt lat="43.74404" lon="-0.0922">
        <ele>92.2</ele>
        <time>2023-07-01T11:39:29Z</time>
      </trkpt>
      <trkpt lat="43.74412" lon="-0.09228">
        <ele>92.2</ele>
        <time>2023-07-01T11:39:37Z</time>
      </trkpt>
      <trkpt lat="43.74421" lon="-0.09239">
        <ele>92.6</ele>
        <time>2023-07-01T11:39:46Z</time>
      </trkpt>
      <trkpt lat="43.74421" lon="-0.09241">
        <ele>92.8</ele>
        <time>2023-07-01T11:39:47Z</time>
      </trkpt>
      <trkpt lat="43.74422" lon="-0.09242">
        <ele>93</ele>
        <time>2023-07-01T11:39:48Z</time>
      </trkpt>
      <trkpt lat="43.74423" lon="-0.09245">
        <ele>93.4</ele>
        <time>2023-07-01T11:39:50Z</time>
      </trkpt>
      <trkpt lat="43.74428" lon="-0.09252">
        <ele>93.2</ele>
        <time>2023-07-01T11:39:55Z</time>
      </trkpt>
      <trkpt lat="43.74432" lon="-0.09257">
        <ele>93.2</ele>
        <time>2023-07-01T11:39:59Z</time>
      </trkpt>
      <trkpt lat="43.74438" lon="-0.09264">
        <ele>93.2</ele>
        <time>2023-07-01T11:40:04Z</time>
      </trkpt>
      <trkpt lat="43.74445" lon="-0.09271">
        <ele>93</ele>
        <time>2023-07-01T11:40:11Z</time>
      </trkpt>
      <trkpt lat="43.74446" lon="-0.09273">
        <ele>93</ele>
        <time>2023-07-01T11:40:12Z</time>
      </trkpt>
      <trkpt lat="43.74449" lon="-0.09275">
        <ele>92.8</ele>
        <time>2023-07-01T11:40:14Z</time>
      </trkpt>
      <trkpt lat="43.74451" lon="-0.09276">
        <ele>92.8</ele>
        <time>2023-07-01T11:40:16Z</time>
      </trkpt>
      <trkpt lat="43.74454" lon="-0.09279">
        <ele>92.6</ele>
        <time>2023-07-01T11:40:19Z</time>
      </trkpt>
      <trkpt lat="43.74459" lon="-0.09283">
        <ele>92.4</ele>
        <time>2023-07-01T11:40:23Z</time>
      </trkpt>
      <trkpt lat="43.74461" lon="-0.09282">
        <ele>92.2</ele>
        <time>2023-07-01T11:40:25Z</time>
      </trkpt>
      <trkpt lat="43.74464" lon="-0.09277">
        <ele>91.6</ele>
        <time>2023-07-01T11:40:29Z</time>
      </trkpt>
      <trkpt lat="43.74465" lon="-0.09274">
        <ele>91.4</ele>
        <time>2023-07-01T11:40:31Z</time>
      </trkpt>
      <trkpt lat="43.74467" lon="-0.09264">
        <ele>91</ele>
        <time>2023-07-01T11:40:36Z</time>
      </trkpt>
      <trkpt lat="43.74468" lon="-0.09258">
        <ele>91</ele>
        <time>2023-07-01T11:40:39Z</time>
      </trkpt>
      <trkpt lat="43.74473" lon="-0.09241">
        <ele>90.6</ele>
        <time>2023-07-01T11:40:48Z</time>
      </trkpt>
      <trkpt lat="43.74474" lon="-0.09237">
        <ele>90.6</ele>
        <time>2023-07-01T11:40:50Z</time>
      </trkpt>
      <trkpt lat="43.74477" lon="-0.09229">
        <ele>90.8</ele>
        <time>2023-07-01T11:40:55Z</time>
      </trkpt>
      <trkpt lat="43.7448" lon="-0.0921">
        <ele>90.4</ele>
        <time>2023-07-01T11:41:06Z</time>
      </trkpt>
      <trkpt lat="43.74489" lon="-0.09199">
        <ele>90.2</ele>
        <time>2023-07-01T11:41:14Z</time>
      </trkpt>
      <trkpt lat="43.74499" lon="-0.09202">
        <ele>90.4</ele>
        <time>2023-07-01T11:41:21Z</time>
      </trkpt>
      <trkpt lat="43.74504" lon="-0.09205">
        <ele>90.4</ele>
        <time>2023-07-01T11:41:24Z</time>
      </trkpt>
      <trkpt lat="43.74507" lon="-0.09209">
        <ele>90.4</ele>
        <time>2023-07-01T11:41:28Z</time>
      </trkpt>
      <trkpt lat="43.74512" lon="-0.09216">
        <ele>90.8</ele>
        <time>2023-07-01T11:41:35Z</time>
      </trkpt>
      <trkpt lat="43.74514" lon="-0.09219">
        <ele>90.8</ele>
        <time>2023-07-01T11:41:38Z</time>
      </trkpt>
      <trkpt lat="43.74517" lon="-0.09223">
        <ele>91</ele>
        <time>2023-07-01T11:41:42Z</time>
      </trkpt>
      <trkpt lat="43.74524" lon="-0.09231">
        <ele>90.6</ele>
        <time>2023-07-01T11:41:48Z</time>
      </trkpt>
      <trkpt lat="43.74527" lon="-0.09236">
        <ele>90.8</ele>
        <time>2023-07-01T11:41:51Z</time>
      </trkpt>
      <trkpt lat="43.74532" lon="-0.09242">
        <ele>90.8</ele>
        <time>2023-07-01T11:41:55Z</time>
      </trkpt>
      <trkpt lat="43.74536" lon="-0.09246">
        <ele>90.8</ele>
        <time>2023-07-01T11:41:58Z</time>
      </trkpt>
      <trkpt lat="43.7454" lon="-0.09255">
        <ele>91</ele>
        <time>2023-07-01T11:42:04Z</time>
      </trkpt>
      <trkpt lat="43.7454" lon="-0.09258">
        <ele>91</ele>
        <time>2023-07-01T11:42:06Z</time>
      </trkpt>
      <trkpt lat="43.74543" lon="-0.09261">
        <ele>91.2</ele>
        <time>2023-07-01T11:42:09Z</time>
      </trkpt>
      <trkpt lat="43.74545" lon="-0.09264">
        <ele>91.2</ele>
        <time>2023-07-01T11:42:11Z</time>
      </trkpt>
      <trkpt lat="43.74547" lon="-0.09267">
        <ele>91.2</ele>
        <time>2023-07-01T11:42:13Z</time>
      </trkpt>
      <trkpt lat="43.74548" lon="-0.09273">
        <ele>91.4</ele>
        <time>2023-07-01T11:42:17Z</time>
      </trkpt>
      <trkpt lat="43.74551" lon="-0.09282">
        <ele>91.4</ele>
        <time>2023-07-01T11:42:24Z</time>
      </trkpt>
      <trkpt lat="43.74558" lon="-0.09292">
        <ele>91.6</ele>
        <time>2023-07-01T11:42:31Z</time>
      </trkpt>
      <trkpt lat="43.74559" lon="-0.09293">
        <ele>91.8</ele>
        <time>2023-07-01T11:42:32Z</time>
      </trkpt>
      <trkpt lat="43.74562" lon="-0.09299">
        <ele>92</ele>
        <time>2023-07-01T11:42:36Z</time>
      </trkpt>
      <trkpt lat="43.74563" lon="-0.09301">
        <ele>92</ele>
        <time>2023-07-01T11:42:37Z</time>
      </trkpt>
      <trkpt lat="43.74564" lon="-0.09306">
        <ele>92</ele>
        <time>2023-07-01T11:42:40Z</time>
      </trkpt>
      <trkpt lat="43.74566" lon="-0.09314">
        <ele>91.8</ele>
        <time>2023-07-01T11:42:45Z</time>
      </trkpt>
      <trkpt lat="43.74567" lon="-0.09321">
        <ele>92</ele>
        <time>2023-07-01T11:42:50Z</time>
      </trkpt>
      <trkpt lat="43.74567" lon="-0.09322">
        <ele>92</ele>
        <time>2023-07-01T11:42:51Z</time>
      </trkpt>
      <trkpt lat="43.74566" lon="-0.0933">
        <ele>91.6</ele>
        <time>2023-07-01T11:42:55Z</time>
      </trkpt>
      <trkpt lat="43.74567" lon="-0.09338">
        <ele>91.6</ele>
        <time>2023-07-01T11:42:59Z</time>
      </trkpt>
      <trkpt lat="43.74568" lon="-0.09351">
        <ele>91.8</ele>
        <time>2023-07-01T11:43:06Z</time>
      </trkpt>
      <trkpt lat="43.74572" lon="-0.09361">
        <ele>91.8</ele>
        <time>2023-07-01T11:43:11Z</time>
      </trkpt>
      <trkpt lat="43.74573" lon="-0.09365">
        <ele>92</ele>
        <time>2023-07-01T11:43:13Z</time>
      </trkpt>
      <trkpt lat="43.74573" lon="-0.09366">
        <ele>92.2</ele>
        <time>2023-07-01T11:43:14Z</time>
      </trkpt>
      <trkpt lat="43.74575" lon="-0.09376">
        <ele>92.2</ele>
        <time>2023-07-01T11:43:19Z</time>
      </trkpt>
      <trkpt lat="43.74575" lon="-0.0938">
        <ele>92</ele>
        <time>2023-07-01T11:43:21Z</time>
      </trkpt>
      <trkpt lat="43.74578" lon="-0.09392">
        <ele>92.4</ele>
        <time>2023-07-01T11:43:28Z</time>
      </trkpt>
      <trkpt lat="43.74584" lon="-0.09403">
        <ele>92.2</ele>
        <time>2023-07-01T11:43:35Z</time>
      </trkpt>
      <trkpt lat="43.74585" lon="-0.09409">
        <ele>92.4</ele>
        <time>2023-07-01T11:43:38Z</time>
      </trkpt>
      <trkpt lat="43.74588" lon="-0.09419">
        <ele>92.4</ele>
        <time>2023-07-01T11:43:43Z</time>
      </trkpt>
      <trkpt lat="43.74591" lon="-0.09423">
        <ele>92.4</ele>
        <time>2023-07-01T11:43:46Z</time>
      </trkpt>
      <trkpt lat="43.74593" lon="-0.09426">
        <ele>92</ele>
        <time>2023-07-01T11:43:49Z</time>
      </trkpt>
      <trkpt lat="43.74595" lon="-0.09426">
        <ele>92.2</ele>
        <time>2023-07-01T11:43:51Z</time>
      </trkpt>
      <trkpt lat="43.74596" lon="-0.09422">
        <ele>92.2</ele>
        <time>2023-07-01T11:43:52Z</time>
      </trkpt>
      <trkpt lat="43.74596" lon="-0.09423">
        <ele>92.2</ele>
        <time>2023-07-01T11:43:53Z</time>
      </trkpt>
      <trkpt lat="43.74598" lon="-0.09422">
        <ele>92.4</ele>
        <time>2023-07-01T11:43:54Z</time>
      </trkpt>
      <trkpt lat="43.74599" lon="-0.09423">
        <ele>92.4</ele>
        <time>2023-07-01T11:43:56Z</time>
      </trkpt>
      <trkpt lat="43.74601" lon="-0.09421">
        <ele>92.6</ele>
        <time>2023-07-01T11:43:58Z</time>
      </trkpt>
      <trkpt lat="43.74604" lon="-0.09417">
        <ele>92.6</ele>
        <time>2023-07-01T11:44:02Z</time>
      </trkpt>
      <trkpt lat="43.74612" lon="-0.0941">
        <ele>92.4</ele>
        <time>2023-07-01T11:44:08Z</time>
      </trkpt>
      <trkpt lat="43.74622" lon="-0.09399">
        <ele>92.4</ele>
        <time>2023-07-01T11:44:16Z</time>
      </trkpt>
      <trkpt lat="43.74626" lon="-0.09393">
        <ele>92.2</ele>
        <time>2023-07-01T11:44:21Z</time>
      </trkpt>
      <trkpt lat="43.74627" lon="-0.09392">
        <ele>92.2</ele>
        <time>2023-07-01T11:44:23Z</time>
      </trkpt>
      <trkpt lat="43.74628" lon="-0.09391">
        <ele>92.4</ele>
        <time>2023-07-01T11:44:24Z</time>
      </trkpt>
      <trkpt lat="43.74628" lon="-0.09388">
        <ele>92.4</ele>
        <time>2023-07-01T11:44:26Z</time>
      </trkpt>
      <trkpt lat="43.74629" lon="-0.09387">
        <ele>92.6</ele>
        <time>2023-07-01T11:44:27Z</time>
      </trkpt>
      <trkpt lat="43.7463" lon="-0.09383">
        <ele>92.8</ele>
        <time>2023-07-01T11:44:29Z</time>
      </trkpt>
      <trkpt lat="43.7463" lon="-0.09382">
        <ele>92.8</ele>
        <time>2023-07-01T11:44:30Z</time>
      </trkpt>
      <trkpt lat="43.74631" lon="-0.09381">
        <ele>92.8</ele>
        <time>2023-07-01T11:44:31Z</time>
      </trkpt>
      <trkpt lat="43.74632" lon="-0.09377">
        <ele>92.8</ele>
        <time>2023-07-01T11:44:33Z</time>
      </trkpt>
      <trkpt lat="43.74635" lon="-0.09371">
        <ele>93.4</ele>
        <time>2023-07-01T11:44:36Z</time>
      </trkpt>
      <trkpt lat="43.74637" lon="-0.09369">
        <ele>93.6</ele>
        <time>2023-07-01T11:44:38Z</time>
      </trkpt>
      <trkpt lat="43.74638" lon="-0.09368">
        <ele>93.8</ele>
        <time>2023-07-01T11:44:39Z</time>
      </trkpt>
      <trkpt lat="43.74639" lon="-0.09366">
        <ele>93.8</ele>
        <time>2023-07-01T11:44:40Z</time>
      </trkpt>
      <trkpt lat="43.74641" lon="-0.09365">
        <ele>93.8</ele>
        <time>2023-07-01T11:44:41Z</time>
      </trkpt>
      <trkpt lat="43.74642" lon="-0.09364">
        <ele>94</ele>
        <time>2023-07-01T11:44:42Z</time>
      </trkpt>
      <trkpt lat="43.74643" lon="-0.09362">
        <ele>94</ele>
        <time>2023-07-01T11:44:43Z</time>
      </trkpt>
      <trkpt lat="43.74644" lon="-0.09361">
        <ele>94</ele>
        <time>2023-07-01T11:44:44Z</time>
      </trkpt>
      <trkpt lat="43.74648" lon="-0.09357">
        <ele>94.4</ele>
        <time>2023-07-01T11:44:47Z</time>
      </trkpt>
      <trkpt lat="43.74651" lon="-0.09355">
        <ele>94.8</ele>
        <time>2023-07-01T11:44:50Z</time>
      </trkpt>
      <trkpt lat="43.74656" lon="-0.09352">
        <ele>94.8</ele>
        <time>2023-07-01T11:44:54Z</time>
      </trkpt>
      <trkpt lat="43.74665" lon="-0.09349">
        <ele>95.2</ele>
        <time>2023-07-01T11:45:01Z</time>
      </trkpt>
      <trkpt lat="43.74668" lon="-0.09347">
        <ele>95.2</ele>
        <time>2023-07-01T11:45:05Z</time>
      </trkpt>
      <trkpt lat="43.74669" lon="-0.09348">
        <ele>95.2</ele>
        <time>2023-07-01T11:45:07Z</time>
      </trkpt>
      <trkpt lat="43.7467" lon="-0.09347">
        <ele>95.2</ele>
        <time>2023-07-01T11:45:08Z</time>
      </trkpt>
      <trkpt lat="43.74677" lon="-0.09344">
        <ele>95.4</ele>
        <time>2023-07-01T11:45:14Z</time>
      </trkpt>
      <trkpt lat="43.74678" lon="-0.09344">
        <ele>95.4</ele>
        <time>2023-07-01T11:45:15Z</time>
      </trkpt>
      <trkpt lat="43.74679" lon="-0.09343">
        <ele>95.4</ele>
        <time>2023-07-01T11:45:16Z</time>
      </trkpt>
      <trkpt lat="43.74688" lon="-0.09343">
        <ele>95.4</ele>
        <time>2023-07-01T11:45:24Z</time>
      </trkpt>
      <trkpt lat="43.74689" lon="-0.09343">
        <ele>95.4</ele>
        <time>2023-07-01T11:45:25Z</time>
      </trkpt>
      <trkpt lat="43.74697" lon="-0.09341">
        <ele>95.6</ele>
        <time>2023-07-01T11:45:31Z</time>
      </trkpt>
      <trkpt lat="43.74705" lon="-0.09335">
        <ele>95.4</ele>
        <time>2023-07-01T11:45:37Z</time>
      </trkpt>
      <trkpt lat="43.74711" lon="-0.09332">
        <ele>95.4</ele>
        <time>2023-07-01T11:45:41Z</time>
      </trkpt>
      <trkpt lat="43.74709" lon="-0.09326">
        <ele>95.6</ele>
        <time>2023-07-01T11:46:47Z</time>
      </trkpt>
      <trkpt lat="43.7471" lon="-0.09326">
        <ele>95.6</ele>
        <time>2023-07-01T11:46:48Z</time>
      </trkpt>
      <trkpt lat="43.74718" lon="-0.09326">
        <ele>95.8</ele>
        <time>2023-07-01T11:46:54Z</time>
      </trkpt>
      <trkpt lat="43.74722" lon="-0.09327">
        <ele>95.8</ele>
        <time>2023-07-01T11:46:57Z</time>
      </trkpt>
      <trkpt lat="43.74725" lon="-0.09328">
        <ele>95.8</ele>
        <time>2023-07-01T11:47:00Z</time>
      </trkpt>
      <trkpt lat="43.74735" lon="-0.09329">
        <ele>95.8</ele>
        <time>2023-07-01T11:47:07Z</time>
      </trkpt>
      <trkpt lat="43.74743" lon="-0.09331">
        <ele>95.4</ele>
        <time>2023-07-01T11:47:13Z</time>
      </trkpt>
      <trkpt lat="43.74752" lon="-0.09338">
        <ele>95.8</ele>
        <time>2023-07-01T11:47:19Z</time>
      </trkpt>
      <trkpt lat="43.7476" lon="-0.09341">
        <ele>96</ele>
        <time>2023-07-01T11:47:26Z</time>
      </trkpt>
      <trkpt lat="43.74767" lon="-0.09341">
        <ele>96.4</ele>
        <time>2023-07-01T11:47:31Z</time>
      </trkpt>
      <trkpt lat="43.74776" lon="-0.09344">
        <ele>96.4</ele>
        <time>2023-07-01T11:47:39Z</time>
      </trkpt>
      <trkpt lat="43.74783" lon="-0.09348">
        <ele>96.8</ele>
        <time>2023-07-01T11:47:46Z</time>
      </trkpt>
      <trkpt lat="43.74786" lon="-0.09348">
        <ele>97</ele>
        <time>2023-07-01T11:47:48Z</time>
      </trkpt>
      <trkpt lat="43.74788" lon="-0.09349">
        <ele>97</ele>
        <time>2023-07-01T11:47:49Z</time>
      </trkpt>
      <trkpt lat="43.74792" lon="-0.09351">
        <ele>97</ele>
        <time>2023-07-01T11:47:53Z</time>
      </trkpt>
      <trkpt lat="43.74794" lon="-0.09351">
        <ele>97</ele>
        <time>2023-07-01T11:47:56Z</time>
      </trkpt>
      <trkpt lat="43.74797" lon="-0.09351">
        <ele>97.2</ele>
        <time>2023-07-01T11:47:58Z</time>
      </trkpt>
      <trkpt lat="43.74802" lon="-0.09352">
        <ele>97.6</ele>
        <time>2023-07-01T11:48:01Z</time>
      </trkpt>
      <trkpt lat="43.74809" lon="-0.09353">
        <ele>97.6</ele>
        <time>2023-07-01T11:48:06Z</time>
      </trkpt>
      <trkpt lat="43.7481" lon="-0.09353">
        <ele>97.6</ele>
        <time>2023-07-01T11:48:07Z</time>
      </trkpt>
      <trkpt lat="43.74812" lon="-0.09354">
        <ele>97.6</ele>
        <time>2023-07-01T11:48:08Z</time>
      </trkpt>
      <trkpt lat="43.74813" lon="-0.09354">
        <ele>97.6</ele>
        <time>2023-07-01T11:48:09Z</time>
      </trkpt>
      <trkpt lat="43.74816" lon="-0.09355">
        <ele>97.8</ele>
        <time>2023-07-01T11:48:12Z</time>
      </trkpt>
      <trkpt lat="43.74818" lon="-0.09356">
        <ele>98</ele>
        <time>2023-07-01T11:48:14Z</time>
      </trkpt>
      <trkpt lat="43.7483" lon="-0.09359">
        <ele>98.8</ele>
        <time>2023-07-01T11:48:22Z</time>
      </trkpt>
      <trkpt lat="43.74833" lon="-0.09361">
        <ele>99</ele>
        <time>2023-07-01T11:48:24Z</time>
      </trkpt>
      <trkpt lat="43.74835" lon="-0.09361">
        <ele>99.4</ele>
        <time>2023-07-01T11:48:26Z</time>
      </trkpt>
      <trkpt lat="43.74838" lon="-0.09364">
        <ele>99.4</ele>
        <time>2023-07-01T11:48:29Z</time>
      </trkpt>
      <trkpt lat="43.74851" lon="-0.09367">
        <ele>99.2</ele>
        <time>2023-07-01T11:48:38Z</time>
      </trkpt>
      <trkpt lat="43.74854" lon="-0.09367">
        <ele>99</ele>
        <time>2023-07-01T11:48:40Z</time>
      </trkpt>
      <trkpt lat="43.74857" lon="-0.09367">
        <ele>99</ele>
        <time>2023-07-01T11:48:42Z</time>
      </trkpt>
      <trkpt lat="43.74861" lon="-0.09369">
        <ele>98.8</ele>
        <time>2023-07-01T11:48:45Z</time>
      </trkpt>
      <trkpt lat="43.7487" lon="-0.09374">
        <ele>99.4</ele>
        <time>2023-07-01T11:48:52Z</time>
      </trkpt>
      <trkpt lat="43.74878" lon="-0.09376">
        <ele>99.6</ele>
        <time>2023-07-01T11:48:59Z</time>
      </trkpt>
      <trkpt lat="43.7488" lon="-0.09377">
        <ele>99.6</ele>
        <time>2023-07-01T11:49:01Z</time>
      </trkpt>
      <trkpt lat="43.74882" lon="-0.09378">
        <ele>100</ele>
        <time>2023-07-01T11:49:03Z</time>
      </trkpt>
      <trkpt lat="43.74883" lon="-0.09378">
        <ele>100.2</ele>
        <time>2023-07-01T11:49:04Z</time>
      </trkpt>
      <trkpt lat="43.74886" lon="-0.09379">
        <ele>100.2</ele>
        <time>2023-07-01T11:49:06Z</time>
      </trkpt>
      <trkpt lat="43.74896" lon="-0.0938">
        <ele>99.8</ele>
        <time>2023-07-01T11:49:12Z</time>
      </trkpt>
      <trkpt lat="43.74905" lon="-0.09383">
        <ele>99.8</ele>
        <time>2023-07-01T11:49:19Z</time>
      </trkpt>
      <trkpt lat="43.74913" lon="-0.09385">
        <ele>100</ele>
        <time>2023-07-01T11:49:26Z</time>
      </trkpt>
      <trkpt lat="43.74923" lon="-0.09389">
        <ele>100.4</ele>
        <time>2023-07-01T11:49:33Z</time>
      </trkpt>
      <trkpt lat="43.74932" lon="-0.09392">
        <ele>100.2</ele>
        <time>2023-07-01T11:49:40Z</time>
      </trkpt>
      <trkpt lat="43.74939" lon="-0.09396">
        <ele>99.8</ele>
        <time>2023-07-01T11:49:46Z</time>
      </trkpt>
      <trkpt lat="43.74946" lon="-0.09399">
        <ele>99.8</ele>
        <time>2023-07-01T11:49:53Z</time>
      </trkpt>
      <trkpt lat="43.74957" lon="-0.09402">
        <ele>99.8</ele>
        <time>2023-07-01T11:50:01Z</time>
      </trkpt>
      <trkpt lat="43.74964" lon="-0.09404">
        <ele>100</ele>
        <time>2023-07-01T11:50:06Z</time>
      </trkpt>
      <trkpt lat="43.74965" lon="-0.09405">
        <ele>100</ele>
        <time>2023-07-01T11:50:07Z</time>
      </trkpt>
      <trkpt lat="43.74966" lon="-0.09406">
        <ele>99.8</ele>
        <time>2023-07-01T11:50:08Z</time>
      </trkpt>
      <trkpt lat="43.74968" lon="-0.09407">
        <ele>99.8</ele>
        <time>2023-07-01T11:50:10Z</time>
      </trkpt>
      <trkpt lat="43.74972" lon="-0.09408">
        <ele>99.6</ele>
        <time>2023-07-01T11:50:13Z</time>
      </trkpt>
      <trkpt lat="43.74973" lon="-0.09409">
        <ele>99.4</ele>
        <time>2023-07-01T11:50:14Z</time>
      </trkpt>
      <trkpt lat="43.74981" lon="-0.0941">
        <ele>99.6</ele>
        <time>2023-07-01T11:50:19Z</time>
      </trkpt>
      <trkpt lat="43.74985" lon="-0.09411">
        <ele>100</ele>
        <time>2023-07-01T11:50:22Z</time>
      </trkpt>
      <trkpt lat="43.74989" lon="-0.09412">
        <ele>100</ele>
        <time>2023-07-01T11:50:25Z</time>
      </trkpt>
      <trkpt lat="43.74996" lon="-0.09414">
        <ele>99.8</ele>
        <time>2023-07-01T11:50:32Z</time>
      </trkpt>
      <trkpt lat="43.75003" lon="-0.09415">
        <ele>100</ele>
        <time>2023-07-01T11:50:37Z</time>
      </trkpt>
      <trkpt lat="43.75011" lon="-0.09417">
        <ele>100</ele>
        <time>2023-07-01T11:50:43Z</time>
      </trkpt>
      <trkpt lat="43.75019" lon="-0.0942">
        <ele>99.4</ele>
        <time>2023-07-01T11:50:49Z</time>
      </trkpt>
      <trkpt lat="43.7502" lon="-0.09421">
        <ele>99.4</ele>
        <time>2023-07-01T11:50:50Z</time>
      </trkpt>
      <trkpt lat="43.7503" lon="-0.09423">
        <ele>100</ele>
        <time>2023-07-01T11:50:57Z</time>
      </trkpt>
      <trkpt lat="43.75033" lon="-0.09423">
        <ele>99.8</ele>
        <time>2023-07-01T11:51:00Z</time>
      </trkpt>
      <trkpt lat="43.75039" lon="-0.09424">
        <ele>99.6</ele>
        <time>2023-07-01T11:51:04Z</time>
      </trkpt>
      <trkpt lat="43.7505" lon="-0.09427">
        <ele>99.4</ele>
        <time>2023-07-01T11:51:11Z</time>
      </trkpt>
      <trkpt lat="43.75057" lon="-0.0943">
        <ele>99.8</ele>
        <time>2023-07-01T11:51:16Z</time>
      </trkpt>
      <trkpt lat="43.75062" lon="-0.09431">
        <ele>99.8</ele>
        <time>2023-07-01T11:51:20Z</time>
      </trkpt>
      <trkpt lat="43.75073" lon="-0.09433">
        <ele>100.6</ele>
        <time>2023-07-01T11:51:27Z</time>
      </trkpt>
      <trkpt lat="43.75074" lon="-0.09432">
        <ele>100.6</ele>
        <time>2023-07-01T11:51:28Z</time>
      </trkpt>
      <trkpt lat="43.75076" lon="-0.09428">
        <ele>100.4</ele>
        <time>2023-07-01T11:51:30Z</time>
      </trkpt>
      <trkpt lat="43.75075" lon="-0.0942">
        <ele>100.2</ele>
        <time>2023-07-01T11:51:34Z</time>
      </trkpt>
      <trkpt lat="43.75075" lon="-0.09414">
        <ele>100</ele>
        <time>2023-07-01T11:51:37Z</time>
      </trkpt>
      <trkpt lat="43.75076" lon="-0.09404">
        <ele>100</ele>
        <time>2023-07-01T11:51:42Z</time>
      </trkpt>
      <trkpt lat="43.75076" lon="-0.0939">
        <ele>99.6</ele>
        <time>2023-07-01T11:51:50Z</time>
      </trkpt>
      <trkpt lat="43.75076" lon="-0.09388">
        <ele>99.4</ele>
        <time>2023-07-01T11:51:51Z</time>
      </trkpt>
      <trkpt lat="43.75076" lon="-0.09385">
        <ele>99.4</ele>
        <time>2023-07-01T11:51:53Z</time>
      </trkpt>
      <trkpt lat="43.75077" lon="-0.0938">
        <ele>99.2</ele>
        <time>2023-07-01T11:51:56Z</time>
      </trkpt>
      <trkpt lat="43.75077" lon="-0.09375">
        <ele>99</ele>
        <time>2023-07-01T11:51:59Z</time>
      </trkpt>
      <trkpt lat="43.75077" lon="-0.09372">
        <ele>99</ele>
        <time>2023-07-01T11:52:00Z</time>
      </trkpt>
      <trkpt lat="43.75076" lon="-0.09364">
        <ele>98.6</ele>
        <time>2023-07-01T11:52:04Z</time>
      </trkpt>
      <trkpt lat="43.75076" lon="-0.09359">
        <ele>98.6</ele>
        <time>2023-07-01T11:52:07Z</time>
      </trkpt>
      <trkpt lat="43.75077" lon="-0.09355">
        <ele>99</ele>
        <time>2023-07-01T11:52:09Z</time>
      </trkpt>
      <trkpt lat="43.75076" lon="-0.09338">
        <ele>98.2</ele>
        <time>2023-07-01T11:52:18Z</time>
      </trkpt>
      <trkpt lat="43.75077" lon="-0.09334">
        <ele>98</ele>
        <time>2023-07-01T11:52:20Z</time>
      </trkpt>
      <trkpt lat="43.75077" lon="-0.09328">
        <ele>97.8</ele>
        <time>2023-07-01T11:52:23Z</time>
      </trkpt>
      <trkpt lat="43.75077" lon="-0.09322">
        <ele>97.6</ele>
        <time>2023-07-01T11:52:27Z</time>
      </trkpt>
      <trkpt lat="43.75077" lon="-0.09306">
        <ele>97.4</ele>
        <time>2023-07-01T11:52:35Z</time>
      </trkpt>
      <trkpt lat="43.75077" lon="-0.093">
        <ele>97.2</ele>
        <time>2023-07-01T11:52:38Z</time>
      </trkpt>
      <trkpt lat="43.75077" lon="-0.09297">
        <ele>97.2</ele>
        <time>2023-07-01T11:52:40Z</time>
      </trkpt>
      <trkpt lat="43.75077" lon="-0.09295">
        <ele>97</ele>
        <time>2023-07-01T11:52:41Z</time>
      </trkpt>
      <trkpt lat="43.75076" lon="-0.09288">
        <ele>96.8</ele>
        <time>2023-07-01T11:52:45Z</time>
      </trkpt>
      <trkpt lat="43.75076" lon="-0.09276">
        <ele>97</ele>
        <time>2023-07-01T11:52:51Z</time>
      </trkpt>
      <trkpt lat="43.75076" lon="-0.09272">
        <ele>97</ele>
        <time>2023-07-01T11:52:53Z</time>
      </trkpt>
      <trkpt lat="43.75076" lon="-0.09271">
        <ele>97</ele>
        <time>2023-07-01T11:52:54Z</time>
      </trkpt>
      <trkpt lat="43.75076" lon="-0.09269">
        <ele>96.8</ele>
        <time>2023-07-01T11:52:55Z</time>
      </trkpt>
      <trkpt lat="43.75076" lon="-0.09256">
        <ele>96.8</ele>
        <time>2023-07-01T11:53:02Z</time>
      </trkpt>
      <trkpt lat="43.75075" lon="-0.09253">
        <ele>96.6</ele>
        <time>2023-07-01T11:53:04Z</time>
      </trkpt>
      <trkpt lat="43.75076" lon="-0.09249">
        <ele>96.4</ele>
        <time>2023-07-01T11:53:06Z</time>
      </trkpt>
      <trkpt lat="43.75076" lon="-0.09238">
        <ele>96.2</ele>
        <time>2023-07-01T11:53:12Z</time>
      </trkpt>
      <trkpt lat="43.75076" lon="-0.09234">
        <ele>96.2</ele>
        <time>2023-07-01T11:53:14Z</time>
      </trkpt>
      <trkpt lat="43.75076" lon="-0.09225">
        <ele>96.4</ele>
        <time>2023-07-01T11:53:19Z</time>
      </trkpt>
      <trkpt lat="43.75076" lon="-0.09223">
        <ele>96.4</ele>
        <time>2023-07-01T11:53:20Z</time>
      </trkpt>
      <trkpt lat="43.75076" lon="-0.09221">
        <ele>96.4</ele>
        <time>2023-07-01T11:53:21Z</time>
      </trkpt>
      <trkpt lat="43.75076" lon="-0.09219">
        <ele>96.4</ele>
        <time>2023-07-01T11:53:22Z</time>
      </trkpt>
      <trkpt lat="43.75076" lon="-0.09208">
        <ele>96</ele>
        <time>2023-07-01T11:53:28Z</time>
      </trkpt>
      <trkpt lat="43.75075" lon="-0.09203">
        <ele>96</ele>
        <time>2023-07-01T11:53:31Z</time>
      </trkpt>
      <trkpt lat="43.7507" lon="-0.09191">
        <ele>96.4</ele>
        <time>2023-07-01T11:53:38Z</time>
      </trkpt>
      <trkpt lat="43.75068" lon="-0.0919">
        <ele>96.2</ele>
        <time>2023-07-01T11:53:39Z</time>
      </trkpt>
      <trkpt lat="43.75063" lon="-0.09183">
        <ele>96.2</ele>
        <time>2023-07-01T11:53:45Z</time>
      </trkpt>
      <trkpt lat="43.75061" lon="-0.09172">
        <ele>96.8</ele>
        <time>2023-07-01T11:53:51Z</time>
      </trkpt>
      <trkpt lat="43.7506" lon="-0.09171">
        <ele>96.8</ele>
        <time>2023-07-01T11:53:52Z</time>
      </trkpt>
      <trkpt lat="43.7506" lon="-0.09165">
        <ele>97</ele>
        <time>2023-07-01T11:53:55Z</time>
      </trkpt>
      <trkpt lat="43.7506" lon="-0.09163">
        <ele>96.8</ele>
        <time>2023-07-01T11:53:56Z</time>
      </trkpt>
      <trkpt lat="43.7506" lon="-0.09156">
        <ele>96.8</ele>
        <time>2023-07-01T11:54:00Z</time>
      </trkpt>
      <trkpt lat="43.7506" lon="-0.09154">
        <ele>96.8</ele>
        <time>2023-07-01T11:54:01Z</time>
      </trkpt>
      <trkpt lat="43.75068" lon="-0.0914">
        <ele>95.8</ele>
        <time>2023-07-01T11:54:09Z</time>
      </trkpt>
      <trkpt lat="43.7507" lon="-0.09133">
        <ele>95.6</ele>
        <time>2023-07-01T11:54:13Z</time>
      </trkpt>
      <trkpt lat="43.75071" lon="-0.09129">
        <ele>95.6</ele>
        <time>2023-07-01T11:54:15Z</time>
      </trkpt>
      <trkpt lat="43.75072" lon="-0.09128">
        <ele>95.4</ele>
        <time>2023-07-01T11:54:16Z</time>
      </trkpt>
      <trkpt lat="43.75072" lon="-0.09125">
        <ele>95.4</ele>
        <time>2023-07-01T11:54:18Z</time>
      </trkpt>
      <trkpt lat="43.75073" lon="-0.09116">
        <ele>95.8</ele>
        <time>2023-07-01T11:54:23Z</time>
      </trkpt>
      <trkpt lat="43.75074" lon="-0.09111">
        <ele>95.8</ele>
        <time>2023-07-01T11:54:26Z</time>
      </trkpt>
      <trkpt lat="43.75077" lon="-0.09097">
        <ele>96</ele>
        <time>2023-07-01T11:54:35Z</time>
      </trkpt>
      <trkpt lat="43.75078" lon="-0.0909">
        <ele>95.6</ele>
        <time>2023-07-01T11:54:39Z</time>
      </trkpt>
      <trkpt lat="43.75078" lon="-0.09084">
        <ele>95.4</ele>
        <time>2023-07-01T11:54:43Z</time>
      </trkpt>
      <trkpt lat="43.75078" lon="-0.09082">
        <ele>95.4</ele>
        <time>2023-07-01T11:54:44Z</time>
      </trkpt>
      <trkpt lat="43.75078" lon="-0.0908">
        <ele>95.6</ele>
        <time>2023-07-01T11:54:45Z</time>
      </trkpt>
      <trkpt lat="43.75078" lon="-0.09075">
        <ele>95.4</ele>
        <time>2023-07-01T11:54:48Z</time>
      </trkpt>
      <trkpt lat="43.75077" lon="-0.09072">
        <ele>95.4</ele>
        <time>2023-07-01T11:54:50Z</time>
      </trkpt>
      <trkpt lat="43.75077" lon="-0.09067">
        <ele>95.4</ele>
        <time>2023-07-01T11:54:53Z</time>
      </trkpt>
      <trkpt lat="43.75077" lon="-0.09059">
        <ele>95.6</ele>
        <time>2023-07-01T11:54:57Z</time>
      </trkpt>
      <trkpt lat="43.75077" lon="-0.09057">
        <ele>95.6</ele>
        <time>2023-07-01T11:54:58Z</time>
      </trkpt>
      <trkpt lat="43.75076" lon="-0.09048">
        <ele>95.2</ele>
        <time>2023-07-01T11:55:03Z</time>
      </trkpt>
      <trkpt lat="43.75076" lon="-0.09033">
        <ele>95.2</ele>
        <time>2023-07-01T11:55:12Z</time>
      </trkpt>
      <trkpt lat="43.75077" lon="-0.09023">
        <ele>95</ele>
        <time>2023-07-01T11:55:17Z</time>
      </trkpt>
      <trkpt lat="43.75077" lon="-0.09021">
        <ele>95</ele>
        <time>2023-07-01T11:55:18Z</time>
      </trkpt>
      <trkpt lat="43.75076" lon="-0.0902">
        <ele>95</ele>
        <time>2023-07-01T11:55:19Z</time>
      </trkpt>
      <trkpt lat="43.75076" lon="-0.09018">
        <ele>95.2</ele>
        <time>2023-07-01T11:55:20Z</time>
      </trkpt>
      <trkpt lat="43.75076" lon="-0.09015">
        <ele>95</ele>
        <time>2023-07-01T11:55:22Z</time>
      </trkpt>
      <trkpt lat="43.75077" lon="-0.09012">
        <ele>95</ele>
        <time>2023-07-01T11:55:24Z</time>
      </trkpt>
      <trkpt lat="43.75077" lon="-0.09009">
        <ele>95</ele>
        <time>2023-07-01T11:55:26Z</time>
      </trkpt>
      <trkpt lat="43.75077" lon="-0.09007">
        <ele>95</ele>
        <time>2023-07-01T11:55:27Z</time>
      </trkpt>
      <trkpt lat="43.75077" lon="-0.09003">
        <ele>94.8</ele>
        <time>2023-07-01T11:55:29Z</time>
      </trkpt>
      <trkpt lat="43.75077" lon="-0.09001">
        <ele>94.6</ele>
        <time>2023-07-01T11:55:30Z</time>
      </trkpt>
      <trkpt lat="43.75076" lon="-0.08997">
        <ele>94.6</ele>
        <time>2023-07-01T11:55:32Z</time>
      </trkpt>
      <trkpt lat="43.75076" lon="-0.08993">
        <ele>94.2</ele>
        <time>2023-07-01T11:55:34Z</time>
      </trkpt>
      <trkpt lat="43.75076" lon="-0.08983">
        <ele>93.6</ele>
        <time>2023-07-01T11:55:39Z</time>
      </trkpt>
      <trkpt lat="43.75076" lon="-0.08975">
        <ele>93.6</ele>
        <time>2023-07-01T11:55:43Z</time>
      </trkpt>
      <trkpt lat="43.75075" lon="-0.08969">
        <ele>93.4</ele>
        <time>2023-07-01T11:55:46Z</time>
      </trkpt>
      <trkpt lat="43.75074" lon="-0.08957">
        <ele>93.6</ele>
        <time>2023-07-01T11:55:52Z</time>
      </trkpt>
      <trkpt lat="43.75074" lon="-0.08946">
        <ele>93.2</ele>
        <time>2023-07-01T11:55:58Z</time>
      </trkpt>
      <trkpt lat="43.75074" lon="-0.08942">
        <ele>93</ele>
        <time>2023-07-01T11:56:00Z</time>
      </trkpt>
      <trkpt lat="43.75073" lon="-0.08933">
        <ele>92.8</ele>
        <time>2023-07-01T11:56:05Z</time>
      </trkpt>
      <trkpt lat="43.75073" lon="-0.08926">
        <ele>92.8</ele>
        <time>2023-07-01T11:56:09Z</time>
      </trkpt>
      <trkpt lat="43.75073" lon="-0.08924">
        <ele>92.6</ele>
        <time>2023-07-01T11:56:10Z</time>
      </trkpt>
      <trkpt lat="43.75072" lon="-0.08917">
        <ele>92.6</ele>
        <time>2023-07-01T11:56:14Z</time>
      </trkpt>
      <trkpt lat="43.75072" lon="-0.08915">
        <ele>92.6</ele>
        <time>2023-07-01T11:56:15Z</time>
      </trkpt>
      <trkpt lat="43.75072" lon="-0.08908">
        <ele>92.8</ele>
        <time>2023-07-01T11:56:19Z</time>
      </trkpt>
      <trkpt lat="43.75072" lon="-0.08902">
        <ele>93.2</ele>
        <time>2023-07-01T11:56:22Z</time>
      </trkpt>
      <trkpt lat="43.75073" lon="-0.08895">
        <ele>93.4</ele>
        <time>2023-07-01T11:56:26Z</time>
      </trkpt>
      <trkpt lat="43.75072" lon="-0.08886">
        <ele>93.4</ele>
        <time>2023-07-01T11:56:31Z</time>
      </trkpt>
      <trkpt lat="43.75073" lon="-0.08869">
        <ele>93.2</ele>
        <time>2023-07-01T11:56:40Z</time>
      </trkpt>
      <trkpt lat="43.75073" lon="-0.08867">
        <ele>93</ele>
        <time>2023-07-01T11:56:41Z</time>
      </trkpt>
      <trkpt lat="43.75072" lon="-0.0885">
        <ele>92.6</ele>
        <time>2023-07-01T11:56:49Z</time>
      </trkpt>
      <trkpt lat="43.75073" lon="-0.08833">
        <ele>91.8</ele>
        <time>2023-07-01T11:56:58Z</time>
      </trkpt>
      <trkpt lat="43.75072" lon="-0.08829">
        <ele>91.8</ele>
        <time>2023-07-01T11:57:00Z</time>
      </trkpt>
      <trkpt lat="43.75072" lon="-0.08821">
        <ele>91.8</ele>
        <time>2023-07-01T11:57:04Z</time>
      </trkpt>
      <trkpt lat="43.75072" lon="-0.08814">
        <ele>91.8</ele>
        <time>2023-07-01T11:57:08Z</time>
      </trkpt>
      <trkpt lat="43.75071" lon="-0.08806">
        <ele>91.8</ele>
        <time>2023-07-01T11:57:12Z</time>
      </trkpt>
      <trkpt lat="43.7507" lon="-0.08799">
        <ele>91.6</ele>
        <time>2023-07-01T11:57:16Z</time>
      </trkpt>
      <trkpt lat="43.7507" lon="-0.08791">
        <ele>91.4</ele>
        <time>2023-07-01T11:57:20Z</time>
      </trkpt>
      <trkpt lat="43.75068" lon="-0.08768">
        <ele>91.4</ele>
        <time>2023-07-01T11:57:32Z</time>
      </trkpt>
      <trkpt lat="43.75069" lon="-0.08747">
        <ele>91.4</ele>
        <time>2023-07-01T11:57:43Z</time>
      </trkpt>
      <trkpt lat="43.7507" lon="-0.08739">
        <ele>91.4</ele>
        <time>2023-07-01T11:57:47Z</time>
      </trkpt>
      <trkpt lat="43.75071" lon="-0.08732">
        <ele>91.4</ele>
        <time>2023-07-01T11:57:51Z</time>
      </trkpt>
      <trkpt lat="43.75072" lon="-0.08729">
        <ele>91.4</ele>
        <time>2023-07-01T11:57:53Z</time>
      </trkpt>
      <trkpt lat="43.75074" lon="-0.08724">
        <ele>91.4</ele>
        <time>2023-07-01T11:57:56Z</time>
      </trkpt>
      <trkpt lat="43.75075" lon="-0.08721">
        <ele>91.6</ele>
        <time>2023-07-01T11:57:58Z</time>
      </trkpt>
      <trkpt lat="43.75081" lon="-0.0871">
        <ele>91.8</ele>
        <time>2023-07-01T11:58:05Z</time>
      </trkpt>
      <trkpt lat="43.75082" lon="-0.08696">
        <ele>91.4</ele>
        <time>2023-07-01T11:58:12Z</time>
      </trkpt>
      <trkpt lat="43.75082" lon="-0.08691">
        <ele>91.2</ele>
        <time>2023-07-01T11:58:15Z</time>
      </trkpt>
      <trkpt lat="43.75082" lon="-0.08684">
        <ele>91.4</ele>
        <time>2023-07-01T11:58:19Z</time>
      </trkpt>
      <trkpt lat="43.75082" lon="-0.0868">
        <ele>91.4</ele>
        <time>2023-07-01T11:58:21Z</time>
      </trkpt>
      <trkpt lat="43.75081" lon="-0.08666">
        <ele>91.4</ele>
        <time>2023-07-01T11:58:28Z</time>
      </trkpt>
      <trkpt lat="43.75081" lon="-0.08656">
        <ele>91.6</ele>
        <time>2023-07-01T11:58:33Z</time>
      </trkpt>
      <trkpt lat="43.7508" lon="-0.08649">
        <ele>91.6</ele>
        <time>2023-07-01T11:58:37Z</time>
      </trkpt>
      <trkpt lat="43.75081" lon="-0.08638">
        <ele>91.8</ele>
        <time>2023-07-01T11:58:42Z</time>
      </trkpt>
      <trkpt lat="43.75081" lon="-0.08635">
        <ele>91.6</ele>
        <time>2023-07-01T11:58:44Z</time>
      </trkpt>
      <trkpt lat="43.75081" lon="-0.08633">
        <ele>91.8</ele>
        <time>2023-07-01T11:58:45Z</time>
      </trkpt>
      <trkpt lat="43.75081" lon="-0.08619">
        <ele>92.2</ele>
        <time>2023-07-01T11:58:53Z</time>
      </trkpt>
      <trkpt lat="43.7508" lon="-0.08606">
        <ele>92.6</ele>
        <time>2023-07-01T11:59:00Z</time>
      </trkpt>
      <trkpt lat="43.7508" lon="-0.0859">
        <ele>92.8</ele>
        <time>2023-07-01T11:59:10Z</time>
      </trkpt>
      <trkpt lat="43.7508" lon="-0.08588">
        <ele>92.8</ele>
        <time>2023-07-01T11:59:11Z</time>
      </trkpt>
      <trkpt lat="43.75079" lon="-0.08584">
        <ele>92.6</ele>
        <time>2023-07-01T11:59:14Z</time>
      </trkpt>
      <trkpt lat="43.7508" lon="-0.0858">
        <ele>92.8</ele>
        <time>2023-07-01T11:59:16Z</time>
      </trkpt>
      <trkpt lat="43.7508" lon="-0.08566">
        <ele>92.4</ele>
        <time>2023-07-01T11:59:23Z</time>
      </trkpt>
      <trkpt lat="43.7508" lon="-0.08564">
        <ele>92.4</ele>
        <time>2023-07-01T11:59:24Z</time>
      </trkpt>
      <trkpt lat="43.75079" lon="-0.08551">
        <ele>92.8</ele>
        <time>2023-07-01T11:59:31Z</time>
      </trkpt>
      <trkpt lat="43.75076" lon="-0.0853">
        <ele>93</ele>
        <time>2023-07-01T11:59:41Z</time>
      </trkpt>
      <trkpt lat="43.75077" lon="-0.08513">
        <ele>93.2</ele>
        <time>2023-07-01T11:59:49Z</time>
      </trkpt>
      <trkpt lat="43.75077" lon="-0.08503">
        <ele>93</ele>
        <time>2023-07-01T11:59:55Z</time>
      </trkpt>
      <trkpt lat="43.75077" lon="-0.085">
        <ele>92.8</ele>
        <time>2023-07-01T11:59:57Z</time>
      </trkpt>
      <trkpt lat="43.75077" lon="-0.08499">
        <ele>92.8</ele>
        <time>2023-07-01T11:59:58Z</time>
      </trkpt>
      <trkpt lat="43.75079" lon="-0.08494">
        <ele>92.6</ele>
        <time>2023-07-01T12:00:02Z</time>
      </trkpt>
      <trkpt lat="43.75081" lon="-0.08493">
        <ele>92.6</ele>
        <time>2023-07-01T12:00:04Z</time>
      </trkpt>
      <trkpt lat="43.75086" lon="-0.08489">
        <ele>91.8</ele>
        <time>2023-07-01T12:00:10Z</time>
      </trkpt>
      <trkpt lat="43.75087" lon="-0.08488">
        <ele>91.8</ele>
        <time>2023-07-01T12:00:11Z</time>
      </trkpt>
      <trkpt lat="43.75088" lon="-0.08489">
        <ele>91.6</ele>
        <time>2023-07-01T12:00:12Z</time>
      </trkpt>
      <trkpt lat="43.75089" lon="-0.08489">
        <ele>91.4</ele>
        <time>2023-07-01T12:00:13Z</time>
      </trkpt>
      <trkpt lat="43.7509" lon="-0.08488">
        <ele>91.2</ele>
        <time>2023-07-01T12:00:15Z</time>
      </trkpt>
      <trkpt lat="43.75091" lon="-0.08487">
        <ele>91</ele>
        <time>2023-07-01T12:00:16Z</time>
      </trkpt>
      <trkpt lat="43.75093" lon="-0.08486">
        <ele>91</ele>
        <time>2023-07-01T12:00:17Z</time>
      </trkpt>
      <trkpt lat="43.75094" lon="-0.08486">
        <ele>91</ele>
        <time>2023-07-01T12:00:19Z</time>
      </trkpt>
      <trkpt lat="43.75096" lon="-0.08485">
        <ele>91.2</ele>
        <time>2023-07-01T12:00:20Z</time>
      </trkpt>
      <trkpt lat="43.751" lon="-0.08481">
        <ele>91.2</ele>
        <time>2023-07-01T12:00:23Z</time>
      </trkpt>
      <trkpt lat="43.75113" lon="-0.08475">
        <ele>90.6</ele>
        <time>2023-07-01T12:00:32Z</time>
      </trkpt>
      <trkpt lat="43.75116" lon="-0.08474">
        <ele>90.6</ele>
        <time>2023-07-01T12:00:34Z</time>
      </trkpt>
      <trkpt lat="43.75121" lon="-0.08471">
        <ele>90.4</ele>
        <time>2023-07-01T12:00:38Z</time>
      </trkpt>
      <trkpt lat="43.75131" lon="-0.08466">
        <ele>90</ele>
        <time>2023-07-01T12:00:46Z</time>
      </trkpt>
      <trkpt lat="43.75132" lon="-0.08465">
        <ele>90.2</ele>
        <time>2023-07-01T12:00:47Z</time>
      </trkpt>
      <trkpt lat="43.75134" lon="-0.08465">
        <ele>90.2</ele>
        <time>2023-07-01T12:00:48Z</time>
      </trkpt>
      <trkpt lat="43.75137" lon="-0.08462">
        <ele>90.2</ele>
        <time>2023-07-01T12:00:51Z</time>
      </trkpt>
      <trkpt lat="43.75143" lon="-0.0846">
        <ele>90.4</ele>
        <time>2023-07-01T12:00:55Z</time>
      </trkpt>
      <trkpt lat="43.75152" lon="-0.08456">
        <ele>90.2</ele>
        <time>2023-07-01T12:01:02Z</time>
      </trkpt>
      <trkpt lat="43.75156" lon="-0.08455">
        <ele>90.2</ele>
        <time>2023-07-01T12:01:05Z</time>
      </trkpt>
      <trkpt lat="43.7516" lon="-0.08454">
        <ele>90.6</ele>
        <time>2023-07-01T12:01:09Z</time>
      </trkpt>
      <trkpt lat="43.75162" lon="-0.08452">
        <ele>90.4</ele>
        <time>2023-07-01T12:01:11Z</time>
      </trkpt>
      <trkpt lat="43.75165" lon="-0.08449">
        <ele>90.6</ele>
        <time>2023-07-01T12:01:14Z</time>
      </trkpt>
      <trkpt lat="43.75168" lon="-0.08447">
        <ele>90.4</ele>
        <time>2023-07-01T12:01:16Z</time>
      </trkpt>
      <trkpt lat="43.75177" lon="-0.08443">
        <ele>90</ele>
        <time>2023-07-01T12:01:23Z</time>
      </trkpt>
      <trkpt lat="43.7518" lon="-0.08441">
        <ele>90</ele>
        <time>2023-07-01T12:01:25Z</time>
      </trkpt>
      <trkpt lat="43.75183" lon="-0.08439">
        <ele>90.2</ele>
        <time>2023-07-01T12:01:27Z</time>
      </trkpt>
      <trkpt lat="43.75192" lon="-0.08436">
        <ele>90.4</ele>
        <time>2023-07-01T12:01:32Z</time>
      </trkpt>
      <trkpt lat="43.75202" lon="-0.08432">
        <ele>90.2</ele>
        <time>2023-07-01T12:01:40Z</time>
      </trkpt>
      <trkpt lat="43.75209" lon="-0.08428">
        <ele>90</ele>
        <time>2023-07-01T12:01:45Z</time>
      </trkpt>
      <trkpt lat="43.75211" lon="-0.08427">
        <ele>90</ele>
        <time>2023-07-01T12:01:47Z</time>
      </trkpt>
      <trkpt lat="43.75213" lon="-0.08426">
        <ele>90</ele>
        <time>2023-07-01T12:01:48Z</time>
      </trkpt>
      <trkpt lat="43.75221" lon="-0.0842">
        <ele>89.6</ele>
        <time>2023-07-01T12:01:56Z</time>
      </trkpt>
      <trkpt lat="43.7523" lon="-0.08417">
        <ele>89.8</ele>
        <time>2023-07-01T12:02:02Z</time>
      </trkpt>
      <trkpt lat="43.75234" lon="-0.08415">
        <ele>89.8</ele>
        <time>2023-07-01T12:02:04Z</time>
      </trkpt>
      <trkpt lat="43.75235" lon="-0.08415">
        <ele>89.8</ele>
        <time>2023-07-01T12:02:05Z</time>
      </trkpt>
      <trkpt lat="43.75239" lon="-0.08412">
        <ele>89.6</ele>
        <time>2023-07-01T12:02:08Z</time>
      </trkpt>
      <trkpt lat="43.75241" lon="-0.08412">
        <ele>89.8</ele>
        <time>2023-07-01T12:02:09Z</time>
      </trkpt>
      <trkpt lat="43.75251" lon="-0.08405">
        <ele>89.8</ele>
        <time>2023-07-01T12:02:17Z</time>
      </trkpt>
      <trkpt lat="43.75252" lon="-0.08405">
        <ele>89.8</ele>
        <time>2023-07-01T12:02:19Z</time>
      </trkpt>
      <trkpt lat="43.75254" lon="-0.08405">
        <ele>90</ele>
        <time>2023-07-01T12:02:21Z</time>
      </trkpt>
      <trkpt lat="43.75255" lon="-0.08404">
        <ele>90</ele>
        <time>2023-07-01T12:02:22Z</time>
      </trkpt>
      <trkpt lat="43.75257" lon="-0.08403">
        <ele>90</ele>
        <time>2023-07-01T12:02:23Z</time>
      </trkpt>
      <trkpt lat="43.75265" lon="-0.08398">
        <ele>90</ele>
        <time>2023-07-01T12:02:30Z</time>
      </trkpt>
      <trkpt lat="43.75275" lon="-0.08394">
        <ele>89.8</ele>
        <time>2023-07-01T12:02:38Z</time>
      </trkpt>
      <trkpt lat="43.75281" lon="-0.08392">
        <ele>90</ele>
        <time>2023-07-01T12:02:42Z</time>
      </trkpt>
      <trkpt lat="43.75285" lon="-0.0839">
        <ele>90.2</ele>
        <time>2023-07-01T12:02:44Z</time>
      </trkpt>
      <trkpt lat="43.75289" lon="-0.08388">
        <ele>89.6</ele>
        <time>2023-07-01T12:02:47Z</time>
      </trkpt>
      <trkpt lat="43.75297" lon="-0.08384">
        <ele>89.6</ele>
        <time>2023-07-01T12:02:52Z</time>
      </trkpt>
      <trkpt lat="43.75302" lon="-0.08382">
        <ele>89.6</ele>
        <time>2023-07-01T12:02:56Z</time>
      </trkpt>
      <trkpt lat="43.75306" lon="-0.08379">
        <ele>89.8</ele>
        <time>2023-07-01T12:02:59Z</time>
      </trkpt>
      <trkpt lat="43.75313" lon="-0.08375">
        <ele>90</ele>
        <time>2023-07-01T12:03:04Z</time>
      </trkpt>
      <trkpt lat="43.75323" lon="-0.08369">
        <ele>90.2</ele>
        <time>2023-07-01T12:03:11Z</time>
      </trkpt>
      <trkpt lat="43.75333" lon="-0.08365">
        <ele>90</ele>
        <time>2023-07-01T12:03:19Z</time>
      </trkpt>
      <trkpt lat="43.75334" lon="-0.08365">
        <ele>90</ele>
        <time>2023-07-01T12:03:20Z</time>
      </trkpt>
      <trkpt lat="43.75341" lon="-0.08361">
        <ele>89.8</ele>
        <time>2023-07-01T12:03:25Z</time>
      </trkpt>
      <trkpt lat="43.75349" lon="-0.08357">
        <ele>90</ele>
        <time>2023-07-01T12:03:33Z</time>
      </trkpt>
      <trkpt lat="43.75352" lon="-0.08356">
        <ele>90.2</ele>
        <time>2023-07-01T12:03:35Z</time>
      </trkpt>
      <trkpt lat="43.75357" lon="-0.08353">
        <ele>90</ele>
        <time>2023-07-01T12:03:39Z</time>
      </trkpt>
      <trkpt lat="43.75368" lon="-0.08347">
        <ele>90</ele>
        <time>2023-07-01T12:03:47Z</time>
      </trkpt>
      <trkpt lat="43.75377" lon="-0.08343">
        <ele>90</ele>
        <time>2023-07-01T12:03:54Z</time>
      </trkpt>
      <trkpt lat="43.75383" lon="-0.08341">
        <ele>90.4</ele>
        <time>2023-07-01T12:03:59Z</time>
      </trkpt>
      <trkpt lat="43.75388" lon="-0.08338">
        <ele>90.4</ele>
        <time>2023-07-01T12:04:03Z</time>
      </trkpt>
      <trkpt lat="43.75396" lon="-0.08334">
        <ele>90.2</ele>
        <time>2023-07-01T12:04:10Z</time>
      </trkpt>
      <trkpt lat="43.754" lon="-0.08332">
        <ele>90.2</ele>
        <time>2023-07-01T12:04:14Z</time>
      </trkpt>
      <trkpt lat="43.75405" lon="-0.08329">
        <ele>90.2</ele>
        <time>2023-07-01T12:04:18Z</time>
      </trkpt>
      <trkpt lat="43.75411" lon="-0.08327">
        <ele>90.4</ele>
        <time>2023-07-01T12:04:22Z</time>
      </trkpt>
      <trkpt lat="43.75415" lon="-0.08326">
        <ele>90.8</ele>
        <time>2023-07-01T12:04:25Z</time>
      </trkpt>
      <trkpt lat="43.75421" lon="-0.08323">
        <ele>91</ele>
        <time>2023-07-01T12:04:29Z</time>
      </trkpt>
      <trkpt lat="43.75426" lon="-0.08319">
        <ele>90.8</ele>
        <time>2023-07-01T12:04:33Z</time>
      </trkpt>
      <trkpt lat="43.75432" lon="-0.08318">
        <ele>90.6</ele>
        <time>2023-07-01T12:04:39Z</time>
      </trkpt>
      <trkpt lat="43.7544" lon="-0.08314">
        <ele>90.4</ele>
        <time>2023-07-01T12:04:46Z</time>
      </trkpt>
      <trkpt lat="43.75444" lon="-0.0831">
        <ele>90.4</ele>
        <time>2023-07-01T12:04:51Z</time>
      </trkpt>
      <trkpt lat="43.75448" lon="-0.08308">
        <ele>90.4</ele>
        <time>2023-07-01T12:04:54Z</time>
      </trkpt>
      <trkpt lat="43.7545" lon="-0.08307">
        <ele>90.4</ele>
        <time>2023-07-01T12:04:55Z</time>
      </trkpt>
      <trkpt lat="43.75458" lon="-0.08304">
        <ele>90.6</ele>
        <time>2023-07-01T12:05:00Z</time>
      </trkpt>
      <trkpt lat="43.75466" lon="-0.08299">
        <ele>90.4</ele>
        <time>2023-07-01T12:05:07Z</time>
      </trkpt>
      <trkpt lat="43.7547" lon="-0.08297">
        <ele>90.4</ele>
        <time>2023-07-01T12:05:11Z</time>
      </trkpt>
      <trkpt lat="43.75472" lon="-0.08295">
        <ele>90.4</ele>
        <time>2023-07-01T12:05:13Z</time>
      </trkpt>
      <trkpt lat="43.75476" lon="-0.08292">
        <ele>90.4</ele>
        <time>2023-07-01T12:05:17Z</time>
      </trkpt>
      <trkpt lat="43.75478" lon="-0.08291">
        <ele>90.4</ele>
        <time>2023-07-01T12:05:19Z</time>
      </trkpt>
      <trkpt lat="43.7548" lon="-0.08289">
        <ele>90.4</ele>
        <time>2023-07-01T12:05:21Z</time>
      </trkpt>
      <trkpt lat="43.75483" lon="-0.08287">
        <ele>90.4</ele>
        <time>2023-07-01T12:05:23Z</time>
      </trkpt>
      <trkpt lat="43.75485" lon="-0.08284">
        <ele>90.6</ele>
        <time>2023-07-01T12:05:26Z</time>
      </trkpt>
      <trkpt lat="43.75486" lon="-0.08281">
        <ele>90.6</ele>
        <time>2023-07-01T12:05:28Z</time>
      </trkpt>
      <trkpt lat="43.75488" lon="-0.08277">
        <ele>90.8</ele>
        <time>2023-07-01T12:05:32Z</time>
      </trkpt>
      <trkpt lat="43.7549" lon="-0.08273">
        <ele>91</ele>
        <time>2023-07-01T12:05:35Z</time>
      </trkpt>
      <trkpt lat="43.75491" lon="-0.08273">
        <ele>91.2</ele>
        <time>2023-07-01T12:05:36Z</time>
      </trkpt>
      <trkpt lat="43.75496" lon="-0.08272">
        <ele>91</ele>
        <time>2023-07-01T12:05:39Z</time>
      </trkpt>
      <trkpt lat="43.75497" lon="-0.08272">
        <ele>91</ele>
        <time>2023-07-01T12:05:40Z</time>
      </trkpt>
      <trkpt lat="43.755" lon="-0.08272">
        <ele>90.8</ele>
        <time>2023-07-01T12:05:43Z</time>
      </trkpt>
      <trkpt lat="43.75501" lon="-0.08272">
        <ele>90.8</ele>
        <time>2023-07-01T12:05:44Z</time>
      </trkpt>
      <trkpt lat="43.75507" lon="-0.08272">
        <ele>90</ele>
        <time>2023-07-01T12:05:50Z</time>
      </trkpt>
      <trkpt lat="43.75508" lon="-0.08272">
        <ele>90</ele>
        <time>2023-07-01T12:05:51Z</time>
      </trkpt>
      <trkpt lat="43.75512" lon="-0.08273">
        <ele>89.8</ele>
        <time>2023-07-01T12:05:54Z</time>
      </trkpt>
      <trkpt lat="43.75513" lon="-0.08274">
        <ele>89.8</ele>
        <time>2023-07-01T12:05:55Z</time>
      </trkpt>
      <trkpt lat="43.75515" lon="-0.08274">
        <ele>89.6</ele>
        <time>2023-07-01T12:05:57Z</time>
      </trkpt>
      <trkpt lat="43.75517" lon="-0.08274">
        <ele>89.4</ele>
        <time>2023-07-01T12:05:58Z</time>
      </trkpt>
      <trkpt lat="43.75525" lon="-0.08274">
        <ele>89.2</ele>
        <time>2023-07-01T12:06:03Z</time>
      </trkpt>
      <trkpt lat="43.75529" lon="-0.08274">
        <ele>89.2</ele>
        <time>2023-07-01T12:06:05Z</time>
      </trkpt>
      <trkpt lat="43.75531" lon="-0.08275">
        <ele>89.2</ele>
        <time>2023-07-01T12:06:07Z</time>
      </trkpt>
      <trkpt lat="43.75535" lon="-0.08275">
        <ele>89.2</ele>
        <time>2023-07-01T12:06:10Z</time>
      </trkpt>
      <trkpt lat="43.75537" lon="-0.08276">
        <ele>89.4</ele>
        <time>2023-07-01T12:06:12Z</time>
      </trkpt>
      <trkpt lat="43.75538" lon="-0.08276">
        <ele>89.2</ele>
        <time>2023-07-01T12:06:13Z</time>
      </trkpt>
      <trkpt lat="43.7554" lon="-0.08276">
        <ele>89.2</ele>
        <time>2023-07-01T12:06:14Z</time>
      </trkpt>
      <trkpt lat="43.75543" lon="-0.08276">
        <ele>89</ele>
        <time>2023-07-01T12:06:17Z</time>
      </trkpt>
      <trkpt lat="43.75544" lon="-0.08276">
        <ele>89</ele>
        <time>2023-07-01T12:06:18Z</time>
      </trkpt>
      <trkpt lat="43.75548" lon="-0.08277">
        <ele>89</ele>
        <time>2023-07-01T12:06:21Z</time>
      </trkpt>
      <trkpt lat="43.75557" lon="-0.0828">
        <ele>88.4</ele>
        <time>2023-07-01T12:06:27Z</time>
      </trkpt>
      <trkpt lat="43.75562" lon="-0.08282">
        <ele>88.6</ele>
        <time>2023-07-01T12:06:29Z</time>
      </trkpt>
      <trkpt lat="43.75575" lon="-0.08286">
        <ele>88.4</ele>
        <time>2023-07-01T12:06:37Z</time>
      </trkpt>
      <trkpt lat="43.75583" lon="-0.08292">
        <ele>88.6</ele>
        <time>2023-07-01T12:06:44Z</time>
      </trkpt>
      <trkpt lat="43.75585" lon="-0.08294">
        <ele>88.4</ele>
        <time>2023-07-01T12:06:46Z</time>
      </trkpt>
      <trkpt lat="43.75588" lon="-0.08295">
        <ele>88.4</ele>
        <time>2023-07-01T12:06:48Z</time>
      </trkpt>
      <trkpt lat="43.75595" lon="-0.083">
        <ele>88.4</ele>
        <time>2023-07-01T12:06:53Z</time>
      </trkpt>
      <trkpt lat="43.75597" lon="-0.08301">
        <ele>88.4</ele>
        <time>2023-07-01T12:06:54Z</time>
      </trkpt>
      <trkpt lat="43.756" lon="-0.08305">
        <ele>88.4</ele>
        <time>2023-07-01T12:06:57Z</time>
      </trkpt>
      <trkpt lat="43.75602" lon="-0.08307">
        <ele>88.4</ele>
        <time>2023-07-01T12:06:59Z</time>
      </trkpt>
      <trkpt lat="43.75606" lon="-0.08309">
        <ele>88.4</ele>
        <time>2023-07-01T12:07:02Z</time>
      </trkpt>
      <trkpt lat="43.75611" lon="-0.08312">
        <ele>88.2</ele>
        <time>2023-07-01T12:07:06Z</time>
      </trkpt>
      <trkpt lat="43.75614" lon="-0.08313">
        <ele>88.2</ele>
        <time>2023-07-01T12:07:08Z</time>
      </trkpt>
      <trkpt lat="43.75616" lon="-0.08314">
        <ele>88.2</ele>
        <time>2023-07-01T12:07:10Z</time>
      </trkpt>
      <trkpt lat="43.75619" lon="-0.08316">
        <ele>88.2</ele>
        <time>2023-07-01T12:07:12Z</time>
      </trkpt>
      <trkpt lat="43.7562" lon="-0.08316">
        <ele>88.4</ele>
        <time>2023-07-01T12:07:13Z</time>
      </trkpt>
      <trkpt lat="43.75627" lon="-0.08317">
        <ele>88.8</ele>
        <time>2023-07-01T12:07:19Z</time>
      </trkpt>
      <trkpt lat="43.75641" lon="-0.08317">
        <ele>88.6</ele>
        <time>2023-07-01T12:07:28Z</time>
      </trkpt>
      <trkpt lat="43.75643" lon="-0.08317">
        <ele>88.4</ele>
        <time>2023-07-01T12:07:29Z</time>
      </trkpt>
      <trkpt lat="43.75644" lon="-0.08317">
        <ele>88.4</ele>
        <time>2023-07-01T12:07:30Z</time>
      </trkpt>
      <trkpt lat="43.75653" lon="-0.08317">
        <ele>88.8</ele>
        <time>2023-07-01T12:07:36Z</time>
      </trkpt>
      <trkpt lat="43.75654" lon="-0.08317">
        <ele>88.8</ele>
        <time>2023-07-01T12:07:37Z</time>
      </trkpt>
      <trkpt lat="43.75655" lon="-0.08317">
        <ele>88.8</ele>
        <time>2023-07-01T12:07:38Z</time>
      </trkpt>
      <trkpt lat="43.75657" lon="-0.08317">
        <ele>88.6</ele>
        <time>2023-07-01T12:07:39Z</time>
      </trkpt>
      <trkpt lat="43.7566" lon="-0.08319">
        <ele>88.6</ele>
        <time>2023-07-01T12:07:41Z</time>
      </trkpt>
      <trkpt lat="43.75665" lon="-0.0832">
        <ele>88.4</ele>
        <time>2023-07-01T12:07:45Z</time>
      </trkpt>
      <trkpt lat="43.75675" lon="-0.0832">
        <ele>88.6</ele>
        <time>2023-07-01T12:07:53Z</time>
      </trkpt>
      <trkpt lat="43.75679" lon="-0.08322">
        <ele>88.6</ele>
        <time>2023-07-01T12:07:57Z</time>
      </trkpt>
      <trkpt lat="43.75681" lon="-0.08322">
        <ele>88.8</ele>
        <time>2023-07-01T12:07:58Z</time>
      </trkpt>
      <trkpt lat="43.7569" lon="-0.08323">
        <ele>88.4</ele>
        <time>2023-07-01T12:08:05Z</time>
      </trkpt>
      <trkpt lat="43.75692" lon="-0.08324">
        <ele>88.4</ele>
        <time>2023-07-01T12:08:06Z</time>
      </trkpt>
      <trkpt lat="43.75698" lon="-0.08323">
        <ele>88.4</ele>
        <time>2023-07-01T12:08:11Z</time>
      </trkpt>
      <trkpt lat="43.75699" lon="-0.08322">
        <ele>88.4</ele>
        <time>2023-07-01T12:08:12Z</time>
      </trkpt>
      <trkpt lat="43.75704" lon="-0.08316">
        <ele>88.8</ele>
        <time>2023-07-01T12:08:17Z</time>
      </trkpt>
      <trkpt lat="43.75706" lon="-0.08311">
        <ele>89</ele>
        <time>2023-07-01T12:08:20Z</time>
      </trkpt>
      <trkpt lat="43.75708" lon="-0.08304">
        <ele>88.8</ele>
        <time>2023-07-01T12:08:24Z</time>
      </trkpt>
      <trkpt lat="43.7571" lon="-0.08299">
        <ele>88.8</ele>
        <time>2023-07-01T12:08:26Z</time>
      </trkpt>
      <trkpt lat="43.75711" lon="-0.08295">
        <ele>88.8</ele>
        <time>2023-07-01T12:08:28Z</time>
      </trkpt>
      <trkpt lat="43.75711" lon="-0.0829">
        <ele>88.8</ele>
        <time>2023-07-01T12:08:31Z</time>
      </trkpt>
      <trkpt lat="43.75711" lon="-0.08288">
        <ele>88.8</ele>
        <time>2023-07-01T12:08:32Z</time>
      </trkpt>
      <trkpt lat="43.75711" lon="-0.08286">
        <ele>88.8</ele>
        <time>2023-07-01T12:08:33Z</time>
      </trkpt>
      <trkpt lat="43.75711" lon="-0.08283">
        <ele>88.8</ele>
        <time>2023-07-01T12:08:35Z</time>
      </trkpt>
      <trkpt lat="43.75713" lon="-0.08269">
        <ele>89</ele>
        <time>2023-07-01T12:08:43Z</time>
      </trkpt>
      <trkpt lat="43.75714" lon="-0.08267">
        <ele>89</ele>
        <time>2023-07-01T12:08:44Z</time>
      </trkpt>
      <trkpt lat="43.75716" lon="-0.08255">
        <ele>89.6</ele>
        <time>2023-07-01T12:08:51Z</time>
      </trkpt>
      <trkpt lat="43.75718" lon="-0.08243">
        <ele>89.8</ele>
        <time>2023-07-01T12:08:58Z</time>
      </trkpt>
      <trkpt lat="43.75719" lon="-0.08242">
        <ele>89.8</ele>
        <time>2023-07-01T12:08:59Z</time>
      </trkpt>
      <trkpt lat="43.7572" lon="-0.0823">
        <ele>90.2</ele>
        <time>2023-07-01T12:09:07Z</time>
      </trkpt>
      <trkpt lat="43.75723" lon="-0.0822">
        <ele>90.6</ele>
        <time>2023-07-01T12:09:12Z</time>
      </trkpt>
      <trkpt lat="43.75723" lon="-0.08219">
        <ele>90.6</ele>
        <time>2023-07-01T12:09:13Z</time>
      </trkpt>
      <trkpt lat="43.75723" lon="-0.08213">
        <ele>90.6</ele>
        <time>2023-07-01T12:09:16Z</time>
      </trkpt>
      <trkpt lat="43.75724" lon="-0.08212">
        <ele>90.6</ele>
        <time>2023-07-01T12:09:17Z</time>
      </trkpt>
      <trkpt lat="43.75724" lon="-0.08205">
        <ele>91</ele>
        <time>2023-07-01T12:09:21Z</time>
      </trkpt>
      <trkpt lat="43.75725" lon="-0.08193">
        <ele>91.2</ele>
        <time>2023-07-01T12:09:28Z</time>
      </trkpt>
      <trkpt lat="43.75728" lon="-0.08185">
        <ele>91.6</ele>
        <time>2023-07-01T12:09:33Z</time>
      </trkpt>
      <trkpt lat="43.75728" lon="-0.08182">
        <ele>91.8</ele>
        <time>2023-07-01T12:09:35Z</time>
      </trkpt>
      <trkpt lat="43.75729" lon="-0.08179">
        <ele>92</ele>
        <time>2023-07-01T12:09:37Z</time>
      </trkpt>
      <trkpt lat="43.75729" lon="-0.08175">
        <ele>92</ele>
        <time>2023-07-01T12:09:40Z</time>
      </trkpt>
      <trkpt lat="43.75729" lon="-0.08172">
        <ele>92.4</ele>
        <time>2023-07-01T12:09:43Z</time>
      </trkpt>
      <trkpt lat="43.75728" lon="-0.08171">
        <ele>92.6</ele>
        <time>2023-07-01T12:09:44Z</time>
      </trkpt>
      <trkpt lat="43.75728" lon="-0.08169">
        <ele>92.8</ele>
        <time>2023-07-01T12:09:46Z</time>
      </trkpt>
      <trkpt lat="43.75727" lon="-0.08166">
        <ele>93</ele>
        <time>2023-07-01T12:09:48Z</time>
      </trkpt>
      <trkpt lat="43.75727" lon="-0.08163">
        <ele>93.2</ele>
        <time>2023-07-01T12:09:50Z</time>
      </trkpt>
      <trkpt lat="43.75726" lon="-0.0816">
        <ele>93.4</ele>
        <time>2023-07-01T12:09:52Z</time>
      </trkpt>
      <trkpt lat="43.75726" lon="-0.08158">
        <ele>93.6</ele>
        <time>2023-07-01T12:09:53Z</time>
      </trkpt>
      <trkpt lat="43.75725" lon="-0.08153">
        <ele>93.6</ele>
        <time>2023-07-01T12:09:55Z</time>
      </trkpt>
      <trkpt lat="43.75725" lon="-0.0815">
        <ele>93.8</ele>
        <time>2023-07-01T12:09:57Z</time>
      </trkpt>
      <trkpt lat="43.75725" lon="-0.08149">
        <ele>93.8</ele>
        <time>2023-07-01T12:09:58Z</time>
      </trkpt>
      <trkpt lat="43.75725" lon="-0.08148">
        <ele>94</ele>
        <time>2023-07-01T12:09:59Z</time>
      </trkpt>
      <trkpt lat="43.75725" lon="-0.08147">
        <ele>94.2</ele>
        <time>2023-07-01T12:10:00Z</time>
      </trkpt>
      <trkpt lat="43.75724" lon="-0.08146">
        <ele>94.6</ele>
        <time>2023-07-01T12:10:01Z</time>
      </trkpt>
      <trkpt lat="43.75725" lon="-0.08143">
        <ele>94.8</ele>
        <time>2023-07-01T12:10:03Z</time>
      </trkpt>
      <trkpt lat="43.75725" lon="-0.08141">
        <ele>95</ele>
        <time>2023-07-01T12:10:04Z</time>
      </trkpt>
      <trkpt lat="43.75726" lon="-0.08135">
        <ele>95.8</ele>
        <time>2023-07-01T12:10:07Z</time>
      </trkpt>
      <trkpt lat="43.75726" lon="-0.08132">
        <ele>96</ele>
        <time>2023-07-01T12:10:09Z</time>
      </trkpt>
      <trkpt lat="43.75728" lon="-0.0812">
        <ele>97.2</ele>
        <time>2023-07-01T12:10:17Z</time>
      </trkpt>
      <trkpt lat="43.75728" lon="-0.08116">
        <ele>97.8</ele>
        <time>2023-07-01T12:10:19Z</time>
      </trkpt>
      <trkpt lat="43.75728" lon="-0.08113">
        <ele>98</ele>
        <time>2023-07-01T12:10:21Z</time>
      </trkpt>
      <trkpt lat="43.75728" lon="-0.08112">
        <ele>98.2</ele>
        <time>2023-07-01T12:10:22Z</time>
      </trkpt>
      <trkpt lat="43.75729" lon="-0.0811">
        <ele>98.2</ele>
        <time>2023-07-01T12:10:23Z</time>
      </trkpt>
      <trkpt lat="43.75729" lon="-0.08109">
        <ele>98.4</ele>
        <time>2023-07-01T12:10:24Z</time>
      </trkpt>
      <trkpt lat="43.75729" lon="-0.08107">
        <ele>98.6</ele>
        <time>2023-07-01T12:10:25Z</time>
      </trkpt>
      <trkpt lat="43.75728" lon="-0.08106">
        <ele>98.6</ele>
        <time>2023-07-01T12:10:26Z</time>
      </trkpt>
      <trkpt lat="43.75729" lon="-0.08104">
        <ele>98.8</ele>
        <time>2023-07-01T12:10:27Z</time>
      </trkpt>
      <trkpt lat="43.75729" lon="-0.08102">
        <ele>98.8</ele>
        <time>2023-07-01T12:10:28Z</time>
      </trkpt>
      <trkpt lat="43.7573" lon="-0.08096">
        <ele>99.4</ele>
        <time>2023-07-01T12:10:31Z</time>
      </trkpt>
      <trkpt lat="43.7573" lon="-0.08095">
        <ele>99.4</ele>
        <time>2023-07-01T12:10:32Z</time>
      </trkpt>
      <trkpt lat="43.75729" lon="-0.08087">
        <ele>100</ele>
        <time>2023-07-01T12:10:37Z</time>
      </trkpt>
      <trkpt lat="43.75729" lon="-0.08083">
        <ele>100.8</ele>
        <time>2023-07-01T12:10:40Z</time>
      </trkpt>
      <trkpt lat="43.7573" lon="-0.0808">
        <ele>101.2</ele>
        <time>2023-07-01T12:10:42Z</time>
      </trkpt>
      <trkpt lat="43.7573" lon="-0.08072">
        <ele>101.8</ele>
        <time>2023-07-01T12:10:48Z</time>
      </trkpt>
      <trkpt lat="43.7573" lon="-0.08071">
        <ele>102</ele>
        <time>2023-07-01T12:10:49Z</time>
      </trkpt>
      <trkpt lat="43.75731" lon="-0.08061">
        <ele>102.8</ele>
        <time>2023-07-01T12:10:56Z</time>
      </trkpt>
      <trkpt lat="43.75731" lon="-0.08058">
        <ele>103.4</ele>
        <time>2023-07-01T12:10:58Z</time>
      </trkpt>
      <trkpt lat="43.75732" lon="-0.08054">
        <ele>103.8</ele>
        <time>2023-07-01T12:11:01Z</time>
      </trkpt>
      <trkpt lat="43.75733" lon="-0.08051">
        <ele>104</ele>
        <time>2023-07-01T12:11:03Z</time>
      </trkpt>
      <trkpt lat="43.75735" lon="-0.08045">
        <ele>104.6</ele>
        <time>2023-07-01T12:11:07Z</time>
      </trkpt>
      <trkpt lat="43.75736" lon="-0.08039">
        <ele>105</ele>
        <time>2023-07-01T12:11:12Z</time>
      </trkpt>
      <trkpt lat="43.75736" lon="-0.08038">
        <ele>105</ele>
        <time>2023-07-01T12:11:13Z</time>
      </trkpt>
      <trkpt lat="43.75737" lon="-0.08037">
        <ele>105.2</ele>
        <time>2023-07-01T12:11:14Z</time>
      </trkpt>
      <trkpt lat="43.75738" lon="-0.08024">
        <ele>106</ele>
        <time>2023-07-01T12:11:23Z</time>
      </trkpt>
      <trkpt lat="43.75739" lon="-0.08016">
        <ele>106.4</ele>
        <time>2023-07-01T12:11:28Z</time>
      </trkpt>
      <trkpt lat="43.7574" lon="-0.08013">
        <ele>106.8</ele>
        <time>2023-07-01T12:11:30Z</time>
      </trkpt>
      <trkpt lat="43.7574" lon="-0.08011">
        <ele>107</ele>
        <time>2023-07-01T12:11:32Z</time>
      </trkpt>
      <trkpt lat="43.75741" lon="-0.08009">
        <ele>107.2</ele>
        <time>2023-07-01T12:11:33Z</time>
      </trkpt>
      <trkpt lat="43.75741" lon="-0.08008">
        <ele>107.2</ele>
        <time>2023-07-01T12:11:34Z</time>
      </trkpt>
      <trkpt lat="43.75741" lon="-0.08007">
        <ele>107.4</ele>
        <time>2023-07-01T12:11:37Z</time>
      </trkpt>
      <trkpt lat="43.75742" lon="-0.08003">
        <ele>107.6</ele>
        <time>2023-07-01T12:11:41Z</time>
      </trkpt>
      <trkpt lat="43.75742" lon="-0.08001">
        <ele>107.6</ele>
        <time>2023-07-01T12:11:42Z</time>
      </trkpt>
      <trkpt lat="43.75743" lon="-0.07998">
        <ele>107.6</ele>
        <time>2023-07-01T12:11:44Z</time>
      </trkpt>
      <trkpt lat="43.75744" lon="-0.07995">
        <ele>108</ele>
        <time>2023-07-01T12:11:46Z</time>
      </trkpt>
      <trkpt lat="43.75746" lon="-0.07985">
        <ele>108.8</ele>
        <time>2023-07-01T12:11:53Z</time>
      </trkpt>
      <trkpt lat="43.75748" lon="-0.07981">
        <ele>109</ele>
        <time>2023-07-01T12:11:56Z</time>
      </trkpt>
      <trkpt lat="43.75748" lon="-0.0798">
        <ele>109.2</ele>
        <time>2023-07-01T12:11:57Z</time>
      </trkpt>
      <trkpt lat="43.7575" lon="-0.07975">
        <ele>109.6</ele>
        <time>2023-07-01T12:12:00Z</time>
      </trkpt>
      <trkpt lat="43.75752" lon="-0.07961">
        <ele>110.2</ele>
        <time>2023-07-01T12:12:09Z</time>
      </trkpt>
      <trkpt lat="43.75752" lon="-0.07959">
        <ele>110.4</ele>
        <time>2023-07-01T12:12:10Z</time>
      </trkpt>
      <trkpt lat="43.75754" lon="-0.07953">
        <ele>110.6</ele>
        <time>2023-07-01T12:12:15Z</time>
      </trkpt>
      <trkpt lat="43.75754" lon="-0.07952">
        <ele>110.8</ele>
        <time>2023-07-01T12:12:16Z</time>
      </trkpt>
      <trkpt lat="43.75755" lon="-0.07949">
        <ele>111.2</ele>
        <time>2023-07-01T12:12:19Z</time>
      </trkpt>
      <trkpt lat="43.75755" lon="-0.07947">
        <ele>111.2</ele>
        <time>2023-07-01T12:12:20Z</time>
      </trkpt>
      <trkpt lat="43.75755" lon="-0.07946">
        <ele>111.2</ele>
        <time>2023-07-01T12:12:21Z</time>
      </trkpt>
      <trkpt lat="43.75756" lon="-0.07945">
        <ele>111.4</ele>
        <time>2023-07-01T12:12:22Z</time>
      </trkpt>
      <trkpt lat="43.75756" lon="-0.07944">
        <ele>111.4</ele>
        <time>2023-07-01T12:12:23Z</time>
      </trkpt>
      <trkpt lat="43.75757" lon="-0.07938">
        <ele>111.8</ele>
        <time>2023-07-01T12:12:27Z</time>
      </trkpt>
      <trkpt lat="43.75757" lon="-0.07937">
        <ele>112</ele>
        <time>2023-07-01T12:12:28Z</time>
      </trkpt>
      <trkpt lat="43.75757" lon="-0.07935">
        <ele>112.2</ele>
        <time>2023-07-01T12:12:29Z</time>
      </trkpt>
      <trkpt lat="43.75758" lon="-0.0793">
        <ele>112.8</ele>
        <time>2023-07-01T12:12:33Z</time>
      </trkpt>
      <trkpt lat="43.75758" lon="-0.0793">
        <ele>113</ele>
        <time>2023-07-01T12:12:34Z</time>
      </trkpt>
      <trkpt lat="43.75758" lon="-0.07925">
        <ele>113.4</ele>
        <time>2023-07-01T12:12:37Z</time>
      </trkpt>
      <trkpt lat="43.7576" lon="-0.0792">
        <ele>114</ele>
        <time>2023-07-01T12:12:41Z</time>
      </trkpt>
      <trkpt lat="43.7576" lon="-0.07918">
        <ele>114.4</ele>
        <time>2023-07-01T12:12:43Z</time>
      </trkpt>
      <trkpt lat="43.75762" lon="-0.0791">
        <ele>115</ele>
        <time>2023-07-01T12:12:48Z</time>
      </trkpt>
      <trkpt lat="43.75762" lon="-0.07907">
        <ele>115.2</ele>
        <time>2023-07-01T12:12:51Z</time>
      </trkpt>
      <trkpt lat="43.75764" lon="-0.07903">
        <ele>115.4</ele>
        <time>2023-07-01T12:12:55Z</time>
      </trkpt>
      <trkpt lat="43.75765" lon="-0.07901">
        <ele>115.6</ele>
        <time>2023-07-01T12:12:56Z</time>
      </trkpt>
      <trkpt lat="43.75766" lon="-0.079">
        <ele>115.8</ele>
        <time>2023-07-01T12:12:57Z</time>
      </trkpt>
      <trkpt lat="43.75769" lon="-0.07889">
        <ele>116.8</ele>
        <time>2023-07-01T12:13:04Z</time>
      </trkpt>
      <trkpt lat="43.75769" lon="-0.07886">
        <ele>117.2</ele>
        <time>2023-07-01T12:13:06Z</time>
      </trkpt>
      <trkpt lat="43.75769" lon="-0.07882">
        <ele>117.8</ele>
        <time>2023-07-01T12:13:09Z</time>
      </trkpt>
      <trkpt lat="43.75769" lon="-0.07879">
        <ele>118</ele>
        <time>2023-07-01T12:13:11Z</time>
      </trkpt>
      <trkpt lat="43.7577" lon="-0.07876">
        <ele>118.6</ele>
        <time>2023-07-01T12:13:14Z</time>
      </trkpt>
      <trkpt lat="43.75771" lon="-0.07873">
        <ele>119</ele>
        <time>2023-07-01T12:13:16Z</time>
      </trkpt>
      <trkpt lat="43.75772" lon="-0.07869">
        <ele>119.4</ele>
        <time>2023-07-01T12:13:19Z</time>
      </trkpt>
      <trkpt lat="43.75774" lon="-0.07865">
        <ele>119.6</ele>
        <time>2023-07-01T12:13:22Z</time>
      </trkpt>
      <trkpt lat="43.75774" lon="-0.07861">
        <ele>120.2</ele>
        <time>2023-07-01T12:13:24Z</time>
      </trkpt>
      <trkpt lat="43.75776" lon="-0.07855">
        <ele>120.6</ele>
        <time>2023-07-01T12:13:28Z</time>
      </trkpt>
      <trkpt lat="43.75779" lon="-0.07846">
        <ele>121.2</ele>
        <time>2023-07-01T12:13:34Z</time>
      </trkpt>
      <trkpt lat="43.7578" lon="-0.07842">
        <ele>121.4</ele>
        <time>2023-07-01T12:13:36Z</time>
      </trkpt>
      <trkpt lat="43.75781" lon="-0.07828">
        <ele>122</ele>
        <time>2023-07-01T12:13:44Z</time>
      </trkpt>
      <trkpt lat="43.75782" lon="-0.07825">
        <ele>122.4</ele>
        <time>2023-07-01T12:13:46Z</time>
      </trkpt>
      <trkpt lat="43.75786" lon="-0.07816">
        <ele>123.2</ele>
        <time>2023-07-01T12:13:52Z</time>
      </trkpt>
      <trkpt lat="43.75786" lon="-0.07815">
        <ele>123.4</ele>
        <time>2023-07-01T12:13:53Z</time>
      </trkpt>
      <trkpt lat="43.75791" lon="-0.07804">
        <ele>123.8</ele>
        <time>2023-07-01T12:13:59Z</time>
      </trkpt>
      <trkpt lat="43.75798" lon="-0.07794">
        <ele>124.4</ele>
        <time>2023-07-01T12:14:07Z</time>
      </trkpt>
      <trkpt lat="43.75798" lon="-0.07793">
        <ele>124.4</ele>
        <time>2023-07-01T12:14:08Z</time>
      </trkpt>
      <trkpt lat="43.75802" lon="-0.07785">
        <ele>124.8</ele>
        <time>2023-07-01T12:14:14Z</time>
      </trkpt>
      <trkpt lat="43.75802" lon="-0.07784">
        <ele>125</ele>
        <time>2023-07-01T12:14:15Z</time>
      </trkpt>
      <trkpt lat="43.75803" lon="-0.07781">
        <ele>125.4</ele>
        <time>2023-07-01T12:14:17Z</time>
      </trkpt>
      <trkpt lat="43.75804" lon="-0.07779">
        <ele>125.4</ele>
        <time>2023-07-01T12:14:18Z</time>
      </trkpt>
      <trkpt lat="43.75805" lon="-0.07776">
        <ele>125.4</ele>
        <time>2023-07-01T12:14:20Z</time>
      </trkpt>
      <trkpt lat="43.75806" lon="-0.07774">
        <ele>125.6</ele>
        <time>2023-07-01T12:14:22Z</time>
      </trkpt>
      <trkpt lat="43.75808" lon="-0.07763">
        <ele>125.8</ele>
        <time>2023-07-01T12:14:30Z</time>
      </trkpt>
      <trkpt lat="43.75809" lon="-0.07761">
        <ele>126</ele>
        <time>2023-07-01T12:14:32Z</time>
      </trkpt>
      <trkpt lat="43.75811" lon="-0.07753">
        <ele>126.2</ele>
        <time>2023-07-01T12:14:38Z</time>
      </trkpt>
      <trkpt lat="43.75811" lon="-0.07751">
        <ele>126.2</ele>
        <time>2023-07-01T12:14:40Z</time>
      </trkpt>
      <trkpt lat="43.75813" lon="-0.07746">
        <ele>126.4</ele>
        <time>2023-07-01T12:14:44Z</time>
      </trkpt>
      <trkpt lat="43.75814" lon="-0.07742">
        <ele>126.4</ele>
        <time>2023-07-01T12:14:46Z</time>
      </trkpt>
      <trkpt lat="43.75815" lon="-0.07736">
        <ele>126.8</ele>
        <time>2023-07-01T12:14:50Z</time>
      </trkpt>
      <trkpt lat="43.75815" lon="-0.07731">
        <ele>127</ele>
        <time>2023-07-01T12:14:53Z</time>
      </trkpt>
      <trkpt lat="43.7582" lon="-0.07718">
        <ele>127.4</ele>
        <time>2023-07-01T12:15:01Z</time>
      </trkpt>
      <trkpt lat="43.75821" lon="-0.07715">
        <ele>127.4</ele>
        <time>2023-07-01T12:15:03Z</time>
      </trkpt>
      <trkpt lat="43.75822" lon="-0.07714">
        <ele>127.4</ele>
        <time>2023-07-01T12:15:04Z</time>
      </trkpt>
      <trkpt lat="43.75825" lon="-0.07708">
        <ele>127.8</ele>
        <time>2023-07-01T12:15:08Z</time>
      </trkpt>
      <trkpt lat="43.75826" lon="-0.07705">
        <ele>128</ele>
        <time>2023-07-01T12:15:10Z</time>
      </trkpt>
      <trkpt lat="43.75828" lon="-0.07699">
        <ele>128.2</ele>
        <time>2023-07-01T12:15:13Z</time>
      </trkpt>
      <trkpt lat="43.75828" lon="-0.07695">
        <ele>128.4</ele>
        <time>2023-07-01T12:15:15Z</time>
      </trkpt>
      <trkpt lat="43.75829" lon="-0.07691">
        <ele>128.8</ele>
        <time>2023-07-01T12:15:18Z</time>
      </trkpt>
      <trkpt lat="43.75831" lon="-0.07684">
        <ele>129.4</ele>
        <time>2023-07-01T12:15:24Z</time>
      </trkpt>
      <trkpt lat="43.75831" lon="-0.07683">
        <ele>129.6</ele>
        <time>2023-07-01T12:15:25Z</time>
      </trkpt>
      <trkpt lat="43.75831" lon="-0.07683">
        <ele>129.6</ele>
        <time>2023-07-01T12:15:26Z</time>
      </trkpt>
      <trkpt lat="43.75832" lon="-0.07677">
        <ele>129.8</ele>
        <time>2023-07-01T12:15:30Z</time>
      </trkpt>
      <trkpt lat="43.75833" lon="-0.07674">
        <ele>130.2</ele>
        <time>2023-07-01T12:15:32Z</time>
      </trkpt>
      <trkpt lat="43.75834" lon="-0.07671">
        <ele>130.6</ele>
        <time>2023-07-01T12:15:34Z</time>
      </trkpt>
      <trkpt lat="43.75836" lon="-0.07665">
        <ele>131</ele>
        <time>2023-07-01T12:15:38Z</time>
      </trkpt>
      <trkpt lat="43.75837" lon="-0.07662">
        <ele>131.2</ele>
        <time>2023-07-01T12:15:40Z</time>
      </trkpt>
      <trkpt lat="43.75836" lon="-0.07656">
        <ele>131.6</ele>
        <time>2023-07-01T12:15:44Z</time>
      </trkpt>
      <trkpt lat="43.75836" lon="-0.07651">
        <ele>131.8</ele>
        <time>2023-07-01T12:15:47Z</time>
      </trkpt>
      <trkpt lat="43.75837" lon="-0.07644">
        <ele>132.6</ele>
        <time>2023-07-01T12:15:51Z</time>
      </trkpt>
      <trkpt lat="43.75837" lon="-0.07639">
        <ele>133.2</ele>
        <time>2023-07-01T12:15:54Z</time>
      </trkpt>
      <trkpt lat="43.75837" lon="-0.07632">
        <ele>133.8</ele>
        <time>2023-07-01T12:15:58Z</time>
      </trkpt>
      <trkpt lat="43.75838" lon="-0.07628">
        <ele>134</ele>
        <time>2023-07-01T12:16:01Z</time>
      </trkpt>
      <trkpt lat="43.75838" lon="-0.07626">
        <ele>134.4</ele>
        <time>2023-07-01T12:16:03Z</time>
      </trkpt>
      <trkpt lat="43.75839" lon="-0.07624">
        <ele>134.4</ele>
        <time>2023-07-01T12:16:04Z</time>
      </trkpt>
      <trkpt lat="43.75839" lon="-0.07619">
        <ele>134.8</ele>
        <time>2023-07-01T12:16:07Z</time>
      </trkpt>
      <trkpt lat="43.75839" lon="-0.07618">
        <ele>135</ele>
        <time>2023-07-01T12:16:08Z</time>
      </trkpt>
      <trkpt lat="43.75841" lon="-0.07608">
        <ele>135.8</ele>
        <time>2023-07-01T12:16:14Z</time>
      </trkpt>
      <trkpt lat="43.75841" lon="-0.07605">
        <ele>136</ele>
        <time>2023-07-01T12:16:16Z</time>
      </trkpt>
      <trkpt lat="43.75842" lon="-0.07599">
        <ele>136</ele>
        <time>2023-07-01T12:16:19Z</time>
      </trkpt>
      <trkpt lat="43.75838" lon="-0.07579">
        <ele>136.8</ele>
        <time>2023-07-01T12:21:28Z</time>
      </trkpt>
      <trkpt lat="43.75838" lon="-0.07577">
        <ele>136.8</ele>
        <time>2023-07-01T12:21:29Z</time>
      </trkpt>
      <trkpt lat="43.75838" lon="-0.07576">
        <ele>136.8</ele>
        <time>2023-07-01T12:21:30Z</time>
      </trkpt>
      <trkpt lat="43.75837" lon="-0.07573">
        <ele>137.6</ele>
        <time>2023-07-01T12:21:32Z</time>
      </trkpt>
      <trkpt lat="43.75836" lon="-0.0757">
        <ele>138.4</ele>
        <time>2023-07-01T12:21:34Z</time>
      </trkpt>
      <trkpt lat="43.75833" lon="-0.07563">
        <ele>138.4</ele>
        <time>2023-07-01T12:21:39Z</time>
      </trkpt>
      <trkpt lat="43.75828" lon="-0.07552">
        <ele>137.8</ele>
        <time>2023-07-01T12:21:46Z</time>
      </trkpt>
      <trkpt lat="43.75821" lon="-0.07542">
        <ele>138.4</ele>
        <time>2023-07-01T12:21:54Z</time>
      </trkpt>
      <trkpt lat="43.75817" lon="-0.07537">
        <ele>138.6</ele>
        <time>2023-07-01T12:21:59Z</time>
      </trkpt>
      <trkpt lat="43.75814" lon="-0.07533">
        <ele>138.8</ele>
        <time>2023-07-01T12:22:02Z</time>
      </trkpt>
      <trkpt lat="43.75811" lon="-0.07529">
        <ele>138.8</ele>
        <time>2023-07-01T12:22:05Z</time>
      </trkpt>
      <trkpt lat="43.75808" lon="-0.07523">
        <ele>139</ele>
        <time>2023-07-01T12:22:09Z</time>
      </trkpt>
      <trkpt lat="43.758" lon="-0.07513">
        <ele>138.6</ele>
        <time>2023-07-01T12:22:17Z</time>
      </trkpt>
      <trkpt lat="43.75794" lon="-0.07504">
        <ele>138.4</ele>
        <time>2023-07-01T12:22:25Z</time>
      </trkpt>
      <trkpt lat="43.75784" lon="-0.07493">
        <ele>138.8</ele>
        <time>2023-07-01T12:22:35Z</time>
      </trkpt>
      <trkpt lat="43.75782" lon="-0.07491">
        <ele>138.8</ele>
        <time>2023-07-01T12:22:37Z</time>
      </trkpt>
      <trkpt lat="43.75779" lon="-0.07488">
        <ele>139</ele>
        <time>2023-07-01T12:22:40Z</time>
      </trkpt>
      <trkpt lat="43.75776" lon="-0.07484">
        <ele>139</ele>
        <time>2023-07-01T12:22:43Z</time>
      </trkpt>
      <trkpt lat="43.75776" lon="-0.07482">
        <ele>139.2</ele>
        <time>2023-07-01T12:22:44Z</time>
      </trkpt>
      <trkpt lat="43.75775" lon="-0.07476">
        <ele>139.2</ele>
        <time>2023-07-01T12:22:47Z</time>
      </trkpt>
      <trkpt lat="43.75775" lon="-0.07474">
        <ele>139.2</ele>
        <time>2023-07-01T12:22:48Z</time>
      </trkpt>
      <trkpt lat="43.75775" lon="-0.07472">
        <ele>139.2</ele>
        <time>2023-07-01T12:22:49Z</time>
      </trkpt>
      <trkpt lat="43.75776" lon="-0.07467">
        <ele>139.2</ele>
        <time>2023-07-01T12:22:52Z</time>
      </trkpt>
      <trkpt lat="43.75777" lon="-0.07465">
        <ele>139</ele>
        <time>2023-07-01T12:22:53Z</time>
      </trkpt>
      <trkpt lat="43.75778" lon="-0.0746">
        <ele>139</ele>
        <time>2023-07-01T12:22:56Z</time>
      </trkpt>
      <trkpt lat="43.7578" lon="-0.07456">
        <ele>138.6</ele>
        <time>2023-07-01T12:22:59Z</time>
      </trkpt>
      <trkpt lat="43.7578" lon="-0.07454">
        <ele>138.6</ele>
        <time>2023-07-01T12:23:00Z</time>
      </trkpt>
      <trkpt lat="43.75786" lon="-0.07443">
        <ele>138.2</ele>
        <time>2023-07-01T12:23:07Z</time>
      </trkpt>
      <trkpt lat="43.75787" lon="-0.07441">
        <ele>138</ele>
        <time>2023-07-01T12:23:08Z</time>
      </trkpt>
      <trkpt lat="43.75789" lon="-0.07434">
        <ele>137.6</ele>
        <time>2023-07-01T12:23:12Z</time>
      </trkpt>
      <trkpt lat="43.75791" lon="-0.07429">
        <ele>137.4</ele>
        <time>2023-07-01T12:23:15Z</time>
      </trkpt>
      <trkpt lat="43.75793" lon="-0.07426">
        <ele>137.2</ele>
        <time>2023-07-01T12:23:17Z</time>
      </trkpt>
      <trkpt lat="43.75796" lon="-0.07411">
        <ele>136.6</ele>
        <time>2023-07-01T12:23:26Z</time>
      </trkpt>
      <trkpt lat="43.75799" lon="-0.07403">
        <ele>136.6</ele>
        <time>2023-07-01T12:23:31Z</time>
      </trkpt>
      <trkpt lat="43.75799" lon="-0.07401">
        <ele>136.4</ele>
        <time>2023-07-01T12:23:32Z</time>
      </trkpt>
      <trkpt lat="43.758" lon="-0.07397">
        <ele>136.4</ele>
        <time>2023-07-01T12:23:34Z</time>
      </trkpt>
      <trkpt lat="43.75802" lon="-0.0739">
        <ele>135.4</ele>
        <time>2023-07-01T12:23:38Z</time>
      </trkpt>
      <trkpt lat="43.75804" lon="-0.07384">
        <ele>135.2</ele>
        <time>2023-07-01T12:23:42Z</time>
      </trkpt>
      <trkpt lat="43.75807" lon="-0.07374">
        <ele>134.6</ele>
        <time>2023-07-01T12:23:48Z</time>
      </trkpt>
      <trkpt lat="43.75808" lon="-0.07368">
        <ele>134.6</ele>
        <time>2023-07-01T12:23:52Z</time>
      </trkpt>
      <trkpt lat="43.75809" lon="-0.07366">
        <ele>134.6</ele>
        <time>2023-07-01T12:23:53Z</time>
      </trkpt>
      <trkpt lat="43.75809" lon="-0.07359">
        <ele>134.4</ele>
        <time>2023-07-01T12:23:57Z</time>
      </trkpt>
      <trkpt lat="43.7581" lon="-0.07352">
        <ele>134.2</ele>
        <time>2023-07-01T12:24:01Z</time>
      </trkpt>
      <trkpt lat="43.75812" lon="-0.07342">
        <ele>133.2</ele>
        <time>2023-07-01T12:24:07Z</time>
      </trkpt>
      <trkpt lat="43.75812" lon="-0.0734">
        <ele>133</ele>
        <time>2023-07-01T12:24:08Z</time>
      </trkpt>
      <trkpt lat="43.75812" lon="-0.07337">
        <ele>133</ele>
        <time>2023-07-01T12:24:10Z</time>
      </trkpt>
      <trkpt lat="43.75815" lon="-0.07328">
        <ele>132.8</ele>
        <time>2023-07-01T12:24:15Z</time>
      </trkpt>
      <trkpt lat="43.75815" lon="-0.07327">
        <ele>132.8</ele>
        <time>2023-07-01T12:24:16Z</time>
      </trkpt>
      <trkpt lat="43.75817" lon="-0.07322">
        <ele>132.2</ele>
        <time>2023-07-01T12:24:19Z</time>
      </trkpt>
      <trkpt lat="43.75817" lon="-0.0732">
        <ele>132.2</ele>
        <time>2023-07-01T12:24:20Z</time>
      </trkpt>
      <trkpt lat="43.7582" lon="-0.07309">
        <ele>131.8</ele>
        <time>2023-07-01T12:24:27Z</time>
      </trkpt>
      <trkpt lat="43.75821" lon="-0.07307">
        <ele>131.6</ele>
        <time>2023-07-01T12:24:28Z</time>
      </trkpt>
      <trkpt lat="43.75823" lon="-0.07297">
        <ele>131.2</ele>
        <time>2023-07-01T12:24:34Z</time>
      </trkpt>
      <trkpt lat="43.75824" lon="-0.07294">
        <ele>131</ele>
        <time>2023-07-01T12:24:36Z</time>
      </trkpt>
      <trkpt lat="43.75828" lon="-0.07281">
        <ele>130.6</ele>
        <time>2023-07-01T12:24:44Z</time>
      </trkpt>
      <trkpt lat="43.7583" lon="-0.07275">
        <ele>130.4</ele>
        <time>2023-07-01T12:24:48Z</time>
      </trkpt>
      <trkpt lat="43.75835" lon="-0.07265">
        <ele>130.2</ele>
        <time>2023-07-01T12:24:54Z</time>
      </trkpt>
      <trkpt lat="43.75837" lon="-0.0726">
        <ele>130</ele>
        <time>2023-07-01T12:24:57Z</time>
      </trkpt>
      <trkpt lat="43.75838" lon="-0.07258">
        <ele>130</ele>
        <time>2023-07-01T12:24:58Z</time>
      </trkpt>
      <trkpt lat="43.7584" lon="-0.07251">
        <ele>130.2</ele>
        <time>2023-07-01T12:25:02Z</time>
      </trkpt>
      <trkpt lat="43.75844" lon="-0.07236">
        <ele>129.8</ele>
        <time>2023-07-01T12:25:11Z</time>
      </trkpt>
      <trkpt lat="43.75847" lon="-0.07221">
        <ele>129</ele>
        <time>2023-07-01T12:25:20Z</time>
      </trkpt>
      <trkpt lat="43.75847" lon="-0.07217">
        <ele>128.4</ele>
        <time>2023-07-01T12:25:22Z</time>
      </trkpt>
      <trkpt lat="43.75848" lon="-0.07211">
        <ele>128</ele>
        <time>2023-07-01T12:25:26Z</time>
      </trkpt>
      <trkpt lat="43.75848" lon="-0.07209">
        <ele>127.8</ele>
        <time>2023-07-01T12:25:27Z</time>
      </trkpt>
      <trkpt lat="43.75848" lon="-0.07206">
        <ele>127.6</ele>
        <time>2023-07-01T12:25:29Z</time>
      </trkpt>
      <trkpt lat="43.75849" lon="-0.07203">
        <ele>127.2</ele>
        <time>2023-07-01T12:25:31Z</time>
      </trkpt>
      <trkpt lat="43.7585" lon="-0.07199">
        <ele>127</ele>
        <time>2023-07-01T12:25:33Z</time>
      </trkpt>
      <trkpt lat="43.75851" lon="-0.07194">
        <ele>126.8</ele>
        <time>2023-07-01T12:25:36Z</time>
      </trkpt>
      <trkpt lat="43.75852" lon="-0.07192">
        <ele>126.6</ele>
        <time>2023-07-01T12:25:38Z</time>
      </trkpt>
      <trkpt lat="43.75853" lon="-0.07187">
        <ele>126.4</ele>
        <time>2023-07-01T12:25:41Z</time>
      </trkpt>
      <trkpt lat="43.75854" lon="-0.07182">
        <ele>126</ele>
        <time>2023-07-01T12:25:44Z</time>
      </trkpt>
      <trkpt lat="43.75855" lon="-0.07178">
        <ele>125.8</ele>
        <time>2023-07-01T12:25:46Z</time>
      </trkpt>
      <trkpt lat="43.75855" lon="-0.07176">
        <ele>125.4</ele>
        <time>2023-07-01T12:25:48Z</time>
      </trkpt>
      <trkpt lat="43.75855" lon="-0.0717">
        <ele>125.2</ele>
        <time>2023-07-01T12:25:52Z</time>
      </trkpt>
      <trkpt lat="43.75856" lon="-0.07169">
        <ele>125</ele>
        <time>2023-07-01T12:25:53Z</time>
      </trkpt>
      <trkpt lat="43.75858" lon="-0.0716">
        <ele>124.8</ele>
        <time>2023-07-01T12:25:58Z</time>
      </trkpt>
      <trkpt lat="43.75859" lon="-0.07158">
        <ele>124.6</ele>
        <time>2023-07-01T12:25:59Z</time>
      </trkpt>
      <trkpt lat="43.7586" lon="-0.07152">
        <ele>124.4</ele>
        <time>2023-07-01T12:26:02Z</time>
      </trkpt>
      <trkpt lat="43.7586" lon="-0.07151">
        <ele>124</ele>
        <time>2023-07-01T12:26:03Z</time>
      </trkpt>
      <trkpt lat="43.75862" lon="-0.07149">
        <ele>123.6</ele>
        <time>2023-07-01T12:26:05Z</time>
      </trkpt>
      <trkpt lat="43.75865" lon="-0.07138">
        <ele>123</ele>
        <time>2023-07-01T12:26:12Z</time>
      </trkpt>
      <trkpt lat="43.75867" lon="-0.0713">
        <ele>122.4</ele>
        <time>2023-07-01T12:26:17Z</time>
      </trkpt>
      <trkpt lat="43.75867" lon="-0.07128">
        <ele>122.2</ele>
        <time>2023-07-01T12:26:18Z</time>
      </trkpt>
      <trkpt lat="43.75868" lon="-0.0712">
        <ele>121.4</ele>
        <time>2023-07-01T12:26:22Z</time>
      </trkpt>
      <trkpt lat="43.75869" lon="-0.07118">
        <ele>121.4</ele>
        <time>2023-07-01T12:26:23Z</time>
      </trkpt>
      <trkpt lat="43.75869" lon="-0.07112">
        <ele>120.6</ele>
        <time>2023-07-01T12:26:26Z</time>
      </trkpt>
      <trkpt lat="43.7587" lon="-0.07109">
        <ele>120.4</ele>
        <time>2023-07-01T12:26:28Z</time>
      </trkpt>
      <trkpt lat="43.7587" lon="-0.07104">
        <ele>120.2</ele>
        <time>2023-07-01T12:26:31Z</time>
      </trkpt>
      <trkpt lat="43.75871" lon="-0.071">
        <ele>119.8</ele>
        <time>2023-07-01T12:26:34Z</time>
      </trkpt>
      <trkpt lat="43.75872" lon="-0.07099">
        <ele>119.6</ele>
        <time>2023-07-01T12:26:35Z</time>
      </trkpt>
      <trkpt lat="43.75872" lon="-0.07098">
        <ele>119.2</ele>
        <time>2023-07-01T12:26:36Z</time>
      </trkpt>
      <trkpt lat="43.75872" lon="-0.07087">
        <ele>118.4</ele>
        <time>2023-07-01T12:26:42Z</time>
      </trkpt>
      <trkpt lat="43.75872" lon="-0.07085">
        <ele>118.2</ele>
        <time>2023-07-01T12:26:43Z</time>
      </trkpt>
      <trkpt lat="43.75872" lon="-0.07081">
        <ele>117.4</ele>
        <time>2023-07-01T12:26:46Z</time>
      </trkpt>
      <trkpt lat="43.75872" lon="-0.07077">
        <ele>117</ele>
        <time>2023-07-01T12:26:48Z</time>
      </trkpt>
      <trkpt lat="43.75872" lon="-0.07072">
        <ele>116.6</ele>
        <time>2023-07-01T12:26:51Z</time>
      </trkpt>
      <trkpt lat="43.75873" lon="-0.07067">
        <ele>116.2</ele>
        <time>2023-07-01T12:26:54Z</time>
      </trkpt>
      <trkpt lat="43.75872" lon="-0.07065">
        <ele>116</ele>
        <time>2023-07-01T12:26:55Z</time>
      </trkpt>
      <trkpt lat="43.75874" lon="-0.07055">
        <ele>115.2</ele>
        <time>2023-07-01T12:27:01Z</time>
      </trkpt>
      <trkpt lat="43.75876" lon="-0.07051">
        <ele>114.8</ele>
        <time>2023-07-01T12:27:03Z</time>
      </trkpt>
      <trkpt lat="43.75876" lon="-0.07041">
        <ele>113.8</ele>
        <time>2023-07-01T12:27:08Z</time>
      </trkpt>
      <trkpt lat="43.75876" lon="-0.07039">
        <ele>113.6</ele>
        <time>2023-07-01T12:27:09Z</time>
      </trkpt>
      <trkpt lat="43.75876" lon="-0.07033">
        <ele>113</ele>
        <time>2023-07-01T12:27:13Z</time>
      </trkpt>
      <trkpt lat="43.75877" lon="-0.07028">
        <ele>112.6</ele>
        <time>2023-07-01T12:27:16Z</time>
      </trkpt>
      <trkpt lat="43.75878" lon="-0.07027">
        <ele>112.6</ele>
        <time>2023-07-01T12:27:17Z</time>
      </trkpt>
      <trkpt lat="43.75879" lon="-0.07024">
        <ele>112.2</ele>
        <time>2023-07-01T12:27:19Z</time>
      </trkpt>
      <trkpt lat="43.75881" lon="-0.07019">
        <ele>111.6</ele>
        <time>2023-07-01T12:27:22Z</time>
      </trkpt>
      <trkpt lat="43.75882" lon="-0.07017">
        <ele>111.6</ele>
        <time>2023-07-01T12:27:23Z</time>
      </trkpt>
      <trkpt lat="43.75881" lon="-0.07013">
        <ele>111.2</ele>
        <time>2023-07-01T12:27:25Z</time>
      </trkpt>
      <trkpt lat="43.75881" lon="-0.07011">
        <ele>111</ele>
        <time>2023-07-01T12:27:26Z</time>
      </trkpt>
      <trkpt lat="43.7588" lon="-0.07007">
        <ele>110.6</ele>
        <time>2023-07-01T12:27:29Z</time>
      </trkpt>
      <trkpt lat="43.75879" lon="-0.07005">
        <ele>110.4</ele>
        <time>2023-07-01T12:27:30Z</time>
      </trkpt>
      <trkpt lat="43.75879" lon="-0.07001">
        <ele>110</ele>
        <time>2023-07-01T12:27:33Z</time>
      </trkpt>
      <trkpt lat="43.7588" lon="-0.06997">
        <ele>109.6</ele>
        <time>2023-07-01T12:27:36Z</time>
      </trkpt>
      <trkpt lat="43.7588" lon="-0.06996">
        <ele>109.4</ele>
        <time>2023-07-01T12:27:37Z</time>
      </trkpt>
      <trkpt lat="43.75879" lon="-0.06994">
        <ele>109.2</ele>
        <time>2023-07-01T12:27:38Z</time>
      </trkpt>
      <trkpt lat="43.75879" lon="-0.06991">
        <ele>109</ele>
        <time>2023-07-01T12:27:39Z</time>
      </trkpt>
      <trkpt lat="43.75879" lon="-0.06985">
        <ele>108.4</ele>
        <time>2023-07-01T12:27:42Z</time>
      </trkpt>
      <trkpt lat="43.75879" lon="-0.06983">
        <ele>108.2</ele>
        <time>2023-07-01T12:27:43Z</time>
      </trkpt>
      <trkpt lat="43.75881" lon="-0.0697">
        <ele>107</ele>
        <time>2023-07-01T12:27:49Z</time>
      </trkpt>
      <trkpt lat="43.75882" lon="-0.06968">
        <ele>106.8</ele>
        <time>2023-07-01T12:27:50Z</time>
      </trkpt>
      <trkpt lat="43.75882" lon="-0.06961">
        <ele>105.8</ele>
        <time>2023-07-01T12:27:54Z</time>
      </trkpt>
      <trkpt lat="43.75882" lon="-0.06959">
        <ele>105.4</ele>
        <time>2023-07-01T12:27:55Z</time>
      </trkpt>
      <trkpt lat="43.75882" lon="-0.06949">
        <ele>104.8</ele>
        <time>2023-07-01T12:28:01Z</time>
      </trkpt>
      <trkpt lat="43.75882" lon="-0.06947">
        <ele>104.6</ele>
        <time>2023-07-01T12:28:02Z</time>
      </trkpt>
      <trkpt lat="43.75884" lon="-0.06936">
        <ele>103.6</ele>
        <time>2023-07-01T12:28:09Z</time>
      </trkpt>
      <trkpt lat="43.75885" lon="-0.06935">
        <ele>103.4</ele>
        <time>2023-07-01T12:28:10Z</time>
      </trkpt>
      <trkpt lat="43.75888" lon="-0.0693">
        <ele>102.8</ele>
        <time>2023-07-01T12:28:13Z</time>
      </trkpt>
      <trkpt lat="43.7589" lon="-0.06927">
        <ele>102.4</ele>
        <time>2023-07-01T12:28:15Z</time>
      </trkpt>
      <trkpt lat="43.75891" lon="-0.06926">
        <ele>102.4</ele>
        <time>2023-07-01T12:28:16Z</time>
      </trkpt>
      <trkpt lat="43.75898" lon="-0.06919">
        <ele>101.8</ele>
        <time>2023-07-01T12:28:22Z</time>
      </trkpt>
      <trkpt lat="43.75903" lon="-0.06914">
        <ele>101.4</ele>
        <time>2023-07-01T12:28:27Z</time>
      </trkpt>
      <trkpt lat="43.75904" lon="-0.06913">
        <ele>101.4</ele>
        <time>2023-07-01T12:28:28Z</time>
      </trkpt>
      <trkpt lat="43.75911" lon="-0.06906">
        <ele>101.2</ele>
        <time>2023-07-01T12:28:34Z</time>
      </trkpt>
      <trkpt lat="43.75912" lon="-0.06906">
        <ele>101</ele>
        <time>2023-07-01T12:28:35Z</time>
      </trkpt>
      <trkpt lat="43.75913" lon="-0.06905">
        <ele>100.8</ele>
        <time>2023-07-01T12:28:36Z</time>
      </trkpt>
      <trkpt lat="43.75915" lon="-0.06903">
        <ele>100.6</ele>
        <time>2023-07-01T12:28:38Z</time>
      </trkpt>
      <trkpt lat="43.75915" lon="-0.06902">
        <ele>100.4</ele>
        <time>2023-07-01T12:28:39Z</time>
      </trkpt>
      <trkpt lat="43.75916" lon="-0.06901">
        <ele>100.4</ele>
        <time>2023-07-01T12:28:40Z</time>
      </trkpt>
      <trkpt lat="43.75917" lon="-0.069">
        <ele>100.4</ele>
        <time>2023-07-01T12:28:41Z</time>
      </trkpt>
      <trkpt lat="43.75926" lon="-0.06892">
        <ele>100.4</ele>
        <time>2023-07-01T12:28:48Z</time>
      </trkpt>
      <trkpt lat="43.7593" lon="-0.06884">
        <ele>100.2</ele>
        <time>2023-07-01T12:28:54Z</time>
      </trkpt>
      <trkpt lat="43.7593" lon="-0.06882">
        <ele>100.2</ele>
        <time>2023-07-01T12:28:55Z</time>
      </trkpt>
      <trkpt lat="43.75935" lon="-0.06869">
        <ele>99.8</ele>
        <time>2023-07-01T12:29:03Z</time>
      </trkpt>
      <trkpt lat="43.75934" lon="-0.06854">
        <ele>99.4</ele>
        <time>2023-07-01T12:29:11Z</time>
      </trkpt>
      <trkpt lat="43.75934" lon="-0.06852">
        <ele>99.4</ele>
        <time>2023-07-01T12:29:12Z</time>
      </trkpt>
      <trkpt lat="43.75934" lon="-0.06848">
        <ele>99.6</ele>
        <time>2023-07-01T12:29:14Z</time>
      </trkpt>
      <trkpt lat="43.75934" lon="-0.06847">
        <ele>99.6</ele>
        <time>2023-07-01T12:29:15Z</time>
      </trkpt>
      <trkpt lat="43.75932" lon="-0.06842">
        <ele>100</ele>
        <time>2023-07-01T12:29:18Z</time>
      </trkpt>
      <trkpt lat="43.75931" lon="-0.06837">
        <ele>100.2</ele>
        <time>2023-07-01T12:29:21Z</time>
      </trkpt>
      <trkpt lat="43.7593" lon="-0.06835">
        <ele>100.4</ele>
        <time>2023-07-01T12:29:22Z</time>
      </trkpt>
      <trkpt lat="43.7593" lon="-0.06825">
        <ele>100.4</ele>
        <time>2023-07-01T12:29:29Z</time>
      </trkpt>
      <trkpt lat="43.7593" lon="-0.06818">
        <ele>100.6</ele>
        <time>2023-07-01T12:29:34Z</time>
      </trkpt>
      <trkpt lat="43.7593" lon="-0.06812">
        <ele>101</ele>
        <time>2023-07-01T12:29:38Z</time>
      </trkpt>
      <trkpt lat="43.75929" lon="-0.06808">
        <ele>101.4</ele>
        <time>2023-07-01T12:29:41Z</time>
      </trkpt>
      <trkpt lat="43.75929" lon="-0.068">
        <ele>102.2</ele>
        <time>2023-07-01T12:29:47Z</time>
      </trkpt>
      <trkpt lat="43.75929" lon="-0.06797">
        <ele>102.4</ele>
        <time>2023-07-01T12:29:49Z</time>
      </trkpt>
      <trkpt lat="43.75929" lon="-0.06795">
        <ele>102.4</ele>
        <time>2023-07-01T12:29:50Z</time>
      </trkpt>
      <trkpt lat="43.75929" lon="-0.06793">
        <ele>102.6</ele>
        <time>2023-07-01T12:29:52Z</time>
      </trkpt>
      <trkpt lat="43.75928" lon="-0.06788">
        <ele>103.2</ele>
        <time>2023-07-01T12:29:56Z</time>
      </trkpt>
      <trkpt lat="43.75928" lon="-0.06785">
        <ele>103.4</ele>
        <time>2023-07-01T12:29:58Z</time>
      </trkpt>
      <trkpt lat="43.75929" lon="-0.06777">
        <ele>104.2</ele>
        <time>2023-07-01T12:30:04Z</time>
      </trkpt>
      <trkpt lat="43.75929" lon="-0.06775">
        <ele>104.4</ele>
        <time>2023-07-01T12:30:06Z</time>
      </trkpt>
      <trkpt lat="43.7593" lon="-0.06761">
        <ele>105.6</ele>
        <time>2023-07-01T12:30:15Z</time>
      </trkpt>
      <trkpt lat="43.75931" lon="-0.06758">
        <ele>105.6</ele>
        <time>2023-07-01T12:30:17Z</time>
      </trkpt>
      <trkpt lat="43.75933" lon="-0.06742">
        <ele>106</ele>
        <time>2023-07-01T12:30:27Z</time>
      </trkpt>
      <trkpt lat="43.75935" lon="-0.06727">
        <ele>105.6</ele>
        <time>2023-07-01T12:30:36Z</time>
      </trkpt>
      <trkpt lat="43.75938" lon="-0.06713">
        <ele>104.8</ele>
        <time>2023-07-01T12:30:44Z</time>
      </trkpt>
      <trkpt lat="43.75939" lon="-0.06701">
        <ele>104.2</ele>
        <time>2023-07-01T12:30:51Z</time>
      </trkpt>
      <trkpt lat="43.7594" lon="-0.06684">
        <ele>103.6</ele>
        <time>2023-07-01T12:31:01Z</time>
      </trkpt>
      <trkpt lat="43.7594" lon="-0.06677">
        <ele>103</ele>
        <time>2023-07-01T12:31:05Z</time>
      </trkpt>
      <trkpt lat="43.75941" lon="-0.06668">
        <ele>102.2</ele>
        <time>2023-07-01T12:31:10Z</time>
      </trkpt>
      <trkpt lat="43.75941" lon="-0.06665">
        <ele>102</ele>
        <time>2023-07-01T12:31:12Z</time>
      </trkpt>
      <trkpt lat="43.75941" lon="-0.06654">
        <ele>101.2</ele>
        <time>2023-07-01T12:31:18Z</time>
      </trkpt>
      <trkpt lat="43.75941" lon="-0.06652">
        <ele>101</ele>
        <time>2023-07-01T12:31:19Z</time>
      </trkpt>
      <trkpt lat="43.75943" lon="-0.06638">
        <ele>99.8</ele>
        <time>2023-07-01T12:31:27Z</time>
      </trkpt>
      <trkpt lat="43.75943" lon="-0.06636">
        <ele>99.6</ele>
        <time>2023-07-01T12:31:28Z</time>
      </trkpt>
      <trkpt lat="43.75944" lon="-0.0662">
        <ele>98.8</ele>
        <time>2023-07-01T12:31:37Z</time>
      </trkpt>
      <trkpt lat="43.75944" lon="-0.06618">
        <ele>98.6</ele>
        <time>2023-07-01T12:31:38Z</time>
      </trkpt>
      <trkpt lat="43.75945" lon="-0.06615">
        <ele>98.4</ele>
        <time>2023-07-01T12:31:40Z</time>
      </trkpt>
      <trkpt lat="43.75945" lon="-0.06608">
        <ele>98.2</ele>
        <time>2023-07-01T12:31:44Z</time>
      </trkpt>
      <trkpt lat="43.75947" lon="-0.06601">
        <ele>98.2</ele>
        <time>2023-07-01T12:31:48Z</time>
      </trkpt>
      <trkpt lat="43.75951" lon="-0.06589">
        <ele>97.8</ele>
        <time>2023-07-01T12:31:56Z</time>
      </trkpt>
      <trkpt lat="43.75955" lon="-0.06584">
        <ele>98</ele>
        <time>2023-07-01T12:32:00Z</time>
      </trkpt>
      <trkpt lat="43.75958" lon="-0.0658">
        <ele>97.8</ele>
        <time>2023-07-01T12:32:03Z</time>
      </trkpt>
      <trkpt lat="43.75961" lon="-0.06577">
        <ele>97.6</ele>
        <time>2023-07-01T12:32:06Z</time>
      </trkpt>
      <trkpt lat="43.75964" lon="-0.06573">
        <ele>97.2</ele>
        <time>2023-07-01T12:32:09Z</time>
      </trkpt>
      <trkpt lat="43.75967" lon="-0.06569">
        <ele>97.2</ele>
        <time>2023-07-01T12:32:13Z</time>
      </trkpt>
      <trkpt lat="43.7597" lon="-0.06565">
        <ele>97.2</ele>
        <time>2023-07-01T12:32:16Z</time>
      </trkpt>
      <trkpt lat="43.75973" lon="-0.06562">
        <ele>97</ele>
        <time>2023-07-01T12:32:19Z</time>
      </trkpt>
      <trkpt lat="43.75976" lon="-0.06558">
        <ele>97</ele>
        <time>2023-07-01T12:32:22Z</time>
      </trkpt>
      <trkpt lat="43.75977" lon="-0.06556">
        <ele>96.8</ele>
        <time>2023-07-01T12:32:23Z</time>
      </trkpt>
      <trkpt lat="43.7598" lon="-0.06553">
        <ele>96.4</ele>
        <time>2023-07-01T12:32:26Z</time>
      </trkpt>
      <trkpt lat="43.75982" lon="-0.06549">
        <ele>96.4</ele>
        <time>2023-07-01T12:32:28Z</time>
      </trkpt>
      <trkpt lat="43.75984" lon="-0.06547">
        <ele>96.4</ele>
        <time>2023-07-01T12:32:30Z</time>
      </trkpt>
      <trkpt lat="43.75985" lon="-0.06545">
        <ele>96.4</ele>
        <time>2023-07-01T12:32:31Z</time>
      </trkpt>
      <trkpt lat="43.75986" lon="-0.06545">
        <ele>96.2</ele>
        <time>2023-07-01T12:32:32Z</time>
      </trkpt>
      <trkpt lat="43.75987" lon="-0.06544">
        <ele>96.2</ele>
        <time>2023-07-01T12:32:33Z</time>
      </trkpt>
      <trkpt lat="43.75987" lon="-0.06542">
        <ele>96</ele>
        <time>2023-07-01T12:32:34Z</time>
      </trkpt>
      <trkpt lat="43.75989" lon="-0.06537">
        <ele>96.2</ele>
        <time>2023-07-01T12:32:38Z</time>
      </trkpt>
      <trkpt lat="43.7599" lon="-0.06534">
        <ele>96.4</ele>
        <time>2023-07-01T12:32:41Z</time>
      </trkpt>
      <trkpt lat="43.7599" lon="-0.06533">
        <ele>96.4</ele>
        <time>2023-07-01T12:32:42Z</time>
      </trkpt>
      <trkpt lat="43.75993" lon="-0.0652">
        <ele>97</ele>
        <time>2023-07-01T12:32:52Z</time>
      </trkpt>
      <trkpt lat="43.75995" lon="-0.06516">
        <ele>97.2</ele>
        <time>2023-07-01T12:32:55Z</time>
      </trkpt>
      <trkpt lat="43.75998" lon="-0.06507">
        <ele>97.2</ele>
        <time>2023-07-01T12:33:00Z</time>
      </trkpt>
      <trkpt lat="43.76" lon="-0.065">
        <ele>97.2</ele>
        <time>2023-07-01T12:33:04Z</time>
      </trkpt>
      <trkpt lat="43.76001" lon="-0.06495">
        <ele>97.6</ele>
        <time>2023-07-01T12:33:07Z</time>
      </trkpt>
      <trkpt lat="43.76003" lon="-0.06493">
        <ele>97.8</ele>
        <time>2023-07-01T12:33:08Z</time>
      </trkpt>
      <trkpt lat="43.76006" lon="-0.0649">
        <ele>98</ele>
        <time>2023-07-01T12:33:10Z</time>
      </trkpt>
      <trkpt lat="43.76007" lon="-0.06488">
        <ele>98</ele>
        <time>2023-07-01T12:33:11Z</time>
      </trkpt>
      <trkpt lat="43.76008" lon="-0.06485">
        <ele>98</ele>
        <time>2023-07-01T12:33:13Z</time>
      </trkpt>
      <trkpt lat="43.76008" lon="-0.06483">
        <ele>98</ele>
        <time>2023-07-01T12:33:14Z</time>
      </trkpt>
      <trkpt lat="43.76009" lon="-0.06479">
        <ele>98</ele>
        <time>2023-07-01T12:33:17Z</time>
      </trkpt>
      <trkpt lat="43.7601" lon="-0.06476">
        <ele>98.2</ele>
        <time>2023-07-01T12:33:19Z</time>
      </trkpt>
      <trkpt lat="43.76012" lon="-0.06468">
        <ele>98.4</ele>
        <time>2023-07-01T12:33:24Z</time>
      </trkpt>
      <trkpt lat="43.76013" lon="-0.06466">
        <ele>98.6</ele>
        <time>2023-07-01T12:33:25Z</time>
      </trkpt>
      <trkpt lat="43.76015" lon="-0.0645">
        <ele>98.8</ele>
        <time>2023-07-01T12:33:34Z</time>
      </trkpt>
      <trkpt lat="43.76015" lon="-0.06447">
        <ele>98.8</ele>
        <time>2023-07-01T12:33:36Z</time>
      </trkpt>
      <trkpt lat="43.76017" lon="-0.06437">
        <ele>98.8</ele>
        <time>2023-07-01T12:33:42Z</time>
      </trkpt>
      <trkpt lat="43.76019" lon="-0.06429">
        <ele>99</ele>
        <time>2023-07-01T12:33:48Z</time>
      </trkpt>
      <trkpt lat="43.76019" lon="-0.06425">
        <ele>99</ele>
        <time>2023-07-01T12:33:50Z</time>
      </trkpt>
      <trkpt lat="43.7602" lon="-0.06414">
        <ele>99.4</ele>
        <time>2023-07-01T12:33:56Z</time>
      </trkpt>
      <trkpt lat="43.76023" lon="-0.06407">
        <ele>99.4</ele>
        <time>2023-07-01T12:34:00Z</time>
      </trkpt>
      <trkpt lat="43.76025" lon="-0.064">
        <ele>99.6</ele>
        <time>2023-07-01T12:34:04Z</time>
      </trkpt>
      <trkpt lat="43.76027" lon="-0.06396">
        <ele>99.6</ele>
        <time>2023-07-01T12:34:06Z</time>
      </trkpt>
      <trkpt lat="43.76028" lon="-0.06392">
        <ele>99.8</ele>
        <time>2023-07-01T12:34:08Z</time>
      </trkpt>
      <trkpt lat="43.76027" lon="-0.06386">
        <ele>100</ele>
        <time>2023-07-01T12:34:11Z</time>
      </trkpt>
      <trkpt lat="43.76026" lon="-0.06368">
        <ele>100.4</ele>
        <time>2023-07-01T12:34:21Z</time>
      </trkpt>
      <trkpt lat="43.7603" lon="-0.0636">
        <ele>100.4</ele>
        <time>2023-07-01T12:34:27Z</time>
      </trkpt>
      <trkpt lat="43.76034" lon="-0.06349">
        <ele>100.4</ele>
        <time>2023-07-01T12:34:34Z</time>
      </trkpt>
      <trkpt lat="43.76034" lon="-0.06348">
        <ele>100.4</ele>
        <time>2023-07-01T12:34:36Z</time>
      </trkpt>
      <trkpt lat="43.7603" lon="-0.06348">
        <ele>100.4</ele>
        <time>2023-07-01T12:34:40Z</time>
      </trkpt>
      <trkpt lat="43.76018" lon="-0.06349">
        <ele>100</ele>
        <time>2023-07-01T12:34:48Z</time>
      </trkpt>
      <trkpt lat="43.76005" lon="-0.06354">
        <ele>99.8</ele>
        <time>2023-07-01T12:34:58Z</time>
      </trkpt>
      <trkpt lat="43.75995" lon="-0.06359">
        <ele>100.2</ele>
        <time>2023-07-01T12:35:05Z</time>
      </trkpt>
      <trkpt lat="43.75993" lon="-0.06361">
        <ele>100.2</ele>
        <time>2023-07-01T12:35:07Z</time>
      </trkpt>
      <trkpt lat="43.75989" lon="-0.06363">
        <ele>100.2</ele>
        <time>2023-07-01T12:35:10Z</time>
      </trkpt>
      <trkpt lat="43.75987" lon="-0.06365">
        <ele>100.2</ele>
        <time>2023-07-01T12:35:12Z</time>
      </trkpt>
      <trkpt lat="43.7598" lon="-0.06374">
        <ele>100</ele>
        <time>2023-07-01T12:35:19Z</time>
      </trkpt>
      <trkpt lat="43.75976" lon="-0.06377">
        <ele>100</ele>
        <time>2023-07-01T12:35:23Z</time>
      </trkpt>
      <trkpt lat="43.75974" lon="-0.0638">
        <ele>100</ele>
        <time>2023-07-01T12:35:25Z</time>
      </trkpt>
      <trkpt lat="43.75967" lon="-0.0639">
        <ele>99.4</ele>
        <time>2023-07-01T12:35:32Z</time>
      </trkpt>
      <trkpt lat="43.75959" lon="-0.06401">
        <ele>99</ele>
        <time>2023-07-01T12:35:40Z</time>
      </trkpt>
      <trkpt lat="43.75952" lon="-0.06411">
        <ele>98.8</ele>
        <time>2023-07-01T12:35:48Z</time>
      </trkpt>
      <trkpt lat="43.75943" lon="-0.06422">
        <ele>98.6</ele>
        <time>2023-07-01T12:35:56Z</time>
      </trkpt>
      <trkpt lat="43.75939" lon="-0.06422">
        <ele>98.4</ele>
        <time>2023-07-01T12:36:00Z</time>
      </trkpt>
      <trkpt lat="43.75935" lon="-0.06419">
        <ele>98.4</ele>
        <time>2023-07-01T12:36:03Z</time>
      </trkpt>
      <trkpt lat="43.75931" lon="-0.06412">
        <ele>98.4</ele>
        <time>2023-07-01T12:36:09Z</time>
      </trkpt>
      <trkpt lat="43.75931" lon="-0.06411">
        <ele>98.4</ele>
        <time>2023-07-01T12:36:10Z</time>
      </trkpt>
      <trkpt lat="43.7593" lon="-0.0641">
        <ele>98.4</ele>
        <time>2023-07-01T12:36:11Z</time>
      </trkpt>
      <trkpt lat="43.75927" lon="-0.06406">
        <ele>98.8</ele>
        <time>2023-07-01T12:36:16Z</time>
      </trkpt>
      <trkpt lat="43.75927" lon="-0.06405">
        <ele>98.8</ele>
        <time>2023-07-01T12:36:17Z</time>
      </trkpt>
      <trkpt lat="43.75922" lon="-0.06401">
        <ele>98.8</ele>
        <time>2023-07-01T12:36:25Z</time>
      </trkpt>
      <trkpt lat="43.7592" lon="-0.064">
        <ele>99</ele>
        <time>2023-07-01T12:36:28Z</time>
      </trkpt>
      <trkpt lat="43.75917" lon="-0.06396">
        <ele>99.2</ele>
        <time>2023-07-01T12:36:32Z</time>
      </trkpt>
      <trkpt lat="43.75916" lon="-0.06395">
        <ele>99.2</ele>
        <time>2023-07-01T12:36:33Z</time>
      </trkpt>
      <trkpt lat="43.75909" lon="-0.06389">
        <ele>99.8</ele>
        <time>2023-07-01T12:36:39Z</time>
      </trkpt>
      <trkpt lat="43.75907" lon="-0.06389">
        <ele>99.8</ele>
        <time>2023-07-01T12:36:40Z</time>
      </trkpt>
      <trkpt lat="43.759" lon="-0.06385">
        <ele>100</ele>
        <time>2023-07-01T12:36:47Z</time>
      </trkpt>
      <trkpt lat="43.75896" lon="-0.06383">
        <ele>100.2</ele>
        <time>2023-07-01T12:36:51Z</time>
      </trkpt>
      <trkpt lat="43.7589" lon="-0.0638">
        <ele>100.6</ele>
        <time>2023-07-01T12:36:56Z</time>
      </trkpt>
      <trkpt lat="43.75883" lon="-0.06375">
        <ele>100.6</ele>
        <time>2023-07-01T12:37:03Z</time>
      </trkpt>
      <trkpt lat="43.75873" lon="-0.06371">
        <ele>100.4</ele>
        <time>2023-07-01T12:37:09Z</time>
      </trkpt>
      <trkpt lat="43.75869" lon="-0.06369">
        <ele>100.2</ele>
        <time>2023-07-01T12:37:12Z</time>
      </trkpt>
      <trkpt lat="43.75862" lon="-0.06366">
        <ele>100.2</ele>
        <time>2023-07-01T12:37:17Z</time>
      </trkpt>
      <trkpt lat="43.75854" lon="-0.06363">
        <ele>99.6</ele>
        <time>2023-07-01T12:37:23Z</time>
      </trkpt>
      <trkpt lat="43.75844" lon="-0.06358">
        <ele>99</ele>
        <time>2023-07-01T12:37:32Z</time>
      </trkpt>
      <trkpt lat="43.75835" lon="-0.06352">
        <ele>99</ele>
        <time>2023-07-01T12:37:39Z</time>
      </trkpt>
      <trkpt lat="43.75826" lon="-0.06345">
        <ele>98.6</ele>
        <time>2023-07-01T12:37:45Z</time>
      </trkpt>
      <trkpt lat="43.75826" lon="-0.06345">
        <ele>98.6</ele>
        <time>2023-07-01T12:37:46Z</time>
      </trkpt>
      <trkpt lat="43.75825" lon="-0.06344">
        <ele>98.6</ele>
        <time>2023-07-01T12:37:47Z</time>
      </trkpt>
      <trkpt lat="43.75818" lon="-0.06341">
        <ele>98.6</ele>
        <time>2023-07-01T12:37:53Z</time>
      </trkpt>
      <trkpt lat="43.75816" lon="-0.0634">
        <ele>98.6</ele>
        <time>2023-07-01T12:37:55Z</time>
      </trkpt>
      <trkpt lat="43.75811" lon="-0.0634">
        <ele>98.8</ele>
        <time>2023-07-01T12:37:58Z</time>
      </trkpt>
      <trkpt lat="43.75802" lon="-0.06342">
        <ele>98.6</ele>
        <time>2023-07-01T12:38:04Z</time>
      </trkpt>
      <trkpt lat="43.75799" lon="-0.06343">
        <ele>98.6</ele>
        <time>2023-07-01T12:38:07Z</time>
      </trkpt>
      <trkpt lat="43.75793" lon="-0.06344">
        <ele>98.4</ele>
        <time>2023-07-01T12:38:11Z</time>
      </trkpt>
      <trkpt lat="43.7579" lon="-0.06342">
        <ele>98.6</ele>
        <time>2023-07-01T12:38:14Z</time>
      </trkpt>
      <trkpt lat="43.75786" lon="-0.0634">
        <ele>98.6</ele>
        <time>2023-07-01T12:38:17Z</time>
      </trkpt>
      <trkpt lat="43.75785" lon="-0.0634">
        <ele>98.6</ele>
        <time>2023-07-01T12:38:18Z</time>
      </trkpt>
      <trkpt lat="43.75781" lon="-0.06339">
        <ele>98.4</ele>
        <time>2023-07-01T12:38:22Z</time>
      </trkpt>
      <trkpt lat="43.75778" lon="-0.06339">
        <ele>98.4</ele>
        <time>2023-07-01T12:38:25Z</time>
      </trkpt>
      <trkpt lat="43.75771" lon="-0.06338">
        <ele>98.6</ele>
        <time>2023-07-01T12:38:31Z</time>
      </trkpt>
      <trkpt lat="43.7576" lon="-0.0634">
        <ele>98.8</ele>
        <time>2023-07-01T12:38:39Z</time>
      </trkpt>
      <trkpt lat="43.75751" lon="-0.06338">
        <ele>99</ele>
        <time>2023-07-01T12:38:45Z</time>
      </trkpt>
      <trkpt lat="43.75746" lon="-0.06335">
        <ele>99.8</ele>
        <time>2023-07-01T12:38:51Z</time>
      </trkpt>
      <trkpt lat="43.75745" lon="-0.06335">
        <ele>99.8</ele>
        <time>2023-07-01T12:38:52Z</time>
      </trkpt>
      <trkpt lat="43.75745" lon="-0.06334">
        <ele>99.8</ele>
        <time>2023-07-01T12:38:53Z</time>
      </trkpt>
      <trkpt lat="43.75745" lon="-0.06331">
        <ele>100</ele>
        <time>2023-07-01T12:38:55Z</time>
      </trkpt>
      <trkpt lat="43.75745" lon="-0.0633">
        <ele>100</ele>
        <time>2023-07-01T12:38:56Z</time>
      </trkpt>
      <trkpt lat="43.75744" lon="-0.06329">
        <ele>100</ele>
        <time>2023-07-01T12:38:57Z</time>
      </trkpt>
      <trkpt lat="43.75744" lon="-0.06318">
        <ele>100.8</ele>
        <time>2023-07-01T12:39:05Z</time>
      </trkpt>
      <trkpt lat="43.75744" lon="-0.06316">
        <ele>100.8</ele>
        <time>2023-07-01T12:39:06Z</time>
      </trkpt>
      <trkpt lat="43.75744" lon="-0.06315">
        <ele>101</ele>
        <time>2023-07-01T12:39:07Z</time>
      </trkpt>
      <trkpt lat="43.75746" lon="-0.0631">
        <ele>101.6</ele>
        <time>2023-07-01T12:39:11Z</time>
      </trkpt>
      <trkpt lat="43.75746" lon="-0.06309">
        <ele>101.6</ele>
        <time>2023-07-01T12:39:12Z</time>
      </trkpt>
      <trkpt lat="43.75746" lon="-0.06305">
        <ele>101.8</ele>
        <time>2023-07-01T12:39:14Z</time>
      </trkpt>
      <trkpt lat="43.75747" lon="-0.06304">
        <ele>101.8</ele>
        <time>2023-07-01T12:39:15Z</time>
      </trkpt>
      <trkpt lat="43.75747" lon="-0.06298">
        <ele>102.4</ele>
        <time>2023-07-01T12:39:18Z</time>
      </trkpt>
      <trkpt lat="43.75747" lon="-0.06294">
        <ele>102.8</ele>
        <time>2023-07-01T12:39:21Z</time>
      </trkpt>
      <trkpt lat="43.75748" lon="-0.06291">
        <ele>104</ele>
        <time>2023-07-01T12:39:25Z</time>
      </trkpt>
      <trkpt lat="43.75747" lon="-0.06289">
        <ele>104.2</ele>
        <time>2023-07-01T12:39:27Z</time>
      </trkpt>
      <trkpt lat="43.75748" lon="-0.06287">
        <ele>104.4</ele>
        <time>2023-07-01T12:39:29Z</time>
      </trkpt>
      <trkpt lat="43.75749" lon="-0.06282">
        <ele>105.2</ele>
        <time>2023-07-01T12:39:32Z</time>
      </trkpt>
      <trkpt lat="43.75748" lon="-0.06278">
        <ele>106</ele>
        <time>2023-07-01T12:39:36Z</time>
      </trkpt>
      <trkpt lat="43.75747" lon="-0.06274">
        <ele>106.2</ele>
        <time>2023-07-01T12:39:39Z</time>
      </trkpt>
      <trkpt lat="43.75747" lon="-0.06272">
        <ele>106.6</ele>
        <time>2023-07-01T12:39:40Z</time>
      </trkpt>
      <trkpt lat="43.75746" lon="-0.06269">
        <ele>107</ele>
        <time>2023-07-01T12:39:43Z</time>
      </trkpt>
      <trkpt lat="43.75746" lon="-0.06266">
        <ele>107.4</ele>
        <time>2023-07-01T12:39:45Z</time>
      </trkpt>
      <trkpt lat="43.75746" lon="-0.06263">
        <ele>107.6</ele>
        <time>2023-07-01T12:39:47Z</time>
      </trkpt>
      <trkpt lat="43.75746" lon="-0.06261">
        <ele>107.6</ele>
        <time>2023-07-01T12:39:48Z</time>
      </trkpt>
      <trkpt lat="43.75746" lon="-0.06259">
        <ele>107.8</ele>
        <time>2023-07-01T12:39:49Z</time>
      </trkpt>
      <trkpt lat="43.75746" lon="-0.06257">
        <ele>108</ele>
        <time>2023-07-01T12:39:50Z</time>
      </trkpt>
      <trkpt lat="43.75746" lon="-0.06253">
        <ele>108.2</ele>
        <time>2023-07-01T12:39:52Z</time>
      </trkpt>
      <trkpt lat="43.75745" lon="-0.06249">
        <ele>108.2</ele>
        <time>2023-07-01T12:39:54Z</time>
      </trkpt>
      <trkpt lat="43.75745" lon="-0.06247">
        <ele>108.4</ele>
        <time>2023-07-01T12:39:55Z</time>
      </trkpt>
      <trkpt lat="43.75745" lon="-0.06242">
        <ele>108.6</ele>
        <time>2023-07-01T12:39:59Z</time>
      </trkpt>
      <trkpt lat="43.75746" lon="-0.06239">
        <ele>108.8</ele>
        <time>2023-07-01T12:40:01Z</time>
      </trkpt>
      <trkpt lat="43.75746" lon="-0.06239">
        <ele>108.8</ele>
        <time>2023-07-01T12:40:02Z</time>
      </trkpt>
      <trkpt lat="43.75746" lon="-0.06238">
        <ele>108.8</ele>
        <time>2023-07-01T12:40:03Z</time>
      </trkpt>
      <trkpt lat="43.75746" lon="-0.06235">
        <ele>109.4</ele>
        <time>2023-07-01T12:40:06Z</time>
      </trkpt>
      <trkpt lat="43.75746" lon="-0.06234">
        <ele>109.6</ele>
        <time>2023-07-01T12:40:07Z</time>
      </trkpt>
      <trkpt lat="43.75747" lon="-0.0623">
        <ele>109.8</ele>
        <time>2023-07-01T12:40:09Z</time>
      </trkpt>
      <trkpt lat="43.75745" lon="-0.06222">
        <ele>110.2</ele>
        <time>2023-07-01T12:40:16Z</time>
      </trkpt>
      <trkpt lat="43.75745" lon="-0.06217">
        <ele>110.6</ele>
        <time>2023-07-01T12:40:20Z</time>
      </trkpt>
      <trkpt lat="43.75744" lon="-0.06213">
        <ele>111.6</ele>
        <time>2023-07-01T12:40:23Z</time>
      </trkpt>
      <trkpt lat="43.75743" lon="-0.06211">
        <ele>111.6</ele>
        <time>2023-07-01T12:40:24Z</time>
      </trkpt>
      <trkpt lat="43.75743" lon="-0.0621">
        <ele>111.6</ele>
        <time>2023-07-01T12:40:25Z</time>
      </trkpt>
      <trkpt lat="43.75744" lon="-0.06205">
        <ele>111.8</ele>
        <time>2023-07-01T12:40:28Z</time>
      </trkpt>
      <trkpt lat="43.75744" lon="-0.06204">
        <ele>111.8</ele>
        <time>2023-07-01T12:40:29Z</time>
      </trkpt>
      <trkpt lat="43.75744" lon="-0.06203">
        <ele>111.8</ele>
        <time>2023-07-01T12:40:30Z</time>
      </trkpt>
      <trkpt lat="43.75744" lon="-0.062">
        <ele>112</ele>
        <time>2023-07-01T12:40:32Z</time>
      </trkpt>
      <trkpt lat="43.75745" lon="-0.06193">
        <ele>112.6</ele>
        <time>2023-07-01T12:40:37Z</time>
      </trkpt>
      <trkpt lat="43.75744" lon="-0.0619">
        <ele>113.2</ele>
        <time>2023-07-01T12:40:39Z</time>
      </trkpt>
      <trkpt lat="43.75744" lon="-0.06187">
        <ele>113.4</ele>
        <time>2023-07-01T12:40:41Z</time>
      </trkpt>
      <trkpt lat="43.75744" lon="-0.06185">
        <ele>113.4</ele>
        <time>2023-07-01T12:40:43Z</time>
      </trkpt>
      <trkpt lat="43.75745" lon="-0.06181">
        <ele>113.8</ele>
        <time>2023-07-01T12:40:46Z</time>
      </trkpt>
      <trkpt lat="43.75745" lon="-0.0618">
        <ele>113.8</ele>
        <time>2023-07-01T12:40:47Z</time>
      </trkpt>
      <trkpt lat="43.75744" lon="-0.06178">
        <ele>114.2</ele>
        <time>2023-07-01T12:40:48Z</time>
      </trkpt>
      <trkpt lat="43.75745" lon="-0.06177">
        <ele>114.4</ele>
        <time>2023-07-01T12:40:49Z</time>
      </trkpt>
      <trkpt lat="43.75744" lon="-0.06173">
        <ele>114.8</ele>
        <time>2023-07-01T12:40:53Z</time>
      </trkpt>
      <trkpt lat="43.75744" lon="-0.06172">
        <ele>115</ele>
        <time>2023-07-01T12:40:54Z</time>
      </trkpt>
      <trkpt lat="43.75744" lon="-0.06172">
        <ele>115</ele>
        <time>2023-07-01T12:40:55Z</time>
      </trkpt>
      <trkpt lat="43.75745" lon="-0.06163">
        <ele>116</ele>
        <time>2023-07-01T12:41:01Z</time>
      </trkpt>
      <trkpt lat="43.75745" lon="-0.0616">
        <ele>116.2</ele>
        <time>2023-07-01T12:41:03Z</time>
      </trkpt>
      <trkpt lat="43.75745" lon="-0.06159">
        <ele>116.2</ele>
        <time>2023-07-01T12:41:04Z</time>
      </trkpt>
      <trkpt lat="43.75746" lon="-0.06156">
        <ele>116.4</ele>
        <time>2023-07-01T12:41:07Z</time>
      </trkpt>
      <trkpt lat="43.75747" lon="-0.06152">
        <ele>116.8</ele>
        <time>2023-07-01T12:41:09Z</time>
      </trkpt>
      <trkpt lat="43.75746" lon="-0.06148">
        <ele>117</ele>
        <time>2023-07-01T12:41:11Z</time>
      </trkpt>
      <trkpt lat="43.75746" lon="-0.06145">
        <ele>117.6</ele>
        <time>2023-07-01T12:41:13Z</time>
      </trkpt>
      <trkpt lat="43.75745" lon="-0.06139">
        <ele>118.2</ele>
        <time>2023-07-01T12:41:18Z</time>
      </trkpt>
      <trkpt lat="43.75746" lon="-0.06134">
        <ele>118.6</ele>
        <time>2023-07-01T12:41:22Z</time>
      </trkpt>
      <trkpt lat="43.75746" lon="-0.0613">
        <ele>119.4</ele>
        <time>2023-07-01T12:41:25Z</time>
      </trkpt>
      <trkpt lat="43.75746" lon="-0.06124">
        <ele>119.8</ele>
        <time>2023-07-01T12:41:30Z</time>
      </trkpt>
      <trkpt lat="43.75746" lon="-0.06122">
        <ele>119.8</ele>
        <time>2023-07-01T12:41:31Z</time>
      </trkpt>
      <trkpt lat="43.75746" lon="-0.06121">
        <ele>120</ele>
        <time>2023-07-01T12:41:32Z</time>
      </trkpt>
      <trkpt lat="43.75747" lon="-0.0612">
        <ele>120.2</ele>
        <time>2023-07-01T12:41:33Z</time>
      </trkpt>
      <trkpt lat="43.75747" lon="-0.06119">
        <ele>120.2</ele>
        <time>2023-07-01T12:41:34Z</time>
      </trkpt>
      <trkpt lat="43.75748" lon="-0.06118">
        <ele>120.4</ele>
        <time>2023-07-01T12:41:35Z</time>
      </trkpt>
      <trkpt lat="43.75747" lon="-0.06113">
        <ele>121.2</ele>
        <time>2023-07-01T12:41:38Z</time>
      </trkpt>
      <trkpt lat="43.75745" lon="-0.06112">
        <ele>121.4</ele>
        <time>2023-07-01T12:41:39Z</time>
      </trkpt>
      <trkpt lat="43.75745" lon="-0.06111">
        <ele>121.4</ele>
        <time>2023-07-01T12:41:40Z</time>
      </trkpt>
      <trkpt lat="43.75744" lon="-0.06109">
        <ele>121.6</ele>
        <time>2023-07-01T12:41:41Z</time>
      </trkpt>
      <trkpt lat="43.75743" lon="-0.06103">
        <ele>121.8</ele>
        <time>2023-07-01T12:41:45Z</time>
      </trkpt>
      <trkpt lat="43.75742" lon="-0.06087">
        <ele>122.2</ele>
        <time>2023-07-01T12:41:52Z</time>
      </trkpt>
      <trkpt lat="43.75742" lon="-0.06085">
        <ele>122.4</ele>
        <time>2023-07-01T12:41:53Z</time>
      </trkpt>
      <trkpt lat="43.75741" lon="-0.06082">
        <ele>122.2</ele>
        <time>2023-07-01T12:41:54Z</time>
      </trkpt>
      <trkpt lat="43.75742" lon="-0.06067">
        <ele>122.4</ele>
        <time>2023-07-01T12:42:01Z</time>
      </trkpt>
      <trkpt lat="43.75742" lon="-0.06066">
        <ele>122.6</ele>
        <time>2023-07-01T12:42:02Z</time>
      </trkpt>
      <trkpt lat="43.75743" lon="-0.06059">
        <ele>122.6</ele>
        <time>2023-07-01T12:42:07Z</time>
      </trkpt>
      <trkpt lat="43.75745" lon="-0.06052">
        <ele>122.6</ele>
        <time>2023-07-01T12:42:12Z</time>
      </trkpt>
      <trkpt lat="43.75746" lon="-0.0605">
        <ele>122.8</ele>
        <time>2023-07-01T12:42:14Z</time>
      </trkpt>
      <trkpt lat="43.75748" lon="-0.06044">
        <ele>122.8</ele>
        <time>2023-07-01T12:42:17Z</time>
      </trkpt>
      <trkpt lat="43.75748" lon="-0.06043">
        <ele>123</ele>
        <time>2023-07-01T12:42:18Z</time>
      </trkpt>
      <trkpt lat="43.75748" lon="-0.06039">
        <ele>123.4</ele>
        <time>2023-07-01T12:42:21Z</time>
      </trkpt>
      <trkpt lat="43.75748" lon="-0.0603">
        <ele>123.4</ele>
        <time>2023-07-01T12:42:26Z</time>
      </trkpt>
      <trkpt lat="43.75747" lon="-0.06021">
        <ele>123.2</ele>
        <time>2023-07-01T12:42:30Z</time>
      </trkpt>
      <trkpt lat="43.75748" lon="-0.06019">
        <ele>123.4</ele>
        <time>2023-07-01T12:42:31Z</time>
      </trkpt>
      <trkpt lat="43.75748" lon="-0.06016">
        <ele>123.2</ele>
        <time>2023-07-01T12:42:32Z</time>
      </trkpt>
      <trkpt lat="43.75747" lon="-0.06011">
        <ele>123.4</ele>
        <time>2023-07-01T12:42:36Z</time>
      </trkpt>
      <trkpt lat="43.75746" lon="-0.06003">
        <ele>123</ele>
        <time>2023-07-01T12:42:41Z</time>
      </trkpt>
      <trkpt lat="43.75746" lon="-0.06001">
        <ele>123</ele>
        <time>2023-07-01T12:42:43Z</time>
      </trkpt>
      <trkpt lat="43.75745" lon="-0.05999">
        <ele>123</ele>
        <time>2023-07-01T12:42:44Z</time>
      </trkpt>
      <trkpt lat="43.75745" lon="-0.05998">
        <ele>123</ele>
        <time>2023-07-01T12:42:45Z</time>
      </trkpt>
      <trkpt lat="43.75745" lon="-0.05994">
        <ele>123</ele>
        <time>2023-07-01T12:42:47Z</time>
      </trkpt>
      <trkpt lat="43.75745" lon="-0.0599">
        <ele>123</ele>
        <time>2023-07-01T12:42:49Z</time>
      </trkpt>
      <trkpt lat="43.75744" lon="-0.05984">
        <ele>123</ele>
        <time>2023-07-01T12:42:52Z</time>
      </trkpt>
      <trkpt lat="43.75744" lon="-0.05982">
        <ele>123.2</ele>
        <time>2023-07-01T12:42:53Z</time>
      </trkpt>
      <trkpt lat="43.75743" lon="-0.05978">
        <ele>123.2</ele>
        <time>2023-07-01T12:42:55Z</time>
      </trkpt>
      <trkpt lat="43.75743" lon="-0.05973">
        <ele>123.4</ele>
        <time>2023-07-01T12:42:58Z</time>
      </trkpt>
      <trkpt lat="43.75746" lon="-0.05962">
        <ele>123.6</ele>
        <time>2023-07-01T12:43:05Z</time>
      </trkpt>
      <trkpt lat="43.75746" lon="-0.0596">
        <ele>123.8</ele>
        <time>2023-07-01T12:43:06Z</time>
      </trkpt>
      <trkpt lat="43.75746" lon="-0.05959">
        <ele>123.8</ele>
        <time>2023-07-01T12:43:07Z</time>
      </trkpt>
      <trkpt lat="43.75746" lon="-0.05956">
        <ele>124</ele>
        <time>2023-07-01T12:43:08Z</time>
      </trkpt>
      <trkpt lat="43.75745" lon="-0.05955">
        <ele>124</ele>
        <time>2023-07-01T12:43:09Z</time>
      </trkpt>
      <trkpt lat="43.75744" lon="-0.05946">
        <ele>124</ele>
        <time>2023-07-01T12:43:14Z</time>
      </trkpt>
      <trkpt lat="43.75743" lon="-0.05944">
        <ele>123.8</ele>
        <time>2023-07-01T12:43:16Z</time>
      </trkpt>
      <trkpt lat="43.75743" lon="-0.05935">
        <ele>124</ele>
        <time>2023-07-01T12:43:21Z</time>
      </trkpt>
      <trkpt lat="43.75742" lon="-0.05932">
        <ele>124.2</ele>
        <time>2023-07-01T12:43:23Z</time>
      </trkpt>
      <trkpt lat="43.7574" lon="-0.05927">
        <ele>124.4</ele>
        <time>2023-07-01T12:43:26Z</time>
      </trkpt>
      <trkpt lat="43.75742" lon="-0.05926">
        <ele>124.6</ele>
        <time>2023-07-01T12:43:27Z</time>
      </trkpt>
      <trkpt lat="43.75742" lon="-0.05923">
        <ele>124.8</ele>
        <time>2023-07-01T12:43:29Z</time>
      </trkpt>
      <trkpt lat="43.75742" lon="-0.05922">
        <ele>125</ele>
        <time>2023-07-01T12:43:30Z</time>
      </trkpt>
      <trkpt lat="43.75742" lon="-0.05921">
        <ele>125.2</ele>
        <time>2023-07-01T12:43:31Z</time>
      </trkpt>
      <trkpt lat="43.7574" lon="-0.05916">
        <ele>125.8</ele>
        <time>2023-07-01T12:43:35Z</time>
      </trkpt>
      <trkpt lat="43.75739" lon="-0.05911">
        <ele>126</ele>
        <time>2023-07-01T12:43:38Z</time>
      </trkpt>
      <trkpt lat="43.75737" lon="-0.05908">
        <ele>126.2</ele>
        <time>2023-07-01T12:43:40Z</time>
      </trkpt>
      <trkpt lat="43.75734" lon="-0.059">
        <ele>126.8</ele>
        <time>2023-07-01T12:43:45Z</time>
      </trkpt>
      <trkpt lat="43.75736" lon="-0.05897">
        <ele>126.8</ele>
        <time>2023-07-01T12:43:47Z</time>
      </trkpt>
      <trkpt lat="43.75736" lon="-0.05893">
        <ele>127.2</ele>
        <time>2023-07-01T12:43:51Z</time>
      </trkpt>
      <trkpt lat="43.75736" lon="-0.05892">
        <ele>127.4</ele>
        <time>2023-07-01T12:43:52Z</time>
      </trkpt>
      <trkpt lat="43.75737" lon="-0.05887">
        <ele>127.6</ele>
        <time>2023-07-01T12:43:56Z</time>
      </trkpt>
      <trkpt lat="43.75736" lon="-0.05884">
        <ele>127.8</ele>
        <time>2023-07-01T12:43:58Z</time>
      </trkpt>
      <trkpt lat="43.75735" lon="-0.05883">
        <ele>127.8</ele>
        <time>2023-07-01T12:43:59Z</time>
      </trkpt>
      <trkpt lat="43.75734" lon="-0.05881">
        <ele>128</ele>
        <time>2023-07-01T12:44:00Z</time>
      </trkpt>
      <trkpt lat="43.75731" lon="-0.05873">
        <ele>128.4</ele>
        <time>2023-07-01T12:44:05Z</time>
      </trkpt>
      <trkpt lat="43.75728" lon="-0.05864">
        <ele>128.8</ele>
        <time>2023-07-01T12:44:10Z</time>
      </trkpt>
      <trkpt lat="43.75726" lon="-0.05854">
        <ele>128.8</ele>
        <time>2023-07-01T12:44:14Z</time>
      </trkpt>
      <trkpt lat="43.75723" lon="-0.0584">
        <ele>129.4</ele>
        <time>2023-07-01T12:44:21Z</time>
      </trkpt>
      <trkpt lat="43.75723" lon="-0.05838">
        <ele>129.4</ele>
        <time>2023-07-01T12:44:22Z</time>
      </trkpt>
      <trkpt lat="43.75722" lon="-0.05833">
        <ele>129.6</ele>
        <time>2023-07-01T12:44:25Z</time>
      </trkpt>
      <trkpt lat="43.75722" lon="-0.05829">
        <ele>129.6</ele>
        <time>2023-07-01T12:44:28Z</time>
      </trkpt>
      <trkpt lat="43.75722" lon="-0.05827">
        <ele>129.8</ele>
        <time>2023-07-01T12:44:29Z</time>
      </trkpt>
      <trkpt lat="43.75721" lon="-0.05825">
        <ele>129.8</ele>
        <time>2023-07-01T12:44:30Z</time>
      </trkpt>
      <trkpt lat="43.75723" lon="-0.05814">
        <ele>130.2</ele>
        <time>2023-07-01T12:44:36Z</time>
      </trkpt>
      <trkpt lat="43.75723" lon="-0.0581">
        <ele>130.4</ele>
        <time>2023-07-01T12:44:39Z</time>
      </trkpt>
      <trkpt lat="43.75723" lon="-0.05807">
        <ele>130.4</ele>
        <time>2023-07-01T12:44:41Z</time>
      </trkpt>
      <trkpt lat="43.75722" lon="-0.058">
        <ele>130.8</ele>
        <time>2023-07-01T12:44:45Z</time>
      </trkpt>
      <trkpt lat="43.7572" lon="-0.05797">
        <ele>131</ele>
        <time>2023-07-01T12:44:47Z</time>
      </trkpt>
      <trkpt lat="43.75719" lon="-0.05788">
        <ele>131.2</ele>
        <time>2023-07-01T12:44:52Z</time>
      </trkpt>
      <trkpt lat="43.75718" lon="-0.05786">
        <ele>131.2</ele>
        <time>2023-07-01T12:44:54Z</time>
      </trkpt>
      <trkpt lat="43.75716" lon="-0.05782">
        <ele>131.2</ele>
        <time>2023-07-01T12:44:56Z</time>
      </trkpt>
      <trkpt lat="43.75715" lon="-0.05777">
        <ele>131.2</ele>
        <time>2023-07-01T12:44:59Z</time>
      </trkpt>
      <trkpt lat="43.75714" lon="-0.05773">
        <ele>131.2</ele>
        <time>2023-07-01T12:45:01Z</time>
      </trkpt>
      <trkpt lat="43.75714" lon="-0.05771">
        <ele>131.4</ele>
        <time>2023-07-01T12:45:02Z</time>
      </trkpt>
      <trkpt lat="43.75714" lon="-0.05765">
        <ele>131.6</ele>
        <time>2023-07-01T12:45:06Z</time>
      </trkpt>
      <trkpt lat="43.75713" lon="-0.05763">
        <ele>131.6</ele>
        <time>2023-07-01T12:45:07Z</time>
      </trkpt>
      <trkpt lat="43.75712" lon="-0.0576">
        <ele>131.6</ele>
        <time>2023-07-01T12:45:09Z</time>
      </trkpt>
      <trkpt lat="43.75711" lon="-0.05756">
        <ele>131.8</ele>
        <time>2023-07-01T12:45:11Z</time>
      </trkpt>
      <trkpt lat="43.75711" lon="-0.0575">
        <ele>132</ele>
        <time>2023-07-01T12:45:14Z</time>
      </trkpt>
      <trkpt lat="43.75711" lon="-0.05746">
        <ele>132.2</ele>
        <time>2023-07-01T12:45:17Z</time>
      </trkpt>
      <trkpt lat="43.75711" lon="-0.05744">
        <ele>132.2</ele>
        <time>2023-07-01T12:45:18Z</time>
      </trkpt>
      <trkpt lat="43.75709" lon="-0.05738">
        <ele>132.4</ele>
        <time>2023-07-01T12:45:22Z</time>
      </trkpt>
      <trkpt lat="43.75708" lon="-0.05737">
        <ele>132.4</ele>
        <time>2023-07-01T12:45:23Z</time>
      </trkpt>
      <trkpt lat="43.75707" lon="-0.0573">
        <ele>132.6</ele>
        <time>2023-07-01T12:45:26Z</time>
      </trkpt>
      <trkpt lat="43.75704" lon="-0.05717">
        <ele>132.8</ele>
        <time>2023-07-01T12:45:33Z</time>
      </trkpt>
      <trkpt lat="43.75703" lon="-0.05714">
        <ele>133</ele>
        <time>2023-07-01T12:45:35Z</time>
      </trkpt>
      <trkpt lat="43.75703" lon="-0.05712">
        <ele>133.2</ele>
        <time>2023-07-01T12:45:36Z</time>
      </trkpt>
      <trkpt lat="43.75702" lon="-0.05711">
        <ele>133.4</ele>
        <time>2023-07-01T12:45:37Z</time>
      </trkpt>
      <trkpt lat="43.75701" lon="-0.05705">
        <ele>133.8</ele>
        <time>2023-07-01T12:45:40Z</time>
      </trkpt>
      <trkpt lat="43.757" lon="-0.05704">
        <ele>134</ele>
        <time>2023-07-01T12:45:41Z</time>
      </trkpt>
      <trkpt lat="43.75697" lon="-0.05691">
        <ele>134.2</ele>
        <time>2023-07-01T12:45:48Z</time>
      </trkpt>
      <trkpt lat="43.75698" lon="-0.05686">
        <ele>134.4</ele>
        <time>2023-07-01T12:45:51Z</time>
      </trkpt>
      <trkpt lat="43.75697" lon="-0.05685">
        <ele>134.6</ele>
        <time>2023-07-01T12:45:52Z</time>
      </trkpt>
      <trkpt lat="43.75699" lon="-0.0568">
        <ele>134.6</ele>
        <time>2023-07-01T12:45:55Z</time>
      </trkpt>
      <trkpt lat="43.75703" lon="-0.05671">
        <ele>135</ele>
        <time>2023-07-01T12:46:01Z</time>
      </trkpt>
      <trkpt lat="43.75704" lon="-0.05669">
        <ele>135.2</ele>
        <time>2023-07-01T12:46:03Z</time>
      </trkpt>
      <trkpt lat="43.75701" lon="-0.05657">
        <ele>135.4</ele>
        <time>2023-07-01T12:46:11Z</time>
      </trkpt>
      <trkpt lat="43.757" lon="-0.05651">
        <ele>136</ele>
        <time>2023-07-01T12:46:15Z</time>
      </trkpt>
      <trkpt lat="43.75701" lon="-0.05644">
        <ele>135.8</ele>
        <time>2023-07-01T12:46:18Z</time>
      </trkpt>
      <trkpt lat="43.75701" lon="-0.0564">
        <ele>135.8</ele>
        <time>2023-07-01T12:46:20Z</time>
      </trkpt>
      <trkpt lat="43.75702" lon="-0.05637">
        <ele>135.8</ele>
        <time>2023-07-01T12:46:23Z</time>
      </trkpt>
      <trkpt lat="43.75702" lon="-0.05633">
        <ele>136</ele>
        <time>2023-07-01T12:46:26Z</time>
      </trkpt>
      <trkpt lat="43.75701" lon="-0.05632">
        <ele>136.2</ele>
        <time>2023-07-01T12:46:27Z</time>
      </trkpt>
      <trkpt lat="43.75699" lon="-0.0563">
        <ele>136.2</ele>
        <time>2023-07-01T12:46:29Z</time>
      </trkpt>
      <trkpt lat="43.75696" lon="-0.05624">
        <ele>136.2</ele>
        <time>2023-07-01T12:46:34Z</time>
      </trkpt>
      <trkpt lat="43.75692" lon="-0.05612">
        <ele>136.6</ele>
        <time>2023-07-01T12:46:41Z</time>
      </trkpt>
      <trkpt lat="43.75686" lon="-0.05599">
        <ele>136.6</ele>
        <time>2023-07-01T12:46:49Z</time>
      </trkpt>
      <trkpt lat="43.75685" lon="-0.05595">
        <ele>136.6</ele>
        <time>2023-07-01T12:46:53Z</time>
      </trkpt>
      <trkpt lat="43.75682" lon="-0.05585">
        <ele>136.6</ele>
        <time>2023-07-01T12:46:59Z</time>
      </trkpt>
      <trkpt lat="43.75682" lon="-0.0558">
        <ele>137.2</ele>
        <time>2023-07-01T12:47:03Z</time>
      </trkpt>
      <trkpt lat="43.75679" lon="-0.05571">
        <ele>138</ele>
        <time>2023-07-01T12:47:09Z</time>
      </trkpt>
      <trkpt lat="43.75676" lon="-0.05564">
        <ele>138.2</ele>
        <time>2023-07-01T12:47:14Z</time>
      </trkpt>
      <trkpt lat="43.75676" lon="-0.05563">
        <ele>138.4</ele>
        <time>2023-07-01T12:47:15Z</time>
      </trkpt>
      <trkpt lat="43.75675" lon="-0.05562">
        <ele>138.4</ele>
        <time>2023-07-01T12:47:16Z</time>
      </trkpt>
      <trkpt lat="43.75672" lon="-0.05554">
        <ele>138.6</ele>
        <time>2023-07-01T12:47:21Z</time>
      </trkpt>
      <trkpt lat="43.75671" lon="-0.05551">
        <ele>139</ele>
        <time>2023-07-01T12:47:23Z</time>
      </trkpt>
      <trkpt lat="43.7567" lon="-0.05549">
        <ele>139</ele>
        <time>2023-07-01T12:47:24Z</time>
      </trkpt>
      <trkpt lat="43.7567" lon="-0.05546">
        <ele>139.2</ele>
        <time>2023-07-01T12:47:25Z</time>
      </trkpt>
      <trkpt lat="43.75667" lon="-0.05538">
        <ele>139.6</ele>
        <time>2023-07-01T12:47:31Z</time>
      </trkpt>
      <trkpt lat="43.75664" lon="-0.05529">
        <ele>139.8</ele>
        <time>2023-07-01T12:47:34Z</time>
      </trkpt>
      <trkpt lat="43.75662" lon="-0.05525">
        <ele>140</ele>
        <time>2023-07-01T12:47:36Z</time>
      </trkpt>
      <trkpt lat="43.75661" lon="-0.0552">
        <ele>140.2</ele>
        <time>2023-07-01T12:47:38Z</time>
      </trkpt>
      <trkpt lat="43.75657" lon="-0.05514">
        <ele>139.8</ele>
        <time>2023-07-01T12:47:42Z</time>
      </trkpt>
      <trkpt lat="43.75656" lon="-0.0551">
        <ele>139.8</ele>
        <time>2023-07-01T12:47:45Z</time>
      </trkpt>
      <trkpt lat="43.75656" lon="-0.05507">
        <ele>140</ele>
        <time>2023-07-01T12:47:46Z</time>
      </trkpt>
      <trkpt lat="43.75655" lon="-0.05503">
        <ele>140.4</ele>
        <time>2023-07-01T12:47:49Z</time>
      </trkpt>
      <trkpt lat="43.75654" lon="-0.05501">
        <ele>140.6</ele>
        <time>2023-07-01T12:47:50Z</time>
      </trkpt>
      <trkpt lat="43.75652" lon="-0.05497">
        <ele>140.8</ele>
        <time>2023-07-01T12:47:53Z</time>
      </trkpt>
      <trkpt lat="43.75652" lon="-0.05496">
        <ele>140.8</ele>
        <time>2023-07-01T12:47:54Z</time>
      </trkpt>
      <trkpt lat="43.75652" lon="-0.05494">
        <ele>140.8</ele>
        <time>2023-07-01T12:47:55Z</time>
      </trkpt>
      <trkpt lat="43.75649" lon="-0.05485">
        <ele>141</ele>
        <time>2023-07-01T12:48:01Z</time>
      </trkpt>
      <trkpt lat="43.75648" lon="-0.05481">
        <ele>141.6</ele>
        <time>2023-07-01T12:48:03Z</time>
      </trkpt>
      <trkpt lat="43.75646" lon="-0.05474">
        <ele>141.8</ele>
        <time>2023-07-01T12:48:07Z</time>
      </trkpt>
      <trkpt lat="43.75646" lon="-0.05473">
        <ele>141.8</ele>
        <time>2023-07-01T12:48:08Z</time>
      </trkpt>
      <trkpt lat="43.75642" lon="-0.05462">
        <ele>141.8</ele>
        <time>2023-07-01T12:48:15Z</time>
      </trkpt>
      <trkpt lat="43.75641" lon="-0.05459">
        <ele>141.6</ele>
        <time>2023-07-01T12:48:17Z</time>
      </trkpt>
      <trkpt lat="43.75639" lon="-0.05452">
        <ele>142.2</ele>
        <time>2023-07-01T12:48:22Z</time>
      </trkpt>
      <trkpt lat="43.75639" lon="-0.05451">
        <ele>142.4</ele>
        <time>2023-07-01T12:48:23Z</time>
      </trkpt>
      <trkpt lat="43.75637" lon="-0.05445">
        <ele>142.6</ele>
        <time>2023-07-01T12:48:27Z</time>
      </trkpt>
      <trkpt lat="43.75636" lon="-0.05442">
        <ele>142.6</ele>
        <time>2023-07-01T12:48:29Z</time>
      </trkpt>
      <trkpt lat="43.75633" lon="-0.05429">
        <ele>143</ele>
        <time>2023-07-01T12:48:36Z</time>
      </trkpt>
      <trkpt lat="43.75632" lon="-0.05427">
        <ele>143</ele>
        <time>2023-07-01T12:48:37Z</time>
      </trkpt>
      <trkpt lat="43.7563" lon="-0.05423">
        <ele>143</ele>
        <time>2023-07-01T12:48:40Z</time>
      </trkpt>
      <trkpt lat="43.7563" lon="-0.05421">
        <ele>143</ele>
        <time>2023-07-01T12:48:41Z</time>
      </trkpt>
      <trkpt lat="43.75629" lon="-0.05417">
        <ele>143</ele>
        <time>2023-07-01T12:48:44Z</time>
      </trkpt>
      <trkpt lat="43.75629" lon="-0.05412">
        <ele>142.8</ele>
        <time>2023-07-01T12:48:46Z</time>
      </trkpt>
      <trkpt lat="43.75629" lon="-0.05409">
        <ele>142.8</ele>
        <time>2023-07-01T12:48:48Z</time>
      </trkpt>
      <trkpt lat="43.75628" lon="-0.05396">
        <ele>142.8</ele>
        <time>2023-07-01T12:48:55Z</time>
      </trkpt>
      <trkpt lat="43.75627" lon="-0.0538">
        <ele>143.2</ele>
        <time>2023-07-01T12:49:02Z</time>
      </trkpt>
      <trkpt lat="43.75627" lon="-0.05379">
        <ele>143.2</ele>
        <time>2023-07-01T12:49:03Z</time>
      </trkpt>
      <trkpt lat="43.75627" lon="-0.05374">
        <ele>143.2</ele>
        <time>2023-07-01T12:49:05Z</time>
      </trkpt>
      <trkpt lat="43.75627" lon="-0.05364">
        <ele>143</ele>
        <time>2023-07-01T12:49:09Z</time>
      </trkpt>
      <trkpt lat="43.75627" lon="-0.05361">
        <ele>143.2</ele>
        <time>2023-07-01T12:49:10Z</time>
      </trkpt>
      <trkpt lat="43.75627" lon="-0.05346">
        <ele>143.4</ele>
        <time>2023-07-01T12:49:16Z</time>
      </trkpt>
      <trkpt lat="43.75626" lon="-0.05344">
        <ele>143.4</ele>
        <time>2023-07-01T12:49:17Z</time>
      </trkpt>
      <trkpt lat="43.75627" lon="-0.05339">
        <ele>143.2</ele>
        <time>2023-07-01T12:49:20Z</time>
      </trkpt>
      <trkpt lat="43.75628" lon="-0.05337">
        <ele>143.4</ele>
        <time>2023-07-01T12:49:21Z</time>
      </trkpt>
      <trkpt lat="43.75628" lon="-0.05335">
        <ele>143.6</ele>
        <time>2023-07-01T12:49:23Z</time>
      </trkpt>
      <trkpt lat="43.75628" lon="-0.05333">
        <ele>143.6</ele>
        <time>2023-07-01T12:49:24Z</time>
      </trkpt>
      <trkpt lat="43.75628" lon="-0.05326">
        <ele>143.8</ele>
        <time>2023-07-01T12:49:29Z</time>
      </trkpt>
      <trkpt lat="43.75629" lon="-0.05322">
        <ele>143.8</ele>
        <time>2023-07-01T12:49:32Z</time>
      </trkpt>
      <trkpt lat="43.75628" lon="-0.0532">
        <ele>144</ele>
        <time>2023-07-01T12:49:34Z</time>
      </trkpt>
      <trkpt lat="43.75628" lon="-0.05319">
        <ele>144</ele>
        <time>2023-07-01T12:49:35Z</time>
      </trkpt>
      <trkpt lat="43.75628" lon="-0.05304">
        <ele>144.4</ele>
        <time>2023-07-01T12:49:43Z</time>
      </trkpt>
      <trkpt lat="43.75628" lon="-0.05295">
        <ele>144.4</ele>
        <time>2023-07-01T12:49:47Z</time>
      </trkpt>
      <trkpt lat="43.75628" lon="-0.05292">
        <ele>144.6</ele>
        <time>2023-07-01T12:49:49Z</time>
      </trkpt>
      <trkpt lat="43.75628" lon="-0.05287">
        <ele>144.4</ele>
        <time>2023-07-01T12:49:52Z</time>
      </trkpt>
      <trkpt lat="43.75627" lon="-0.05282">
        <ele>144.2</ele>
        <time>2023-07-01T12:49:55Z</time>
      </trkpt>
      <trkpt lat="43.75628" lon="-0.0528">
        <ele>144.2</ele>
        <time>2023-07-01T12:49:56Z</time>
      </trkpt>
      <trkpt lat="43.75635" lon="-0.05271">
        <ele>144.2</ele>
        <time>2023-07-01T12:50:01Z</time>
      </trkpt>
      <trkpt lat="43.75636" lon="-0.05265">
        <ele>144</ele>
        <time>2023-07-01T12:50:05Z</time>
      </trkpt>
      <trkpt lat="43.75636" lon="-0.05263">
        <ele>143.8</ele>
        <time>2023-07-01T12:50:06Z</time>
      </trkpt>
      <trkpt lat="43.75638" lon="-0.05257">
        <ele>143.4</ele>
        <time>2023-07-01T12:50:09Z</time>
      </trkpt>
      <trkpt lat="43.75639" lon="-0.05252">
        <ele>143.2</ele>
        <time>2023-07-01T12:50:12Z</time>
      </trkpt>
      <trkpt lat="43.75639" lon="-0.05245">
        <ele>143.2</ele>
        <time>2023-07-01T12:50:16Z</time>
      </trkpt>
      <trkpt lat="43.75639" lon="-0.05243">
        <ele>143.2</ele>
        <time>2023-07-01T12:50:17Z</time>
      </trkpt>
      <trkpt lat="43.75639" lon="-0.05231">
        <ele>143.4</ele>
        <time>2023-07-01T12:50:24Z</time>
      </trkpt>
      <trkpt lat="43.7564" lon="-0.05229">
        <ele>143.4</ele>
        <time>2023-07-01T12:50:25Z</time>
      </trkpt>
      <trkpt lat="43.7564" lon="-0.05228">
        <ele>143.4</ele>
        <time>2023-07-01T12:50:26Z</time>
      </trkpt>
      <trkpt lat="43.75642" lon="-0.0522">
        <ele>143.2</ele>
        <time>2023-07-01T12:50:31Z</time>
      </trkpt>
      <trkpt lat="43.75644" lon="-0.05216">
        <ele>143</ele>
        <time>2023-07-01T12:50:34Z</time>
      </trkpt>
      <trkpt lat="43.75646" lon="-0.05208">
        <ele>143</ele>
        <time>2023-07-01T12:50:39Z</time>
      </trkpt>
      <trkpt lat="43.75646" lon="-0.05205">
        <ele>143.2</ele>
        <time>2023-07-01T12:50:41Z</time>
      </trkpt>
      <trkpt lat="43.75647" lon="-0.05198">
        <ele>143.2</ele>
        <time>2023-07-01T12:50:45Z</time>
      </trkpt>
      <trkpt lat="43.75646" lon="-0.05197">
        <ele>143</ele>
        <time>2023-07-01T12:50:46Z</time>
      </trkpt>
      <trkpt lat="43.75647" lon="-0.05192">
        <ele>143</ele>
        <time>2023-07-01T12:50:49Z</time>
      </trkpt>
      <trkpt lat="43.75648" lon="-0.0519">
        <ele>143</ele>
        <time>2023-07-01T12:50:50Z</time>
      </trkpt>
      <trkpt lat="43.75652" lon="-0.05182">
        <ele>143</ele>
        <time>2023-07-01T12:50:55Z</time>
      </trkpt>
      <trkpt lat="43.75654" lon="-0.05179">
        <ele>142.6</ele>
        <time>2023-07-01T12:50:57Z</time>
      </trkpt>
      <trkpt lat="43.75655" lon="-0.05176">
        <ele>142.4</ele>
        <time>2023-07-01T12:50:59Z</time>
      </trkpt>
      <trkpt lat="43.75659" lon="-0.05167">
        <ele>142.2</ele>
        <time>2023-07-01T12:51:05Z</time>
      </trkpt>
      <trkpt lat="43.75661" lon="-0.0516">
        <ele>142</ele>
        <time>2023-07-01T12:51:09Z</time>
      </trkpt>
      <trkpt lat="43.75662" lon="-0.05157">
        <ele>142</ele>
        <time>2023-07-01T12:51:11Z</time>
      </trkpt>
      <trkpt lat="43.75664" lon="-0.05144">
        <ele>141.8</ele>
        <time>2023-07-01T12:51:20Z</time>
      </trkpt>
      <trkpt lat="43.75665" lon="-0.05142">
        <ele>141.6</ele>
        <time>2023-07-01T12:51:21Z</time>
      </trkpt>
      <trkpt lat="43.75665" lon="-0.05141">
        <ele>141.6</ele>
        <time>2023-07-01T12:51:22Z</time>
      </trkpt>
      <trkpt lat="43.75666" lon="-0.05138">
        <ele>141.6</ele>
        <time>2023-07-01T12:51:24Z</time>
      </trkpt>
      <trkpt lat="43.75668" lon="-0.05135">
        <ele>141.8</ele>
        <time>2023-07-01T12:51:26Z</time>
      </trkpt>
      <trkpt lat="43.75669" lon="-0.05132">
        <ele>142</ele>
        <time>2023-07-01T12:51:28Z</time>
      </trkpt>
      <trkpt lat="43.7567" lon="-0.05126">
        <ele>141.8</ele>
        <time>2023-07-01T12:51:33Z</time>
      </trkpt>
      <trkpt lat="43.75669" lon="-0.05122">
        <ele>141.6</ele>
        <time>2023-07-01T12:51:35Z</time>
      </trkpt>
      <trkpt lat="43.7567" lon="-0.05121">
        <ele>141.6</ele>
        <time>2023-07-01T12:51:36Z</time>
      </trkpt>
      <trkpt lat="43.75669" lon="-0.05106">
        <ele>141.4</ele>
        <time>2023-07-01T12:51:45Z</time>
      </trkpt>
      <trkpt lat="43.75668" lon="-0.051">
        <ele>141.4</ele>
        <time>2023-07-01T12:51:48Z</time>
      </trkpt>
      <trkpt lat="43.75667" lon="-0.05098">
        <ele>141.6</ele>
        <time>2023-07-01T12:51:49Z</time>
      </trkpt>
      <trkpt lat="43.75667" lon="-0.05097">
        <ele>141.6</ele>
        <time>2023-07-01T12:51:50Z</time>
      </trkpt>
      <trkpt lat="43.75666" lon="-0.0509">
        <ele>141.8</ele>
        <time>2023-07-01T12:51:54Z</time>
      </trkpt>
      <trkpt lat="43.75663" lon="-0.05076">
        <ele>141.8</ele>
        <time>2023-07-01T12:52:02Z</time>
      </trkpt>
      <trkpt lat="43.75661" lon="-0.05068">
        <ele>141.6</ele>
        <time>2023-07-01T12:52:07Z</time>
      </trkpt>
      <trkpt lat="43.75661" lon="-0.0506">
        <ele>141.2</ele>
        <time>2023-07-01T12:52:12Z</time>
      </trkpt>
      <trkpt lat="43.75659" lon="-0.05046">
        <ele>141.4</ele>
        <time>2023-07-01T12:52:19Z</time>
      </trkpt>
      <trkpt lat="43.75657" lon="-0.05035">
        <ele>141</ele>
        <time>2023-07-01T12:52:26Z</time>
      </trkpt>
      <trkpt lat="43.75653" lon="-0.05024">
        <ele>141</ele>
        <time>2023-07-01T12:52:33Z</time>
      </trkpt>
      <trkpt lat="43.75653" lon="-0.05015">
        <ele>140.8</ele>
        <time>2023-07-01T12:52:39Z</time>
      </trkpt>
      <trkpt lat="43.75653" lon="-0.05014">
        <ele>140.8</ele>
        <time>2023-07-01T12:52:40Z</time>
      </trkpt>
      <trkpt lat="43.75652" lon="-0.05011">
        <ele>141</ele>
        <time>2023-07-01T12:52:42Z</time>
      </trkpt>
      <trkpt lat="43.7565" lon="-0.05002">
        <ele>140.8</ele>
        <time>2023-07-01T12:52:46Z</time>
      </trkpt>
      <trkpt lat="43.75645" lon="-0.04986">
        <ele>141</ele>
        <time>2023-07-01T12:52:55Z</time>
      </trkpt>
      <trkpt lat="43.75643" lon="-0.04981">
        <ele>141</ele>
        <time>2023-07-01T12:52:58Z</time>
      </trkpt>
      <trkpt lat="43.75641" lon="-0.04978">
        <ele>141</ele>
        <time>2023-07-01T12:53:00Z</time>
      </trkpt>
      <trkpt lat="43.75639" lon="-0.04971">
        <ele>141</ele>
        <time>2023-07-01T12:53:04Z</time>
      </trkpt>
      <trkpt lat="43.75644" lon="-0.04963">
        <ele>141</ele>
        <time>2023-07-01T12:53:08Z</time>
      </trkpt>
      <trkpt lat="43.75644" lon="-0.04958">
        <ele>141</ele>
        <time>2023-07-01T12:53:11Z</time>
      </trkpt>
      <trkpt lat="43.7564" lon="-0.04942">
        <ele>141</ele>
        <time>2023-07-01T12:53:20Z</time>
      </trkpt>
      <trkpt lat="43.75639" lon="-0.04941">
        <ele>141.2</ele>
        <time>2023-07-01T12:53:21Z</time>
      </trkpt>
      <trkpt lat="43.75639" lon="-0.04939">
        <ele>141.2</ele>
        <time>2023-07-01T12:53:22Z</time>
      </trkpt>
      <trkpt lat="43.75639" lon="-0.04929">
        <ele>141.2</ele>
        <time>2023-07-01T12:53:28Z</time>
      </trkpt>
      <trkpt lat="43.75638" lon="-0.04923">
        <ele>141.2</ele>
        <time>2023-07-01T12:53:32Z</time>
      </trkpt>
      <trkpt lat="43.75637" lon="-0.0492">
        <ele>141</ele>
        <time>2023-07-01T12:53:34Z</time>
      </trkpt>
      <trkpt lat="43.75635" lon="-0.04911">
        <ele>141</ele>
        <time>2023-07-01T12:53:40Z</time>
      </trkpt>
      <trkpt lat="43.75635" lon="-0.04904">
        <ele>141.6</ele>
        <time>2023-07-01T12:53:44Z</time>
      </trkpt>
      <trkpt lat="43.75636" lon="-0.04898">
        <ele>141.8</ele>
        <time>2023-07-01T12:53:47Z</time>
      </trkpt>
      <trkpt lat="43.75639" lon="-0.04886">
        <ele>142.2</ele>
        <time>2023-07-01T12:53:53Z</time>
      </trkpt>
      <trkpt lat="43.75639" lon="-0.04885">
        <ele>142.2</ele>
        <time>2023-07-01T12:53:54Z</time>
      </trkpt>
      <trkpt lat="43.75641" lon="-0.04881">
        <ele>142.6</ele>
        <time>2023-07-01T12:53:57Z</time>
      </trkpt>
      <trkpt lat="43.75639" lon="-0.04878">
        <ele>143.2</ele>
        <time>2023-07-01T12:54:02Z</time>
      </trkpt>
      <trkpt lat="43.75638" lon="-0.04873">
        <ele>143.6</ele>
        <time>2023-07-01T12:54:06Z</time>
      </trkpt>
      <trkpt lat="43.75636" lon="-0.04866">
        <ele>144.2</ele>
        <time>2023-07-01T12:54:11Z</time>
      </trkpt>
      <trkpt lat="43.75637" lon="-0.04861">
        <ele>144.8</ele>
        <time>2023-07-01T12:54:15Z</time>
      </trkpt>
      <trkpt lat="43.75637" lon="-0.04859">
        <ele>144.8</ele>
        <time>2023-07-01T12:54:16Z</time>
      </trkpt>
      <trkpt lat="43.75638" lon="-0.04856">
        <ele>144.8</ele>
        <time>2023-07-01T12:54:18Z</time>
      </trkpt>
      <trkpt lat="43.75639" lon="-0.04844">
        <ele>144.4</ele>
        <time>2023-07-01T12:54:25Z</time>
      </trkpt>
      <trkpt lat="43.75641" lon="-0.04834">
        <ele>144.4</ele>
        <time>2023-07-01T12:54:29Z</time>
      </trkpt>
      <trkpt lat="43.75643" lon="-0.0483">
        <ele>144.4</ele>
        <time>2023-07-01T12:54:31Z</time>
      </trkpt>
      <trkpt lat="43.75643" lon="-0.04829">
        <ele>144.4</ele>
        <time>2023-07-01T12:54:32Z</time>
      </trkpt>
      <trkpt lat="43.75646" lon="-0.04822">
        <ele>144.6</ele>
        <time>2023-07-01T12:54:36Z</time>
      </trkpt>
      <trkpt lat="43.75647" lon="-0.04819">
        <ele>144.8</ele>
        <time>2023-07-01T12:54:38Z</time>
      </trkpt>
      <trkpt lat="43.75647" lon="-0.04818">
        <ele>145</ele>
        <time>2023-07-01T12:54:39Z</time>
      </trkpt>
      <trkpt lat="43.75651" lon="-0.04804">
        <ele>145.2</ele>
        <time>2023-07-01T12:54:47Z</time>
      </trkpt>
      <trkpt lat="43.75658" lon="-0.04796">
        <ele>145</ele>
        <time>2023-07-01T12:54:53Z</time>
      </trkpt>
      <trkpt lat="43.75661" lon="-0.04792">
        <ele>145.4</ele>
        <time>2023-07-01T12:54:56Z</time>
      </trkpt>
      <trkpt lat="43.75664" lon="-0.04786">
        <ele>145.4</ele>
        <time>2023-07-01T12:55:00Z</time>
      </trkpt>
      <trkpt lat="43.75665" lon="-0.04785">
        <ele>145.2</ele>
        <time>2023-07-01T12:55:01Z</time>
      </trkpt>
      <trkpt lat="43.75669" lon="-0.04774">
        <ele>145.2</ele>
        <time>2023-07-01T12:55:08Z</time>
      </trkpt>
      <trkpt lat="43.7567" lon="-0.0477">
        <ele>145.2</ele>
        <time>2023-07-01T12:55:11Z</time>
      </trkpt>
      <trkpt lat="43.75675" lon="-0.04763">
        <ele>145.4</ele>
        <time>2023-07-01T12:55:16Z</time>
      </trkpt>
      <trkpt lat="43.75682" lon="-0.04747">
        <ele>145.2</ele>
        <time>2023-07-01T12:55:26Z</time>
      </trkpt>
      <trkpt lat="43.75685" lon="-0.04736">
        <ele>145.4</ele>
        <time>2023-07-01T12:55:33Z</time>
      </trkpt>
      <trkpt lat="43.75688" lon="-0.04735">
        <ele>145.8</ele>
        <time>2023-07-01T12:55:36Z</time>
      </trkpt>
      <trkpt lat="43.75688" lon="-0.04734">
        <ele>145.8</ele>
        <time>2023-07-01T12:55:37Z</time>
      </trkpt>
      <trkpt lat="43.75688" lon="-0.04732">
        <ele>145.8</ele>
        <time>2023-07-01T12:55:38Z</time>
      </trkpt>
      <trkpt lat="43.75695" lon="-0.04714">
        <ele>145.6</ele>
        <time>2023-07-01T12:55:48Z</time>
      </trkpt>
      <trkpt lat="43.75697" lon="-0.0471">
        <ele>145.4</ele>
        <time>2023-07-01T12:55:51Z</time>
      </trkpt>
      <trkpt lat="43.75699" lon="-0.04704">
        <ele>145.6</ele>
        <time>2023-07-01T12:55:54Z</time>
      </trkpt>
      <trkpt lat="43.75699" lon="-0.04698">
        <ele>145.6</ele>
        <time>2023-07-01T12:55:57Z</time>
      </trkpt>
      <trkpt lat="43.757" lon="-0.04693">
        <ele>145.4</ele>
        <time>2023-07-01T12:56:00Z</time>
      </trkpt>
      <trkpt lat="43.75702" lon="-0.04692">
        <ele>145.4</ele>
        <time>2023-07-01T12:56:01Z</time>
      </trkpt>
      <trkpt lat="43.75704" lon="-0.04686">
        <ele>145.2</ele>
        <time>2023-07-01T12:56:05Z</time>
      </trkpt>
      <trkpt lat="43.75705" lon="-0.04684">
        <ele>145.4</ele>
        <time>2023-07-01T12:56:06Z</time>
      </trkpt>
      <trkpt lat="43.75707" lon="-0.04681">
        <ele>145.4</ele>
        <time>2023-07-01T12:56:08Z</time>
      </trkpt>
      <trkpt lat="43.7571" lon="-0.04677">
        <ele>145.4</ele>
        <time>2023-07-01T12:56:11Z</time>
      </trkpt>
      <trkpt lat="43.75711" lon="-0.04674">
        <ele>145.4</ele>
        <time>2023-07-01T12:56:13Z</time>
      </trkpt>
      <trkpt lat="43.75711" lon="-0.04672">
        <ele>145.6</ele>
        <time>2023-07-01T12:56:15Z</time>
      </trkpt>
      <trkpt lat="43.75712" lon="-0.04671">
        <ele>145.6</ele>
        <time>2023-07-01T12:56:16Z</time>
      </trkpt>
      <trkpt lat="43.75715" lon="-0.04662">
        <ele>145.8</ele>
        <time>2023-07-01T12:56:22Z</time>
      </trkpt>
      <trkpt lat="43.75717" lon="-0.04655">
        <ele>145.8</ele>
        <time>2023-07-01T12:56:26Z</time>
      </trkpt>
      <trkpt lat="43.75717" lon="-0.04653">
        <ele>145.8</ele>
        <time>2023-07-01T12:56:27Z</time>
      </trkpt>
      <trkpt lat="43.75719" lon="-0.04649">
        <ele>145.6</ele>
        <time>2023-07-01T12:56:30Z</time>
      </trkpt>
      <trkpt lat="43.75723" lon="-0.04642">
        <ele>145.4</ele>
        <time>2023-07-01T12:56:35Z</time>
      </trkpt>
      <trkpt lat="43.75723" lon="-0.04641">
        <ele>145.4</ele>
        <time>2023-07-01T12:56:36Z</time>
      </trkpt>
      <trkpt lat="43.75724" lon="-0.04633">
        <ele>145.2</ele>
        <time>2023-07-01T12:56:40Z</time>
      </trkpt>
      <trkpt lat="43.75726" lon="-0.04628">
        <ele>145.2</ele>
        <time>2023-07-01T12:56:43Z</time>
      </trkpt>
      <trkpt lat="43.75729" lon="-0.04617">
        <ele>145.4</ele>
        <time>2023-07-01T12:56:50Z</time>
      </trkpt>
      <trkpt lat="43.75732" lon="-0.04608">
        <ele>145.4</ele>
        <time>2023-07-01T12:56:55Z</time>
      </trkpt>
      <trkpt lat="43.75734" lon="-0.04602">
        <ele>145</ele>
        <time>2023-07-01T12:56:58Z</time>
      </trkpt>
      <trkpt lat="43.75736" lon="-0.04595">
        <ele>144.8</ele>
        <time>2023-07-01T12:57:02Z</time>
      </trkpt>
      <trkpt lat="43.75737" lon="-0.04588">
        <ele>144.6</ele>
        <time>2023-07-01T12:57:06Z</time>
      </trkpt>
      <trkpt lat="43.75737" lon="-0.04575">
        <ele>144.2</ele>
        <time>2023-07-01T12:57:13Z</time>
      </trkpt>
      <trkpt lat="43.75739" lon="-0.04563">
        <ele>144.4</ele>
        <time>2023-07-01T12:57:21Z</time>
      </trkpt>
      <trkpt lat="43.75739" lon="-0.04561">
        <ele>144.2</ele>
        <time>2023-07-01T12:57:22Z</time>
      </trkpt>
      <trkpt lat="43.75738" lon="-0.04553">
        <ele>144</ele>
        <time>2023-07-01T12:57:27Z</time>
      </trkpt>
      <trkpt lat="43.75736" lon="-0.04545">
        <ele>143.8</ele>
        <time>2023-07-01T12:57:32Z</time>
      </trkpt>
      <trkpt lat="43.75736" lon="-0.04541">
        <ele>143.8</ele>
        <time>2023-07-01T12:57:34Z</time>
      </trkpt>
      <trkpt lat="43.75737" lon="-0.04525">
        <ele>143.8</ele>
        <time>2023-07-01T12:57:42Z</time>
      </trkpt>
      <trkpt lat="43.75736" lon="-0.04509">
        <ele>143.4</ele>
        <time>2023-07-01T12:57:50Z</time>
      </trkpt>
      <trkpt lat="43.75735" lon="-0.04498">
        <ele>143.4</ele>
        <time>2023-07-01T12:57:56Z</time>
      </trkpt>
      <trkpt lat="43.75735" lon="-0.04495">
        <ele>143.4</ele>
        <time>2023-07-01T12:57:58Z</time>
      </trkpt>
      <trkpt lat="43.75734" lon="-0.04492">
        <ele>143.6</ele>
        <time>2023-07-01T12:58:00Z</time>
      </trkpt>
      <trkpt lat="43.75734" lon="-0.0449">
        <ele>143.6</ele>
        <time>2023-07-01T12:58:01Z</time>
      </trkpt>
      <trkpt lat="43.75734" lon="-0.04487">
        <ele>143.6</ele>
        <time>2023-07-01T12:58:03Z</time>
      </trkpt>
      <trkpt lat="43.75736" lon="-0.04484">
        <ele>143.4</ele>
        <time>2023-07-01T12:58:05Z</time>
      </trkpt>
      <trkpt lat="43.75734" lon="-0.04475">
        <ele>143.2</ele>
        <time>2023-07-01T12:58:09Z</time>
      </trkpt>
      <trkpt lat="43.75735" lon="-0.0447">
        <ele>143.4</ele>
        <time>2023-07-01T12:58:12Z</time>
      </trkpt>
      <trkpt lat="43.75734" lon="-0.04463">
        <ele>143.2</ele>
        <time>2023-07-01T12:58:16Z</time>
      </trkpt>
      <trkpt lat="43.75734" lon="-0.04462">
        <ele>143.2</ele>
        <time>2023-07-01T12:58:17Z</time>
      </trkpt>
      <trkpt lat="43.75734" lon="-0.04459">
        <ele>143.2</ele>
        <time>2023-07-01T12:58:18Z</time>
      </trkpt>
      <trkpt lat="43.75734" lon="-0.04455">
        <ele>143</ele>
        <time>2023-07-01T12:58:21Z</time>
      </trkpt>
      <trkpt lat="43.75735" lon="-0.04451">
        <ele>142.8</ele>
        <time>2023-07-01T12:58:23Z</time>
      </trkpt>
      <trkpt lat="43.75736" lon="-0.04442">
        <ele>143</ele>
        <time>2023-07-01T12:58:29Z</time>
      </trkpt>
      <trkpt lat="43.75736" lon="-0.04441">
        <ele>143</ele>
        <time>2023-07-01T12:58:30Z</time>
      </trkpt>
      <trkpt lat="43.75736" lon="-0.04439">
        <ele>143</ele>
        <time>2023-07-01T12:58:31Z</time>
      </trkpt>
      <trkpt lat="43.75735" lon="-0.04426">
        <ele>143</ele>
        <time>2023-07-01T12:58:38Z</time>
      </trkpt>
      <trkpt lat="43.75736" lon="-0.04424">
        <ele>143</ele>
        <time>2023-07-01T12:58:39Z</time>
      </trkpt>
      <trkpt lat="43.75738" lon="-0.04418">
        <ele>143</ele>
        <time>2023-07-01T12:58:42Z</time>
      </trkpt>
      <trkpt lat="43.75738" lon="-0.04411">
        <ele>142.8</ele>
        <time>2023-07-01T12:58:45Z</time>
      </trkpt>
      <trkpt lat="43.75737" lon="-0.04409">
        <ele>142.8</ele>
        <time>2023-07-01T12:58:47Z</time>
      </trkpt>
      <trkpt lat="43.75737" lon="-0.04401">
        <ele>142.6</ele>
        <time>2023-07-01T12:58:51Z</time>
      </trkpt>
      <trkpt lat="43.75738" lon="-0.0439">
        <ele>142.4</ele>
        <time>2023-07-01T12:58:57Z</time>
      </trkpt>
      <trkpt lat="43.75737" lon="-0.04388">
        <ele>142.4</ele>
        <time>2023-07-01T12:58:58Z</time>
      </trkpt>
      <trkpt lat="43.75736" lon="-0.04379">
        <ele>142.8</ele>
        <time>2023-07-01T12:59:02Z</time>
      </trkpt>
      <trkpt lat="43.75735" lon="-0.04365">
        <ele>142.6</ele>
        <time>2023-07-01T12:59:09Z</time>
      </trkpt>
      <trkpt lat="43.75734" lon="-0.04351">
        <ele>142.2</ele>
        <time>2023-07-01T12:59:17Z</time>
      </trkpt>
      <trkpt lat="43.75734" lon="-0.0435">
        <ele>142.2</ele>
        <time>2023-07-01T12:59:18Z</time>
      </trkpt>
      <trkpt lat="43.75737" lon="-0.04341">
        <ele>142.2</ele>
        <time>2023-07-01T12:59:23Z</time>
      </trkpt>
      <trkpt lat="43.75739" lon="-0.04329">
        <ele>142</ele>
        <time>2023-07-01T12:59:30Z</time>
      </trkpt>
      <trkpt lat="43.75735" lon="-0.0431">
        <ele>141.8</ele>
        <time>2023-07-01T12:59:39Z</time>
      </trkpt>
      <trkpt lat="43.75736" lon="-0.04297">
        <ele>141.6</ele>
        <time>2023-07-01T12:59:46Z</time>
      </trkpt>
      <trkpt lat="43.75736" lon="-0.04296">
        <ele>141.4</ele>
        <time>2023-07-01T12:59:47Z</time>
      </trkpt>
      <trkpt lat="43.75736" lon="-0.04294">
        <ele>141.4</ele>
        <time>2023-07-01T12:59:48Z</time>
      </trkpt>
      <trkpt lat="43.75737" lon="-0.04292">
        <ele>141.4</ele>
        <time>2023-07-01T12:59:49Z</time>
      </trkpt>
      <trkpt lat="43.75737" lon="-0.04286">
        <ele>141.2</ele>
        <time>2023-07-01T12:59:52Z</time>
      </trkpt>
      <trkpt lat="43.75737" lon="-0.04282">
        <ele>141.6</ele>
        <time>2023-07-01T12:59:54Z</time>
      </trkpt>
      <trkpt lat="43.75737" lon="-0.0428">
        <ele>141.6</ele>
        <time>2023-07-01T12:59:55Z</time>
      </trkpt>
      <trkpt lat="43.75737" lon="-0.04274">
        <ele>141</ele>
        <time>2023-07-01T12:59:59Z</time>
      </trkpt>
      <trkpt lat="43.75736" lon="-0.0427">
        <ele>140.8</ele>
        <time>2023-07-01T13:00:01Z</time>
      </trkpt>
      <trkpt lat="43.75736" lon="-0.04259">
        <ele>140.8</ele>
        <time>2023-07-01T13:00:07Z</time>
      </trkpt>
      <trkpt lat="43.75735" lon="-0.04255">
        <ele>140.6</ele>
        <time>2023-07-01T13:00:09Z</time>
      </trkpt>
      <trkpt lat="43.75735" lon="-0.04247">
        <ele>140.4</ele>
        <time>2023-07-01T13:00:13Z</time>
      </trkpt>
      <trkpt lat="43.75735" lon="-0.04246">
        <ele>140.2</ele>
        <time>2023-07-01T13:00:14Z</time>
      </trkpt>
      <trkpt lat="43.75736" lon="-0.04234">
        <ele>139.8</ele>
        <time>2023-07-01T13:00:21Z</time>
      </trkpt>
      <trkpt lat="43.75738" lon="-0.04222">
        <ele>139.6</ele>
        <time>2023-07-01T13:00:28Z</time>
      </trkpt>
      <trkpt lat="43.75738" lon="-0.0422">
        <ele>139.6</ele>
        <time>2023-07-01T13:00:29Z</time>
      </trkpt>
      <trkpt lat="43.75739" lon="-0.04209">
        <ele>139.6</ele>
        <time>2023-07-01T13:00:34Z</time>
      </trkpt>
      <trkpt lat="43.7574" lon="-0.04204">
        <ele>139.6</ele>
        <time>2023-07-01T13:00:37Z</time>
      </trkpt>
      <trkpt lat="43.7574" lon="-0.04186">
        <ele>138.8</ele>
        <time>2023-07-01T13:00:46Z</time>
      </trkpt>
      <trkpt lat="43.7574" lon="-0.04176">
        <ele>138.6</ele>
        <time>2023-07-01T13:00:51Z</time>
      </trkpt>
      <trkpt lat="43.75739" lon="-0.0417">
        <ele>138.4</ele>
        <time>2023-07-01T13:00:54Z</time>
      </trkpt>
      <trkpt lat="43.7574" lon="-0.04159">
        <ele>137.4</ele>
        <time>2023-07-01T13:01:01Z</time>
      </trkpt>
      <trkpt lat="43.7574" lon="-0.04152">
        <ele>137.4</ele>
        <time>2023-07-01T13:01:06Z</time>
      </trkpt>
      <trkpt lat="43.75739" lon="-0.0414">
        <ele>137.2</ele>
        <time>2023-07-01T13:01:12Z</time>
      </trkpt>
      <trkpt lat="43.7574" lon="-0.04133">
        <ele>136.8</ele>
        <time>2023-07-01T13:01:17Z</time>
      </trkpt>
      <trkpt lat="43.75741" lon="-0.0413">
        <ele>136.4</ele>
        <time>2023-07-01T13:01:20Z</time>
      </trkpt>
      <trkpt lat="43.75741" lon="-0.04129">
        <ele>136.4</ele>
        <time>2023-07-01T13:01:21Z</time>
      </trkpt>
      <trkpt lat="43.75741" lon="-0.04127">
        <ele>136.2</ele>
        <time>2023-07-01T13:01:22Z</time>
      </trkpt>
      <trkpt lat="43.7574" lon="-0.04124">
        <ele>136</ele>
        <time>2023-07-01T13:01:24Z</time>
      </trkpt>
      <trkpt lat="43.75741" lon="-0.04119">
        <ele>135.4</ele>
        <time>2023-07-01T13:01:27Z</time>
      </trkpt>
      <trkpt lat="43.7574" lon="-0.04109">
        <ele>135.4</ele>
        <time>2023-07-01T13:01:30Z</time>
      </trkpt>
      <trkpt lat="43.7574" lon="-0.04103">
        <ele>135.2</ele>
        <time>2023-07-01T13:01:32Z</time>
      </trkpt>
      <trkpt lat="43.75739" lon="-0.04095">
        <ele>134.4</ele>
        <time>2023-07-01T13:01:36Z</time>
      </trkpt>
      <trkpt lat="43.75739" lon="-0.04088">
        <ele>134</ele>
        <time>2023-07-01T13:01:40Z</time>
      </trkpt>
      <trkpt lat="43.7574" lon="-0.04078">
        <ele>133.4</ele>
        <time>2023-07-01T13:01:45Z</time>
      </trkpt>
      <trkpt lat="43.75741" lon="-0.04072">
        <ele>132.4</ele>
        <time>2023-07-01T13:01:49Z</time>
      </trkpt>
      <trkpt lat="43.75741" lon="-0.0407">
        <ele>132.2</ele>
        <time>2023-07-01T13:01:50Z</time>
      </trkpt>
      <trkpt lat="43.7574" lon="-0.04059">
        <ele>132</ele>
        <time>2023-07-01T13:01:56Z</time>
      </trkpt>
      <trkpt lat="43.75739" lon="-0.04052">
        <ele>131.4</ele>
        <time>2023-07-01T13:02:00Z</time>
      </trkpt>
      <trkpt lat="43.75739" lon="-0.0405">
        <ele>131.2</ele>
        <time>2023-07-01T13:02:01Z</time>
      </trkpt>
      <trkpt lat="43.75739" lon="-0.04048">
        <ele>131</ele>
        <time>2023-07-01T13:02:02Z</time>
      </trkpt>
      <trkpt lat="43.75739" lon="-0.04047">
        <ele>130.8</ele>
        <time>2023-07-01T13:02:03Z</time>
      </trkpt>
      <trkpt lat="43.7574" lon="-0.04039">
        <ele>130.2</ele>
        <time>2023-07-01T13:02:08Z</time>
      </trkpt>
      <trkpt lat="43.7574" lon="-0.04037">
        <ele>130</ele>
        <time>2023-07-01T13:02:09Z</time>
      </trkpt>
      <trkpt lat="43.7574" lon="-0.04025">
        <ele>129.2</ele>
        <time>2023-07-01T13:02:15Z</time>
      </trkpt>
      <trkpt lat="43.7574" lon="-0.04022">
        <ele>129</ele>
        <time>2023-07-01T13:02:17Z</time>
      </trkpt>
      <trkpt lat="43.7574" lon="-0.0401">
        <ele>128</ele>
        <time>2023-07-01T13:02:23Z</time>
      </trkpt>
      <trkpt lat="43.75739" lon="-0.04004">
        <ele>127.6</ele>
        <time>2023-07-01T13:02:26Z</time>
      </trkpt>
      <trkpt lat="43.75742" lon="-0.03997">
        <ele>127</ele>
        <time>2023-07-01T13:02:31Z</time>
      </trkpt>
      <trkpt lat="43.75742" lon="-0.03995">
        <ele>126.8</ele>
        <time>2023-07-01T13:02:32Z</time>
      </trkpt>
      <trkpt lat="43.75743" lon="-0.03987">
        <ele>126.6</ele>
        <time>2023-07-01T13:02:39Z</time>
      </trkpt>
      <trkpt lat="43.75742" lon="-0.03981">
        <ele>126.4</ele>
        <time>2023-07-01T13:02:42Z</time>
      </trkpt>
      <trkpt lat="43.75742" lon="-0.03978">
        <ele>126.2</ele>
        <time>2023-07-01T13:02:44Z</time>
      </trkpt>
      <trkpt lat="43.75742" lon="-0.03976">
        <ele>126</ele>
        <time>2023-07-01T13:02:45Z</time>
      </trkpt>
      <trkpt lat="43.75742" lon="-0.03975">
        <ele>125.8</ele>
        <time>2023-07-01T13:02:46Z</time>
      </trkpt>
      <trkpt lat="43.75742" lon="-0.03972">
        <ele>125.4</ele>
        <time>2023-07-01T13:02:48Z</time>
      </trkpt>
      <trkpt lat="43.75742" lon="-0.03967">
        <ele>125.2</ele>
        <time>2023-07-01T13:02:51Z</time>
      </trkpt>
      <trkpt lat="43.75742" lon="-0.03964">
        <ele>124.8</ele>
        <time>2023-07-01T13:02:52Z</time>
      </trkpt>
      <trkpt lat="43.75741" lon="-0.03951">
        <ele>124</ele>
        <time>2023-07-01T13:02:58Z</time>
      </trkpt>
      <trkpt lat="43.75741" lon="-0.03946">
        <ele>123.8</ele>
        <time>2023-07-01T13:03:00Z</time>
      </trkpt>
      <trkpt lat="43.7574" lon="-0.03936">
        <ele>123</ele>
        <time>2023-07-01T13:03:05Z</time>
      </trkpt>
      <trkpt lat="43.75741" lon="-0.03933">
        <ele>122.8</ele>
        <time>2023-07-01T13:03:07Z</time>
      </trkpt>
      <trkpt lat="43.75743" lon="-0.03925">
        <ele>122.4</ele>
        <time>2023-07-01T13:03:12Z</time>
      </trkpt>
      <trkpt lat="43.75745" lon="-0.03909">
        <ele>121.4</ele>
        <time>2023-07-01T13:03:19Z</time>
      </trkpt>
      <trkpt lat="43.75745" lon="-0.03892">
        <ele>120.8</ele>
        <time>2023-07-01T13:03:28Z</time>
      </trkpt>
      <trkpt lat="43.75744" lon="-0.03885">
        <ele>120.4</ele>
        <time>2023-07-01T13:03:31Z</time>
      </trkpt>
      <trkpt lat="43.75744" lon="-0.03881">
        <ele>120.2</ele>
        <time>2023-07-01T13:03:33Z</time>
      </trkpt>
      <trkpt lat="43.75744" lon="-0.03874">
        <ele>120</ele>
        <time>2023-07-01T13:03:36Z</time>
      </trkpt>
      <trkpt lat="43.75744" lon="-0.03867">
        <ele>119.6</ele>
        <time>2023-07-01T13:03:39Z</time>
      </trkpt>
      <trkpt lat="43.75743" lon="-0.03862">
        <ele>119.4</ele>
        <time>2023-07-01T13:03:41Z</time>
      </trkpt>
      <trkpt lat="43.75742" lon="-0.03851">
        <ele>119.6</ele>
        <time>2023-07-01T13:03:47Z</time>
      </trkpt>
      <trkpt lat="43.75744" lon="-0.03838">
        <ele>118.2</ele>
        <time>2023-07-01T13:03:54Z</time>
      </trkpt>
      <trkpt lat="43.75744" lon="-0.03837">
        <ele>118.2</ele>
        <time>2023-07-01T13:03:55Z</time>
      </trkpt>
      <trkpt lat="43.75744" lon="-0.0383">
        <ele>117.8</ele>
        <time>2023-07-01T13:04:00Z</time>
      </trkpt>
      <trkpt lat="43.75744" lon="-0.03825">
        <ele>117.8</ele>
        <time>2023-07-01T13:04:03Z</time>
      </trkpt>
      <trkpt lat="43.75743" lon="-0.03815">
        <ele>117.2</ele>
        <time>2023-07-01T13:04:08Z</time>
      </trkpt>
      <trkpt lat="43.75743" lon="-0.03809">
        <ele>117.2</ele>
        <time>2023-07-01T13:04:11Z</time>
      </trkpt>
      <trkpt lat="43.7574" lon="-0.03795">
        <ele>116.4</ele>
        <time>2023-07-01T13:04:18Z</time>
      </trkpt>
      <trkpt lat="43.7574" lon="-0.03791">
        <ele>116.2</ele>
        <time>2023-07-01T13:04:21Z</time>
      </trkpt>
      <trkpt lat="43.75742" lon="-0.03786">
        <ele>115.8</ele>
        <time>2023-07-01T13:04:24Z</time>
      </trkpt>
      <trkpt lat="43.75741" lon="-0.03781">
        <ele>115.2</ele>
        <time>2023-07-01T13:04:27Z</time>
      </trkpt>
      <trkpt lat="43.7574" lon="-0.03778">
        <ele>115.2</ele>
        <time>2023-07-01T13:04:28Z</time>
      </trkpt>
      <trkpt lat="43.75742" lon="-0.03774">
        <ele>115</ele>
        <time>2023-07-01T13:04:30Z</time>
      </trkpt>
      <trkpt lat="43.75747" lon="-0.0376">
        <ele>114.6</ele>
        <time>2023-07-01T13:04:37Z</time>
      </trkpt>
      <trkpt lat="43.75746" lon="-0.0375">
        <ele>114</ele>
        <time>2023-07-01T13:04:42Z</time>
      </trkpt>
      <trkpt lat="43.75746" lon="-0.03745">
        <ele>113.8</ele>
        <time>2023-07-01T13:04:44Z</time>
      </trkpt>
      <trkpt lat="43.75746" lon="-0.03733">
        <ele>113</ele>
        <time>2023-07-01T13:04:49Z</time>
      </trkpt>
      <trkpt lat="43.75747" lon="-0.0372">
        <ele>112.8</ele>
        <time>2023-07-01T13:04:57Z</time>
      </trkpt>
      <trkpt lat="43.75748" lon="-0.03706">
        <ele>112.4</ele>
        <time>2023-07-01T13:05:04Z</time>
      </trkpt>
      <trkpt lat="43.75745" lon="-0.03692">
        <ele>112</ele>
        <time>2023-07-01T13:05:11Z</time>
      </trkpt>
      <trkpt lat="43.75745" lon="-0.0369">
        <ele>111.8</ele>
        <time>2023-07-01T13:05:12Z</time>
      </trkpt>
      <trkpt lat="43.75744" lon="-0.03688">
        <ele>111.8</ele>
        <time>2023-07-01T13:05:14Z</time>
      </trkpt>
      <trkpt lat="43.75742" lon="-0.03684">
        <ele>111.6</ele>
        <time>2023-07-01T13:05:17Z</time>
      </trkpt>
      <trkpt lat="43.7574" lon="-0.03675">
        <ele>110.8</ele>
        <time>2023-07-01T13:05:23Z</time>
      </trkpt>
      <trkpt lat="43.7574" lon="-0.03666">
        <ele>110.8</ele>
        <time>2023-07-01T13:05:27Z</time>
      </trkpt>
      <trkpt lat="43.75741" lon="-0.03662">
        <ele>110.8</ele>
        <time>2023-07-01T13:05:29Z</time>
      </trkpt>
      <trkpt lat="43.75743" lon="-0.03654">
        <ele>110.4</ele>
        <time>2023-07-01T13:05:35Z</time>
      </trkpt>
      <trkpt lat="43.75741" lon="-0.03643">
        <ele>110</ele>
        <time>2023-07-01T13:05:41Z</time>
      </trkpt>
      <trkpt lat="43.75741" lon="-0.03643">
        <ele>109.8</ele>
        <time>2023-07-01T13:05:42Z</time>
      </trkpt>
      <trkpt lat="43.75741" lon="-0.03642">
        <ele>109.8</ele>
        <time>2023-07-01T13:05:43Z</time>
      </trkpt>
      <trkpt lat="43.75742" lon="-0.03641">
        <ele>109.6</ele>
        <time>2023-07-01T13:05:44Z</time>
      </trkpt>
      <trkpt lat="43.75742" lon="-0.03639">
        <ele>109.6</ele>
        <time>2023-07-01T13:05:47Z</time>
      </trkpt>
      <trkpt lat="43.75742" lon="-0.03636">
        <ele>109.4</ele>
        <time>2023-07-01T13:05:49Z</time>
      </trkpt>
      <trkpt lat="43.75742" lon="-0.03618">
        <ele>109.4</ele>
        <time>2023-07-01T13:05:56Z</time>
      </trkpt>
      <trkpt lat="43.75741" lon="-0.03611">
        <ele>109.4</ele>
        <time>2023-07-01T13:05:59Z</time>
      </trkpt>
      <trkpt lat="43.75742" lon="-0.036">
        <ele>109.4</ele>
        <time>2023-07-01T13:06:04Z</time>
      </trkpt>
      <trkpt lat="43.75741" lon="-0.03598">
        <ele>109.2</ele>
        <time>2023-07-01T13:06:05Z</time>
      </trkpt>
      <trkpt lat="43.75741" lon="-0.03593">
        <ele>109</ele>
        <time>2023-07-01T13:06:08Z</time>
      </trkpt>
      <trkpt lat="43.75741" lon="-0.03592">
        <ele>109</ele>
        <time>2023-07-01T13:06:09Z</time>
      </trkpt>
      <trkpt lat="43.75742" lon="-0.03588">
        <ele>109</ele>
        <time>2023-07-01T13:06:11Z</time>
      </trkpt>
      <trkpt lat="43.75742" lon="-0.03585">
        <ele>109</ele>
        <time>2023-07-01T13:06:13Z</time>
      </trkpt>
      <trkpt lat="43.75742" lon="-0.03584">
        <ele>109</ele>
        <time>2023-07-01T13:06:14Z</time>
      </trkpt>
      <trkpt lat="43.75744" lon="-0.03577">
        <ele>108.8</ele>
        <time>2023-07-01T13:06:18Z</time>
      </trkpt>
      <trkpt lat="43.75744" lon="-0.03575">
        <ele>108.6</ele>
        <time>2023-07-01T13:06:19Z</time>
      </trkpt>
      <trkpt lat="43.75745" lon="-0.03571">
        <ele>108.4</ele>
        <time>2023-07-01T13:06:21Z</time>
      </trkpt>
      <trkpt lat="43.75744" lon="-0.03564">
        <ele>108.4</ele>
        <time>2023-07-01T13:06:25Z</time>
      </trkpt>
      <trkpt lat="43.75744" lon="-0.03561">
        <ele>108.4</ele>
        <time>2023-07-01T13:06:26Z</time>
      </trkpt>
      <trkpt lat="43.75743" lon="-0.03553">
        <ele>108</ele>
        <time>2023-07-01T13:06:31Z</time>
      </trkpt>
      <trkpt lat="43.75744" lon="-0.03551">
        <ele>108</ele>
        <time>2023-07-01T13:06:32Z</time>
      </trkpt>
      <trkpt lat="43.75746" lon="-0.0354">
        <ele>108</ele>
        <time>2023-07-01T13:06:38Z</time>
      </trkpt>
      <trkpt lat="43.75745" lon="-0.03535">
        <ele>107.8</ele>
        <time>2023-07-01T13:06:41Z</time>
      </trkpt>
      <trkpt lat="43.75745" lon="-0.03531">
        <ele>107.8</ele>
        <time>2023-07-01T13:06:43Z</time>
      </trkpt>
      <trkpt lat="43.75745" lon="-0.03529">
        <ele>107.8</ele>
        <time>2023-07-01T13:06:44Z</time>
      </trkpt>
      <trkpt lat="43.75745" lon="-0.03528">
        <ele>107.8</ele>
        <time>2023-07-01T13:06:45Z</time>
      </trkpt>
      <trkpt lat="43.75743" lon="-0.03523">
        <ele>107.8</ele>
        <time>2023-07-01T13:06:47Z</time>
      </trkpt>
      <trkpt lat="43.75743" lon="-0.03519">
        <ele>107.2</ele>
        <time>2023-07-01T13:06:49Z</time>
      </trkpt>
      <trkpt lat="43.75744" lon="-0.03513">
        <ele>107.2</ele>
        <time>2023-07-01T13:06:51Z</time>
      </trkpt>
      <trkpt lat="43.75745" lon="-0.03507">
        <ele>107.2</ele>
        <time>2023-07-01T13:06:55Z</time>
      </trkpt>
      <trkpt lat="43.75746" lon="-0.03503">
        <ele>107.2</ele>
        <time>2023-07-01T13:06:57Z</time>
      </trkpt>
      <trkpt lat="43.75749" lon="-0.03496">
        <ele>107</ele>
        <time>2023-07-01T13:07:01Z</time>
      </trkpt>
      <trkpt lat="43.75751" lon="-0.0349">
        <ele>107</ele>
        <time>2023-07-01T13:07:04Z</time>
      </trkpt>
      <trkpt lat="43.75752" lon="-0.03485">
        <ele>107</ele>
        <time>2023-07-01T13:07:06Z</time>
      </trkpt>
      <trkpt lat="43.75754" lon="-0.03481">
        <ele>107</ele>
        <time>2023-07-01T13:07:08Z</time>
      </trkpt>
      <trkpt lat="43.75757" lon="-0.03473">
        <ele>106.8</ele>
        <time>2023-07-01T13:07:12Z</time>
      </trkpt>
      <trkpt lat="43.75758" lon="-0.03472">
        <ele>106.6</ele>
        <time>2023-07-01T13:07:13Z</time>
      </trkpt>
      <trkpt lat="43.75763" lon="-0.03466">
        <ele>106.2</ele>
        <time>2023-07-01T13:07:18Z</time>
      </trkpt>
      <trkpt lat="43.75764" lon="-0.03465">
        <ele>106</ele>
        <time>2023-07-01T13:07:19Z</time>
      </trkpt>
      <trkpt lat="43.7577" lon="-0.03456">
        <ele>105.8</ele>
        <time>2023-07-01T13:07:25Z</time>
      </trkpt>
      <trkpt lat="43.75776" lon="-0.03446">
        <ele>105.6</ele>
        <time>2023-07-01T13:07:31Z</time>
      </trkpt>
      <trkpt lat="43.75778" lon="-0.03445">
        <ele>105.6</ele>
        <time>2023-07-01T13:07:32Z</time>
      </trkpt>
      <trkpt lat="43.75784" lon="-0.03437">
        <ele>105.6</ele>
        <time>2023-07-01T13:07:38Z</time>
      </trkpt>
      <trkpt lat="43.75787" lon="-0.03436">
        <ele>105.6</ele>
        <time>2023-07-01T13:07:40Z</time>
      </trkpt>
      <trkpt lat="43.75792" lon="-0.03427">
        <ele>105</ele>
        <time>2023-07-01T13:07:47Z</time>
      </trkpt>
      <trkpt lat="43.75791" lon="-0.03423">
        <ele>105</ele>
        <time>2023-07-01T13:07:49Z</time>
      </trkpt>
      <trkpt lat="43.75792" lon="-0.03421">
        <ele>104.8</ele>
        <time>2023-07-01T13:07:51Z</time>
      </trkpt>
      <trkpt lat="43.75792" lon="-0.03421">
        <ele>104.6</ele>
        <time>2023-07-01T13:07:52Z</time>
      </trkpt>
      <trkpt lat="43.75793" lon="-0.0342">
        <ele>104.6</ele>
        <time>2023-07-01T13:07:53Z</time>
      </trkpt>
      <trkpt lat="43.75797" lon="-0.03419">
        <ele>104.4</ele>
        <time>2023-07-01T13:07:55Z</time>
      </trkpt>
      <trkpt lat="43.75799" lon="-0.03419">
        <ele>104.4</ele>
        <time>2023-07-01T13:07:56Z</time>
      </trkpt>
      <trkpt lat="43.75811" lon="-0.0342">
        <ele>104.2</ele>
        <time>2023-07-01T13:08:02Z</time>
      </trkpt>
      <trkpt lat="43.75817" lon="-0.03418">
        <ele>104.2</ele>
        <time>2023-07-01T13:08:08Z</time>
      </trkpt>
      <trkpt lat="43.7582" lon="-0.03404">
        <ele>103.8</ele>
        <time>2023-07-01T13:08:15Z</time>
      </trkpt>
      <trkpt lat="43.75821" lon="-0.03402">
        <ele>103.8</ele>
        <time>2023-07-01T13:08:16Z</time>
      </trkpt>
      <trkpt lat="43.75822" lon="-0.03394">
        <ele>103.8</ele>
        <time>2023-07-01T13:08:19Z</time>
      </trkpt>
      <trkpt lat="43.75824" lon="-0.03392">
        <ele>103.6</ele>
        <time>2023-07-01T13:08:21Z</time>
      </trkpt>
      <trkpt lat="43.75826" lon="-0.03386">
        <ele>103.4</ele>
        <time>2023-07-01T13:08:24Z</time>
      </trkpt>
      <trkpt lat="43.75829" lon="-0.03382">
        <ele>103.4</ele>
        <time>2023-07-01T13:08:27Z</time>
      </trkpt>
      <trkpt lat="43.75833" lon="-0.03378">
        <ele>103.2</ele>
        <time>2023-07-01T13:08:30Z</time>
      </trkpt>
      <trkpt lat="43.75833" lon="-0.03373">
        <ele>103.2</ele>
        <time>2023-07-01T13:08:31Z</time>
      </trkpt>
      <trkpt lat="43.75835" lon="-0.03375">
        <ele>103</ele>
        <time>2023-07-01T13:08:32Z</time>
      </trkpt>
      <trkpt lat="43.75837" lon="-0.03378">
        <ele>103</ele>
        <time>2023-07-01T13:08:33Z</time>
      </trkpt>
      <trkpt lat="43.75838" lon="-0.03377">
        <ele>103</ele>
        <time>2023-07-01T13:08:34Z</time>
      </trkpt>
      <trkpt lat="43.75838" lon="-0.03377">
        <ele>103</ele>
        <time>2023-07-01T13:08:35Z</time>
      </trkpt>
      <trkpt lat="43.75842" lon="-0.03373">
        <ele>102.8</ele>
        <time>2023-07-01T13:08:39Z</time>
      </trkpt>
      <trkpt lat="43.75844" lon="-0.03372">
        <ele>102.8</ele>
        <time>2023-07-01T13:08:41Z</time>
      </trkpt>
      <trkpt lat="43.75846" lon="-0.03369">
        <ele>102.8</ele>
        <time>2023-07-01T13:08:45Z</time>
      </trkpt>
      <trkpt lat="43.75846" lon="-0.03368">
        <ele>102.8</ele>
        <time>2023-07-01T13:08:46Z</time>
      </trkpt>
      <trkpt lat="43.75846" lon="-0.03367">
        <ele>102.8</ele>
        <time>2023-07-01T13:08:47Z</time>
      </trkpt>
      <trkpt lat="43.75849" lon="-0.03364">
        <ele>102.8</ele>
        <time>2023-07-01T13:08:49Z</time>
      </trkpt>
      <trkpt lat="43.7585" lon="-0.03352">
        <ele>102.8</ele>
        <time>2023-07-01T13:08:53Z</time>
      </trkpt>
      <trkpt lat="43.7585" lon="-0.03343">
        <ele>102.6</ele>
        <time>2023-07-01T13:08:55Z</time>
      </trkpt>
      <trkpt lat="43.75855" lon="-0.03342">
        <ele>102.4</ele>
        <time>2023-07-01T13:08:56Z</time>
      </trkpt>
      <trkpt lat="43.75866" lon="-0.03341">
        <ele>102.4</ele>
        <time>2023-07-01T13:08:58Z</time>
      </trkpt>
      <trkpt lat="43.7587" lon="-0.03339">
        <ele>102</ele>
        <time>2023-07-01T13:09:01Z</time>
      </trkpt>
      <trkpt lat="43.7587" lon="-0.03338">
        <ele>101.8</ele>
        <time>2023-07-01T13:09:02Z</time>
      </trkpt>
      <trkpt lat="43.7587" lon="-0.03337">
        <ele>101.6</ele>
        <time>2023-07-01T13:09:03Z</time>
      </trkpt>
      <trkpt lat="43.7587" lon="-0.03337">
        <ele>101.6</ele>
        <time>2023-07-01T13:09:04Z</time>
      </trkpt>
      <trkpt lat="43.75871" lon="-0.03335">
        <ele>101.6</ele>
        <time>2023-07-01T13:09:06Z</time>
      </trkpt>
      <trkpt lat="43.75872" lon="-0.03334">
        <ele>101.6</ele>
        <time>2023-07-01T13:09:07Z</time>
      </trkpt>
      <trkpt lat="43.75873" lon="-0.03333">
        <ele>101.8</ele>
        <time>2023-07-01T13:09:08Z</time>
      </trkpt>
      <trkpt lat="43.75874" lon="-0.03332">
        <ele>101.8</ele>
        <time>2023-07-01T13:09:09Z</time>
      </trkpt>
      <trkpt lat="43.75876" lon="-0.0333">
        <ele>102</ele>
        <time>2023-07-01T13:09:11Z</time>
      </trkpt>
      <trkpt lat="43.75879" lon="-0.03324">
        <ele>101.6</ele>
        <time>2023-07-01T13:09:17Z</time>
      </trkpt>
      <trkpt lat="43.7588" lon="-0.03323">
        <ele>101.4</ele>
        <time>2023-07-01T13:09:18Z</time>
      </trkpt>
      <trkpt lat="43.75879" lon="-0.03321">
        <ele>101.2</ele>
        <time>2023-07-01T13:09:21Z</time>
      </trkpt>
      <trkpt lat="43.75878" lon="-0.03321">
        <ele>101.2</ele>
        <time>2023-07-01T13:09:22Z</time>
      </trkpt>
      <trkpt lat="43.75894" lon="-0.0331">
        <ele>102</ele>
        <time>2023-07-01T13:16:22Z</time>
      </trkpt>
      <trkpt lat="43.75895" lon="-0.0331">
        <ele>102</ele>
        <time>2023-07-01T13:16:23Z</time>
      </trkpt>
      <trkpt lat="43.75897" lon="-0.03307">
        <ele>102.2</ele>
        <time>2023-07-01T13:16:29Z</time>
      </trkpt>
      <trkpt lat="43.75899" lon="-0.03306">
        <ele>102.2</ele>
        <time>2023-07-01T13:16:32Z</time>
      </trkpt>
      <trkpt lat="43.759" lon="-0.03304">
        <ele>102</ele>
        <time>2023-07-01T13:16:34Z</time>
      </trkpt>
      <trkpt lat="43.75902" lon="-0.03298">
        <ele>101.8</ele>
        <time>2023-07-01T13:16:39Z</time>
      </trkpt>
      <trkpt lat="43.75902" lon="-0.03297">
        <ele>101.8</ele>
        <time>2023-07-01T13:16:40Z</time>
      </trkpt>
      <trkpt lat="43.75902" lon="-0.03296">
        <ele>101.8</ele>
        <time>2023-07-01T13:16:41Z</time>
      </trkpt>
      <trkpt lat="43.75903" lon="-0.03294">
        <ele>101.8</ele>
        <time>2023-07-01T13:16:43Z</time>
      </trkpt>
      <trkpt lat="43.75909" lon="-0.03283">
        <ele>101.8</ele>
        <time>2023-07-01T13:19:54Z</time>
      </trkpt>
      <trkpt lat="43.75909" lon="-0.03282">
        <ele>101.8</ele>
        <time>2023-07-01T13:19:56Z</time>
      </trkpt>
      <trkpt lat="43.75909" lon="-0.0328">
        <ele>101.4</ele>
        <time>2023-07-01T13:20:00Z</time>
      </trkpt>
      <trkpt lat="43.75914" lon="-0.03283">
        <ele>101.6</ele>
        <time>2023-07-01T13:20:35Z</time>
      </trkpt>
      <trkpt lat="43.75915" lon="-0.03282">
        <ele>101.6</ele>
        <time>2023-07-01T13:20:36Z</time>
      </trkpt>
      <trkpt lat="43.75915" lon="-0.03277">
        <ele>101.8</ele>
        <time>2023-07-01T13:20:41Z</time>
      </trkpt>
      <trkpt lat="43.75916" lon="-0.03274">
        <ele>101.4</ele>
        <time>2023-07-01T13:20:43Z</time>
      </trkpt>
      <trkpt lat="43.75916" lon="-0.03273">
        <ele>101.6</ele>
        <time>2023-07-01T13:20:44Z</time>
      </trkpt>
      <trkpt lat="43.75917" lon="-0.03268">
        <ele>101.2</ele>
        <time>2023-07-01T13:20:48Z</time>
      </trkpt>
      <trkpt lat="43.75919" lon="-0.03263">
        <ele>101</ele>
        <time>2023-07-01T13:20:53Z</time>
      </trkpt>
      <trkpt lat="43.75922" lon="-0.03261">
        <ele>101</ele>
        <time>2023-07-01T13:20:55Z</time>
      </trkpt>
      <trkpt lat="43.75928" lon="-0.0326">
        <ele>100.8</ele>
        <time>2023-07-01T13:20:57Z</time>
      </trkpt>
      <trkpt lat="43.75934" lon="-0.03254">
        <ele>100.6</ele>
        <time>2023-07-01T13:21:03Z</time>
      </trkpt>
      <trkpt lat="43.75935" lon="-0.03253">
        <ele>100.6</ele>
        <time>2023-07-01T13:21:04Z</time>
      </trkpt>
      <trkpt lat="43.75935" lon="-0.03252">
        <ele>100.4</ele>
        <time>2023-07-01T13:21:05Z</time>
      </trkpt>
      <trkpt lat="43.75935" lon="-0.03251">
        <ele>100.4</ele>
        <time>2023-07-01T13:21:06Z</time>
      </trkpt>
      <trkpt lat="43.75939" lon="-0.03245">
        <ele>100.6</ele>
        <time>2023-07-01T13:21:12Z</time>
      </trkpt>
      <trkpt lat="43.75944" lon="-0.03242">
        <ele>100.2</ele>
        <time>2023-07-01T13:21:14Z</time>
      </trkpt>
      <trkpt lat="43.75952" lon="-0.03239">
        <ele>100</ele>
        <time>2023-07-01T13:21:17Z</time>
      </trkpt>
      <trkpt lat="43.75954" lon="-0.03239">
        <ele>100</ele>
        <time>2023-07-01T13:21:18Z</time>
      </trkpt>
      <trkpt lat="43.75955" lon="-0.03237">
        <ele>100</ele>
        <time>2023-07-01T13:21:20Z</time>
      </trkpt>
      <trkpt lat="43.75961" lon="-0.03233">
        <ele>100.2</ele>
        <time>2023-07-01T13:21:24Z</time>
      </trkpt>
      <trkpt lat="43.75963" lon="-0.03231">
        <ele>100.2</ele>
        <time>2023-07-01T13:21:26Z</time>
      </trkpt>
      <trkpt lat="43.75965" lon="-0.03228">
        <ele>100</ele>
        <time>2023-07-01T13:21:29Z</time>
      </trkpt>
      <trkpt lat="43.75965" lon="-0.03227">
        <ele>100</ele>
        <time>2023-07-01T13:21:30Z</time>
      </trkpt>
      <trkpt lat="43.75965" lon="-0.03225">
        <ele>100</ele>
        <time>2023-07-01T13:21:31Z</time>
      </trkpt>
      <trkpt lat="43.75968" lon="-0.03214">
        <ele>99.8</ele>
        <time>2023-07-01T13:21:36Z</time>
      </trkpt>
      <trkpt lat="43.75971" lon="-0.03209">
        <ele>99.4</ele>
        <time>2023-07-01T13:21:40Z</time>
      </trkpt>
      <trkpt lat="43.75974" lon="-0.03205">
        <ele>99.2</ele>
        <time>2023-07-01T13:21:43Z</time>
      </trkpt>
      <trkpt lat="43.75979" lon="-0.03203">
        <ele>99</ele>
        <time>2023-07-01T13:21:46Z</time>
      </trkpt>
      <trkpt lat="43.75983" lon="-0.03203">
        <ele>99</ele>
        <time>2023-07-01T13:21:48Z</time>
      </trkpt>
      <trkpt lat="43.75985" lon="-0.03203">
        <ele>98.8</ele>
        <time>2023-07-01T13:21:49Z</time>
      </trkpt>
      <trkpt lat="43.75987" lon="-0.03201">
        <ele>98.8</ele>
        <time>2023-07-01T13:21:50Z</time>
      </trkpt>
      <trkpt lat="43.75994" lon="-0.03201">
        <ele>98.2</ele>
        <time>2023-07-01T13:21:54Z</time>
      </trkpt>
      <trkpt lat="43.76001" lon="-0.03194">
        <ele>98</ele>
        <time>2023-07-01T13:22:00Z</time>
      </trkpt>
      <trkpt lat="43.76005" lon="-0.03191">
        <ele>98</ele>
        <time>2023-07-01T13:22:04Z</time>
      </trkpt>
      <trkpt lat="43.76008" lon="-0.03187">
        <ele>97.8</ele>
        <time>2023-07-01T13:22:08Z</time>
      </trkpt>
      <trkpt lat="43.76009" lon="-0.03185">
        <ele>97.8</ele>
        <time>2023-07-01T13:22:10Z</time>
      </trkpt>
      <trkpt lat="43.76014" lon="-0.03182">
        <ele>97.4</ele>
        <time>2023-07-01T13:22:15Z</time>
      </trkpt>
      <trkpt lat="43.76015" lon="-0.03182">
        <ele>97.2</ele>
        <time>2023-07-01T13:22:16Z</time>
      </trkpt>
      <trkpt lat="43.76017" lon="-0.03184">
        <ele>97</ele>
        <time>2023-07-01T13:22:18Z</time>
      </trkpt>
      <trkpt lat="43.76018" lon="-0.03191">
        <ele>96.8</ele>
        <time>2023-07-01T13:22:32Z</time>
      </trkpt>
      <trkpt lat="43.76021" lon="-0.0319">
        <ele>96.6</ele>
        <time>2023-07-01T13:22:34Z</time>
      </trkpt>
      <trkpt lat="43.76028" lon="-0.0318">
        <ele>96.4</ele>
        <time>2023-07-01T13:22:40Z</time>
      </trkpt>
      <trkpt lat="43.7603" lon="-0.03173">
        <ele>96.8</ele>
        <time>2023-07-01T13:22:44Z</time>
      </trkpt>
      <trkpt lat="43.76031" lon="-0.03168">
        <ele>96.8</ele>
        <time>2023-07-01T13:22:47Z</time>
      </trkpt>
      <trkpt lat="43.76035" lon="-0.03158">
        <ele>96.4</ele>
        <time>2023-07-01T13:22:53Z</time>
      </trkpt>
      <trkpt lat="43.76036" lon="-0.03155">
        <ele>96.4</ele>
        <time>2023-07-01T13:22:55Z</time>
      </trkpt>
      <trkpt lat="43.76041" lon="-0.03149">
        <ele>96.6</ele>
        <time>2023-07-01T13:23:00Z</time>
      </trkpt>
      <trkpt lat="43.76042" lon="-0.03147">
        <ele>96.4</ele>
        <time>2023-07-01T13:23:01Z</time>
      </trkpt>
      <trkpt lat="43.76047" lon="-0.03143">
        <ele>96.4</ele>
        <time>2023-07-01T13:23:05Z</time>
      </trkpt>
      <trkpt lat="43.76048" lon="-0.03142">
        <ele>96.2</ele>
        <time>2023-07-01T13:23:06Z</time>
      </trkpt>
      <trkpt lat="43.76053" lon="-0.03137">
        <ele>96.2</ele>
        <time>2023-07-01T13:23:10Z</time>
      </trkpt>
      <trkpt lat="43.76055" lon="-0.03134">
        <ele>96.2</ele>
        <time>2023-07-01T13:23:12Z</time>
      </trkpt>
      <trkpt lat="43.76058" lon="-0.0313">
        <ele>96</ele>
        <time>2023-07-01T13:23:15Z</time>
      </trkpt>
      <trkpt lat="43.76062" lon="-0.03126">
        <ele>95.8</ele>
        <time>2023-07-01T13:23:18Z</time>
      </trkpt>
      <trkpt lat="43.76064" lon="-0.03124">
        <ele>95.6</ele>
        <time>2023-07-01T13:23:20Z</time>
      </trkpt>
      <trkpt lat="43.76066" lon="-0.03123">
        <ele>95.6</ele>
        <time>2023-07-01T13:23:21Z</time>
      </trkpt>
      <trkpt lat="43.76067" lon="-0.03122">
        <ele>95.6</ele>
        <time>2023-07-01T13:23:22Z</time>
      </trkpt>
      <trkpt lat="43.76067" lon="-0.03121">
        <ele>95.6</ele>
        <time>2023-07-01T13:23:23Z</time>
      </trkpt>
      <trkpt lat="43.76072" lon="-0.03115">
        <ele>95.4</ele>
        <time>2023-07-01T13:23:28Z</time>
      </trkpt>
      <trkpt lat="43.76076" lon="-0.03112">
        <ele>95.2</ele>
        <time>2023-07-01T13:23:31Z</time>
      </trkpt>
      <trkpt lat="43.76076" lon="-0.03111">
        <ele>95</ele>
        <time>2023-07-01T13:23:32Z</time>
      </trkpt>
      <trkpt lat="43.76078" lon="-0.03108">
        <ele>95</ele>
        <time>2023-07-01T13:23:34Z</time>
      </trkpt>
      <trkpt lat="43.7608" lon="-0.03104">
        <ele>95.2</ele>
        <time>2023-07-01T13:23:37Z</time>
      </trkpt>
      <trkpt lat="43.76084" lon="-0.03094">
        <ele>95.4</ele>
        <time>2023-07-01T13:23:41Z</time>
      </trkpt>
      <trkpt lat="43.76085" lon="-0.0309">
        <ele>95.2</ele>
        <time>2023-07-01T13:23:43Z</time>
      </trkpt>
      <trkpt lat="43.76086" lon="-0.03089">
        <ele>95</ele>
        <time>2023-07-01T13:23:45Z</time>
      </trkpt>
      <trkpt lat="43.76088" lon="-0.03085">
        <ele>95.2</ele>
        <time>2023-07-01T13:23:47Z</time>
      </trkpt>
      <trkpt lat="43.7609" lon="-0.03082">
        <ele>95.6</ele>
        <time>2023-07-01T13:23:50Z</time>
      </trkpt>
      <trkpt lat="43.76094" lon="-0.03081">
        <ele>95.6</ele>
        <time>2023-07-01T13:23:53Z</time>
      </trkpt>
      <trkpt lat="43.76102" lon="-0.0308">
        <ele>95.4</ele>
        <time>2023-07-01T13:23:58Z</time>
      </trkpt>
      <trkpt lat="43.76105" lon="-0.03079">
        <ele>95.6</ele>
        <time>2023-07-01T13:24:00Z</time>
      </trkpt>
      <trkpt lat="43.76109" lon="-0.03076">
        <ele>95.6</ele>
        <time>2023-07-01T13:24:04Z</time>
      </trkpt>
      <trkpt lat="43.76111" lon="-0.03074">
        <ele>95.6</ele>
        <time>2023-07-01T13:24:06Z</time>
      </trkpt>
      <trkpt lat="43.76111" lon="-0.03072">
        <ele>95.8</ele>
        <time>2023-07-01T13:24:07Z</time>
      </trkpt>
      <trkpt lat="43.76115" lon="-0.03067">
        <ele>96.2</ele>
        <time>2023-07-01T13:24:11Z</time>
      </trkpt>
      <trkpt lat="43.76118" lon="-0.03065">
        <ele>96.4</ele>
        <time>2023-07-01T13:24:13Z</time>
      </trkpt>
      <trkpt lat="43.76119" lon="-0.03063">
        <ele>96.6</ele>
        <time>2023-07-01T13:24:14Z</time>
      </trkpt>
      <trkpt lat="43.76124" lon="-0.0306">
        <ele>96.6</ele>
        <time>2023-07-01T13:24:18Z</time>
      </trkpt>
      <trkpt lat="43.76127" lon="-0.03058">
        <ele>96.4</ele>
        <time>2023-07-01T13:24:21Z</time>
      </trkpt>
      <trkpt lat="43.76131" lon="-0.03055">
        <ele>96.4</ele>
        <time>2023-07-01T13:24:24Z</time>
      </trkpt>
      <trkpt lat="43.76136" lon="-0.03052">
        <ele>96.4</ele>
        <time>2023-07-01T13:24:29Z</time>
      </trkpt>
      <trkpt lat="43.76137" lon="-0.03051">
        <ele>96.4</ele>
        <time>2023-07-01T13:24:30Z</time>
      </trkpt>
      <trkpt lat="43.76138" lon="-0.0305">
        <ele>96.2</ele>
        <time>2023-07-01T13:24:31Z</time>
      </trkpt>
      <trkpt lat="43.76138" lon="-0.03049">
        <ele>96.2</ele>
        <time>2023-07-01T13:24:32Z</time>
      </trkpt>
      <trkpt lat="43.76143" lon="-0.03031">
        <ele>96.4</ele>
        <time>2023-07-01T13:24:39Z</time>
      </trkpt>
      <trkpt lat="43.76143" lon="-0.0303">
        <ele>96.4</ele>
        <time>2023-07-01T13:24:40Z</time>
      </trkpt>
      <trkpt lat="43.76148" lon="-0.03026">
        <ele>96.6</ele>
        <time>2023-07-01T13:24:46Z</time>
      </trkpt>
      <trkpt lat="43.76155" lon="-0.03021">
        <ele>96.6</ele>
        <time>2023-07-01T13:24:53Z</time>
      </trkpt>
      <trkpt lat="43.76157" lon="-0.03018">
        <ele>96.6</ele>
        <time>2023-07-01T13:24:55Z</time>
      </trkpt>
      <trkpt lat="43.7616" lon="-0.03019">
        <ele>96.4</ele>
        <time>2023-07-01T13:24:57Z</time>
      </trkpt>
      <trkpt lat="43.76165" lon="-0.03018">
        <ele>96.6</ele>
        <time>2023-07-01T13:25:00Z</time>
      </trkpt>
      <trkpt lat="43.7617" lon="-0.03018">
        <ele>96.4</ele>
        <time>2023-07-01T13:25:03Z</time>
      </trkpt>
      <trkpt lat="43.76172" lon="-0.03018">
        <ele>96.6</ele>
        <time>2023-07-01T13:25:04Z</time>
      </trkpt>
      <trkpt lat="43.76176" lon="-0.03018">
        <ele>96.4</ele>
        <time>2023-07-01T13:25:07Z</time>
      </trkpt>
      <trkpt lat="43.76186" lon="-0.03022">
        <ele>97</ele>
        <time>2023-07-01T13:25:14Z</time>
      </trkpt>
      <trkpt lat="43.762" lon="-0.03027">
        <ele>96</ele>
        <time>2023-07-01T13:25:24Z</time>
      </trkpt>
      <trkpt lat="43.76202" lon="-0.0303">
        <ele>96</ele>
        <time>2023-07-01T13:25:26Z</time>
      </trkpt>
      <trkpt lat="43.76205" lon="-0.03034">
        <ele>96</ele>
        <time>2023-07-01T13:25:29Z</time>
      </trkpt>
      <trkpt lat="43.76208" lon="-0.03035">
        <ele>96</ele>
        <time>2023-07-01T13:25:32Z</time>
      </trkpt>
      <trkpt lat="43.76209" lon="-0.03036">
        <ele>96</ele>
        <time>2023-07-01T13:25:33Z</time>
      </trkpt>
      <trkpt lat="43.76217" lon="-0.03041">
        <ele>95.2</ele>
        <time>2023-07-01T13:25:40Z</time>
      </trkpt>
      <trkpt lat="43.76218" lon="-0.03042">
        <ele>95.2</ele>
        <time>2023-07-01T13:25:41Z</time>
      </trkpt>
      <trkpt lat="43.76227" lon="-0.03047">
        <ele>95.2</ele>
        <time>2023-07-01T13:25:47Z</time>
      </trkpt>
      <trkpt lat="43.76235" lon="-0.03053">
        <ele>95</ele>
        <time>2023-07-01T13:25:54Z</time>
      </trkpt>
      <trkpt lat="43.76238" lon="-0.03053">
        <ele>95</ele>
        <time>2023-07-01T13:25:56Z</time>
      </trkpt>
      <trkpt lat="43.76242" lon="-0.03052">
        <ele>95</ele>
        <time>2023-07-01T13:26:00Z</time>
      </trkpt>
      <trkpt lat="43.76242" lon="-0.03053">
        <ele>94.8</ele>
        <time>2023-07-01T13:26:01Z</time>
      </trkpt>
      <trkpt lat="43.76243" lon="-0.03053">
        <ele>94.6</ele>
        <time>2023-07-01T13:26:03Z</time>
      </trkpt>
      <trkpt lat="43.76244" lon="-0.03054">
        <ele>94.6</ele>
        <time>2023-07-01T13:26:04Z</time>
      </trkpt>
      <trkpt lat="43.76246" lon="-0.03055">
        <ele>94.4</ele>
        <time>2023-07-01T13:26:07Z</time>
      </trkpt>
      <trkpt lat="43.76255" lon="-0.0306">
        <ele>94.4</ele>
        <time>2023-07-01T13:26:14Z</time>
      </trkpt>
      <trkpt lat="43.76257" lon="-0.03062">
        <ele>94.4</ele>
        <time>2023-07-01T13:26:15Z</time>
      </trkpt>
      <trkpt lat="43.76259" lon="-0.03064">
        <ele>94.2</ele>
        <time>2023-07-01T13:26:16Z</time>
      </trkpt>
      <trkpt lat="43.76265" lon="-0.03068">
        <ele>94</ele>
        <time>2023-07-01T13:26:20Z</time>
      </trkpt>
      <trkpt lat="43.76274" lon="-0.03074">
        <ele>94</ele>
        <time>2023-07-01T13:26:26Z</time>
      </trkpt>
      <trkpt lat="43.76278" lon="-0.03076">
        <ele>94</ele>
        <time>2023-07-01T13:26:29Z</time>
      </trkpt>
      <trkpt lat="43.76279" lon="-0.03078">
        <ele>94</ele>
        <time>2023-07-01T13:26:30Z</time>
      </trkpt>
      <trkpt lat="43.76287" lon="-0.03084">
        <ele>93.2</ele>
        <time>2023-07-01T13:26:36Z</time>
      </trkpt>
      <trkpt lat="43.76291" lon="-0.03087">
        <ele>93.2</ele>
        <time>2023-07-01T13:26:39Z</time>
      </trkpt>
      <trkpt lat="43.76292" lon="-0.03088">
        <ele>93.2</ele>
        <time>2023-07-01T13:26:40Z</time>
      </trkpt>
      <trkpt lat="43.76295" lon="-0.03089">
        <ele>93</ele>
        <time>2023-07-01T13:26:42Z</time>
      </trkpt>
      <trkpt lat="43.76296" lon="-0.0309">
        <ele>92.8</ele>
        <time>2023-07-01T13:26:43Z</time>
      </trkpt>
      <trkpt lat="43.76305" lon="-0.03094">
        <ele>92.4</ele>
        <time>2023-07-01T13:26:51Z</time>
      </trkpt>
      <trkpt lat="43.76312" lon="-0.03099">
        <ele>92.6</ele>
        <time>2023-07-01T13:26:57Z</time>
      </trkpt>
      <trkpt lat="43.76313" lon="-0.031">
        <ele>92.6</ele>
        <time>2023-07-01T13:26:58Z</time>
      </trkpt>
      <trkpt lat="43.76318" lon="-0.03103">
        <ele>92.4</ele>
        <time>2023-07-01T13:27:01Z</time>
      </trkpt>
      <trkpt lat="43.76319" lon="-0.03104">
        <ele>92.2</ele>
        <time>2023-07-01T13:27:02Z</time>
      </trkpt>
      <trkpt lat="43.76321" lon="-0.03106">
        <ele>92</ele>
        <time>2023-07-01T13:27:04Z</time>
      </trkpt>
      <trkpt lat="43.76324" lon="-0.03107">
        <ele>92</ele>
        <time>2023-07-01T13:27:06Z</time>
      </trkpt>
      <trkpt lat="43.76331" lon="-0.03112">
        <ele>92</ele>
        <time>2023-07-01T13:27:13Z</time>
      </trkpt>
      <trkpt lat="43.76339" lon="-0.03117">
        <ele>91.6</ele>
        <time>2023-07-01T13:27:20Z</time>
      </trkpt>
      <trkpt lat="43.7634" lon="-0.03117">
        <ele>91.6</ele>
        <time>2023-07-01T13:27:21Z</time>
      </trkpt>
      <trkpt lat="43.76348" lon="-0.03124">
        <ele>91.4</ele>
        <time>2023-07-01T13:27:28Z</time>
      </trkpt>
      <trkpt lat="43.76361" lon="-0.03132">
        <ele>91.8</ele>
        <time>2023-07-01T13:27:37Z</time>
      </trkpt>
      <trkpt lat="43.76372" lon="-0.03138">
        <ele>92.8</ele>
        <time>2023-07-01T13:27:45Z</time>
      </trkpt>
      <trkpt lat="43.76383" lon="-0.03145">
        <ele>92.4</ele>
        <time>2023-07-01T13:27:53Z</time>
      </trkpt>
      <trkpt lat="43.76385" lon="-0.03146">
        <ele>92.2</ele>
        <time>2023-07-01T13:27:55Z</time>
      </trkpt>
      <trkpt lat="43.76393" lon="-0.0315">
        <ele>91.8</ele>
        <time>2023-07-01T13:28:00Z</time>
      </trkpt>
      <trkpt lat="43.76395" lon="-0.03152">
        <ele>91.8</ele>
        <time>2023-07-01T13:28:02Z</time>
      </trkpt>
      <trkpt lat="43.76403" lon="-0.03157">
        <ele>92.2</ele>
        <time>2023-07-01T13:28:09Z</time>
      </trkpt>
      <trkpt lat="43.76412" lon="-0.03162">
        <ele>92</ele>
        <time>2023-07-01T13:28:16Z</time>
      </trkpt>
      <trkpt lat="43.76419" lon="-0.03166">
        <ele>92.6</ele>
        <time>2023-07-01T13:28:21Z</time>
      </trkpt>
      <trkpt lat="43.76424" lon="-0.03168">
        <ele>92.6</ele>
        <time>2023-07-01T13:28:25Z</time>
      </trkpt>
      <trkpt lat="43.76427" lon="-0.0317">
        <ele>92.6</ele>
        <time>2023-07-01T13:28:28Z</time>
      </trkpt>
      <trkpt lat="43.76431" lon="-0.03173">
        <ele>92.8</ele>
        <time>2023-07-01T13:28:31Z</time>
      </trkpt>
      <trkpt lat="43.76432" lon="-0.03173">
        <ele>92.6</ele>
        <time>2023-07-01T13:28:32Z</time>
      </trkpt>
      <trkpt lat="43.76434" lon="-0.03173">
        <ele>92.6</ele>
        <time>2023-07-01T13:28:33Z</time>
      </trkpt>
      <trkpt lat="43.76438" lon="-0.03175">
        <ele>92.4</ele>
        <time>2023-07-01T13:28:37Z</time>
      </trkpt>
      <trkpt lat="43.7644" lon="-0.03176">
        <ele>92.2</ele>
        <time>2023-07-01T13:28:38Z</time>
      </trkpt>
      <trkpt lat="43.76443" lon="-0.03178">
        <ele>92.4</ele>
        <time>2023-07-01T13:28:41Z</time>
      </trkpt>
      <trkpt lat="43.76444" lon="-0.03179">
        <ele>92.4</ele>
        <time>2023-07-01T13:28:42Z</time>
      </trkpt>
      <trkpt lat="43.76448" lon="-0.03181">
        <ele>92.8</ele>
        <time>2023-07-01T13:28:45Z</time>
      </trkpt>
      <trkpt lat="43.76453" lon="-0.03184">
        <ele>93.2</ele>
        <time>2023-07-01T13:28:48Z</time>
      </trkpt>
      <trkpt lat="43.76455" lon="-0.03186">
        <ele>93.6</ele>
        <time>2023-07-01T13:28:50Z</time>
      </trkpt>
      <trkpt lat="43.76466" lon="-0.0319">
        <ele>93.6</ele>
        <time>2023-07-01T13:28:58Z</time>
      </trkpt>
      <trkpt lat="43.76476" lon="-0.03194">
        <ele>93.2</ele>
        <time>2023-07-01T13:29:06Z</time>
      </trkpt>
      <trkpt lat="43.76483" lon="-0.03194">
        <ele>92.8</ele>
        <time>2023-07-01T13:29:12Z</time>
      </trkpt>
      <trkpt lat="43.76483" lon="-0.03197">
        <ele>92.8</ele>
        <time>2023-07-01T13:29:14Z</time>
      </trkpt>
      <trkpt lat="43.76487" lon="-0.03211">
        <ele>93.2</ele>
        <time>2023-07-01T13:29:24Z</time>
      </trkpt>
      <trkpt lat="43.76488" lon="-0.03216">
        <ele>93.4</ele>
        <time>2023-07-01T13:29:27Z</time>
      </trkpt>
      <trkpt lat="43.76489" lon="-0.03225">
        <ele>93.2</ele>
        <time>2023-07-01T13:29:32Z</time>
      </trkpt>
      <trkpt lat="43.76489" lon="-0.03241">
        <ele>93.2</ele>
        <time>2023-07-01T13:29:40Z</time>
      </trkpt>
      <trkpt lat="43.76491" lon="-0.03259">
        <ele>93.4</ele>
        <time>2023-07-01T13:29:49Z</time>
      </trkpt>
      <trkpt lat="43.76493" lon="-0.03272">
        <ele>93.6</ele>
        <time>2023-07-01T13:29:55Z</time>
      </trkpt>
      <trkpt lat="43.76493" lon="-0.03276">
        <ele>93.6</ele>
        <time>2023-07-01T13:29:57Z</time>
      </trkpt>
      <trkpt lat="43.76496" lon="-0.0329">
        <ele>93.4</ele>
        <time>2023-07-01T13:30:06Z</time>
      </trkpt>
      <trkpt lat="43.76496" lon="-0.03295">
        <ele>93.4</ele>
        <time>2023-07-01T13:30:09Z</time>
      </trkpt>
      <trkpt lat="43.76496" lon="-0.03299">
        <ele>93.2</ele>
        <time>2023-07-01T13:30:12Z</time>
      </trkpt>
      <trkpt lat="43.76498" lon="-0.03302">
        <ele>93.4</ele>
        <time>2023-07-01T13:30:14Z</time>
      </trkpt>
      <trkpt lat="43.76501" lon="-0.03303">
        <ele>93.8</ele>
        <time>2023-07-01T13:30:17Z</time>
      </trkpt>
      <trkpt lat="43.76503" lon="-0.03304">
        <ele>93.8</ele>
        <time>2023-07-01T13:30:19Z</time>
      </trkpt>
      <trkpt lat="43.76504" lon="-0.03305">
        <ele>93.8</ele>
        <time>2023-07-01T13:30:20Z</time>
      </trkpt>
      <trkpt lat="43.76507" lon="-0.03305">
        <ele>93.6</ele>
        <time>2023-07-01T13:30:23Z</time>
      </trkpt>
      <trkpt lat="43.76509" lon="-0.03306">
        <ele>93.6</ele>
        <time>2023-07-01T13:30:25Z</time>
      </trkpt>
      <trkpt lat="43.7651" lon="-0.03306">
        <ele>93.4</ele>
        <time>2023-07-01T13:30:26Z</time>
      </trkpt>
    </trkseg>
  </trk>
</gpx>